<?xml version="1.0" encoding="UTF-8" standalone="no" ?>
<gpx xmlns="http://www.topografix.com/GPX/1/1" xmlns:xsi="http://www.w3.org/2001/XMLSchema-instance" xsi:schemaLocation="http://www.topografix.com/GPX/1/1 http://www.topografix.com/GPX/1/1/gpx.xsd" version="1.1" creator="VisuGPX - https://www.visugpx.com">
  <metadata>
    <name>VTT La Combe 👍</name>
    <desc><![CDATA[VTT La Combe à la Serpent. Petite balade de 1h15]]></desc>
  </metadata>
  <trk>
    <name><![CDATA[VTT La Combe 👍]]></name>
    <extensions>
      <line xmlns="http://www.topografix.com/GPX/gpx_style/0/2">
        <color>0000FF</color>
        <width>4</width>
      </line>
    </extensions>
    <trkseg>
      <trkpt lat="47.32178" lon="5.02161">
        <ele>252</ele>
        <time>2024-10-14T07:56:31.000Z</time>
      </trkpt>
      <trkpt lat="47.32244" lon="5.01417">
        <ele>249.2</ele>
        <time>2024-10-14T07:56:31.094Z</time>
      </trkpt>
      <trkpt lat="47.32249" lon="5.0141">
        <ele>249.6</ele>
        <time>2024-10-14T07:56:31.190Z</time>
      </trkpt>
      <trkpt lat="47.3225" lon="5.01405">
        <ele>249.6</ele>
        <time>2024-10-14T07:56:31.286Z</time>
      </trkpt>
      <trkpt lat="47.3225" lon="5.01399">
        <ele>249.4</ele>
        <time>2024-10-14T07:56:31.383Z</time>
      </trkpt>
      <trkpt lat="47.32251" lon="5.01393">
        <ele>248.8</ele>
        <time>2024-10-14T07:56:31.481Z</time>
      </trkpt>
      <trkpt lat="47.32251" lon="5.01387">
        <ele>248.6</ele>
        <time>2024-10-14T07:56:31.579Z</time>
      </trkpt>
      <trkpt lat="47.32252" lon="5.0138">
        <ele>248.6</ele>
        <time>2024-10-14T07:56:31.678Z</time>
      </trkpt>
      <trkpt lat="47.32252" lon="5.01372">
        <ele>248.4</ele>
        <time>2024-10-14T07:56:31.778Z</time>
      </trkpt>
      <trkpt lat="47.32252" lon="5.01364">
        <ele>247.6</ele>
        <time>2024-10-14T07:56:31.879Z</time>
      </trkpt>
      <trkpt lat="47.32253" lon="5.01355">
        <ele>247.2</ele>
        <time>2024-10-14T07:56:31.981Z</time>
      </trkpt>
      <trkpt lat="47.32253" lon="5.01345">
        <ele>246.4</ele>
        <time>2024-10-14T07:56:32.085Z</time>
      </trkpt>
      <trkpt lat="47.32254" lon="5.01336">
        <ele>246.4</ele>
        <time>2024-10-14T07:56:32.190Z</time>
      </trkpt>
      <trkpt lat="47.32254" lon="5.01327">
        <ele>246.2</ele>
        <time>2024-10-14T07:56:32.296Z</time>
      </trkpt>
      <trkpt lat="47.32254" lon="5.01317">
        <ele>246</ele>
        <time>2024-10-14T07:56:32.403Z</time>
      </trkpt>
      <trkpt lat="47.32255" lon="5.01308">
        <ele>246</ele>
        <time>2024-10-14T07:56:32.511Z</time>
      </trkpt>
      <trkpt lat="47.32255" lon="5.01297">
        <ele>245.8</ele>
        <time>2024-10-14T07:56:32.621Z</time>
      </trkpt>
      <trkpt lat="47.32256" lon="5.01288">
        <ele>245.8</ele>
        <time>2024-10-14T07:56:32.732Z</time>
      </trkpt>
      <trkpt lat="47.32256" lon="5.01278">
        <ele>245.6</ele>
        <time>2024-10-14T07:56:32.844Z</time>
      </trkpt>
      <trkpt lat="47.32257" lon="5.01268">
        <ele>245.4</ele>
        <time>2024-10-14T07:56:32.957Z</time>
      </trkpt>
      <trkpt lat="47.32257" lon="5.01258">
        <ele>245.4</ele>
        <time>2024-10-14T07:56:33.072Z</time>
      </trkpt>
      <trkpt lat="47.32258" lon="5.01248">
        <ele>245.4</ele>
        <time>2024-10-14T07:56:33.188Z</time>
      </trkpt>
      <trkpt lat="47.32258" lon="5.01239">
        <ele>245.4</ele>
        <time>2024-10-14T07:56:33.305Z</time>
      </trkpt>
      <trkpt lat="47.32258" lon="5.01229">
        <ele>245.2</ele>
        <time>2024-10-14T07:56:33.423Z</time>
      </trkpt>
      <trkpt lat="47.32259" lon="5.0122">
        <ele>245</ele>
        <time>2024-10-14T07:56:33.542Z</time>
      </trkpt>
      <trkpt lat="47.32259" lon="5.01211">
        <ele>245</ele>
        <time>2024-10-14T07:56:33.663Z</time>
      </trkpt>
      <trkpt lat="47.3226" lon="5.01202">
        <ele>244.8</ele>
        <time>2024-10-14T07:56:33.785Z</time>
      </trkpt>
      <trkpt lat="47.3226" lon="5.01193">
        <ele>244.8</ele>
        <time>2024-10-14T07:56:33.908Z</time>
      </trkpt>
      <trkpt lat="47.32256" lon="5.01183">
        <ele>244.6</ele>
        <time>2024-10-14T07:56:34.032Z</time>
      </trkpt>
      <trkpt lat="47.32256" lon="5.01174">
        <ele>244.6</ele>
        <time>2024-10-14T07:56:34.157Z</time>
      </trkpt>
      <trkpt lat="47.32257" lon="5.01164">
        <ele>244.4</ele>
        <time>2024-10-14T07:56:34.284Z</time>
      </trkpt>
      <trkpt lat="47.32258" lon="5.01154">
        <ele>244.2</ele>
        <time>2024-10-14T07:56:34.412Z</time>
      </trkpt>
      <trkpt lat="47.32258" lon="5.01145">
        <ele>244.2</ele>
        <time>2024-10-14T07:56:34.541Z</time>
      </trkpt>
      <trkpt lat="47.32259" lon="5.01135">
        <ele>244.2</ele>
        <time>2024-10-14T07:56:34.671Z</time>
      </trkpt>
      <trkpt lat="47.3226" lon="5.01125">
        <ele>244</ele>
        <time>2024-10-14T07:56:34.803Z</time>
      </trkpt>
      <trkpt lat="47.32261" lon="5.01114">
        <ele>243.8</ele>
        <time>2024-10-14T07:56:34.936Z</time>
      </trkpt>
      <trkpt lat="47.32262" lon="5.01104">
        <ele>243.6</ele>
        <time>2024-10-14T07:56:35.070Z</time>
      </trkpt>
      <trkpt lat="47.32263" lon="5.01094">
        <ele>243.2</ele>
        <time>2024-10-14T07:56:35.206Z</time>
      </trkpt>
      <trkpt lat="47.32254" lon="5.01081">
        <ele>243.2</ele>
        <time>2024-10-14T07:56:35.344Z</time>
      </trkpt>
      <trkpt lat="47.32255" lon="5.01072">
        <ele>243.2</ele>
        <time>2024-10-14T07:56:35.483Z</time>
      </trkpt>
      <trkpt lat="47.32257" lon="5.01061">
        <ele>243.4</ele>
        <time>2024-10-14T07:56:35.623Z</time>
      </trkpt>
      <trkpt lat="47.32265" lon="5.01055">
        <ele>246</ele>
        <time>2024-10-14T07:56:35.765Z</time>
      </trkpt>
      <trkpt lat="47.32267" lon="5.01046">
        <ele>247.6</ele>
        <time>2024-10-14T07:56:35.908Z</time>
      </trkpt>
      <trkpt lat="47.3227" lon="5.01037">
        <ele>247.8</ele>
        <time>2024-10-14T07:56:36.053Z</time>
      </trkpt>
      <trkpt lat="47.32271" lon="5.01032">
        <ele>247.8</ele>
        <time>2024-10-14T07:56:36.198Z</time>
      </trkpt>
      <trkpt lat="47.32272" lon="5.01016">
        <ele>248</ele>
        <time>2024-10-14T07:56:36.345Z</time>
      </trkpt>
      <trkpt lat="47.32275" lon="5.01009">
        <ele>247.8</ele>
        <time>2024-10-14T07:56:36.493Z</time>
      </trkpt>
      <trkpt lat="47.3228" lon="5.01">
        <ele>247.8</ele>
        <time>2024-10-14T07:56:36.643Z</time>
      </trkpt>
      <trkpt lat="47.32284" lon="5.00993">
        <ele>247.6</ele>
        <time>2024-10-14T07:56:36.794Z</time>
      </trkpt>
      <trkpt lat="47.32289" lon="5.00985">
        <ele>247.6</ele>
        <time>2024-10-14T07:56:36.946Z</time>
      </trkpt>
      <trkpt lat="47.32293" lon="5.00978">
        <ele>247.4</ele>
        <time>2024-10-14T07:56:37.099Z</time>
      </trkpt>
      <trkpt lat="47.32297" lon="5.00971">
        <ele>247.2</ele>
        <time>2024-10-14T07:56:37.253Z</time>
      </trkpt>
      <trkpt lat="47.32302" lon="5.00964">
        <ele>247</ele>
        <time>2024-10-14T07:56:37.409Z</time>
      </trkpt>
      <trkpt lat="47.32306" lon="5.00957">
        <ele>245.4</ele>
        <time>2024-10-14T07:56:37.566Z</time>
      </trkpt>
      <trkpt lat="47.32312" lon="5.0095">
        <ele>242.2</ele>
        <time>2024-10-14T07:56:37.724Z</time>
      </trkpt>
      <trkpt lat="47.32316" lon="5.00943">
        <ele>241.8</ele>
        <time>2024-10-14T07:56:37.883Z</time>
      </trkpt>
      <trkpt lat="47.32321" lon="5.00938">
        <ele>241.8</ele>
        <time>2024-10-14T07:56:38.044Z</time>
      </trkpt>
      <trkpt lat="47.32322" lon="5.00936">
        <ele>241.8</ele>
        <time>2024-10-14T07:56:38.205Z</time>
      </trkpt>
      <trkpt lat="47.32343" lon="5.00923">
        <ele>241.8</ele>
        <time>2024-10-14T07:56:38.370Z</time>
      </trkpt>
      <trkpt lat="47.32347" lon="5.00917">
        <ele>241.8</ele>
        <time>2024-10-14T07:56:38.536Z</time>
      </trkpt>
      <trkpt lat="47.32351" lon="5.00911">
        <ele>241.8</ele>
        <time>2024-10-14T07:56:38.703Z</time>
      </trkpt>
      <trkpt lat="47.32356" lon="5.00905">
        <ele>241.8</ele>
        <time>2024-10-14T07:56:38.871Z</time>
      </trkpt>
      <trkpt lat="47.3236" lon="5.00899">
        <ele>241.8</ele>
        <time>2024-10-14T07:56:39.040Z</time>
      </trkpt>
      <trkpt lat="47.32365" lon="5.00894">
        <ele>241.6</ele>
        <time>2024-10-14T07:56:39.211Z</time>
      </trkpt>
      <trkpt lat="47.32371" lon="5.00891">
        <ele>241.6</ele>
        <time>2024-10-14T07:56:39.383Z</time>
      </trkpt>
      <trkpt lat="47.32376" lon="5.00887">
        <ele>241.8</ele>
        <time>2024-10-14T07:56:39.556Z</time>
      </trkpt>
      <trkpt lat="47.32381" lon="5.00885">
        <ele>241.8</ele>
        <time>2024-10-14T07:56:39.730Z</time>
      </trkpt>
      <trkpt lat="47.32383" lon="5.00884">
        <ele>242.2</ele>
        <time>2024-10-14T07:56:39.904Z</time>
      </trkpt>
      <trkpt lat="47.32378" lon="5.0087">
        <ele>243.4</ele>
        <time>2024-10-14T07:56:40.080Z</time>
      </trkpt>
      <trkpt lat="47.32382" lon="5.00854">
        <ele>244.8</ele>
        <time>2024-10-14T07:56:40.258Z</time>
      </trkpt>
      <trkpt lat="47.32372" lon="5.00863">
        <ele>245.2</ele>
        <time>2024-10-14T07:56:40.438Z</time>
      </trkpt>
      <trkpt lat="47.32372" lon="5.00862">
        <ele>245.2</ele>
        <time>2024-10-14T07:56:40.619Z</time>
      </trkpt>
      <trkpt lat="47.32373" lon="5.00859">
        <ele>245.2</ele>
        <time>2024-10-14T07:56:40.800Z</time>
      </trkpt>
      <trkpt lat="47.32374" lon="5.00857">
        <ele>245.2</ele>
        <time>2024-10-14T07:56:40.981Z</time>
      </trkpt>
      <trkpt lat="47.32376" lon="5.00852">
        <ele>245</ele>
        <time>2024-10-14T07:56:41.163Z</time>
      </trkpt>
      <trkpt lat="47.32377" lon="5.00847">
        <ele>245</ele>
        <time>2024-10-14T07:56:41.346Z</time>
      </trkpt>
      <trkpt lat="47.32379" lon="5.00842">
        <ele>244.8</ele>
        <time>2024-10-14T07:56:41.529Z</time>
      </trkpt>
      <trkpt lat="47.3238" lon="5.00838">
        <ele>244.6</ele>
        <time>2024-10-14T07:56:41.713Z</time>
      </trkpt>
      <trkpt lat="47.32382" lon="5.00834">
        <ele>244.6</ele>
        <time>2024-10-14T07:56:41.898Z</time>
      </trkpt>
      <trkpt lat="47.32382" lon="5.00833">
        <ele>244.4</ele>
        <time>2024-10-14T07:56:42.083Z</time>
      </trkpt>
      <trkpt lat="47.32388" lon="5.00808">
        <ele>243</ele>
        <time>2024-10-14T07:56:42.271Z</time>
      </trkpt>
      <trkpt lat="47.3239" lon="5.00801">
        <ele>242.6</ele>
        <time>2024-10-14T07:56:42.460Z</time>
      </trkpt>
      <trkpt lat="47.32391" lon="5.00796">
        <ele>242.4</ele>
        <time>2024-10-14T07:56:42.650Z</time>
      </trkpt>
      <trkpt lat="47.32397" lon="5.00794">
        <ele>242.4</ele>
        <time>2024-10-14T07:56:42.841Z</time>
      </trkpt>
      <trkpt lat="47.32401" lon="5.00792">
        <ele>242.4</ele>
        <time>2024-10-14T07:56:43.033Z</time>
      </trkpt>
      <trkpt lat="47.32405" lon="5.0079">
        <ele>242.4</ele>
        <time>2024-10-14T07:56:43.225Z</time>
      </trkpt>
      <trkpt lat="47.32409" lon="5.00788">
        <ele>242.6</ele>
        <time>2024-10-14T07:56:43.418Z</time>
      </trkpt>
      <trkpt lat="47.32414" lon="5.00786">
        <ele>242.8</ele>
        <time>2024-10-14T07:56:43.612Z</time>
      </trkpt>
      <trkpt lat="47.32418" lon="5.00784">
        <ele>242.8</ele>
        <time>2024-10-14T07:56:43.807Z</time>
      </trkpt>
      <trkpt lat="47.32423" lon="5.00776">
        <ele>243</ele>
        <time>2024-10-14T07:56:44.003Z</time>
      </trkpt>
      <trkpt lat="47.32423" lon="5.0077">
        <ele>242.8</ele>
        <time>2024-10-14T07:56:44.200Z</time>
      </trkpt>
      <trkpt lat="47.32422" lon="5.00762">
        <ele>242.8</ele>
        <time>2024-10-14T07:56:44.398Z</time>
      </trkpt>
      <trkpt lat="47.32422" lon="5.00756">
        <ele>243</ele>
        <time>2024-10-14T07:56:44.597Z</time>
      </trkpt>
      <trkpt lat="47.32421" lon="5.0075">
        <ele>243</ele>
        <time>2024-10-14T07:56:44.797Z</time>
      </trkpt>
      <trkpt lat="47.32419" lon="5.00743">
        <ele>243.2</ele>
        <time>2024-10-14T07:56:44.997Z</time>
      </trkpt>
      <trkpt lat="47.32418" lon="5.00737">
        <ele>243.6</ele>
        <time>2024-10-14T07:56:45.198Z</time>
      </trkpt>
      <trkpt lat="47.32416" lon="5.0073">
        <ele>243.8</ele>
        <time>2024-10-14T07:56:45.400Z</time>
      </trkpt>
      <trkpt lat="47.32414" lon="5.00723">
        <ele>244</ele>
        <time>2024-10-14T07:56:45.603Z</time>
      </trkpt>
      <trkpt lat="47.32412" lon="5.00716">
        <ele>244</ele>
        <time>2024-10-14T07:56:45.807Z</time>
      </trkpt>
      <trkpt lat="47.3241" lon="5.00709">
        <ele>244</ele>
        <time>2024-10-14T07:56:46.012Z</time>
      </trkpt>
      <trkpt lat="47.32408" lon="5.00702">
        <ele>243.8</ele>
        <time>2024-10-14T07:56:46.218Z</time>
      </trkpt>
      <trkpt lat="47.32406" lon="5.00695">
        <ele>243.6</ele>
        <time>2024-10-14T07:56:46.425Z</time>
      </trkpt>
      <trkpt lat="47.32404" lon="5.00688">
        <ele>243.2</ele>
        <time>2024-10-14T07:56:46.633Z</time>
      </trkpt>
      <trkpt lat="47.32402" lon="5.0068">
        <ele>243.2</ele>
        <time>2024-10-14T07:56:46.842Z</time>
      </trkpt>
      <trkpt lat="47.324" lon="5.00673">
        <ele>243.2</ele>
        <time>2024-10-14T07:56:47.052Z</time>
      </trkpt>
      <trkpt lat="47.32398" lon="5.00666">
        <ele>243</ele>
        <time>2024-10-14T07:56:47.263Z</time>
      </trkpt>
      <trkpt lat="47.32395" lon="5.00659">
        <ele>243</ele>
        <time>2024-10-14T07:56:47.475Z</time>
      </trkpt>
      <trkpt lat="47.32393" lon="5.00651">
        <ele>243</ele>
        <time>2024-10-14T07:56:47.688Z</time>
      </trkpt>
      <trkpt lat="47.32391" lon="5.00644">
        <ele>243</ele>
        <time>2024-10-14T07:56:47.902Z</time>
      </trkpt>
      <trkpt lat="47.32389" lon="5.00637">
        <ele>243</ele>
        <time>2024-10-14T07:56:48.117Z</time>
      </trkpt>
      <trkpt lat="47.32387" lon="5.0063">
        <ele>243</ele>
        <time>2024-10-14T07:56:48.333Z</time>
      </trkpt>
      <trkpt lat="47.32385" lon="5.00623">
        <ele>243</ele>
        <time>2024-10-14T07:56:48.550Z</time>
      </trkpt>
      <trkpt lat="47.32383" lon="5.00616">
        <ele>243.2</ele>
        <time>2024-10-14T07:56:48.768Z</time>
      </trkpt>
      <trkpt lat="47.32381" lon="5.0061">
        <ele>243.4</ele>
        <time>2024-10-14T07:56:48.987Z</time>
      </trkpt>
      <trkpt lat="47.32375" lon="5.00607">
        <ele>243.4</ele>
        <time>2024-10-14T07:56:49.207Z</time>
      </trkpt>
      <trkpt lat="47.32371" lon="5.00606">
        <ele>243.8</ele>
        <time>2024-10-14T07:56:49.428Z</time>
      </trkpt>
      <trkpt lat="47.32366" lon="5.00606">
        <ele>244.6</ele>
        <time>2024-10-14T07:56:49.649Z</time>
      </trkpt>
      <trkpt lat="47.32361" lon="5.00605">
        <ele>245</ele>
        <time>2024-10-14T07:56:49.871Z</time>
      </trkpt>
      <trkpt lat="47.32356" lon="5.00605">
        <ele>245.4</ele>
        <time>2024-10-14T07:56:50.094Z</time>
      </trkpt>
      <trkpt lat="47.32352" lon="5.00604">
        <ele>245.8</ele>
        <time>2024-10-14T07:56:50.318Z</time>
      </trkpt>
      <trkpt lat="47.32348" lon="5.00604">
        <ele>246</ele>
        <time>2024-10-14T07:56:50.543Z</time>
      </trkpt>
      <trkpt lat="47.32344" lon="5.00603">
        <ele>246</ele>
        <time>2024-10-14T07:56:50.769Z</time>
      </trkpt>
      <trkpt lat="47.3234" lon="5.00589">
        <ele>246</ele>
        <time>2024-10-14T07:56:50.996Z</time>
      </trkpt>
      <trkpt lat="47.32339" lon="5.00581">
        <ele>245.8</ele>
        <time>2024-10-14T07:56:51.224Z</time>
      </trkpt>
      <trkpt lat="47.32339" lon="5.00574">
        <ele>245.6</ele>
        <time>2024-10-14T07:56:51.453Z</time>
      </trkpt>
      <trkpt lat="47.32339" lon="5.00568">
        <ele>245.4</ele>
        <time>2024-10-14T07:56:51.683Z</time>
      </trkpt>
      <trkpt lat="47.3234" lon="5.00561">
        <ele>244.8</ele>
        <time>2024-10-14T07:56:51.914Z</time>
      </trkpt>
      <trkpt lat="47.32341" lon="5.00554">
        <ele>244.6</ele>
        <time>2024-10-14T07:56:52.146Z</time>
      </trkpt>
      <trkpt lat="47.32342" lon="5.00546">
        <ele>244.6</ele>
        <time>2024-10-14T07:56:52.379Z</time>
      </trkpt>
      <trkpt lat="47.32342" lon="5.00539">
        <ele>244.6</ele>
        <time>2024-10-14T07:56:52.613Z</time>
      </trkpt>
      <trkpt lat="47.32343" lon="5.00532">
        <ele>244.8</ele>
        <time>2024-10-14T07:56:52.848Z</time>
      </trkpt>
      <trkpt lat="47.32344" lon="5.00524">
        <ele>245.2</ele>
        <time>2024-10-14T07:56:53.084Z</time>
      </trkpt>
      <trkpt lat="47.32345" lon="5.00517">
        <ele>245.2</ele>
        <time>2024-10-14T07:56:53.321Z</time>
      </trkpt>
      <trkpt lat="47.32346" lon="5.00509">
        <ele>245.2</ele>
        <time>2024-10-14T07:56:53.559Z</time>
      </trkpt>
      <trkpt lat="47.32347" lon="5.00501">
        <ele>245.2</ele>
        <time>2024-10-14T07:56:53.798Z</time>
      </trkpt>
      <trkpt lat="47.32348" lon="5.00493">
        <ele>245.2</ele>
        <time>2024-10-14T07:56:54.038Z</time>
      </trkpt>
      <trkpt lat="47.3235" lon="5.00485">
        <ele>245</ele>
        <time>2024-10-14T07:56:54.279Z</time>
      </trkpt>
      <trkpt lat="47.32352" lon="5.00477">
        <ele>245</ele>
        <time>2024-10-14T07:56:54.521Z</time>
      </trkpt>
      <trkpt lat="47.32354" lon="5.0047">
        <ele>244.8</ele>
        <time>2024-10-14T07:56:54.764Z</time>
      </trkpt>
      <trkpt lat="47.32356" lon="5.00462">
        <ele>244.6</ele>
        <time>2024-10-14T07:56:55.008Z</time>
      </trkpt>
      <trkpt lat="47.32358" lon="5.00455">
        <ele>244.6</ele>
        <time>2024-10-14T07:56:55.253Z</time>
      </trkpt>
      <trkpt lat="47.3236" lon="5.00448">
        <ele>244.8</ele>
        <time>2024-10-14T07:56:55.499Z</time>
      </trkpt>
      <trkpt lat="47.32362" lon="5.00441">
        <ele>244.8</ele>
        <time>2024-10-14T07:56:55.746Z</time>
      </trkpt>
      <trkpt lat="47.32364" lon="5.00434">
        <ele>244.8</ele>
        <time>2024-10-14T07:56:55.994Z</time>
      </trkpt>
      <trkpt lat="47.32367" lon="5.00427">
        <ele>245</ele>
        <time>2024-10-14T07:56:56.243Z</time>
      </trkpt>
      <trkpt lat="47.32369" lon="5.0042">
        <ele>245.2</ele>
        <time>2024-10-14T07:56:56.493Z</time>
      </trkpt>
      <trkpt lat="47.32371" lon="5.00414">
        <ele>245.2</ele>
        <time>2024-10-14T07:56:56.743Z</time>
      </trkpt>
      <trkpt lat="47.32372" lon="5.00408">
        <ele>245.4</ele>
        <time>2024-10-14T07:56:56.994Z</time>
      </trkpt>
      <trkpt lat="47.32372" lon="5.00403">
        <ele>245.8</ele>
        <time>2024-10-14T07:56:57.246Z</time>
      </trkpt>
      <trkpt lat="47.32372" lon="5.00399">
        <ele>246.4</ele>
        <time>2024-10-14T07:56:57.498Z</time>
      </trkpt>
      <trkpt lat="47.32373" lon="5.00397">
        <ele>246.8</ele>
        <time>2024-10-14T07:56:57.751Z</time>
      </trkpt>
      <trkpt lat="47.32373" lon="5.00395">
        <ele>247</ele>
        <time>2024-10-14T07:56:58.004Z</time>
      </trkpt>
      <trkpt lat="47.32373" lon="5.00393">
        <ele>247.2</ele>
        <time>2024-10-14T07:56:58.257Z</time>
      </trkpt>
      <trkpt lat="47.32367" lon="5.00381">
        <ele>247.2</ele>
        <time>2024-10-14T07:56:58.512Z</time>
      </trkpt>
      <trkpt lat="47.32364" lon="5.00382">
        <ele>247.2</ele>
        <time>2024-10-14T07:56:58.767Z</time>
      </trkpt>
      <trkpt lat="47.3236" lon="5.00383">
        <ele>247</ele>
        <time>2024-10-14T07:56:59.023Z</time>
      </trkpt>
      <trkpt lat="47.32356" lon="5.00384">
        <ele>246.6</ele>
        <time>2024-10-14T07:56:59.280Z</time>
      </trkpt>
      <trkpt lat="47.32352" lon="5.00384">
        <ele>246.2</ele>
        <time>2024-10-14T07:56:59.538Z</time>
      </trkpt>
      <trkpt lat="47.32347" lon="5.00384">
        <ele>245.8</ele>
        <time>2024-10-14T07:56:59.797Z</time>
      </trkpt>
      <trkpt lat="47.32343" lon="5.00384">
        <ele>245.4</ele>
        <time>2024-10-14T07:57:00.056Z</time>
      </trkpt>
      <trkpt lat="47.32339" lon="5.00354">
        <ele>245.4</ele>
        <time>2024-10-14T07:57:00.319Z</time>
      </trkpt>
      <trkpt lat="47.32338" lon="5.00384">
        <ele>245.2</ele>
        <time>2024-10-14T07:57:00.586Z</time>
      </trkpt>
      <trkpt lat="47.32337" lon="5.00366">
        <ele>245.8</ele>
        <time>2024-10-14T07:57:00.855Z</time>
      </trkpt>
      <trkpt lat="47.32334" lon="5.00369">
        <ele>245.8</ele>
        <time>2024-10-14T07:57:01.125Z</time>
      </trkpt>
      <trkpt lat="47.32333" lon="5.00371">
        <ele>245.8</ele>
        <time>2024-10-14T07:57:01.395Z</time>
      </trkpt>
      <trkpt lat="47.3233" lon="5.00374">
        <ele>245.8</ele>
        <time>2024-10-14T07:57:01.666Z</time>
      </trkpt>
      <trkpt lat="47.32329" lon="5.00375">
        <ele>246.2</ele>
        <time>2024-10-14T07:57:01.937Z</time>
      </trkpt>
      <trkpt lat="47.32327" lon="5.00372">
        <ele>246.2</ele>
        <time>2024-10-14T07:57:02.209Z</time>
      </trkpt>
      <trkpt lat="47.32327" lon="5.00372">
        <ele>246.2</ele>
        <time>2024-10-14T07:57:02.481Z</time>
      </trkpt>
      <trkpt lat="47.3233" lon="5.00366">
        <ele>246.4</ele>
        <time>2024-10-14T07:57:02.754Z</time>
      </trkpt>
      <trkpt lat="47.32333" lon="5.00363">
        <ele>246.4</ele>
        <time>2024-10-14T07:57:03.027Z</time>
      </trkpt>
      <trkpt lat="47.32335" lon="5.0036">
        <ele>246.4</ele>
        <time>2024-10-14T07:57:03.301Z</time>
      </trkpt>
      <trkpt lat="47.32337" lon="5.00357">
        <ele>246.4</ele>
        <time>2024-10-14T07:57:03.575Z</time>
      </trkpt>
      <trkpt lat="47.32339" lon="5.00354">
        <ele>246.4</ele>
        <time>2024-10-14T07:57:03.850Z</time>
      </trkpt>
      <trkpt lat="47.32344" lon="5.00359">
        <ele>246.4</ele>
        <time>2024-10-14T07:57:04.126Z</time>
      </trkpt>
      <trkpt lat="47.32337" lon="5.00347">
        <ele>246.4</ele>
        <time>2024-10-14T07:57:04.404Z</time>
      </trkpt>
      <trkpt lat="47.32335" lon="5.00343">
        <ele>246.6</ele>
        <time>2024-10-14T07:57:04.682Z</time>
      </trkpt>
      <trkpt lat="47.32333" lon="5.0034">
        <ele>247</ele>
        <time>2024-10-14T07:57:04.961Z</time>
      </trkpt>
      <trkpt lat="47.32331" lon="5.00335">
        <ele>247.4</ele>
        <time>2024-10-14T07:57:05.241Z</time>
      </trkpt>
      <trkpt lat="47.3233" lon="5.00331">
        <ele>247.4</ele>
        <time>2024-10-14T07:57:05.521Z</time>
      </trkpt>
      <trkpt lat="47.3233" lon="5.00327">
        <ele>247.4</ele>
        <time>2024-10-14T07:57:05.802Z</time>
      </trkpt>
      <trkpt lat="47.32332" lon="5.00324">
        <ele>247.4</ele>
        <time>2024-10-14T07:57:06.083Z</time>
      </trkpt>
      <trkpt lat="47.32335" lon="5.00321">
        <ele>246.4</ele>
        <time>2024-10-14T07:57:06.365Z</time>
      </trkpt>
      <trkpt lat="47.32339" lon="5.00317">
        <ele>244.4</ele>
        <time>2024-10-14T07:57:06.648Z</time>
      </trkpt>
      <trkpt lat="47.32342" lon="5.00313">
        <ele>244.2</ele>
        <time>2024-10-14T07:57:06.932Z</time>
      </trkpt>
      <trkpt lat="47.32344" lon="5.00311">
        <ele>243.8</ele>
        <time>2024-10-14T07:57:07.216Z</time>
      </trkpt>
      <trkpt lat="47.32342" lon="5.00307">
        <ele>243.4</ele>
        <time>2024-10-14T07:57:07.501Z</time>
      </trkpt>
      <trkpt lat="47.32351" lon="5.00294">
        <ele>243.4</ele>
        <time>2024-10-14T07:57:07.788Z</time>
      </trkpt>
      <trkpt lat="47.32354" lon="5.0029">
        <ele>243.4</ele>
        <time>2024-10-14T07:57:08.076Z</time>
      </trkpt>
      <trkpt lat="47.32358" lon="5.00285">
        <ele>243.4</ele>
        <time>2024-10-14T07:57:08.365Z</time>
      </trkpt>
      <trkpt lat="47.32362" lon="5.0028">
        <ele>243.8</ele>
        <time>2024-10-14T07:57:08.655Z</time>
      </trkpt>
      <trkpt lat="47.32366" lon="5.00276">
        <ele>243.8</ele>
        <time>2024-10-14T07:57:08.945Z</time>
      </trkpt>
      <trkpt lat="47.3237" lon="5.00271">
        <ele>243.8</ele>
        <time>2024-10-14T07:57:09.236Z</time>
      </trkpt>
      <trkpt lat="47.32374" lon="5.00266">
        <ele>244</ele>
        <time>2024-10-14T07:57:09.528Z</time>
      </trkpt>
      <trkpt lat="47.32378" lon="5.00261">
        <ele>244.2</ele>
        <time>2024-10-14T07:57:09.821Z</time>
      </trkpt>
      <trkpt lat="47.32382" lon="5.00256">
        <ele>244.4</ele>
        <time>2024-10-14T07:57:10.115Z</time>
      </trkpt>
      <trkpt lat="47.32386" lon="5.00251">
        <ele>244.4</ele>
        <time>2024-10-14T07:57:10.410Z</time>
      </trkpt>
      <trkpt lat="47.3239" lon="5.00246">
        <ele>244.4</ele>
        <time>2024-10-14T07:57:10.706Z</time>
      </trkpt>
      <trkpt lat="47.32395" lon="5.00241">
        <ele>244.6</ele>
        <time>2024-10-14T07:57:11.003Z</time>
      </trkpt>
      <trkpt lat="47.32399" lon="5.00236">
        <ele>244.6</ele>
        <time>2024-10-14T07:57:11.301Z</time>
      </trkpt>
      <trkpt lat="47.32403" lon="5.0023">
        <ele>244.4</ele>
        <time>2024-10-14T07:57:11.600Z</time>
      </trkpt>
      <trkpt lat="47.32407" lon="5.00225">
        <ele>244.2</ele>
        <time>2024-10-14T07:57:11.900Z</time>
      </trkpt>
      <trkpt lat="47.32411" lon="5.0022">
        <ele>244.2</ele>
        <time>2024-10-14T07:57:12.201Z</time>
      </trkpt>
      <trkpt lat="47.32416" lon="5.00215">
        <ele>243.6</ele>
        <time>2024-10-14T07:57:12.503Z</time>
      </trkpt>
      <trkpt lat="47.3242" lon="5.0021">
        <ele>243.4</ele>
        <time>2024-10-14T07:57:12.806Z</time>
      </trkpt>
      <trkpt lat="47.32423" lon="5.00205">
        <ele>243.4</ele>
        <time>2024-10-14T07:57:13.110Z</time>
      </trkpt>
      <trkpt lat="47.32428" lon="5.002">
        <ele>243.4</ele>
        <time>2024-10-14T07:57:13.415Z</time>
      </trkpt>
      <trkpt lat="47.32432" lon="5.00195">
        <ele>243.8</ele>
        <time>2024-10-14T07:57:13.721Z</time>
      </trkpt>
      <trkpt lat="47.32436" lon="5.0019">
        <ele>244</ele>
        <time>2024-10-14T07:57:14.028Z</time>
      </trkpt>
      <trkpt lat="47.32441" lon="5.00184">
        <ele>244.2</ele>
        <time>2024-10-14T07:57:14.337Z</time>
      </trkpt>
      <trkpt lat="47.32445" lon="5.00179">
        <ele>244.4</ele>
        <time>2024-10-14T07:57:14.647Z</time>
      </trkpt>
      <trkpt lat="47.32449" lon="5.00174">
        <ele>244.6</ele>
        <time>2024-10-14T07:57:14.957Z</time>
      </trkpt>
      <trkpt lat="47.32453" lon="5.00169">
        <ele>244.6</ele>
        <time>2024-10-14T07:57:15.269Z</time>
      </trkpt>
      <trkpt lat="47.32457" lon="5.00164">
        <ele>244.6</ele>
        <time>2024-10-14T07:57:15.581Z</time>
      </trkpt>
      <trkpt lat="47.32461" lon="5.00158">
        <ele>244.6</ele>
        <time>2024-10-14T07:57:15.895Z</time>
      </trkpt>
      <trkpt lat="47.32466" lon="5.00153">
        <ele>244.6</ele>
        <time>2024-10-14T07:57:16.210Z</time>
      </trkpt>
      <trkpt lat="47.3247" lon="5.00148">
        <ele>244.4</ele>
        <time>2024-10-14T07:57:16.526Z</time>
      </trkpt>
      <trkpt lat="47.32474" lon="5.00143">
        <ele>244.4</ele>
        <time>2024-10-14T07:57:16.842Z</time>
      </trkpt>
      <trkpt lat="47.32477" lon="5.00139">
        <ele>244.4</ele>
        <time>2024-10-14T07:57:17.159Z</time>
      </trkpt>
      <trkpt lat="47.3248" lon="5.00135">
        <ele>244.4</ele>
        <time>2024-10-14T07:57:17.477Z</time>
      </trkpt>
      <trkpt lat="47.32483" lon="5.00131">
        <ele>244.4</ele>
        <time>2024-10-14T07:57:17.796Z</time>
      </trkpt>
      <trkpt lat="47.32476" lon="5.00118">
        <ele>244.4</ele>
        <time>2024-10-14T07:57:18.117Z</time>
      </trkpt>
      <trkpt lat="47.32473" lon="5.00113">
        <ele>244.4</ele>
        <time>2024-10-14T07:57:18.439Z</time>
      </trkpt>
      <trkpt lat="47.3247" lon="5.00107">
        <ele>244.4</ele>
        <time>2024-10-14T07:57:18.762Z</time>
      </trkpt>
      <trkpt lat="47.32467" lon="5.00101">
        <ele>244.6</ele>
        <time>2024-10-14T07:57:19.086Z</time>
      </trkpt>
      <trkpt lat="47.32464" lon="5.00095">
        <ele>244.8</ele>
        <time>2024-10-14T07:57:19.411Z</time>
      </trkpt>
      <trkpt lat="47.32461" lon="5.0009">
        <ele>245</ele>
        <time>2024-10-14T07:57:19.736Z</time>
      </trkpt>
      <trkpt lat="47.32458" lon="5.00084">
        <ele>245.2</ele>
        <time>2024-10-14T07:57:20.062Z</time>
      </trkpt>
      <trkpt lat="47.32455" lon="5.00079">
        <ele>245.4</ele>
        <time>2024-10-14T07:57:20.389Z</time>
      </trkpt>
      <trkpt lat="47.32453" lon="5.00071">
        <ele>245.4</ele>
        <time>2024-10-14T07:57:20.717Z</time>
      </trkpt>
      <trkpt lat="47.3245" lon="5.00066">
        <ele>245.6</ele>
        <time>2024-10-14T07:57:21.046Z</time>
      </trkpt>
      <trkpt lat="47.32447" lon="5.0006">
        <ele>245.6</ele>
        <time>2024-10-14T07:57:21.376Z</time>
      </trkpt>
      <trkpt lat="47.32444" lon="5.00055">
        <ele>245.6</ele>
        <time>2024-10-14T07:57:21.707Z</time>
      </trkpt>
      <trkpt lat="47.3244" lon="5.00049">
        <ele>245.8</ele>
        <time>2024-10-14T07:57:22.039Z</time>
      </trkpt>
      <trkpt lat="47.32437" lon="5.00044">
        <ele>245.8</ele>
        <time>2024-10-14T07:57:22.372Z</time>
      </trkpt>
      <trkpt lat="47.32434" lon="5.00038">
        <ele>246</ele>
        <time>2024-10-14T07:57:22.706Z</time>
      </trkpt>
      <trkpt lat="47.32431" lon="5.00033">
        <ele>246.2</ele>
        <time>2024-10-14T07:57:23.040Z</time>
      </trkpt>
      <trkpt lat="47.32429" lon="5.00028">
        <ele>246.4</ele>
        <time>2024-10-14T07:57:23.375Z</time>
      </trkpt>
      <trkpt lat="47.32426" lon="5.00024">
        <ele>246.6</ele>
        <time>2024-10-14T07:57:23.711Z</time>
      </trkpt>
      <trkpt lat="47.32423" lon="5.00019">
        <ele>247</ele>
        <time>2024-10-14T07:57:24.048Z</time>
      </trkpt>
      <trkpt lat="47.32421" lon="5.00015">
        <ele>247.2</ele>
        <time>2024-10-14T07:57:24.385Z</time>
      </trkpt>
      <trkpt lat="47.3241" lon="4.99996">
        <ele>247.4</ele>
        <time>2024-10-14T07:57:24.726Z</time>
      </trkpt>
      <trkpt lat="47.32417" lon="5.00008">
        <ele>247.6</ele>
        <time>2024-10-14T07:57:25.068Z</time>
      </trkpt>
      <trkpt lat="47.3241" lon="4.99996">
        <ele>247.8</ele>
        <time>2024-10-14T07:57:25.412Z</time>
      </trkpt>
      <trkpt lat="47.32408" lon="4.99992">
        <ele>248.4</ele>
        <time>2024-10-14T07:57:25.757Z</time>
      </trkpt>
      <trkpt lat="47.32409" lon="4.9999">
        <ele>248.8</ele>
        <time>2024-10-14T07:57:26.102Z</time>
      </trkpt>
      <trkpt lat="47.32408" lon="4.99992">
        <ele>248.8</ele>
        <time>2024-10-14T07:57:26.448Z</time>
      </trkpt>
      <trkpt lat="47.32407" lon="4.99991">
        <ele>248.8</ele>
        <time>2024-10-14T07:57:26.794Z</time>
      </trkpt>
      <trkpt lat="47.32405" lon="4.99987">
        <ele>248.8</ele>
        <time>2024-10-14T07:57:27.140Z</time>
      </trkpt>
      <trkpt lat="47.32402" lon="4.99981">
        <ele>248.8</ele>
        <time>2024-10-14T07:57:27.487Z</time>
      </trkpt>
      <trkpt lat="47.32399" lon="4.99976">
        <ele>248.8</ele>
        <time>2024-10-14T07:57:27.835Z</time>
      </trkpt>
      <trkpt lat="47.32396" lon="4.9997">
        <ele>247.8</ele>
        <time>2024-10-14T07:57:28.184Z</time>
      </trkpt>
      <trkpt lat="47.32393" lon="4.99964">
        <ele>246.2</ele>
        <time>2024-10-14T07:57:28.534Z</time>
      </trkpt>
      <trkpt lat="47.32389" lon="4.9996">
        <ele>246</ele>
        <time>2024-10-14T07:57:28.885Z</time>
      </trkpt>
      <trkpt lat="47.32385" lon="4.99956">
        <ele>246</ele>
        <time>2024-10-14T07:57:29.237Z</time>
      </trkpt>
      <trkpt lat="47.32384" lon="4.99955">
        <ele>245.8</ele>
        <time>2024-10-14T07:57:29.589Z</time>
      </trkpt>
      <trkpt lat="47.32375" lon="4.99938">
        <ele>246</ele>
        <time>2024-10-14T07:57:29.944Z</time>
      </trkpt>
      <trkpt lat="47.32372" lon="4.99933">
        <ele>246</ele>
        <time>2024-10-14T07:57:30.300Z</time>
      </trkpt>
      <trkpt lat="47.32369" lon="4.99926">
        <ele>246</ele>
        <time>2024-10-14T07:57:30.657Z</time>
      </trkpt>
      <trkpt lat="47.32366" lon="4.9992">
        <ele>246.2</ele>
        <time>2024-10-14T07:57:31.015Z</time>
      </trkpt>
      <trkpt lat="47.32362" lon="4.99914">
        <ele>246.2</ele>
        <time>2024-10-14T07:57:31.374Z</time>
      </trkpt>
      <trkpt lat="47.32359" lon="4.99907">
        <ele>246.2</ele>
        <time>2024-10-14T07:57:31.734Z</time>
      </trkpt>
      <trkpt lat="47.32356" lon="4.99901">
        <ele>246.2</ele>
        <time>2024-10-14T07:57:32.095Z</time>
      </trkpt>
      <trkpt lat="47.32352" lon="4.99895">
        <ele>246.4</ele>
        <time>2024-10-14T07:57:32.457Z</time>
      </trkpt>
      <trkpt lat="47.32349" lon="4.9989">
        <ele>246.6</ele>
        <time>2024-10-14T07:57:32.819Z</time>
      </trkpt>
      <trkpt lat="47.32346" lon="4.99884">
        <ele>246.8</ele>
        <time>2024-10-14T07:57:33.182Z</time>
      </trkpt>
      <trkpt lat="47.32343" lon="4.99878">
        <ele>247</ele>
        <time>2024-10-14T07:57:33.546Z</time>
      </trkpt>
      <trkpt lat="47.3234" lon="4.99871">
        <ele>247</ele>
        <time>2024-10-14T07:57:33.911Z</time>
      </trkpt>
      <trkpt lat="47.32336" lon="4.99865">
        <ele>247.2</ele>
        <time>2024-10-14T07:57:34.277Z</time>
      </trkpt>
      <trkpt lat="47.32333" lon="4.99859">
        <ele>247.4</ele>
        <time>2024-10-14T07:57:34.644Z</time>
      </trkpt>
      <trkpt lat="47.3233" lon="4.99852">
        <ele>247.4</ele>
        <time>2024-10-14T07:57:35.012Z</time>
      </trkpt>
      <trkpt lat="47.32327" lon="4.99847">
        <ele>247.6</ele>
        <time>2024-10-14T07:57:35.381Z</time>
      </trkpt>
      <trkpt lat="47.32324" lon="4.99841">
        <ele>247.6</ele>
        <time>2024-10-14T07:57:35.751Z</time>
      </trkpt>
      <trkpt lat="47.32321" lon="4.99835">
        <ele>247.8</ele>
        <time>2024-10-14T07:57:36.122Z</time>
      </trkpt>
      <trkpt lat="47.32318" lon="4.99828">
        <ele>248</ele>
        <time>2024-10-14T07:57:36.494Z</time>
      </trkpt>
      <trkpt lat="47.32315" lon="4.99822">
        <ele>247.8</ele>
        <time>2024-10-14T07:57:36.867Z</time>
      </trkpt>
      <trkpt lat="47.32311" lon="4.99816">
        <ele>247.8</ele>
        <time>2024-10-14T07:57:37.241Z</time>
      </trkpt>
      <trkpt lat="47.32309" lon="4.9981">
        <ele>248</ele>
        <time>2024-10-14T07:57:37.616Z</time>
      </trkpt>
      <trkpt lat="47.32305" lon="4.99804">
        <ele>248.2</ele>
        <time>2024-10-14T07:57:37.992Z</time>
      </trkpt>
      <trkpt lat="47.32302" lon="4.99797">
        <ele>248.4</ele>
        <time>2024-10-14T07:57:38.369Z</time>
      </trkpt>
      <trkpt lat="47.32299" lon="4.99791">
        <ele>248.6</ele>
        <time>2024-10-14T07:57:38.747Z</time>
      </trkpt>
      <trkpt lat="47.32296" lon="4.99785">
        <ele>248.8</ele>
        <time>2024-10-14T07:57:39.126Z</time>
      </trkpt>
      <trkpt lat="47.32293" lon="4.99779">
        <ele>249</ele>
        <time>2024-10-14T07:57:39.506Z</time>
      </trkpt>
      <trkpt lat="47.3229" lon="4.99773">
        <ele>249</ele>
        <time>2024-10-14T07:57:39.887Z</time>
      </trkpt>
      <trkpt lat="47.32287" lon="4.99767">
        <ele>249.2</ele>
        <time>2024-10-14T07:57:40.269Z</time>
      </trkpt>
      <trkpt lat="47.32284" lon="4.9976">
        <ele>249.2</ele>
        <time>2024-10-14T07:57:40.652Z</time>
      </trkpt>
      <trkpt lat="47.32281" lon="4.99755">
        <ele>249.2</ele>
        <time>2024-10-14T07:57:41.036Z</time>
      </trkpt>
      <trkpt lat="47.32277" lon="4.99749">
        <ele>249.4</ele>
        <time>2024-10-14T07:57:41.421Z</time>
      </trkpt>
      <trkpt lat="47.32274" lon="4.99744">
        <ele>249.6</ele>
        <time>2024-10-14T07:57:41.806Z</time>
      </trkpt>
      <trkpt lat="47.3227" lon="4.99739">
        <ele>249.8</ele>
        <time>2024-10-14T07:57:42.192Z</time>
      </trkpt>
      <trkpt lat="47.32266" lon="4.99734">
        <ele>249.8</ele>
        <time>2024-10-14T07:57:42.579Z</time>
      </trkpt>
      <trkpt lat="47.32262" lon="4.99729">
        <ele>249.8</ele>
        <time>2024-10-14T07:57:42.967Z</time>
      </trkpt>
      <trkpt lat="47.32261" lon="4.99719">
        <ele>249.8</ele>
        <time>2024-10-14T07:57:43.357Z</time>
      </trkpt>
      <trkpt lat="47.3226" lon="4.99715">
        <ele>249.8</ele>
        <time>2024-10-14T07:57:43.747Z</time>
      </trkpt>
      <trkpt lat="47.32259" lon="4.99705">
        <ele>250</ele>
        <time>2024-10-14T07:57:44.138Z</time>
      </trkpt>
      <trkpt lat="47.32256" lon="4.997">
        <ele>250</ele>
        <time>2024-10-14T07:57:44.530Z</time>
      </trkpt>
      <trkpt lat="47.32254" lon="4.99698">
        <ele>250.2</ele>
        <time>2024-10-14T07:57:44.923Z</time>
      </trkpt>
      <trkpt lat="47.32249" lon="4.99696">
        <ele>251</ele>
        <time>2024-10-14T07:57:45.317Z</time>
      </trkpt>
      <trkpt lat="47.32244" lon="4.99688">
        <ele>251</ele>
        <time>2024-10-14T07:57:45.712Z</time>
      </trkpt>
      <trkpt lat="47.32241" lon="4.99683">
        <ele>251</ele>
        <time>2024-10-14T07:57:46.108Z</time>
      </trkpt>
      <trkpt lat="47.32241" lon="4.99683">
        <ele>251.2</ele>
        <time>2024-10-14T07:57:46.504Z</time>
      </trkpt>
      <trkpt lat="47.32235" lon="4.99658">
        <ele>252</ele>
        <time>2024-10-14T07:57:46.903Z</time>
      </trkpt>
      <trkpt lat="47.32232" lon="4.99653">
        <ele>253</ele>
        <time>2024-10-14T07:57:47.303Z</time>
      </trkpt>
      <trkpt lat="47.32229" lon="4.99649">
        <ele>253.2</ele>
        <time>2024-10-14T07:57:47.704Z</time>
      </trkpt>
      <trkpt lat="47.32227" lon="4.99645">
        <ele>253.4</ele>
        <time>2024-10-14T07:57:48.105Z</time>
      </trkpt>
      <trkpt lat="47.32225" lon="4.99641">
        <ele>253.6</ele>
        <time>2024-10-14T07:57:48.507Z</time>
      </trkpt>
      <trkpt lat="47.32222" lon="4.99637">
        <ele>254</ele>
        <time>2024-10-14T07:57:48.910Z</time>
      </trkpt>
      <trkpt lat="47.3222" lon="4.99633">
        <ele>254.2</ele>
        <time>2024-10-14T07:57:49.313Z</time>
      </trkpt>
      <trkpt lat="47.32217" lon="4.99629">
        <ele>254.6</ele>
        <time>2024-10-14T07:57:49.717Z</time>
      </trkpt>
      <trkpt lat="47.32215" lon="4.99625">
        <ele>255</ele>
        <time>2024-10-14T07:57:50.122Z</time>
      </trkpt>
      <trkpt lat="47.32212" lon="4.9962">
        <ele>255.6</ele>
        <time>2024-10-14T07:57:50.527Z</time>
      </trkpt>
      <trkpt lat="47.3221" lon="4.99617">
        <ele>255.8</ele>
        <time>2024-10-14T07:57:50.933Z</time>
      </trkpt>
      <trkpt lat="47.32207" lon="4.99613">
        <ele>256</ele>
        <time>2024-10-14T07:57:51.340Z</time>
      </trkpt>
      <trkpt lat="47.32205" lon="4.99608">
        <ele>256.2</ele>
        <time>2024-10-14T07:57:51.748Z</time>
      </trkpt>
      <trkpt lat="47.32203" lon="4.99605">
        <ele>256.4</ele>
        <time>2024-10-14T07:57:52.156Z</time>
      </trkpt>
      <trkpt lat="47.322" lon="4.99602">
        <ele>256.8</ele>
        <time>2024-10-14T07:57:52.565Z</time>
      </trkpt>
      <trkpt lat="47.32197" lon="4.99598">
        <ele>257.2</ele>
        <time>2024-10-14T07:57:52.974Z</time>
      </trkpt>
      <trkpt lat="47.32195" lon="4.99595">
        <ele>257.4</ele>
        <time>2024-10-14T07:57:53.384Z</time>
      </trkpt>
      <trkpt lat="47.32193" lon="4.99591">
        <ele>258</ele>
        <time>2024-10-14T07:57:53.795Z</time>
      </trkpt>
      <trkpt lat="47.32191" lon="4.99589">
        <ele>258.4</ele>
        <time>2024-10-14T07:57:54.206Z</time>
      </trkpt>
      <trkpt lat="47.32189" lon="4.99586">
        <ele>259</ele>
        <time>2024-10-14T07:57:54.618Z</time>
      </trkpt>
      <trkpt lat="47.32187" lon="4.99583">
        <ele>259.2</ele>
        <time>2024-10-14T07:57:55.030Z</time>
      </trkpt>
      <trkpt lat="47.32184" lon="4.9958">
        <ele>259.8</ele>
        <time>2024-10-14T07:57:55.443Z</time>
      </trkpt>
      <trkpt lat="47.32183" lon="4.99578">
        <ele>260.2</ele>
        <time>2024-10-14T07:57:55.856Z</time>
      </trkpt>
      <trkpt lat="47.32177" lon="4.99568">
        <ele>260.6</ele>
        <time>2024-10-14T07:57:56.271Z</time>
      </trkpt>
      <trkpt lat="47.32176" lon="4.99564">
        <ele>261</ele>
        <time>2024-10-14T07:57:56.686Z</time>
      </trkpt>
      <trkpt lat="47.32174" lon="4.99561">
        <ele>261</ele>
        <time>2024-10-14T07:57:57.102Z</time>
      </trkpt>
      <trkpt lat="47.32172" lon="4.99558">
        <ele>261.2</ele>
        <time>2024-10-14T07:57:57.518Z</time>
      </trkpt>
      <trkpt lat="47.32171" lon="4.99555">
        <ele>261.4</ele>
        <time>2024-10-14T07:57:57.935Z</time>
      </trkpt>
      <trkpt lat="47.32169" lon="4.99551">
        <ele>261.6</ele>
        <time>2024-10-14T07:57:58.352Z</time>
      </trkpt>
      <trkpt lat="47.32177" lon="4.99526">
        <ele>261.8</ele>
        <time>2024-10-14T07:57:58.773Z</time>
      </trkpt>
      <trkpt lat="47.32178" lon="4.99522">
        <ele>261.8</ele>
        <time>2024-10-14T07:57:59.194Z</time>
      </trkpt>
      <trkpt lat="47.3218" lon="4.99518">
        <ele>262.2</ele>
        <time>2024-10-14T07:57:59.616Z</time>
      </trkpt>
      <trkpt lat="47.32181" lon="4.99514">
        <ele>262.4</ele>
        <time>2024-10-14T07:58:00.039Z</time>
      </trkpt>
      <trkpt lat="47.32183" lon="4.9951">
        <ele>262.6</ele>
        <time>2024-10-14T07:58:00.462Z</time>
      </trkpt>
      <trkpt lat="47.32185" lon="4.99505">
        <ele>262.6</ele>
        <time>2024-10-14T07:58:00.886Z</time>
      </trkpt>
      <trkpt lat="47.32187" lon="4.99501">
        <ele>262.8</ele>
        <time>2024-10-14T07:58:01.310Z</time>
      </trkpt>
      <trkpt lat="47.32188" lon="4.99496">
        <ele>262.8</ele>
        <time>2024-10-14T07:58:01.735Z</time>
      </trkpt>
      <trkpt lat="47.3219" lon="4.99492">
        <ele>262.8</ele>
        <time>2024-10-14T07:58:02.161Z</time>
      </trkpt>
      <trkpt lat="47.32191" lon="4.99487">
        <ele>262.8</ele>
        <time>2024-10-14T07:58:02.587Z</time>
      </trkpt>
      <trkpt lat="47.32192" lon="4.99482">
        <ele>263</ele>
        <time>2024-10-14T07:58:03.014Z</time>
      </trkpt>
      <trkpt lat="47.32193" lon="4.99477">
        <ele>263.2</ele>
        <time>2024-10-14T07:58:03.442Z</time>
      </trkpt>
      <trkpt lat="47.32194" lon="4.99473">
        <ele>263.4</ele>
        <time>2024-10-14T07:58:03.870Z</time>
      </trkpt>
      <trkpt lat="47.32196" lon="4.99469">
        <ele>263.6</ele>
        <time>2024-10-14T07:58:04.299Z</time>
      </trkpt>
      <trkpt lat="47.32197" lon="4.99464">
        <ele>263.8</ele>
        <time>2024-10-14T07:58:04.728Z</time>
      </trkpt>
      <trkpt lat="47.32198" lon="4.9946">
        <ele>264.2</ele>
        <time>2024-10-14T07:58:05.158Z</time>
      </trkpt>
      <trkpt lat="47.32199" lon="4.99455">
        <ele>264.4</ele>
        <time>2024-10-14T07:58:05.589Z</time>
      </trkpt>
      <trkpt lat="47.322" lon="4.9945">
        <ele>264.6</ele>
        <time>2024-10-14T07:58:06.020Z</time>
      </trkpt>
      <trkpt lat="47.32201" lon="4.99445">
        <ele>264.6</ele>
        <time>2024-10-14T07:58:06.452Z</time>
      </trkpt>
      <trkpt lat="47.32202" lon="4.99441">
        <ele>264.8</ele>
        <time>2024-10-14T07:58:06.885Z</time>
      </trkpt>
      <trkpt lat="47.32203" lon="4.99436">
        <ele>265</ele>
        <time>2024-10-14T07:58:07.318Z</time>
      </trkpt>
      <trkpt lat="47.32203" lon="4.99431">
        <ele>265</ele>
        <time>2024-10-14T07:58:07.752Z</time>
      </trkpt>
      <trkpt lat="47.32204" lon="4.99425">
        <ele>265</ele>
        <time>2024-10-14T07:58:08.187Z</time>
      </trkpt>
      <trkpt lat="47.32205" lon="4.9942">
        <ele>265</ele>
        <time>2024-10-14T07:58:08.622Z</time>
      </trkpt>
      <trkpt lat="47.32206" lon="4.99415">
        <ele>265</ele>
        <time>2024-10-14T07:58:09.058Z</time>
      </trkpt>
      <trkpt lat="47.32207" lon="4.9941">
        <ele>265</ele>
        <time>2024-10-14T07:58:09.495Z</time>
      </trkpt>
      <trkpt lat="47.32208" lon="4.99404">
        <ele>265</ele>
        <time>2024-10-14T07:58:09.932Z</time>
      </trkpt>
      <trkpt lat="47.32209" lon="4.99399">
        <ele>265</ele>
        <time>2024-10-14T07:58:10.370Z</time>
      </trkpt>
      <trkpt lat="47.3221" lon="4.99394">
        <ele>265</ele>
        <time>2024-10-14T07:58:10.809Z</time>
      </trkpt>
      <trkpt lat="47.32211" lon="4.99388">
        <ele>265.2</ele>
        <time>2024-10-14T07:58:11.248Z</time>
      </trkpt>
      <trkpt lat="47.32212" lon="4.99383">
        <ele>265.2</ele>
        <time>2024-10-14T07:58:11.688Z</time>
      </trkpt>
      <trkpt lat="47.32213" lon="4.99377">
        <ele>265.4</ele>
        <time>2024-10-14T07:58:12.129Z</time>
      </trkpt>
      <trkpt lat="47.32213" lon="4.99372">
        <ele>265.2</ele>
        <time>2024-10-14T07:58:12.570Z</time>
      </trkpt>
      <trkpt lat="47.32214" lon="4.99366">
        <ele>265.2</ele>
        <time>2024-10-14T07:58:13.012Z</time>
      </trkpt>
      <trkpt lat="47.32215" lon="4.9936">
        <ele>265.2</ele>
        <time>2024-10-14T07:58:13.455Z</time>
      </trkpt>
      <trkpt lat="47.32216" lon="4.99354">
        <ele>265.2</ele>
        <time>2024-10-14T07:58:13.899Z</time>
      </trkpt>
      <trkpt lat="47.32217" lon="4.99347">
        <ele>265.2</ele>
        <time>2024-10-14T07:58:14.344Z</time>
      </trkpt>
      <trkpt lat="47.32218" lon="4.99339">
        <ele>265.2</ele>
        <time>2024-10-14T07:58:14.790Z</time>
      </trkpt>
      <trkpt lat="47.32218" lon="4.99332">
        <ele>265</ele>
        <time>2024-10-14T07:58:15.237Z</time>
      </trkpt>
      <trkpt lat="47.32219" lon="4.99324">
        <ele>264.4</ele>
        <time>2024-10-14T07:58:15.685Z</time>
      </trkpt>
      <trkpt lat="47.32219" lon="4.99316">
        <ele>264.2</ele>
        <time>2024-10-14T07:58:16.134Z</time>
      </trkpt>
      <trkpt lat="47.3222" lon="4.99307">
        <ele>264</ele>
        <time>2024-10-14T07:58:16.584Z</time>
      </trkpt>
      <trkpt lat="47.32221" lon="4.99298">
        <ele>264</ele>
        <time>2024-10-14T07:58:17.035Z</time>
      </trkpt>
      <trkpt lat="47.32222" lon="4.99289">
        <ele>263.8</ele>
        <time>2024-10-14T07:58:17.487Z</time>
      </trkpt>
      <trkpt lat="47.32223" lon="4.99278">
        <ele>263.2</ele>
        <time>2024-10-14T07:58:17.940Z</time>
      </trkpt>
      <trkpt lat="47.32224" lon="4.99267">
        <ele>262.6</ele>
        <time>2024-10-14T07:58:18.395Z</time>
      </trkpt>
      <trkpt lat="47.32225" lon="4.99257">
        <ele>262.6</ele>
        <time>2024-10-14T07:58:18.851Z</time>
      </trkpt>
      <trkpt lat="47.32226" lon="4.99245">
        <ele>262.6</ele>
        <time>2024-10-14T07:58:19.309Z</time>
      </trkpt>
      <trkpt lat="47.32227" lon="4.99234">
        <ele>262.4</ele>
        <time>2024-10-14T07:58:19.768Z</time>
      </trkpt>
      <trkpt lat="47.32228" lon="4.99221">
        <ele>261.4</ele>
        <time>2024-10-14T07:58:20.229Z</time>
      </trkpt>
      <trkpt lat="47.32228" lon="4.99209">
        <ele>261</ele>
        <time>2024-10-14T07:58:20.691Z</time>
      </trkpt>
      <trkpt lat="47.32229" lon="4.99197">
        <ele>260</ele>
        <time>2024-10-14T07:58:21.155Z</time>
      </trkpt>
      <trkpt lat="47.3223" lon="4.99184">
        <ele>258.4</ele>
        <time>2024-10-14T07:58:21.620Z</time>
      </trkpt>
      <trkpt lat="47.32231" lon="4.99171">
        <ele>258.2</ele>
        <time>2024-10-14T07:58:22.087Z</time>
      </trkpt>
      <trkpt lat="47.32232" lon="4.99158">
        <ele>258.2</ele>
        <time>2024-10-14T07:58:22.555Z</time>
      </trkpt>
      <trkpt lat="47.32232" lon="4.99146">
        <ele>258</ele>
        <time>2024-10-14T07:58:23.025Z</time>
      </trkpt>
      <trkpt lat="47.32231" lon="4.99134">
        <ele>258</ele>
        <time>2024-10-14T07:58:23.497Z</time>
      </trkpt>
      <trkpt lat="47.3223" lon="4.99122">
        <ele>257.6</ele>
        <time>2024-10-14T07:58:23.970Z</time>
      </trkpt>
      <trkpt lat="47.32228" lon="4.99113">
        <ele>257.4</ele>
        <time>2024-10-14T07:58:24.444Z</time>
      </trkpt>
      <trkpt lat="47.32225" lon="4.99103">
        <ele>257.4</ele>
        <time>2024-10-14T07:58:24.920Z</time>
      </trkpt>
      <trkpt lat="47.32223" lon="4.99094">
        <ele>257.4</ele>
        <time>2024-10-14T07:58:25.397Z</time>
      </trkpt>
      <trkpt lat="47.3222" lon="4.99084">
        <ele>257.4</ele>
        <time>2024-10-14T07:58:25.875Z</time>
      </trkpt>
      <trkpt lat="47.32217" lon="4.99076">
        <ele>257.4</ele>
        <time>2024-10-14T07:58:26.354Z</time>
      </trkpt>
      <trkpt lat="47.32215" lon="4.99066">
        <ele>257.6</ele>
        <time>2024-10-14T07:58:26.835Z</time>
      </trkpt>
      <trkpt lat="47.32212" lon="4.99058">
        <ele>257.8</ele>
        <time>2024-10-14T07:58:27.317Z</time>
      </trkpt>
      <trkpt lat="47.3221" lon="4.9905">
        <ele>258</ele>
        <time>2024-10-14T07:58:27.800Z</time>
      </trkpt>
      <trkpt lat="47.32208" lon="4.99042">
        <ele>258</ele>
        <time>2024-10-14T07:58:28.284Z</time>
      </trkpt>
      <trkpt lat="47.32205" lon="4.99034">
        <ele>258</ele>
        <time>2024-10-14T07:58:28.769Z</time>
      </trkpt>
      <trkpt lat="47.32203" lon="4.99025">
        <ele>258.2</ele>
        <time>2024-10-14T07:58:29.255Z</time>
      </trkpt>
      <trkpt lat="47.32201" lon="4.99017">
        <ele>258.4</ele>
        <time>2024-10-14T07:58:29.742Z</time>
      </trkpt>
      <trkpt lat="47.32198" lon="4.99008">
        <ele>258.6</ele>
        <time>2024-10-14T07:58:30.231Z</time>
      </trkpt>
      <trkpt lat="47.32196" lon="4.99">
        <ele>260.8</ele>
        <time>2024-10-14T07:58:30.721Z</time>
      </trkpt>
      <trkpt lat="47.32194" lon="4.98993">
        <ele>261.6</ele>
        <time>2024-10-14T07:58:31.212Z</time>
      </trkpt>
      <trkpt lat="47.32192" lon="4.98985">
        <ele>261.8</ele>
        <time>2024-10-14T07:58:31.704Z</time>
      </trkpt>
      <trkpt lat="47.32189" lon="4.98977">
        <ele>262</ele>
        <time>2024-10-14T07:58:32.197Z</time>
      </trkpt>
      <trkpt lat="47.32187" lon="4.9897">
        <ele>262.2</ele>
        <time>2024-10-14T07:58:32.691Z</time>
      </trkpt>
      <trkpt lat="47.32185" lon="4.98963">
        <ele>262.4</ele>
        <time>2024-10-14T07:58:33.186Z</time>
      </trkpt>
      <trkpt lat="47.32183" lon="4.98955">
        <ele>262.4</ele>
        <time>2024-10-14T07:58:33.682Z</time>
      </trkpt>
      <trkpt lat="47.32181" lon="4.98948">
        <ele>262.8</ele>
        <time>2024-10-14T07:58:34.179Z</time>
      </trkpt>
      <trkpt lat="47.32179" lon="4.98941">
        <ele>263</ele>
        <time>2024-10-14T07:58:34.677Z</time>
      </trkpt>
      <trkpt lat="47.32177" lon="4.98934">
        <ele>263</ele>
        <time>2024-10-14T07:58:35.176Z</time>
      </trkpt>
      <trkpt lat="47.32175" lon="4.98928">
        <ele>263</ele>
        <time>2024-10-14T07:58:35.676Z</time>
      </trkpt>
      <trkpt lat="47.32173" lon="4.98921">
        <ele>263</ele>
        <time>2024-10-14T07:58:36.176Z</time>
      </trkpt>
      <trkpt lat="47.32171" lon="4.98914">
        <ele>263.2</ele>
        <time>2024-10-14T07:58:36.677Z</time>
      </trkpt>
      <trkpt lat="47.32169" lon="4.98907">
        <ele>263.2</ele>
        <time>2024-10-14T07:58:37.179Z</time>
      </trkpt>
      <trkpt lat="47.32167" lon="4.98901">
        <ele>263.2</ele>
        <time>2024-10-14T07:58:37.682Z</time>
      </trkpt>
      <trkpt lat="47.32165" lon="4.98894">
        <ele>263.2</ele>
        <time>2024-10-14T07:58:38.186Z</time>
      </trkpt>
      <trkpt lat="47.32163" lon="4.98887">
        <ele>263.6</ele>
        <time>2024-10-14T07:58:38.691Z</time>
      </trkpt>
      <trkpt lat="47.32162" lon="4.98881">
        <ele>263.8</ele>
        <time>2024-10-14T07:58:39.197Z</time>
      </trkpt>
      <trkpt lat="47.3216" lon="4.98874">
        <ele>264</ele>
        <time>2024-10-14T07:58:39.704Z</time>
      </trkpt>
      <trkpt lat="47.32158" lon="4.98868">
        <ele>264.2</ele>
        <time>2024-10-14T07:58:40.212Z</time>
      </trkpt>
      <trkpt lat="47.32156" lon="4.98861">
        <ele>264.2</ele>
        <time>2024-10-14T07:58:40.721Z</time>
      </trkpt>
      <trkpt lat="47.32154" lon="4.98854">
        <ele>264.6</ele>
        <time>2024-10-14T07:58:41.230Z</time>
      </trkpt>
      <trkpt lat="47.32152" lon="4.98848">
        <ele>264.8</ele>
        <time>2024-10-14T07:58:41.740Z</time>
      </trkpt>
      <trkpt lat="47.32151" lon="4.98842">
        <ele>265</ele>
        <time>2024-10-14T07:58:42.251Z</time>
      </trkpt>
      <trkpt lat="47.32149" lon="4.98836">
        <ele>265</ele>
        <time>2024-10-14T07:58:42.763Z</time>
      </trkpt>
      <trkpt lat="47.32147" lon="4.9883">
        <ele>265</ele>
        <time>2024-10-14T07:58:43.276Z</time>
      </trkpt>
      <trkpt lat="47.32145" lon="4.98823">
        <ele>265</ele>
        <time>2024-10-14T07:58:43.790Z</time>
      </trkpt>
      <trkpt lat="47.32143" lon="4.98817">
        <ele>265</ele>
        <time>2024-10-14T07:58:44.305Z</time>
      </trkpt>
      <trkpt lat="47.32141" lon="4.9881">
        <ele>265</ele>
        <time>2024-10-14T07:58:44.820Z</time>
      </trkpt>
      <trkpt lat="47.3214" lon="4.98804">
        <ele>265</ele>
        <time>2024-10-14T07:58:45.336Z</time>
      </trkpt>
      <trkpt lat="47.32137" lon="4.98797">
        <ele>264.8</ele>
        <time>2024-10-14T07:58:45.853Z</time>
      </trkpt>
      <trkpt lat="47.32135" lon="4.98789">
        <ele>264.8</ele>
        <time>2024-10-14T07:58:46.371Z</time>
      </trkpt>
      <trkpt lat="47.32134" lon="4.98783">
        <ele>264.8</ele>
        <time>2024-10-14T07:58:46.890Z</time>
      </trkpt>
      <trkpt lat="47.32132" lon="4.98776">
        <ele>264.8</ele>
        <time>2024-10-14T07:58:47.410Z</time>
      </trkpt>
      <trkpt lat="47.3213" lon="4.9877">
        <ele>264.8</ele>
        <time>2024-10-14T07:58:47.931Z</time>
      </trkpt>
      <trkpt lat="47.32129" lon="4.98762">
        <ele>265</ele>
        <time>2024-10-14T07:58:48.453Z</time>
      </trkpt>
      <trkpt lat="47.32127" lon="4.98756">
        <ele>265</ele>
        <time>2024-10-14T07:58:48.976Z</time>
      </trkpt>
      <trkpt lat="47.32127" lon="4.98749">
        <ele>265.2</ele>
        <time>2024-10-14T07:58:49.500Z</time>
      </trkpt>
      <trkpt lat="47.32125" lon="4.98726">
        <ele>265.2</ele>
        <time>2024-10-14T07:58:50.027Z</time>
      </trkpt>
      <trkpt lat="47.32125" lon="4.98734">
        <ele>265.2</ele>
        <time>2024-10-14T07:58:50.555Z</time>
      </trkpt>
      <trkpt lat="47.32125" lon="4.98726">
        <ele>265.2</ele>
        <time>2024-10-14T07:58:51.084Z</time>
      </trkpt>
      <trkpt lat="47.32124" lon="4.98719">
        <ele>265.4</ele>
        <time>2024-10-14T07:58:51.614Z</time>
      </trkpt>
      <trkpt lat="47.32124" lon="4.98711">
        <ele>265.4</ele>
        <time>2024-10-14T07:58:52.145Z</time>
      </trkpt>
      <trkpt lat="47.32123" lon="4.98703">
        <ele>265.4</ele>
        <time>2024-10-14T07:58:52.677Z</time>
      </trkpt>
      <trkpt lat="47.32123" lon="4.98695">
        <ele>265.6</ele>
        <time>2024-10-14T07:58:53.210Z</time>
      </trkpt>
      <trkpt lat="47.32122" lon="4.98688">
        <ele>265.6</ele>
        <time>2024-10-14T07:58:53.743Z</time>
      </trkpt>
      <trkpt lat="47.32122" lon="4.9868">
        <ele>265.8</ele>
        <time>2024-10-14T07:58:54.277Z</time>
      </trkpt>
      <trkpt lat="47.32121" lon="4.98672">
        <ele>266</ele>
        <time>2024-10-14T07:58:54.812Z</time>
      </trkpt>
      <trkpt lat="47.32121" lon="4.98665">
        <ele>266</ele>
        <time>2024-10-14T07:58:55.348Z</time>
      </trkpt>
      <trkpt lat="47.3212" lon="4.98657">
        <ele>266.2</ele>
        <time>2024-10-14T07:58:55.885Z</time>
      </trkpt>
      <trkpt lat="47.3212" lon="4.9865">
        <ele>266.2</ele>
        <time>2024-10-14T07:58:56.423Z</time>
      </trkpt>
      <trkpt lat="47.32119" lon="4.98643">
        <ele>266.4</ele>
        <time>2024-10-14T07:58:56.962Z</time>
      </trkpt>
      <trkpt lat="47.32119" lon="4.98635">
        <ele>266.6</ele>
        <time>2024-10-14T07:58:57.502Z</time>
      </trkpt>
      <trkpt lat="47.32119" lon="4.98628">
        <ele>266.8</ele>
        <time>2024-10-14T07:58:58.043Z</time>
      </trkpt>
      <trkpt lat="47.32119" lon="4.98621">
        <ele>267</ele>
        <time>2024-10-14T07:58:58.585Z</time>
      </trkpt>
      <trkpt lat="47.32119" lon="4.98614">
        <ele>267.4</ele>
        <time>2024-10-14T07:58:59.128Z</time>
      </trkpt>
      <trkpt lat="47.3212" lon="4.98606">
        <ele>267.6</ele>
        <time>2024-10-14T07:58:59.672Z</time>
      </trkpt>
      <trkpt lat="47.3212" lon="4.98598">
        <ele>267.6</ele>
        <time>2024-10-14T07:59:00.217Z</time>
      </trkpt>
      <trkpt lat="47.32121" lon="4.98591">
        <ele>267.8</ele>
        <time>2024-10-14T07:59:00.763Z</time>
      </trkpt>
      <trkpt lat="47.32122" lon="4.98583">
        <ele>268</ele>
        <time>2024-10-14T07:59:01.310Z</time>
      </trkpt>
      <trkpt lat="47.32124" lon="4.98577">
        <ele>268.4</ele>
        <time>2024-10-14T07:59:01.858Z</time>
      </trkpt>
      <trkpt lat="47.32126" lon="4.9857">
        <ele>268.6</ele>
        <time>2024-10-14T07:59:02.407Z</time>
      </trkpt>
      <trkpt lat="47.32128" lon="4.98563">
        <ele>269</ele>
        <time>2024-10-14T07:59:02.956Z</time>
      </trkpt>
      <trkpt lat="47.3213" lon="4.98555">
        <ele>269.2</ele>
        <time>2024-10-14T07:59:03.506Z</time>
      </trkpt>
      <trkpt lat="47.32132" lon="4.9855">
        <ele>269.4</ele>
        <time>2024-10-14T07:59:04.057Z</time>
      </trkpt>
      <trkpt lat="47.32135" lon="4.98545">
        <ele>269.6</ele>
        <time>2024-10-14T07:59:04.609Z</time>
      </trkpt>
      <trkpt lat="47.32138" lon="4.98539">
        <ele>269.8</ele>
        <time>2024-10-14T07:59:05.162Z</time>
      </trkpt>
      <trkpt lat="47.32141" lon="4.98533">
        <ele>270</ele>
        <time>2024-10-14T07:59:05.716Z</time>
      </trkpt>
      <trkpt lat="47.32143" lon="4.98528">
        <ele>270.4</ele>
        <time>2024-10-14T07:59:06.271Z</time>
      </trkpt>
      <trkpt lat="47.32146" lon="4.98523">
        <ele>270.4</ele>
        <time>2024-10-14T07:59:06.827Z</time>
      </trkpt>
      <trkpt lat="47.32149" lon="4.98517">
        <ele>270.6</ele>
        <time>2024-10-14T07:59:07.383Z</time>
      </trkpt>
      <trkpt lat="47.32152" lon="4.98512">
        <ele>270.8</ele>
        <time>2024-10-14T07:59:07.940Z</time>
      </trkpt>
      <trkpt lat="47.32155" lon="4.98506">
        <ele>271</ele>
        <time>2024-10-14T07:59:08.498Z</time>
      </trkpt>
      <trkpt lat="47.32157" lon="4.98501">
        <ele>271.2</ele>
        <time>2024-10-14T07:59:09.057Z</time>
      </trkpt>
      <trkpt lat="47.3216" lon="4.98496">
        <ele>271.4</ele>
        <time>2024-10-14T07:59:09.617Z</time>
      </trkpt>
      <trkpt lat="47.32163" lon="4.98491">
        <ele>271.6</ele>
        <time>2024-10-14T07:59:10.178Z</time>
      </trkpt>
      <trkpt lat="47.32165" lon="4.98486">
        <ele>272</ele>
        <time>2024-10-14T07:59:10.739Z</time>
      </trkpt>
      <trkpt lat="47.32167" lon="4.98481">
        <ele>272.2</ele>
        <time>2024-10-14T07:59:11.301Z</time>
      </trkpt>
      <trkpt lat="47.3217" lon="4.98476">
        <ele>272.4</ele>
        <time>2024-10-14T07:59:11.864Z</time>
      </trkpt>
      <trkpt lat="47.32172" lon="4.98472">
        <ele>272.8</ele>
        <time>2024-10-14T07:59:12.428Z</time>
      </trkpt>
      <trkpt lat="47.32175" lon="4.98467">
        <ele>273.2</ele>
        <time>2024-10-14T07:59:12.992Z</time>
      </trkpt>
      <trkpt lat="47.32177" lon="4.98463">
        <ele>273.4</ele>
        <time>2024-10-14T07:59:13.557Z</time>
      </trkpt>
      <trkpt lat="47.32179" lon="4.98457">
        <ele>273.8</ele>
        <time>2024-10-14T07:59:14.123Z</time>
      </trkpt>
      <trkpt lat="47.32181" lon="4.98452">
        <ele>274.2</ele>
        <time>2024-10-14T07:59:14.689Z</time>
      </trkpt>
      <trkpt lat="47.32182" lon="4.98446">
        <ele>274.4</ele>
        <time>2024-10-14T07:59:15.256Z</time>
      </trkpt>
      <trkpt lat="47.32184" lon="4.98442">
        <ele>274.6</ele>
        <time>2024-10-14T07:59:15.824Z</time>
      </trkpt>
      <trkpt lat="47.32185" lon="4.98436">
        <ele>274.8</ele>
        <time>2024-10-14T07:59:16.393Z</time>
      </trkpt>
      <trkpt lat="47.32187" lon="4.9843">
        <ele>275.2</ele>
        <time>2024-10-14T07:59:16.962Z</time>
      </trkpt>
      <trkpt lat="47.32188" lon="4.98425">
        <ele>275.4</ele>
        <time>2024-10-14T07:59:17.532Z</time>
      </trkpt>
      <trkpt lat="47.3219" lon="4.9842">
        <ele>276</ele>
        <time>2024-10-14T07:59:18.103Z</time>
      </trkpt>
      <trkpt lat="47.32191" lon="4.98414">
        <ele>276.2</ele>
        <time>2024-10-14T07:59:18.675Z</time>
      </trkpt>
      <trkpt lat="47.32193" lon="4.98408">
        <ele>276.4</ele>
        <time>2024-10-14T07:59:19.247Z</time>
      </trkpt>
      <trkpt lat="47.32194" lon="4.98402">
        <ele>276.6</ele>
        <time>2024-10-14T07:59:19.820Z</time>
      </trkpt>
      <trkpt lat="47.32195" lon="4.98397">
        <ele>277</ele>
        <time>2024-10-14T07:59:20.394Z</time>
      </trkpt>
      <trkpt lat="47.32195" lon="4.9839">
        <ele>277.2</ele>
        <time>2024-10-14T07:59:20.969Z</time>
      </trkpt>
      <trkpt lat="47.32195" lon="4.98384">
        <ele>277.6</ele>
        <time>2024-10-14T07:59:21.545Z</time>
      </trkpt>
      <trkpt lat="47.32195" lon="4.98378">
        <ele>277.8</ele>
        <time>2024-10-14T07:59:22.121Z</time>
      </trkpt>
      <trkpt lat="47.32194" lon="4.98373">
        <ele>278</ele>
        <time>2024-10-14T07:59:22.698Z</time>
      </trkpt>
      <trkpt lat="47.32194" lon="4.98367">
        <ele>278</ele>
        <time>2024-10-14T07:59:23.276Z</time>
      </trkpt>
      <trkpt lat="47.32194" lon="4.98361">
        <ele>278</ele>
        <time>2024-10-14T07:59:23.854Z</time>
      </trkpt>
      <trkpt lat="47.32192" lon="4.98354">
        <ele>278.2</ele>
        <time>2024-10-14T07:59:24.433Z</time>
      </trkpt>
      <trkpt lat="47.32191" lon="4.98347">
        <ele>278.4</ele>
        <time>2024-10-14T07:59:25.013Z</time>
      </trkpt>
      <trkpt lat="47.32189" lon="4.98342">
        <ele>278.4</ele>
        <time>2024-10-14T07:59:25.594Z</time>
      </trkpt>
      <trkpt lat="47.32188" lon="4.98336">
        <ele>278.8</ele>
        <time>2024-10-14T07:59:26.176Z</time>
      </trkpt>
      <trkpt lat="47.32187" lon="4.98329">
        <ele>279.2</ele>
        <time>2024-10-14T07:59:26.759Z</time>
      </trkpt>
      <trkpt lat="47.32185" lon="4.98322">
        <ele>279.2</ele>
        <time>2024-10-14T07:59:27.343Z</time>
      </trkpt>
      <trkpt lat="47.32184" lon="4.98315">
        <ele>279.2</ele>
        <time>2024-10-14T07:59:27.927Z</time>
      </trkpt>
      <trkpt lat="47.32184" lon="4.98309">
        <ele>279.4</ele>
        <time>2024-10-14T07:59:28.512Z</time>
      </trkpt>
      <trkpt lat="47.32182" lon="4.98302">
        <ele>279.4</ele>
        <time>2024-10-14T07:59:29.098Z</time>
      </trkpt>
      <trkpt lat="47.3218" lon="4.98296">
        <ele>279.4</ele>
        <time>2024-10-14T07:59:29.685Z</time>
      </trkpt>
      <trkpt lat="47.32177" lon="4.9829">
        <ele>279.6</ele>
        <time>2024-10-14T07:59:30.273Z</time>
      </trkpt>
      <trkpt lat="47.32175" lon="4.98284">
        <ele>279.8</ele>
        <time>2024-10-14T07:59:30.862Z</time>
      </trkpt>
      <trkpt lat="47.32172" lon="4.98278">
        <ele>279.8</ele>
        <time>2024-10-14T07:59:31.452Z</time>
      </trkpt>
      <trkpt lat="47.3217" lon="4.98273">
        <ele>280</ele>
        <time>2024-10-14T07:59:32.043Z</time>
      </trkpt>
      <trkpt lat="47.32168" lon="4.98267">
        <ele>280</ele>
        <time>2024-10-14T07:59:32.634Z</time>
      </trkpt>
      <trkpt lat="47.32165" lon="4.98262">
        <ele>280</ele>
        <time>2024-10-14T07:59:33.226Z</time>
      </trkpt>
      <trkpt lat="47.32163" lon="4.98256">
        <ele>280</ele>
        <time>2024-10-14T07:59:33.819Z</time>
      </trkpt>
      <trkpt lat="47.32161" lon="4.98251">
        <ele>279.6</ele>
        <time>2024-10-14T07:59:34.413Z</time>
      </trkpt>
      <trkpt lat="47.32158" lon="4.98245">
        <ele>279.6</ele>
        <time>2024-10-14T07:59:35.008Z</time>
      </trkpt>
      <trkpt lat="47.32156" lon="4.9824">
        <ele>279.6</ele>
        <time>2024-10-14T07:59:35.603Z</time>
      </trkpt>
      <trkpt lat="47.32153" lon="4.98234">
        <ele>279.6</ele>
        <time>2024-10-14T07:59:36.199Z</time>
      </trkpt>
      <trkpt lat="47.32151" lon="4.98228">
        <ele>279.6</ele>
        <time>2024-10-14T07:59:36.796Z</time>
      </trkpt>
      <trkpt lat="47.32148" lon="4.98223">
        <ele>280</ele>
        <time>2024-10-14T07:59:37.394Z</time>
      </trkpt>
      <trkpt lat="47.32146" lon="4.98217">
        <ele>280</ele>
        <time>2024-10-14T07:59:37.993Z</time>
      </trkpt>
      <trkpt lat="47.32144" lon="4.98213">
        <ele>280</ele>
        <time>2024-10-14T07:59:38.592Z</time>
      </trkpt>
      <trkpt lat="47.32138" lon="4.98206">
        <ele>280</ele>
        <time>2024-10-14T07:59:39.193Z</time>
      </trkpt>
      <trkpt lat="47.32129" lon="4.98213">
        <ele>283.6</ele>
        <time>2024-10-14T07:59:39.796Z</time>
      </trkpt>
      <trkpt lat="47.32129" lon="4.98213">
        <ele>284</ele>
        <time>2024-10-14T07:59:40.399Z</time>
      </trkpt>
      <trkpt lat="47.32138" lon="4.98206">
        <ele>283.6</ele>
        <time>2024-10-14T07:59:41.003Z</time>
      </trkpt>
      <trkpt lat="47.31986" lon="4.97849">
        <ele>283.4</ele>
        <time>2024-10-14T07:59:41.660Z</time>
      </trkpt>
      <trkpt lat="47.31984" lon="4.97842">
        <ele>283.4</ele>
        <time>2024-10-14T07:59:42.318Z</time>
      </trkpt>
      <trkpt lat="47.31982" lon="4.97835">
        <ele>283.4</ele>
        <time>2024-10-14T07:59:42.977Z</time>
      </trkpt>
      <trkpt lat="47.31979" lon="4.97827">
        <ele>283.4</ele>
        <time>2024-10-14T07:59:43.637Z</time>
      </trkpt>
      <trkpt lat="47.31977" lon="4.9782">
        <ele>283.4</ele>
        <time>2024-10-14T07:59:44.298Z</time>
      </trkpt>
      <trkpt lat="47.31975" lon="4.97812">
        <ele>283.4</ele>
        <time>2024-10-14T07:59:44.960Z</time>
      </trkpt>
      <trkpt lat="47.31975" lon="4.97803">
        <ele>283.4</ele>
        <time>2024-10-14T07:59:45.623Z</time>
      </trkpt>
      <trkpt lat="47.31974" lon="4.97796">
        <ele>283.6</ele>
        <time>2024-10-14T07:59:46.287Z</time>
      </trkpt>
      <trkpt lat="47.32019" lon="4.97818">
        <ele>283.6</ele>
        <time>2024-10-14T07:59:46.960Z</time>
      </trkpt>
      <trkpt lat="47.32021" lon="4.97811">
        <ele>283.6</ele>
        <time>2024-10-14T07:59:47.634Z</time>
      </trkpt>
      <trkpt lat="47.32022" lon="4.97805">
        <ele>283.8</ele>
        <time>2024-10-14T07:59:48.309Z</time>
      </trkpt>
      <trkpt lat="47.32024" lon="4.97799">
        <ele>284</ele>
        <time>2024-10-14T07:59:48.985Z</time>
      </trkpt>
      <trkpt lat="47.32025" lon="4.97792">
        <ele>284.4</ele>
        <time>2024-10-14T07:59:49.662Z</time>
      </trkpt>
      <trkpt lat="47.32027" lon="4.97786">
        <ele>284.6</ele>
        <time>2024-10-14T07:59:50.339Z</time>
      </trkpt>
      <trkpt lat="47.32028" lon="4.9778">
        <ele>284.8</ele>
        <time>2024-10-14T07:59:51.017Z</time>
      </trkpt>
      <trkpt lat="47.32029" lon="4.97777">
        <ele>285</ele>
        <time>2024-10-14T07:59:51.696Z</time>
      </trkpt>
      <trkpt lat="47.32031" lon="4.97771">
        <ele>285.2</ele>
        <time>2024-10-14T07:59:52.375Z</time>
      </trkpt>
      <trkpt lat="47.32032" lon="4.97765">
        <ele>285.6</ele>
        <time>2024-10-14T07:59:53.055Z</time>
      </trkpt>
      <trkpt lat="47.32034" lon="4.97759">
        <ele>285.6</ele>
        <time>2024-10-14T07:59:53.736Z</time>
      </trkpt>
      <trkpt lat="47.32036" lon="4.97753">
        <ele>285.8</ele>
        <time>2024-10-14T07:59:54.418Z</time>
      </trkpt>
      <trkpt lat="47.32037" lon="4.97747">
        <ele>286.2</ele>
        <time>2024-10-14T07:59:55.101Z</time>
      </trkpt>
      <trkpt lat="47.32039" lon="4.97741">
        <ele>286.2</ele>
        <time>2024-10-14T07:59:55.784Z</time>
      </trkpt>
      <trkpt lat="47.3204" lon="4.97735">
        <ele>286.2</ele>
        <time>2024-10-14T07:59:56.468Z</time>
      </trkpt>
      <trkpt lat="47.32042" lon="4.9773">
        <ele>286.4</ele>
        <time>2024-10-14T07:59:57.153Z</time>
      </trkpt>
      <trkpt lat="47.32043" lon="4.97725">
        <ele>286.4</ele>
        <time>2024-10-14T07:59:57.839Z</time>
      </trkpt>
      <trkpt lat="47.32044" lon="4.97721">
        <ele>286.6</ele>
        <time>2024-10-14T07:59:58.525Z</time>
      </trkpt>
      <trkpt lat="47.32045" lon="4.9772">
        <ele>286.8</ele>
        <time>2024-10-14T07:59:59.211Z</time>
      </trkpt>
      <trkpt lat="47.32045" lon="4.97718">
        <ele>287</ele>
        <time>2024-10-14T07:59:59.898Z</time>
      </trkpt>
      <trkpt lat="47.32046" lon="4.97716">
        <ele>287</ele>
        <time>2024-10-14T08:00:00.585Z</time>
      </trkpt>
      <trkpt lat="47.32047" lon="4.97712">
        <ele>287</ele>
        <time>2024-10-14T08:00:01.272Z</time>
      </trkpt>
      <trkpt lat="47.32048" lon="4.97709">
        <ele>287.2</ele>
        <time>2024-10-14T08:00:01.960Z</time>
      </trkpt>
      <trkpt lat="47.32048" lon="4.97709">
        <ele>287.6</ele>
        <time>2024-10-14T08:00:02.648Z</time>
      </trkpt>
      <trkpt lat="47.32051" lon="4.977">
        <ele>288</ele>
        <time>2024-10-14T08:00:03.337Z</time>
      </trkpt>
      <trkpt lat="47.32052" lon="4.97696">
        <ele>288</ele>
        <time>2024-10-14T08:00:04.027Z</time>
      </trkpt>
      <trkpt lat="47.32054" lon="4.97691">
        <ele>288</ele>
        <time>2024-10-14T08:00:04.717Z</time>
      </trkpt>
      <trkpt lat="47.32057" lon="4.97681">
        <ele>288.2</ele>
        <time>2024-10-14T08:00:05.409Z</time>
      </trkpt>
      <trkpt lat="47.32059" lon="4.97676">
        <ele>288.4</ele>
        <time>2024-10-14T08:00:06.101Z</time>
      </trkpt>
      <trkpt lat="47.3206" lon="4.97672">
        <ele>288.8</ele>
        <time>2024-10-14T08:00:06.794Z</time>
      </trkpt>
      <trkpt lat="47.32061" lon="4.97668">
        <ele>289</ele>
        <time>2024-10-14T08:00:07.488Z</time>
      </trkpt>
      <trkpt lat="47.32062" lon="4.97665">
        <ele>289.2</ele>
        <time>2024-10-14T08:00:08.182Z</time>
      </trkpt>
      <trkpt lat="47.32063" lon="4.97662">
        <ele>289.6</ele>
        <time>2024-10-14T08:00:08.876Z</time>
      </trkpt>
      <trkpt lat="47.32063" lon="4.9766">
        <ele>289.8</ele>
        <time>2024-10-14T08:00:09.571Z</time>
      </trkpt>
      <trkpt lat="47.32064" lon="4.97659">
        <ele>290</ele>
        <time>2024-10-14T08:00:10.266Z</time>
      </trkpt>
      <trkpt lat="47.32064" lon="4.97657">
        <ele>290.4</ele>
        <time>2024-10-14T08:00:10.961Z</time>
      </trkpt>
      <trkpt lat="47.32065" lon="4.97655">
        <ele>290.4</ele>
        <time>2024-10-14T08:00:11.656Z</time>
      </trkpt>
      <trkpt lat="47.32065" lon="4.97654">
        <ele>290.4</ele>
        <time>2024-10-14T08:00:12.351Z</time>
      </trkpt>
      <trkpt lat="47.32065" lon="4.97653">
        <ele>290.6</ele>
        <time>2024-10-14T08:00:13.047Z</time>
      </trkpt>
      <trkpt lat="47.32066" lon="4.97653">
        <ele>290.6</ele>
        <time>2024-10-14T08:00:13.743Z</time>
      </trkpt>
      <trkpt lat="47.32066" lon="4.97652">
        <ele>290.6</ele>
        <time>2024-10-14T08:00:14.439Z</time>
      </trkpt>
      <trkpt lat="47.32066" lon="4.97651">
        <ele>290.6</ele>
        <time>2024-10-14T08:00:15.135Z</time>
      </trkpt>
      <trkpt lat="47.32066" lon="4.9765">
        <ele>290.6</ele>
        <time>2024-10-14T08:00:15.831Z</time>
      </trkpt>
      <trkpt lat="47.32067" lon="4.97649">
        <ele>290.6</ele>
        <time>2024-10-14T08:00:16.527Z</time>
      </trkpt>
      <trkpt lat="47.32067" lon="4.97648">
        <ele>290.6</ele>
        <time>2024-10-14T08:00:17.223Z</time>
      </trkpt>
      <trkpt lat="47.32067" lon="4.97647">
        <ele>290.8</ele>
        <time>2024-10-14T08:00:17.919Z</time>
      </trkpt>
      <trkpt lat="47.32068" lon="4.97646">
        <ele>291.2</ele>
        <time>2024-10-14T08:00:18.616Z</time>
      </trkpt>
      <trkpt lat="47.32068" lon="4.97644">
        <ele>291.2</ele>
        <time>2024-10-14T08:00:19.313Z</time>
      </trkpt>
      <trkpt lat="47.32069" lon="4.97642">
        <ele>291.6</ele>
        <time>2024-10-14T08:00:20.010Z</time>
      </trkpt>
      <trkpt lat="47.3207" lon="4.97639">
        <ele>291.8</ele>
        <time>2024-10-14T08:00:20.707Z</time>
      </trkpt>
      <trkpt lat="47.3207" lon="4.97636">
        <ele>292</ele>
        <time>2024-10-14T08:00:21.405Z</time>
      </trkpt>
      <trkpt lat="47.32071" lon="4.97634">
        <ele>292.2</ele>
        <time>2024-10-14T08:00:22.103Z</time>
      </trkpt>
      <trkpt lat="47.32072" lon="4.9763">
        <ele>292.4</ele>
        <time>2024-10-14T08:00:22.802Z</time>
      </trkpt>
      <trkpt lat="47.32073" lon="4.97627">
        <ele>292.4</ele>
        <time>2024-10-14T08:00:23.501Z</time>
      </trkpt>
      <trkpt lat="47.32074" lon="4.97624">
        <ele>292.6</ele>
        <time>2024-10-14T08:00:24.201Z</time>
      </trkpt>
      <trkpt lat="47.32075" lon="4.97621">
        <ele>292.8</ele>
        <time>2024-10-14T08:00:24.901Z</time>
      </trkpt>
      <trkpt lat="47.32076" lon="4.97618">
        <ele>293</ele>
        <time>2024-10-14T08:00:25.601Z</time>
      </trkpt>
      <trkpt lat="47.32076" lon="4.97617">
        <ele>294</ele>
        <time>2024-10-14T08:00:26.302Z</time>
      </trkpt>
      <trkpt lat="47.32078" lon="4.97613">
        <ele>294.6</ele>
        <time>2024-10-14T08:00:27.003Z</time>
      </trkpt>
      <trkpt lat="47.32079" lon="4.97609">
        <ele>294.6</ele>
        <time>2024-10-14T08:00:27.705Z</time>
      </trkpt>
      <trkpt lat="47.3208" lon="4.97606">
        <ele>294.8</ele>
        <time>2024-10-14T08:00:28.407Z</time>
      </trkpt>
      <trkpt lat="47.32082" lon="4.97602">
        <ele>294.8</ele>
        <time>2024-10-14T08:00:29.110Z</time>
      </trkpt>
      <trkpt lat="47.32083" lon="4.97598">
        <ele>295</ele>
        <time>2024-10-14T08:00:29.813Z</time>
      </trkpt>
      <trkpt lat="47.32084" lon="4.97595">
        <ele>295.2</ele>
        <time>2024-10-14T08:00:30.517Z</time>
      </trkpt>
      <trkpt lat="47.32085" lon="4.97592">
        <ele>295.4</ele>
        <time>2024-10-14T08:00:31.221Z</time>
      </trkpt>
      <trkpt lat="47.32086" lon="4.9759">
        <ele>295.4</ele>
        <time>2024-10-14T08:00:31.925Z</time>
      </trkpt>
      <trkpt lat="47.32087" lon="4.97588">
        <ele>295.8</ele>
        <time>2024-10-14T08:00:32.630Z</time>
      </trkpt>
      <trkpt lat="47.32087" lon="4.97586">
        <ele>296</ele>
        <time>2024-10-14T08:00:33.335Z</time>
      </trkpt>
      <trkpt lat="47.32088" lon="4.97585">
        <ele>296</ele>
        <time>2024-10-14T08:00:34.040Z</time>
      </trkpt>
      <trkpt lat="47.32088" lon="4.97584">
        <ele>296.2</ele>
        <time>2024-10-14T08:00:34.745Z</time>
      </trkpt>
      <trkpt lat="47.32089" lon="4.97582">
        <ele>296.2</ele>
        <time>2024-10-14T08:00:35.450Z</time>
      </trkpt>
      <trkpt lat="47.32089" lon="4.97581">
        <ele>296.4</ele>
        <time>2024-10-14T08:00:36.156Z</time>
      </trkpt>
      <trkpt lat="47.32089" lon="4.97581">
        <ele>296.4</ele>
        <time>2024-10-14T08:00:36.862Z</time>
      </trkpt>
      <trkpt lat="47.3209" lon="4.9758">
        <ele>296.6</ele>
        <time>2024-10-14T08:00:37.568Z</time>
      </trkpt>
      <trkpt lat="47.31801" lon="4.97363">
        <ele>297</ele>
        <time>2024-10-14T08:00:38.334Z</time>
      </trkpt>
      <trkpt lat="47.31797" lon="4.97361">
        <ele>297</ele>
        <time>2024-10-14T08:00:39.100Z</time>
      </trkpt>
      <trkpt lat="47.31793" lon="4.97358">
        <ele>297.2</ele>
        <time>2024-10-14T08:00:39.867Z</time>
      </trkpt>
      <trkpt lat="47.31789" lon="4.97355">
        <ele>297.2</ele>
        <time>2024-10-14T08:00:40.635Z</time>
      </trkpt>
      <trkpt lat="47.31785" lon="4.97351">
        <ele>297.4</ele>
        <time>2024-10-14T08:00:41.404Z</time>
      </trkpt>
      <trkpt lat="47.31781" lon="4.97349">
        <ele>297.4</ele>
        <time>2024-10-14T08:00:42.174Z</time>
      </trkpt>
      <trkpt lat="47.31777" lon="4.97348">
        <ele>297.6</ele>
        <time>2024-10-14T08:00:42.944Z</time>
      </trkpt>
      <trkpt lat="47.31807" lon="4.9737">
        <ele>297.8</ele>
        <time>2024-10-14T08:00:43.721Z</time>
      </trkpt>
      <trkpt lat="47.31595" lon="4.9723">
        <ele>302.8</ele>
        <time>2024-10-14T08:00:44.541Z</time>
      </trkpt>
      <trkpt lat="47.31591" lon="4.97228">
        <ele>302.8</ele>
        <time>2024-10-14T08:00:45.361Z</time>
      </trkpt>
      <trkpt lat="47.31587" lon="4.97225">
        <ele>303.2</ele>
        <time>2024-10-14T08:00:46.182Z</time>
      </trkpt>
      <trkpt lat="47.31582" lon="4.97223">
        <ele>303.4</ele>
        <time>2024-10-14T08:00:47.004Z</time>
      </trkpt>
      <trkpt lat="47.31578" lon="4.97221">
        <ele>303.6</ele>
        <time>2024-10-14T08:00:47.827Z</time>
      </trkpt>
      <trkpt lat="47.31574" lon="4.97219">
        <ele>303.8</ele>
        <time>2024-10-14T08:00:48.651Z</time>
      </trkpt>
      <trkpt lat="47.3157" lon="4.97216">
        <ele>304</ele>
        <time>2024-10-14T08:00:49.476Z</time>
      </trkpt>
      <trkpt lat="47.31566" lon="4.97213">
        <ele>304</ele>
        <time>2024-10-14T08:00:50.301Z</time>
      </trkpt>
      <trkpt lat="47.31562" lon="4.9721">
        <ele>304.2</ele>
        <time>2024-10-14T08:00:51.127Z</time>
      </trkpt>
      <trkpt lat="47.31557" lon="4.97207">
        <ele>304.2</ele>
        <time>2024-10-14T08:00:51.954Z</time>
      </trkpt>
      <trkpt lat="47.31553" lon="4.97205">
        <ele>304.2</ele>
        <time>2024-10-14T08:00:52.782Z</time>
      </trkpt>
      <trkpt lat="47.31549" lon="4.97202">
        <ele>304.4</ele>
        <time>2024-10-14T08:00:53.611Z</time>
      </trkpt>
      <trkpt lat="47.31545" lon="4.972">
        <ele>304.6</ele>
        <time>2024-10-14T08:00:54.441Z</time>
      </trkpt>
      <trkpt lat="47.31541" lon="4.97197">
        <ele>304.8</ele>
        <time>2024-10-14T08:00:55.271Z</time>
      </trkpt>
      <trkpt lat="47.31537" lon="4.97193">
        <ele>304.8</ele>
        <time>2024-10-14T08:00:56.102Z</time>
      </trkpt>
      <trkpt lat="47.31533" lon="4.97191">
        <ele>305.2</ele>
        <time>2024-10-14T08:00:56.934Z</time>
      </trkpt>
      <trkpt lat="47.31529" lon="4.97188">
        <ele>305.2</ele>
        <time>2024-10-14T08:00:57.767Z</time>
      </trkpt>
      <trkpt lat="47.31525" lon="4.97185">
        <ele>305.4</ele>
        <time>2024-10-14T08:00:58.601Z</time>
      </trkpt>
      <trkpt lat="47.31521" lon="4.97181">
        <ele>305.6</ele>
        <time>2024-10-14T08:00:59.436Z</time>
      </trkpt>
      <trkpt lat="47.31517" lon="4.97177">
        <ele>305.6</ele>
        <time>2024-10-14T08:01:00.272Z</time>
      </trkpt>
      <trkpt lat="47.31513" lon="4.97174">
        <ele>305.8</ele>
        <time>2024-10-14T08:01:01.108Z</time>
      </trkpt>
      <trkpt lat="47.31509" lon="4.97171">
        <ele>306</ele>
        <time>2024-10-14T08:01:01.945Z</time>
      </trkpt>
      <trkpt lat="47.31505" lon="4.97167">
        <ele>306.2</ele>
        <time>2024-10-14T08:01:02.783Z</time>
      </trkpt>
      <trkpt lat="47.31501" lon="4.97163">
        <ele>306.2</ele>
        <time>2024-10-14T08:01:03.622Z</time>
      </trkpt>
      <trkpt lat="47.31498" lon="4.97158">
        <ele>306.2</ele>
        <time>2024-10-14T08:01:04.462Z</time>
      </trkpt>
      <trkpt lat="47.31494" lon="4.97154">
        <ele>306.2</ele>
        <time>2024-10-14T08:01:05.303Z</time>
      </trkpt>
      <trkpt lat="47.3149" lon="4.9715">
        <ele>306.2</ele>
        <time>2024-10-14T08:01:06.145Z</time>
      </trkpt>
      <trkpt lat="47.31486" lon="4.97145">
        <ele>306.4</ele>
        <time>2024-10-14T08:01:06.988Z</time>
      </trkpt>
      <trkpt lat="47.31482" lon="4.9714">
        <ele>307</ele>
        <time>2024-10-14T08:01:07.831Z</time>
      </trkpt>
      <trkpt lat="47.31478" lon="4.97136">
        <ele>307.8</ele>
        <time>2024-10-14T08:01:08.675Z</time>
      </trkpt>
      <trkpt lat="47.31473" lon="4.97132">
        <ele>308.2</ele>
        <time>2024-10-14T08:01:09.520Z</time>
      </trkpt>
      <trkpt lat="47.31469" lon="4.97128">
        <ele>308.4</ele>
        <time>2024-10-14T08:01:10.366Z</time>
      </trkpt>
      <trkpt lat="47.31464" lon="4.97124">
        <ele>308.6</ele>
        <time>2024-10-14T08:01:11.213Z</time>
      </trkpt>
      <trkpt lat="47.3146" lon="4.9712">
        <ele>308.6</ele>
        <time>2024-10-14T08:01:12.061Z</time>
      </trkpt>
      <trkpt lat="47.31456" lon="4.97116">
        <ele>308.6</ele>
        <time>2024-10-14T08:01:12.910Z</time>
      </trkpt>
      <trkpt lat="47.31452" lon="4.97111">
        <ele>308.6</ele>
        <time>2024-10-14T08:01:13.760Z</time>
      </trkpt>
      <trkpt lat="47.31448" lon="4.97107">
        <ele>308.6</ele>
        <time>2024-10-14T08:01:14.611Z</time>
      </trkpt>
      <trkpt lat="47.31444" lon="4.97102">
        <ele>307.8</ele>
        <time>2024-10-14T08:01:15.463Z</time>
      </trkpt>
      <trkpt lat="47.31439" lon="4.97097">
        <ele>307.8</ele>
        <time>2024-10-14T08:01:16.316Z</time>
      </trkpt>
      <trkpt lat="47.31436" lon="4.97092">
        <ele>307.8</ele>
        <time>2024-10-14T08:01:17.170Z</time>
      </trkpt>
      <trkpt lat="47.31432" lon="4.97086">
        <ele>307.6</ele>
        <time>2024-10-14T08:01:18.025Z</time>
      </trkpt>
      <trkpt lat="47.31428" lon="4.97081">
        <ele>307.6</ele>
        <time>2024-10-14T08:01:18.881Z</time>
      </trkpt>
      <trkpt lat="47.31425" lon="4.97076">
        <ele>307.6</ele>
        <time>2024-10-14T08:01:19.738Z</time>
      </trkpt>
      <trkpt lat="47.31421" lon="4.97071">
        <ele>307.4</ele>
        <time>2024-10-14T08:01:20.596Z</time>
      </trkpt>
      <trkpt lat="47.31417" lon="4.97066">
        <ele>307.2</ele>
        <time>2024-10-14T08:01:21.455Z</time>
      </trkpt>
      <trkpt lat="47.31414" lon="4.97061">
        <ele>307.2</ele>
        <time>2024-10-14T08:01:22.315Z</time>
      </trkpt>
      <trkpt lat="47.3141" lon="4.97055">
        <ele>307.4</ele>
        <time>2024-10-14T08:01:23.176Z</time>
      </trkpt>
      <trkpt lat="47.31407" lon="4.9705">
        <ele>307.4</ele>
        <time>2024-10-14T08:01:24.037Z</time>
      </trkpt>
      <trkpt lat="47.31404" lon="4.97046">
        <ele>307.6</ele>
        <time>2024-10-14T08:01:24.899Z</time>
      </trkpt>
      <trkpt lat="47.314" lon="4.97042">
        <ele>308.2</ele>
        <time>2024-10-14T08:01:25.762Z</time>
      </trkpt>
      <trkpt lat="47.31397" lon="4.97035">
        <ele>309.2</ele>
        <time>2024-10-14T08:01:26.626Z</time>
      </trkpt>
      <trkpt lat="47.31394" lon="4.97029">
        <ele>309.8</ele>
        <time>2024-10-14T08:01:27.491Z</time>
      </trkpt>
      <trkpt lat="47.31391" lon="4.97024">
        <ele>310</ele>
        <time>2024-10-14T08:01:28.357Z</time>
      </trkpt>
      <trkpt lat="47.3139" lon="4.97025">
        <ele>310</ele>
        <time>2024-10-14T08:01:29.223Z</time>
      </trkpt>
      <trkpt lat="47.3139" lon="4.97025">
        <ele>310.2</ele>
        <time>2024-10-14T08:01:30.089Z</time>
      </trkpt>
      <trkpt lat="47.31389" lon="4.97026">
        <ele>310.2</ele>
        <time>2024-10-14T08:01:30.955Z</time>
      </trkpt>
      <trkpt lat="47.31389" lon="4.97026">
        <ele>310.2</ele>
        <time>2024-10-14T08:01:31.821Z</time>
      </trkpt>
      <trkpt lat="47.31423" lon="4.96985">
        <ele>310.2</ele>
        <time>2024-10-14T08:01:32.696Z</time>
      </trkpt>
      <trkpt lat="47.31389" lon="4.97026">
        <ele>310.4</ele>
        <time>2024-10-14T08:01:33.579Z</time>
      </trkpt>
      <trkpt lat="47.31423" lon="4.96985">
        <ele>316.4</ele>
        <time>2024-10-14T08:01:34.470Z</time>
      </trkpt>
      <trkpt lat="47.31389" lon="4.97026">
        <ele>317</ele>
        <time>2024-10-14T08:01:35.369Z</time>
      </trkpt>
      <trkpt lat="47.31216" lon="4.96796">
        <ele>317.6</ele>
        <time>2024-10-14T08:01:36.311Z</time>
      </trkpt>
      <trkpt lat="47.31212" lon="4.96798">
        <ele>317.8</ele>
        <time>2024-10-14T08:01:37.254Z</time>
      </trkpt>
      <trkpt lat="47.31209" lon="4.96801">
        <ele>318</ele>
        <time>2024-10-14T08:01:38.198Z</time>
      </trkpt>
      <trkpt lat="47.31205" lon="4.96803">
        <ele>318.2</ele>
        <time>2024-10-14T08:01:39.142Z</time>
      </trkpt>
      <trkpt lat="47.312" lon="4.96802">
        <ele>318.6</ele>
        <time>2024-10-14T08:01:40.087Z</time>
      </trkpt>
      <trkpt lat="47.31196" lon="4.96799">
        <ele>318.8</ele>
        <time>2024-10-14T08:01:41.033Z</time>
      </trkpt>
      <trkpt lat="47.31194" lon="4.96795">
        <ele>319</ele>
        <time>2024-10-14T08:01:41.980Z</time>
      </trkpt>
      <trkpt lat="47.31254" lon="4.96807">
        <ele>319.4</ele>
        <time>2024-10-14T08:01:42.938Z</time>
      </trkpt>
      <trkpt lat="47.31303" lon="4.9681">
        <ele>319.2</ele>
        <time>2024-10-14T08:01:43.905Z</time>
      </trkpt>
      <trkpt lat="47.31167" lon="4.96655">
        <ele>319.4</ele>
        <time>2024-10-14T08:01:44.904Z</time>
      </trkpt>
      <trkpt lat="47.31169" lon="4.96649">
        <ele>319.6</ele>
        <time>2024-10-14T08:01:45.904Z</time>
      </trkpt>
      <trkpt lat="47.31169" lon="4.96642">
        <ele>321.2</ele>
        <time>2024-10-14T08:01:46.904Z</time>
      </trkpt>
      <trkpt lat="47.31171" lon="4.96635">
        <ele>321.4</ele>
        <time>2024-10-14T08:01:47.905Z</time>
      </trkpt>
      <trkpt lat="47.31172" lon="4.96629">
        <ele>321.4</ele>
        <time>2024-10-14T08:01:48.907Z</time>
      </trkpt>
      <trkpt lat="47.31173" lon="4.96621">
        <ele>321.4</ele>
        <time>2024-10-14T08:01:49.910Z</time>
      </trkpt>
      <trkpt lat="47.31173" lon="4.96613">
        <ele>321.6</ele>
        <time>2024-10-14T08:01:50.914Z</time>
      </trkpt>
      <trkpt lat="47.31174" lon="4.96607">
        <ele>321.6</ele>
        <time>2024-10-14T08:01:51.919Z</time>
      </trkpt>
      <trkpt lat="47.31175" lon="4.96601">
        <ele>321.8</ele>
        <time>2024-10-14T08:01:52.925Z</time>
      </trkpt>
      <trkpt lat="47.31174" lon="4.96594">
        <ele>321.8</ele>
        <time>2024-10-14T08:01:53.932Z</time>
      </trkpt>
      <trkpt lat="47.31173" lon="4.96587">
        <ele>322</ele>
        <time>2024-10-14T08:01:54.940Z</time>
      </trkpt>
      <trkpt lat="47.31173" lon="4.9658">
        <ele>322.2</ele>
        <time>2024-10-14T08:01:55.948Z</time>
      </trkpt>
      <trkpt lat="47.31173" lon="4.96573">
        <ele>322.4</ele>
        <time>2024-10-14T08:01:56.957Z</time>
      </trkpt>
      <trkpt lat="47.31173" lon="4.96567">
        <ele>322.6</ele>
        <time>2024-10-14T08:01:57.967Z</time>
      </trkpt>
      <trkpt lat="47.31174" lon="4.96561">
        <ele>322.6</ele>
        <time>2024-10-14T08:01:58.978Z</time>
      </trkpt>
      <trkpt lat="47.31174" lon="4.96555">
        <ele>322.6</ele>
        <time>2024-10-14T08:01:59.989Z</time>
      </trkpt>
      <trkpt lat="47.31175" lon="4.96549">
        <ele>322.8</ele>
        <time>2024-10-14T08:02:01.001Z</time>
      </trkpt>
      <trkpt lat="47.31174" lon="4.96542">
        <ele>322.8</ele>
        <time>2024-10-14T08:02:02.014Z</time>
      </trkpt>
      <trkpt lat="47.31173" lon="4.96535">
        <ele>323</ele>
        <time>2024-10-14T08:02:03.028Z</time>
      </trkpt>
      <trkpt lat="47.31173" lon="4.96529">
        <ele>323</ele>
        <time>2024-10-14T08:02:04.043Z</time>
      </trkpt>
      <trkpt lat="47.31173" lon="4.96522">
        <ele>323.2</ele>
        <time>2024-10-14T08:02:05.059Z</time>
      </trkpt>
      <trkpt lat="47.31172" lon="4.96516">
        <ele>323.4</ele>
        <time>2024-10-14T08:02:06.075Z</time>
      </trkpt>
      <trkpt lat="47.3117" lon="4.96509">
        <ele>323.4</ele>
        <time>2024-10-14T08:02:07.092Z</time>
      </trkpt>
      <trkpt lat="47.31169" lon="4.96503">
        <ele>323.6</ele>
        <time>2024-10-14T08:02:08.110Z</time>
      </trkpt>
      <trkpt lat="47.31168" lon="4.96497">
        <ele>323.6</ele>
        <time>2024-10-14T08:02:09.129Z</time>
      </trkpt>
      <trkpt lat="47.31167" lon="4.96491">
        <ele>323.8</ele>
        <time>2024-10-14T08:02:10.149Z</time>
      </trkpt>
      <trkpt lat="47.31166" lon="4.96484">
        <ele>323.8</ele>
        <time>2024-10-14T08:02:11.170Z</time>
      </trkpt>
      <trkpt lat="47.31165" lon="4.96478">
        <ele>324</ele>
        <time>2024-10-14T08:02:12.191Z</time>
      </trkpt>
      <trkpt lat="47.31163" lon="4.96471">
        <ele>324</ele>
        <time>2024-10-14T08:02:13.213Z</time>
      </trkpt>
      <trkpt lat="47.3116" lon="4.96464">
        <ele>324</ele>
        <time>2024-10-14T08:02:14.236Z</time>
      </trkpt>
      <trkpt lat="47.31159" lon="4.96468">
        <ele>324.2</ele>
        <time>2024-10-14T08:02:15.260Z</time>
      </trkpt>
      <trkpt lat="47.31159" lon="4.96468">
        <ele>324.6</ele>
        <time>2024-10-14T08:02:16.284Z</time>
      </trkpt>
      <trkpt lat="47.31158" lon="4.96469">
        <ele>324.6</ele>
        <time>2024-10-14T08:02:17.308Z</time>
      </trkpt>
      <trkpt lat="47.31157" lon="4.96469">
        <ele>324.6</ele>
        <time>2024-10-14T08:02:18.332Z</time>
      </trkpt>
      <trkpt lat="47.31156" lon="4.9647">
        <ele>324.8</ele>
        <time>2024-10-14T08:02:19.356Z</time>
      </trkpt>
      <trkpt lat="47.31155" lon="4.9647">
        <ele>325</ele>
        <time>2024-10-14T08:02:20.381Z</time>
      </trkpt>
      <trkpt lat="47.31153" lon="4.9647">
        <ele>325.2</ele>
        <time>2024-10-14T08:02:21.406Z</time>
      </trkpt>
      <trkpt lat="47.31151" lon="4.96471">
        <ele>325.2</ele>
        <time>2024-10-14T08:02:22.431Z</time>
      </trkpt>
      <trkpt lat="47.31149" lon="4.96472">
        <ele>325.2</ele>
        <time>2024-10-14T08:02:23.457Z</time>
      </trkpt>
      <trkpt lat="47.31147" lon="4.96473">
        <ele>325.4</ele>
        <time>2024-10-14T08:02:24.483Z</time>
      </trkpt>
      <trkpt lat="47.31145" lon="4.96473">
        <ele>325.4</ele>
        <time>2024-10-14T08:02:25.509Z</time>
      </trkpt>
      <trkpt lat="47.31144" lon="4.96474">
        <ele>325.6</ele>
        <time>2024-10-14T08:02:26.536Z</time>
      </trkpt>
      <trkpt lat="47.31143" lon="4.96474">
        <ele>325.6</ele>
        <time>2024-10-14T08:02:27.563Z</time>
      </trkpt>
      <trkpt lat="47.31141" lon="4.96475">
        <ele>325.8</ele>
        <time>2024-10-14T08:02:28.590Z</time>
      </trkpt>
      <trkpt lat="47.31139" lon="4.96475">
        <ele>325.8</ele>
        <time>2024-10-14T08:02:29.618Z</time>
      </trkpt>
      <trkpt lat="47.31137" lon="4.96476">
        <ele>326</ele>
        <time>2024-10-14T08:02:30.646Z</time>
      </trkpt>
      <trkpt lat="47.31135" lon="4.96477">
        <ele>326.4</ele>
        <time>2024-10-14T08:02:31.674Z</time>
      </trkpt>
      <trkpt lat="47.31134" lon="4.96477">
        <ele>326.4</ele>
        <time>2024-10-14T08:02:32.703Z</time>
      </trkpt>
      <trkpt lat="47.31132" lon="4.96478">
        <ele>326.6</ele>
        <time>2024-10-14T08:02:33.732Z</time>
      </trkpt>
      <trkpt lat="47.31131" lon="4.96478">
        <ele>326.6</ele>
        <time>2024-10-14T08:02:34.761Z</time>
      </trkpt>
      <trkpt lat="47.31129" lon="4.96479">
        <ele>326.6</ele>
        <time>2024-10-14T08:02:35.791Z</time>
      </trkpt>
      <trkpt lat="47.31127" lon="4.9648">
        <ele>326.8</ele>
        <time>2024-10-14T08:02:36.821Z</time>
      </trkpt>
      <trkpt lat="47.31125" lon="4.9648">
        <ele>327</ele>
        <time>2024-10-14T08:02:37.851Z</time>
      </trkpt>
      <trkpt lat="47.31121" lon="4.96482">
        <ele>327.2</ele>
        <time>2024-10-14T08:02:38.882Z</time>
      </trkpt>
      <trkpt lat="47.3112" lon="4.96482">
        <ele>327.4</ele>
        <time>2024-10-14T08:02:39.913Z</time>
      </trkpt>
      <trkpt lat="47.31118" lon="4.96483">
        <ele>327.4</ele>
        <time>2024-10-14T08:02:40.945Z</time>
      </trkpt>
      <trkpt lat="47.31117" lon="4.96483">
        <ele>327.6</ele>
        <time>2024-10-14T08:02:41.977Z</time>
      </trkpt>
      <trkpt lat="47.31116" lon="4.96483">
        <ele>327.6</ele>
        <time>2024-10-14T08:02:43.009Z</time>
      </trkpt>
      <trkpt lat="47.31115" lon="4.96484">
        <ele>327.8</ele>
        <time>2024-10-14T08:02:44.041Z</time>
      </trkpt>
      <trkpt lat="47.31114" lon="4.96484">
        <ele>328</ele>
        <time>2024-10-14T08:02:45.073Z</time>
      </trkpt>
      <trkpt lat="47.31112" lon="4.96485">
        <ele>328.2</ele>
        <time>2024-10-14T08:02:46.106Z</time>
      </trkpt>
      <trkpt lat="47.31111" lon="4.96485">
        <ele>328.4</ele>
        <time>2024-10-14T08:02:47.139Z</time>
      </trkpt>
      <trkpt lat="47.31109" lon="4.96485">
        <ele>328.6</ele>
        <time>2024-10-14T08:02:48.172Z</time>
      </trkpt>
      <trkpt lat="47.31108" lon="4.96486">
        <ele>328.8</ele>
        <time>2024-10-14T08:02:49.205Z</time>
      </trkpt>
      <trkpt lat="47.31107" lon="4.96486">
        <ele>329</ele>
        <time>2024-10-14T08:02:50.239Z</time>
      </trkpt>
      <trkpt lat="47.31106" lon="4.96486">
        <ele>329.2</ele>
        <time>2024-10-14T08:02:51.273Z</time>
      </trkpt>
      <trkpt lat="47.31105" lon="4.96487">
        <ele>329.2</ele>
        <time>2024-10-14T08:02:52.307Z</time>
      </trkpt>
      <trkpt lat="47.31105" lon="4.96487">
        <ele>329.4</ele>
        <time>2024-10-14T08:02:53.341Z</time>
      </trkpt>
      <trkpt lat="47.31103" lon="4.96487">
        <ele>329.4</ele>
        <time>2024-10-14T08:02:54.375Z</time>
      </trkpt>
      <trkpt lat="47.31101" lon="4.96488">
        <ele>329.4</ele>
        <time>2024-10-14T08:02:55.410Z</time>
      </trkpt>
      <trkpt lat="47.311" lon="4.96488">
        <ele>329.6</ele>
        <time>2024-10-14T08:02:56.445Z</time>
      </trkpt>
      <trkpt lat="47.31099" lon="4.96489">
        <ele>329.8</ele>
        <time>2024-10-14T08:02:57.480Z</time>
      </trkpt>
      <trkpt lat="47.31098" lon="4.96489">
        <ele>330</ele>
        <time>2024-10-14T08:02:58.515Z</time>
      </trkpt>
      <trkpt lat="47.31096" lon="4.9649">
        <ele>330.2</ele>
        <time>2024-10-14T08:02:59.551Z</time>
      </trkpt>
      <trkpt lat="47.31068" lon="4.96495">
        <ele>330.2</ele>
        <time>2024-10-14T08:03:00.592Z</time>
      </trkpt>
      <trkpt lat="47.31065" lon="4.96495">
        <ele>330.2</ele>
        <time>2024-10-14T08:03:01.634Z</time>
      </trkpt>
      <trkpt lat="47.31062" lon="4.96496">
        <ele>330.4</ele>
        <time>2024-10-14T08:03:02.676Z</time>
      </trkpt>
      <trkpt lat="47.31059" lon="4.96496">
        <ele>330.6</ele>
        <time>2024-10-14T08:03:03.719Z</time>
      </trkpt>
      <trkpt lat="47.31056" lon="4.96496">
        <ele>330.8</ele>
        <time>2024-10-14T08:03:04.762Z</time>
      </trkpt>
      <trkpt lat="47.31053" lon="4.96496">
        <ele>331</ele>
        <time>2024-10-14T08:03:05.806Z</time>
      </trkpt>
      <trkpt lat="47.31052" lon="4.96496">
        <ele>331</ele>
        <time>2024-10-14T08:03:06.850Z</time>
      </trkpt>
      <trkpt lat="47.3099" lon="4.96146">
        <ele>333</ele>
        <time>2024-10-14T08:03:07.939Z</time>
      </trkpt>
      <trkpt lat="47.30986" lon="4.96143">
        <ele>333</ele>
        <time>2024-10-14T08:03:09.029Z</time>
      </trkpt>
      <trkpt lat="47.30982" lon="4.96139">
        <ele>333.2</ele>
        <time>2024-10-14T08:03:10.120Z</time>
      </trkpt>
      <trkpt lat="47.30978" lon="4.96137">
        <ele>333.4</ele>
        <time>2024-10-14T08:03:11.212Z</time>
      </trkpt>
      <trkpt lat="47.30975" lon="4.96134">
        <ele>333.4</ele>
        <time>2024-10-14T08:03:12.305Z</time>
      </trkpt>
      <trkpt lat="47.30971" lon="4.9613">
        <ele>333.6</ele>
        <time>2024-10-14T08:03:13.399Z</time>
      </trkpt>
      <trkpt lat="47.30967" lon="4.96127">
        <ele>333.8</ele>
        <time>2024-10-14T08:03:14.493Z</time>
      </trkpt>
      <trkpt lat="47.30963" lon="4.96125">
        <ele>334</ele>
        <time>2024-10-14T08:03:15.588Z</time>
      </trkpt>
      <trkpt lat="47.31009" lon="4.96086">
        <ele>334</ele>
        <time>2024-10-14T08:03:16.693Z</time>
      </trkpt>
      <trkpt lat="47.31009" lon="4.96085">
        <ele>336</ele>
        <time>2024-10-14T08:03:17.798Z</time>
      </trkpt>
      <trkpt lat="47.30998" lon="4.9605">
        <ele>336.2</ele>
        <time>2024-10-14T08:03:18.908Z</time>
      </trkpt>
      <trkpt lat="47.3099" lon="4.96031">
        <ele>336.6</ele>
        <time>2024-10-14T08:03:20.021Z</time>
      </trkpt>
      <trkpt lat="47.30979" lon="4.95993">
        <ele>337.4</ele>
        <time>2024-10-14T08:03:21.139Z</time>
      </trkpt>
      <trkpt lat="47.30947" lon="4.95945">
        <ele>337.6</ele>
        <time>2024-10-14T08:03:22.265Z</time>
      </trkpt>
      <trkpt lat="47.30944" lon="4.95941">
        <ele>338.2</ele>
        <time>2024-10-14T08:03:23.392Z</time>
      </trkpt>
      <trkpt lat="47.30941" lon="4.95937">
        <ele>338.6</ele>
        <time>2024-10-14T08:03:24.520Z</time>
      </trkpt>
      <trkpt lat="47.3094" lon="4.95936">
        <ele>338.8</ele>
        <time>2024-10-14T08:03:25.648Z</time>
      </trkpt>
      <trkpt lat="47.3094" lon="4.95934">
        <ele>346</ele>
        <time>2024-10-14T08:03:26.776Z</time>
      </trkpt>
      <trkpt lat="47.30713" lon="4.95999">
        <ele>346</ele>
        <time>2024-10-14T08:03:27.947Z</time>
      </trkpt>
      <trkpt lat="47.3071" lon="4.95999">
        <ele>346.2</ele>
        <time>2024-10-14T08:03:29.119Z</time>
      </trkpt>
      <trkpt lat="47.30706" lon="4.95996">
        <ele>346.4</ele>
        <time>2024-10-14T08:03:30.291Z</time>
      </trkpt>
      <trkpt lat="47.30702" lon="4.95994">
        <ele>346.6</ele>
        <time>2024-10-14T08:03:31.464Z</time>
      </trkpt>
      <trkpt lat="47.30698" lon="4.95993">
        <ele>346.8</ele>
        <time>2024-10-14T08:03:32.638Z</time>
      </trkpt>
      <trkpt lat="47.30695" lon="4.9599">
        <ele>346.8</ele>
        <time>2024-10-14T08:03:33.813Z</time>
      </trkpt>
      <trkpt lat="47.30691" lon="4.95988">
        <ele>347.2</ele>
        <time>2024-10-14T08:03:34.988Z</time>
      </trkpt>
      <trkpt lat="47.30685" lon="4.95986">
        <ele>347.4</ele>
        <time>2024-10-14T08:03:36.164Z</time>
      </trkpt>
      <trkpt lat="47.30514" lon="4.95785">
        <ele>358.8</ele>
        <time>2024-10-14T08:03:37.381Z</time>
      </trkpt>
      <trkpt lat="47.30511" lon="4.95783">
        <ele>358.8</ele>
        <time>2024-10-14T08:03:38.598Z</time>
      </trkpt>
      <trkpt lat="47.30508" lon="4.95782">
        <ele>359</ele>
        <time>2024-10-14T08:03:39.816Z</time>
      </trkpt>
      <trkpt lat="47.30505" lon="4.9578">
        <ele>359.2</ele>
        <time>2024-10-14T08:03:41.035Z</time>
      </trkpt>
      <trkpt lat="47.30501" lon="4.95778">
        <ele>359.4</ele>
        <time>2024-10-14T08:03:42.254Z</time>
      </trkpt>
      <trkpt lat="47.30498" lon="4.95776">
        <ele>359.6</ele>
        <time>2024-10-14T08:03:43.474Z</time>
      </trkpt>
      <trkpt lat="47.30494" lon="4.95773">
        <ele>359.8</ele>
        <time>2024-10-14T08:03:44.695Z</time>
      </trkpt>
      <trkpt lat="47.3049" lon="4.95771">
        <ele>360</ele>
        <time>2024-10-14T08:03:45.916Z</time>
      </trkpt>
      <trkpt lat="47.30487" lon="4.95769">
        <ele>360.2</ele>
        <time>2024-10-14T08:03:47.138Z</time>
      </trkpt>
      <trkpt lat="47.30483" lon="4.95767">
        <ele>360.4</ele>
        <time>2024-10-14T08:03:48.361Z</time>
      </trkpt>
      <trkpt lat="47.3048" lon="4.95766">
        <ele>360.6</ele>
        <time>2024-10-14T08:03:49.584Z</time>
      </trkpt>
      <trkpt lat="47.30477" lon="4.95764">
        <ele>360.8</ele>
        <time>2024-10-14T08:03:50.808Z</time>
      </trkpt>
      <trkpt lat="47.30473" lon="4.95762">
        <ele>360.8</ele>
        <time>2024-10-14T08:03:52.033Z</time>
      </trkpt>
      <trkpt lat="47.30469" lon="4.9576">
        <ele>361.2</ele>
        <time>2024-10-14T08:03:53.259Z</time>
      </trkpt>
      <trkpt lat="47.30465" lon="4.95756">
        <ele>361.2</ele>
        <time>2024-10-14T08:03:54.486Z</time>
      </trkpt>
      <trkpt lat="47.30462" lon="4.95754">
        <ele>361.6</ele>
        <time>2024-10-14T08:03:55.713Z</time>
      </trkpt>
      <trkpt lat="47.30458" lon="4.9575">
        <ele>361.8</ele>
        <time>2024-10-14T08:03:56.941Z</time>
      </trkpt>
      <trkpt lat="47.30455" lon="4.95748">
        <ele>362</ele>
        <time>2024-10-14T08:03:58.170Z</time>
      </trkpt>
      <trkpt lat="47.30451" lon="4.95744">
        <ele>362.2</ele>
        <time>2024-10-14T08:03:59.400Z</time>
      </trkpt>
      <trkpt lat="47.30448" lon="4.95742">
        <ele>362.6</ele>
        <time>2024-10-14T08:04:00.630Z</time>
      </trkpt>
      <trkpt lat="47.30444" lon="4.95739">
        <ele>362.6</ele>
        <time>2024-10-14T08:04:01.861Z</time>
      </trkpt>
      <trkpt lat="47.30441" lon="4.95736">
        <ele>362.8</ele>
        <time>2024-10-14T08:04:03.093Z</time>
      </trkpt>
      <trkpt lat="47.30438" lon="4.95733">
        <ele>362.8</ele>
        <time>2024-10-14T08:04:04.325Z</time>
      </trkpt>
      <trkpt lat="47.30434" lon="4.9573">
        <ele>363</ele>
        <time>2024-10-14T08:04:05.558Z</time>
      </trkpt>
      <trkpt lat="47.30432" lon="4.95726">
        <ele>363.2</ele>
        <time>2024-10-14T08:04:06.792Z</time>
      </trkpt>
      <trkpt lat="47.30428" lon="4.95723">
        <ele>363.4</ele>
        <time>2024-10-14T08:04:08.027Z</time>
      </trkpt>
      <trkpt lat="47.30426" lon="4.95719">
        <ele>363.4</ele>
        <time>2024-10-14T08:04:09.262Z</time>
      </trkpt>
      <trkpt lat="47.30422" lon="4.95714">
        <ele>363.8</ele>
        <time>2024-10-14T08:04:10.498Z</time>
      </trkpt>
      <trkpt lat="47.30419" lon="4.95711">
        <ele>364</ele>
        <time>2024-10-14T08:04:11.735Z</time>
      </trkpt>
      <trkpt lat="47.30416" lon="4.95707">
        <ele>364</ele>
        <time>2024-10-14T08:04:12.973Z</time>
      </trkpt>
      <trkpt lat="47.30413" lon="4.95703">
        <ele>364.2</ele>
        <time>2024-10-14T08:04:14.211Z</time>
      </trkpt>
      <trkpt lat="47.30411" lon="4.95698">
        <ele>364.4</ele>
        <time>2024-10-14T08:04:15.450Z</time>
      </trkpt>
      <trkpt lat="47.30408" lon="4.95694">
        <ele>364.6</ele>
        <time>2024-10-14T08:04:16.690Z</time>
      </trkpt>
      <trkpt lat="47.30405" lon="4.95689">
        <ele>364.8</ele>
        <time>2024-10-14T08:04:17.931Z</time>
      </trkpt>
      <trkpt lat="47.30403" lon="4.95685">
        <ele>365</ele>
        <time>2024-10-14T08:04:19.172Z</time>
      </trkpt>
      <trkpt lat="47.304" lon="4.95681">
        <ele>365</ele>
        <time>2024-10-14T08:04:20.414Z</time>
      </trkpt>
      <trkpt lat="47.30397" lon="4.95676">
        <ele>365.2</ele>
        <time>2024-10-14T08:04:21.657Z</time>
      </trkpt>
      <trkpt lat="47.30394" lon="4.95672">
        <ele>365.4</ele>
        <time>2024-10-14T08:04:22.901Z</time>
      </trkpt>
      <trkpt lat="47.30391" lon="4.95669">
        <ele>365.6</ele>
        <time>2024-10-14T08:04:24.145Z</time>
      </trkpt>
      <trkpt lat="47.30388" lon="4.95665">
        <ele>365.8</ele>
        <time>2024-10-14T08:04:25.390Z</time>
      </trkpt>
      <trkpt lat="47.30385" lon="4.95662">
        <ele>365.8</ele>
        <time>2024-10-14T08:04:26.636Z</time>
      </trkpt>
      <trkpt lat="47.30383" lon="4.95657">
        <ele>366</ele>
        <time>2024-10-14T08:04:27.882Z</time>
      </trkpt>
      <trkpt lat="47.30381" lon="4.95651">
        <ele>366.2</ele>
        <time>2024-10-14T08:04:29.129Z</time>
      </trkpt>
      <trkpt lat="47.3038" lon="4.95647">
        <ele>366.4</ele>
        <time>2024-10-14T08:04:30.377Z</time>
      </trkpt>
      <trkpt lat="47.30377" lon="4.95642">
        <ele>366.4</ele>
        <time>2024-10-14T08:04:31.626Z</time>
      </trkpt>
      <trkpt lat="47.30375" lon="4.95638">
        <ele>366.6</ele>
        <time>2024-10-14T08:04:32.875Z</time>
      </trkpt>
      <trkpt lat="47.30373" lon="4.95634">
        <ele>367</ele>
        <time>2024-10-14T08:04:34.125Z</time>
      </trkpt>
      <trkpt lat="47.3037" lon="4.9563">
        <ele>367.2</ele>
        <time>2024-10-14T08:04:35.376Z</time>
      </trkpt>
      <trkpt lat="47.30369" lon="4.95626">
        <ele>367.2</ele>
        <time>2024-10-14T08:04:36.627Z</time>
      </trkpt>
      <trkpt lat="47.30367" lon="4.95621">
        <ele>367.4</ele>
        <time>2024-10-14T08:04:37.879Z</time>
      </trkpt>
      <trkpt lat="47.30365" lon="4.95615">
        <ele>367.6</ele>
        <time>2024-10-14T08:04:39.132Z</time>
      </trkpt>
      <trkpt lat="47.30363" lon="4.9561">
        <ele>367.6</ele>
        <time>2024-10-14T08:04:40.385Z</time>
      </trkpt>
      <trkpt lat="47.30361" lon="4.95606">
        <ele>367.8</ele>
        <time>2024-10-14T08:04:41.639Z</time>
      </trkpt>
      <trkpt lat="47.30359" lon="4.95601">
        <ele>368</ele>
        <time>2024-10-14T08:04:42.894Z</time>
      </trkpt>
      <trkpt lat="47.30358" lon="4.95597">
        <ele>368.2</ele>
        <time>2024-10-14T08:04:44.149Z</time>
      </trkpt>
      <trkpt lat="47.30356" lon="4.95593">
        <ele>368.4</ele>
        <time>2024-10-14T08:04:45.405Z</time>
      </trkpt>
      <trkpt lat="47.30353" lon="4.95588">
        <ele>368.4</ele>
        <time>2024-10-14T08:04:46.662Z</time>
      </trkpt>
      <trkpt lat="47.30351" lon="4.95582">
        <ele>368.6</ele>
        <time>2024-10-14T08:04:47.920Z</time>
      </trkpt>
      <trkpt lat="47.30349" lon="4.95577">
        <ele>368.8</ele>
        <time>2024-10-14T08:04:49.178Z</time>
      </trkpt>
      <trkpt lat="47.30347" lon="4.95573">
        <ele>369.2</ele>
        <time>2024-10-14T08:04:50.437Z</time>
      </trkpt>
      <trkpt lat="47.30346" lon="4.95568">
        <ele>369.6</ele>
        <time>2024-10-14T08:04:51.697Z</time>
      </trkpt>
      <trkpt lat="47.30343" lon="4.95564">
        <ele>369.8</ele>
        <time>2024-10-14T08:04:52.957Z</time>
      </trkpt>
      <trkpt lat="47.30341" lon="4.9556">
        <ele>369.8</ele>
        <time>2024-10-14T08:04:54.218Z</time>
      </trkpt>
      <trkpt lat="47.30339" lon="4.95555">
        <ele>370</ele>
        <time>2024-10-14T08:04:55.480Z</time>
      </trkpt>
      <trkpt lat="47.30337" lon="4.9555">
        <ele>370</ele>
        <time>2024-10-14T08:04:56.742Z</time>
      </trkpt>
      <trkpt lat="47.30336" lon="4.95545">
        <ele>370.2</ele>
        <time>2024-10-14T08:04:58.005Z</time>
      </trkpt>
      <trkpt lat="47.30335" lon="4.95541">
        <ele>370.4</ele>
        <time>2024-10-14T08:04:59.269Z</time>
      </trkpt>
      <trkpt lat="47.30333" lon="4.95535">
        <ele>370.8</ele>
        <time>2024-10-14T08:05:00.533Z</time>
      </trkpt>
      <trkpt lat="47.30333" lon="4.9553">
        <ele>371</ele>
        <time>2024-10-14T08:05:01.798Z</time>
      </trkpt>
      <trkpt lat="47.30331" lon="4.95525">
        <ele>371.2</ele>
        <time>2024-10-14T08:05:03.064Z</time>
      </trkpt>
      <trkpt lat="47.30329" lon="4.95522">
        <ele>371.6</ele>
        <time>2024-10-14T08:05:04.330Z</time>
      </trkpt>
      <trkpt lat="47.30328" lon="4.95518">
        <ele>372</ele>
        <time>2024-10-14T08:05:05.597Z</time>
      </trkpt>
      <trkpt lat="47.30325" lon="4.95514">
        <ele>372.2</ele>
        <time>2024-10-14T08:05:06.865Z</time>
      </trkpt>
      <trkpt lat="47.30323" lon="4.9551">
        <ele>372.4</ele>
        <time>2024-10-14T08:05:08.133Z</time>
      </trkpt>
      <trkpt lat="47.30321" lon="4.95506">
        <ele>372.6</ele>
        <time>2024-10-14T08:05:09.402Z</time>
      </trkpt>
      <trkpt lat="47.30319" lon="4.95501">
        <ele>372.8</ele>
        <time>2024-10-14T08:05:10.671Z</time>
      </trkpt>
      <trkpt lat="47.30317" lon="4.95497">
        <ele>373</ele>
        <time>2024-10-14T08:05:11.941Z</time>
      </trkpt>
      <trkpt lat="47.30315" lon="4.95493">
        <ele>373.2</ele>
        <time>2024-10-14T08:05:13.212Z</time>
      </trkpt>
      <trkpt lat="47.30312" lon="4.95488">
        <ele>373.4</ele>
        <time>2024-10-14T08:05:14.484Z</time>
      </trkpt>
      <trkpt lat="47.30311" lon="4.95482">
        <ele>373.6</ele>
        <time>2024-10-14T08:05:15.756Z</time>
      </trkpt>
      <trkpt lat="47.30309" lon="4.95477">
        <ele>373.6</ele>
        <time>2024-10-14T08:05:17.029Z</time>
      </trkpt>
      <trkpt lat="47.30307" lon="4.95472">
        <ele>373.8</ele>
        <time>2024-10-14T08:05:18.303Z</time>
      </trkpt>
      <trkpt lat="47.30305" lon="4.95467">
        <ele>374</ele>
        <time>2024-10-14T08:05:19.577Z</time>
      </trkpt>
      <trkpt lat="47.30304" lon="4.95463">
        <ele>374.2</ele>
        <time>2024-10-14T08:05:20.852Z</time>
      </trkpt>
      <trkpt lat="47.30301" lon="4.95458">
        <ele>374.6</ele>
        <time>2024-10-14T08:05:22.128Z</time>
      </trkpt>
      <trkpt lat="47.30299" lon="4.95454">
        <ele>374.6</ele>
        <time>2024-10-14T08:05:23.404Z</time>
      </trkpt>
      <trkpt lat="47.30297" lon="4.95449">
        <ele>374.8</ele>
        <time>2024-10-14T08:05:24.681Z</time>
      </trkpt>
      <trkpt lat="47.30296" lon="4.95445">
        <ele>375.2</ele>
        <time>2024-10-14T08:05:25.959Z</time>
      </trkpt>
      <trkpt lat="47.30294" lon="4.95441">
        <ele>375.4</ele>
        <time>2024-10-14T08:05:27.237Z</time>
      </trkpt>
      <trkpt lat="47.30293" lon="4.95437">
        <ele>375.8</ele>
        <time>2024-10-14T08:05:28.516Z</time>
      </trkpt>
      <trkpt lat="47.30291" lon="4.95432">
        <ele>376</ele>
        <time>2024-10-14T08:05:29.796Z</time>
      </trkpt>
      <trkpt lat="47.30288" lon="4.95428">
        <ele>376</ele>
        <time>2024-10-14T08:05:31.076Z</time>
      </trkpt>
      <trkpt lat="47.30286" lon="4.95424">
        <ele>376.2</ele>
        <time>2024-10-14T08:05:32.357Z</time>
      </trkpt>
      <trkpt lat="47.30283" lon="4.95419">
        <ele>376.4</ele>
        <time>2024-10-14T08:05:33.639Z</time>
      </trkpt>
      <trkpt lat="47.30281" lon="4.95415">
        <ele>376.6</ele>
        <time>2024-10-14T08:05:34.921Z</time>
      </trkpt>
      <trkpt lat="47.30278" lon="4.95411">
        <ele>377</ele>
        <time>2024-10-14T08:05:36.204Z</time>
      </trkpt>
      <trkpt lat="47.30275" lon="4.95406">
        <ele>377.4</ele>
        <time>2024-10-14T08:05:37.488Z</time>
      </trkpt>
      <trkpt lat="47.30273" lon="4.95401">
        <ele>377.4</ele>
        <time>2024-10-14T08:05:38.773Z</time>
      </trkpt>
      <trkpt lat="47.30271" lon="4.95397">
        <ele>377.8</ele>
        <time>2024-10-14T08:05:40.058Z</time>
      </trkpt>
      <trkpt lat="47.30269" lon="4.95392">
        <ele>378.2</ele>
        <time>2024-10-14T08:05:41.344Z</time>
      </trkpt>
      <trkpt lat="47.30267" lon="4.95388">
        <ele>378.4</ele>
        <time>2024-10-14T08:05:42.631Z</time>
      </trkpt>
      <trkpt lat="47.30266" lon="4.95383">
        <ele>378.6</ele>
        <time>2024-10-14T08:05:43.918Z</time>
      </trkpt>
      <trkpt lat="47.30264" lon="4.95377">
        <ele>378.8</ele>
        <time>2024-10-14T08:05:45.206Z</time>
      </trkpt>
      <trkpt lat="47.30262" lon="4.95373">
        <ele>379</ele>
        <time>2024-10-14T08:05:46.495Z</time>
      </trkpt>
      <trkpt lat="47.30261" lon="4.95369">
        <ele>379.2</ele>
        <time>2024-10-14T08:05:47.784Z</time>
      </trkpt>
      <trkpt lat="47.3026" lon="4.95365">
        <ele>379.4</ele>
        <time>2024-10-14T08:05:49.074Z</time>
      </trkpt>
      <trkpt lat="47.30259" lon="4.9536">
        <ele>380.2</ele>
        <time>2024-10-14T08:05:50.364Z</time>
      </trkpt>
      <trkpt lat="47.30258" lon="4.95358">
        <ele>380.2</ele>
        <time>2024-10-14T08:05:51.655Z</time>
      </trkpt>
      <trkpt lat="47.30256" lon="4.95353">
        <ele>380.4</ele>
        <time>2024-10-14T08:05:52.947Z</time>
      </trkpt>
      <trkpt lat="47.30255" lon="4.95348">
        <ele>380.6</ele>
        <time>2024-10-14T08:05:54.239Z</time>
      </trkpt>
      <trkpt lat="47.30253" lon="4.95343">
        <ele>380.8</ele>
        <time>2024-10-14T08:05:55.532Z</time>
      </trkpt>
      <trkpt lat="47.30251" lon="4.95339">
        <ele>381.2</ele>
        <time>2024-10-14T08:05:56.825Z</time>
      </trkpt>
      <trkpt lat="47.3025" lon="4.95335">
        <ele>381.4</ele>
        <time>2024-10-14T08:05:58.119Z</time>
      </trkpt>
      <trkpt lat="47.30249" lon="4.95332">
        <ele>381.8</ele>
        <time>2024-10-14T08:05:59.413Z</time>
      </trkpt>
      <trkpt lat="47.30248" lon="4.95328">
        <ele>382</ele>
        <time>2024-10-14T08:06:00.708Z</time>
      </trkpt>
      <trkpt lat="47.30246" lon="4.95323">
        <ele>382.4</ele>
        <time>2024-10-14T08:06:02.004Z</time>
      </trkpt>
      <trkpt lat="47.30244" lon="4.9532">
        <ele>382.8</ele>
        <time>2024-10-14T08:06:03.300Z</time>
      </trkpt>
      <trkpt lat="47.30242" lon="4.95316">
        <ele>383</ele>
        <time>2024-10-14T08:06:04.597Z</time>
      </trkpt>
      <trkpt lat="47.30242" lon="4.95312">
        <ele>383.4</ele>
        <time>2024-10-14T08:06:05.894Z</time>
      </trkpt>
      <trkpt lat="47.30241" lon="4.95307">
        <ele>384</ele>
        <time>2024-10-14T08:06:07.192Z</time>
      </trkpt>
      <trkpt lat="47.30239" lon="4.95303">
        <ele>384.2</ele>
        <time>2024-10-14T08:06:08.491Z</time>
      </trkpt>
      <trkpt lat="47.30238" lon="4.95299">
        <ele>384.4</ele>
        <time>2024-10-14T08:06:09.790Z</time>
      </trkpt>
      <trkpt lat="47.30237" lon="4.95295">
        <ele>384.6</ele>
        <time>2024-10-14T08:06:11.090Z</time>
      </trkpt>
      <trkpt lat="47.30236" lon="4.9529">
        <ele>385</ele>
        <time>2024-10-14T08:06:12.390Z</time>
      </trkpt>
      <trkpt lat="47.30235" lon="4.95286">
        <ele>385.2</ele>
        <time>2024-10-14T08:06:13.691Z</time>
      </trkpt>
      <trkpt lat="47.30234" lon="4.95282">
        <ele>385.6</ele>
        <time>2024-10-14T08:06:14.992Z</time>
      </trkpt>
      <trkpt lat="47.30233" lon="4.95277">
        <ele>385.8</ele>
        <time>2024-10-14T08:06:16.294Z</time>
      </trkpt>
      <trkpt lat="47.30232" lon="4.95273">
        <ele>386</ele>
        <time>2024-10-14T08:06:17.597Z</time>
      </trkpt>
      <trkpt lat="47.30231" lon="4.95269">
        <ele>386.2</ele>
        <time>2024-10-14T08:06:18.900Z</time>
      </trkpt>
      <trkpt lat="47.3023" lon="4.95264">
        <ele>386.4</ele>
        <time>2024-10-14T08:06:20.204Z</time>
      </trkpt>
      <trkpt lat="47.30229" lon="4.9526">
        <ele>386.8</ele>
        <time>2024-10-14T08:06:21.508Z</time>
      </trkpt>
      <trkpt lat="47.30229" lon="4.95255">
        <ele>387</ele>
        <time>2024-10-14T08:06:22.813Z</time>
      </trkpt>
      <trkpt lat="47.30228" lon="4.9525">
        <ele>387.2</ele>
        <time>2024-10-14T08:06:24.119Z</time>
      </trkpt>
      <trkpt lat="47.30227" lon="4.95246">
        <ele>387.6</ele>
        <time>2024-10-14T08:06:25.425Z</time>
      </trkpt>
      <trkpt lat="47.30226" lon="4.95242">
        <ele>387.8</ele>
        <time>2024-10-14T08:06:26.732Z</time>
      </trkpt>
      <trkpt lat="47.30225" lon="4.95238">
        <ele>387.8</ele>
        <time>2024-10-14T08:06:28.039Z</time>
      </trkpt>
      <trkpt lat="47.30225" lon="4.95234">
        <ele>388.2</ele>
        <time>2024-10-14T08:06:29.347Z</time>
      </trkpt>
      <trkpt lat="47.30224" lon="4.9523">
        <ele>388.4</ele>
        <time>2024-10-14T08:06:30.655Z</time>
      </trkpt>
      <trkpt lat="47.30223" lon="4.95226">
        <ele>388.6</ele>
        <time>2024-10-14T08:06:31.964Z</time>
      </trkpt>
      <trkpt lat="47.30222" lon="4.95221">
        <ele>389</ele>
        <time>2024-10-14T08:06:33.273Z</time>
      </trkpt>
      <trkpt lat="47.30221" lon="4.95216">
        <ele>389.2</ele>
        <time>2024-10-14T08:06:34.583Z</time>
      </trkpt>
      <trkpt lat="47.3022" lon="4.95212">
        <ele>389.4</ele>
        <time>2024-10-14T08:06:35.894Z</time>
      </trkpt>
      <trkpt lat="47.30219" lon="4.95208">
        <ele>389.6</ele>
        <time>2024-10-14T08:06:37.205Z</time>
      </trkpt>
      <trkpt lat="47.30218" lon="4.95204">
        <ele>389.8</ele>
        <time>2024-10-14T08:06:38.517Z</time>
      </trkpt>
      <trkpt lat="47.30217" lon="4.952">
        <ele>390</ele>
        <time>2024-10-14T08:06:39.829Z</time>
      </trkpt>
      <trkpt lat="47.30216" lon="4.95195">
        <ele>390.2</ele>
        <time>2024-10-14T08:06:41.142Z</time>
      </trkpt>
      <trkpt lat="47.30215" lon="4.95191">
        <ele>390.4</ele>
        <time>2024-10-14T08:06:42.455Z</time>
      </trkpt>
      <trkpt lat="47.30214" lon="4.95188">
        <ele>390.6</ele>
        <time>2024-10-14T08:06:43.769Z</time>
      </trkpt>
      <trkpt lat="47.30213" lon="4.95184">
        <ele>390.8</ele>
        <time>2024-10-14T08:06:45.083Z</time>
      </trkpt>
      <trkpt lat="47.30212" lon="4.9518">
        <ele>391</ele>
        <time>2024-10-14T08:06:46.398Z</time>
      </trkpt>
      <trkpt lat="47.30211" lon="4.95175">
        <ele>391.2</ele>
        <time>2024-10-14T08:06:47.714Z</time>
      </trkpt>
      <trkpt lat="47.3021" lon="4.95171">
        <ele>391.4</ele>
        <time>2024-10-14T08:06:49.030Z</time>
      </trkpt>
      <trkpt lat="47.30209" lon="4.95167">
        <ele>391.6</ele>
        <time>2024-10-14T08:06:50.347Z</time>
      </trkpt>
      <trkpt lat="47.30207" lon="4.95164">
        <ele>391.8</ele>
        <time>2024-10-14T08:06:51.664Z</time>
      </trkpt>
      <trkpt lat="47.30207" lon="4.9516">
        <ele>392.2</ele>
        <time>2024-10-14T08:06:52.982Z</time>
      </trkpt>
      <trkpt lat="47.30206" lon="4.95155">
        <ele>392.2</ele>
        <time>2024-10-14T08:06:54.300Z</time>
      </trkpt>
      <trkpt lat="47.30206" lon="4.95151">
        <ele>392.4</ele>
        <time>2024-10-14T08:06:55.619Z</time>
      </trkpt>
      <trkpt lat="47.30206" lon="4.95147">
        <ele>392.8</ele>
        <time>2024-10-14T08:06:56.938Z</time>
      </trkpt>
      <trkpt lat="47.30206" lon="4.95142">
        <ele>393.2</ele>
        <time>2024-10-14T08:06:58.258Z</time>
      </trkpt>
      <trkpt lat="47.30205" lon="4.95138">
        <ele>393.2</ele>
        <time>2024-10-14T08:06:59.578Z</time>
      </trkpt>
      <trkpt lat="47.30204" lon="4.95133">
        <ele>393.4</ele>
        <time>2024-10-14T08:07:00.899Z</time>
      </trkpt>
      <trkpt lat="47.30204" lon="4.95129">
        <ele>393.8</ele>
        <time>2024-10-14T08:07:02.221Z</time>
      </trkpt>
      <trkpt lat="47.30204" lon="4.95125">
        <ele>394.2</ele>
        <time>2024-10-14T08:07:03.543Z</time>
      </trkpt>
      <trkpt lat="47.30203" lon="4.9512">
        <ele>394.4</ele>
        <time>2024-10-14T08:07:04.866Z</time>
      </trkpt>
      <trkpt lat="47.30203" lon="4.95116">
        <ele>394.4</ele>
        <time>2024-10-14T08:07:06.189Z</time>
      </trkpt>
      <trkpt lat="47.30202" lon="4.95112">
        <ele>394.6</ele>
        <time>2024-10-14T08:07:07.513Z</time>
      </trkpt>
      <trkpt lat="47.30201" lon="4.95108">
        <ele>395</ele>
        <time>2024-10-14T08:07:08.837Z</time>
      </trkpt>
      <trkpt lat="47.30201" lon="4.95105">
        <ele>395.4</ele>
        <time>2024-10-14T08:07:10.162Z</time>
      </trkpt>
      <trkpt lat="47.30201" lon="4.95101">
        <ele>395.6</ele>
        <time>2024-10-14T08:07:11.487Z</time>
      </trkpt>
      <trkpt lat="47.302" lon="4.95097">
        <ele>396</ele>
        <time>2024-10-14T08:07:12.813Z</time>
      </trkpt>
      <trkpt lat="47.30199" lon="4.95092">
        <ele>396.2</ele>
        <time>2024-10-14T08:07:14.139Z</time>
      </trkpt>
      <trkpt lat="47.30199" lon="4.95088">
        <ele>396.4</ele>
        <time>2024-10-14T08:07:15.466Z</time>
      </trkpt>
      <trkpt lat="47.30197" lon="4.95084">
        <ele>396.6</ele>
        <time>2024-10-14T08:07:16.793Z</time>
      </trkpt>
      <trkpt lat="47.30196" lon="4.95081">
        <ele>396.8</ele>
        <time>2024-10-14T08:07:18.121Z</time>
      </trkpt>
      <trkpt lat="47.30195" lon="4.95077">
        <ele>397.2</ele>
        <time>2024-10-14T08:07:19.449Z</time>
      </trkpt>
      <trkpt lat="47.30194" lon="4.95074">
        <ele>397.6</ele>
        <time>2024-10-14T08:07:20.778Z</time>
      </trkpt>
      <trkpt lat="47.30192" lon="4.9507">
        <ele>397.6</ele>
        <time>2024-10-14T08:07:22.107Z</time>
      </trkpt>
      <trkpt lat="47.30191" lon="4.95067">
        <ele>398</ele>
        <time>2024-10-14T08:07:23.437Z</time>
      </trkpt>
      <trkpt lat="47.3019" lon="4.95063">
        <ele>398.2</ele>
        <time>2024-10-14T08:07:24.767Z</time>
      </trkpt>
      <trkpt lat="47.30188" lon="4.95058">
        <ele>398.4</ele>
        <time>2024-10-14T08:07:26.098Z</time>
      </trkpt>
      <trkpt lat="47.30187" lon="4.95055">
        <ele>398.6</ele>
        <time>2024-10-14T08:07:27.430Z</time>
      </trkpt>
      <trkpt lat="47.30185" lon="4.95052">
        <ele>398.8</ele>
        <time>2024-10-14T08:07:28.762Z</time>
      </trkpt>
      <trkpt lat="47.30184" lon="4.95047">
        <ele>399</ele>
        <time>2024-10-14T08:07:30.095Z</time>
      </trkpt>
      <trkpt lat="47.30183" lon="4.95044">
        <ele>399</ele>
        <time>2024-10-14T08:07:31.428Z</time>
      </trkpt>
      <trkpt lat="47.30181" lon="4.9504">
        <ele>399.4</ele>
        <time>2024-10-14T08:07:32.762Z</time>
      </trkpt>
      <trkpt lat="47.30179" lon="4.95036">
        <ele>399.6</ele>
        <time>2024-10-14T08:07:34.096Z</time>
      </trkpt>
      <trkpt lat="47.30177" lon="4.95033">
        <ele>400</ele>
        <time>2024-10-14T08:07:35.431Z</time>
      </trkpt>
      <trkpt lat="47.30176" lon="4.95029">
        <ele>400.2</ele>
        <time>2024-10-14T08:07:36.766Z</time>
      </trkpt>
      <trkpt lat="47.30174" lon="4.95025">
        <ele>400.4</ele>
        <time>2024-10-14T08:07:38.102Z</time>
      </trkpt>
      <trkpt lat="47.30173" lon="4.95021">
        <ele>400.6</ele>
        <time>2024-10-14T08:07:39.439Z</time>
      </trkpt>
      <trkpt lat="47.30171" lon="4.95018">
        <ele>400.8</ele>
        <time>2024-10-14T08:07:40.776Z</time>
      </trkpt>
      <trkpt lat="47.30169" lon="4.95014">
        <ele>400.8</ele>
        <time>2024-10-14T08:07:42.114Z</time>
      </trkpt>
      <trkpt lat="47.30167" lon="4.95011">
        <ele>401</ele>
        <time>2024-10-14T08:07:43.452Z</time>
      </trkpt>
      <trkpt lat="47.30165" lon="4.95009">
        <ele>401.2</ele>
        <time>2024-10-14T08:07:44.791Z</time>
      </trkpt>
      <trkpt lat="47.30162" lon="4.95005">
        <ele>401.4</ele>
        <time>2024-10-14T08:07:46.130Z</time>
      </trkpt>
      <trkpt lat="47.3016" lon="4.95002">
        <ele>401.6</ele>
        <time>2024-10-14T08:07:47.470Z</time>
      </trkpt>
      <trkpt lat="47.30158" lon="4.94999">
        <ele>402</ele>
        <time>2024-10-14T08:07:48.810Z</time>
      </trkpt>
      <trkpt lat="47.30155" lon="4.94996">
        <ele>402</ele>
        <time>2024-10-14T08:07:50.151Z</time>
      </trkpt>
      <trkpt lat="47.30153" lon="4.94992">
        <ele>402.2</ele>
        <time>2024-10-14T08:07:51.493Z</time>
      </trkpt>
      <trkpt lat="47.30151" lon="4.9499">
        <ele>402.6</ele>
        <time>2024-10-14T08:07:52.835Z</time>
      </trkpt>
      <trkpt lat="47.30148" lon="4.94987">
        <ele>402.8</ele>
        <time>2024-10-14T08:07:54.178Z</time>
      </trkpt>
      <trkpt lat="47.30146" lon="4.94984">
        <ele>402.8</ele>
        <time>2024-10-14T08:07:55.521Z</time>
      </trkpt>
      <trkpt lat="47.30143" lon="4.94982">
        <ele>403.2</ele>
        <time>2024-10-14T08:07:56.865Z</time>
      </trkpt>
      <trkpt lat="47.3014" lon="4.9498">
        <ele>403.4</ele>
        <time>2024-10-14T08:07:58.210Z</time>
      </trkpt>
      <trkpt lat="47.30136" lon="4.94973">
        <ele>403.6</ele>
        <time>2024-10-14T08:07:59.556Z</time>
      </trkpt>
      <trkpt lat="47.30136" lon="4.94972">
        <ele>404.4</ele>
        <time>2024-10-14T08:08:00.902Z</time>
      </trkpt>
      <trkpt lat="47.30136" lon="4.9497">
        <ele>404.8</ele>
        <time>2024-10-14T08:08:02.248Z</time>
      </trkpt>
      <trkpt lat="47.30136" lon="4.94967">
        <ele>405</ele>
        <time>2024-10-14T08:08:03.594Z</time>
      </trkpt>
      <trkpt lat="47.30131" lon="4.94953">
        <ele>405.2</ele>
        <time>2024-10-14T08:08:04.942Z</time>
      </trkpt>
      <trkpt lat="47.30129" lon="4.9495">
        <ele>405.4</ele>
        <time>2024-10-14T08:08:06.291Z</time>
      </trkpt>
      <trkpt lat="47.30127" lon="4.94948">
        <ele>405.8</ele>
        <time>2024-10-14T08:08:07.640Z</time>
      </trkpt>
      <trkpt lat="47.30125" lon="4.94945">
        <ele>406.2</ele>
        <time>2024-10-14T08:08:08.990Z</time>
      </trkpt>
      <trkpt lat="47.30123" lon="4.94942">
        <ele>406.2</ele>
        <time>2024-10-14T08:08:10.340Z</time>
      </trkpt>
      <trkpt lat="47.30121" lon="4.94939">
        <ele>406.4</ele>
        <time>2024-10-14T08:08:11.691Z</time>
      </trkpt>
      <trkpt lat="47.30121" lon="4.94938">
        <ele>406.6</ele>
        <time>2024-10-14T08:08:13.042Z</time>
      </trkpt>
      <trkpt lat="47.30119" lon="4.94935">
        <ele>406.8</ele>
        <time>2024-10-14T08:08:14.394Z</time>
      </trkpt>
      <trkpt lat="47.30117" lon="4.94932">
        <ele>407.2</ele>
        <time>2024-10-14T08:08:15.746Z</time>
      </trkpt>
      <trkpt lat="47.30116" lon="4.94929">
        <ele>407.6</ele>
        <time>2024-10-14T08:08:17.099Z</time>
      </trkpt>
      <trkpt lat="47.30114" lon="4.94926">
        <ele>407.8</ele>
        <time>2024-10-14T08:08:18.452Z</time>
      </trkpt>
      <trkpt lat="47.30112" lon="4.94923">
        <ele>407.8</ele>
        <time>2024-10-14T08:08:19.806Z</time>
      </trkpt>
      <trkpt lat="47.30111" lon="4.9492">
        <ele>408</ele>
        <time>2024-10-14T08:08:21.160Z</time>
      </trkpt>
      <trkpt lat="47.3011" lon="4.94917">
        <ele>408.2</ele>
        <time>2024-10-14T08:08:22.514Z</time>
      </trkpt>
      <trkpt lat="47.30108" lon="4.94915">
        <ele>408.4</ele>
        <time>2024-10-14T08:08:23.869Z</time>
      </trkpt>
      <trkpt lat="47.30107" lon="4.94912">
        <ele>408.8</ele>
        <time>2024-10-14T08:08:25.224Z</time>
      </trkpt>
      <trkpt lat="47.30105" lon="4.94909">
        <ele>409.2</ele>
        <time>2024-10-14T08:08:26.580Z</time>
      </trkpt>
      <trkpt lat="47.30103" lon="4.94906">
        <ele>409.4</ele>
        <time>2024-10-14T08:08:27.936Z</time>
      </trkpt>
      <trkpt lat="47.30102" lon="4.94902">
        <ele>409.6</ele>
        <time>2024-10-14T08:08:29.293Z</time>
      </trkpt>
      <trkpt lat="47.301" lon="4.94899">
        <ele>409.8</ele>
        <time>2024-10-14T08:08:30.650Z</time>
      </trkpt>
      <trkpt lat="47.30098" lon="4.94896">
        <ele>410.2</ele>
        <time>2024-10-14T08:08:32.008Z</time>
      </trkpt>
      <trkpt lat="47.30097" lon="4.94893">
        <ele>410.4</ele>
        <time>2024-10-14T08:08:33.366Z</time>
      </trkpt>
      <trkpt lat="47.30095" lon="4.9489">
        <ele>410.6</ele>
        <time>2024-10-14T08:08:34.725Z</time>
      </trkpt>
      <trkpt lat="47.30093" lon="4.94887">
        <ele>411</ele>
        <time>2024-10-14T08:08:36.084Z</time>
      </trkpt>
      <trkpt lat="47.30092" lon="4.94884">
        <ele>411.2</ele>
        <time>2024-10-14T08:08:37.444Z</time>
      </trkpt>
      <trkpt lat="47.3009" lon="4.94881">
        <ele>411.4</ele>
        <time>2024-10-14T08:08:38.804Z</time>
      </trkpt>
      <trkpt lat="47.30089" lon="4.94878">
        <ele>411.6</ele>
        <time>2024-10-14T08:08:40.165Z</time>
      </trkpt>
      <trkpt lat="47.30087" lon="4.94875">
        <ele>412</ele>
        <time>2024-10-14T08:08:41.526Z</time>
      </trkpt>
      <trkpt lat="47.30086" lon="4.94872">
        <ele>412.2</ele>
        <time>2024-10-14T08:08:42.888Z</time>
      </trkpt>
      <trkpt lat="47.30085" lon="4.9487">
        <ele>412.6</ele>
        <time>2024-10-14T08:08:44.250Z</time>
      </trkpt>
      <trkpt lat="47.30083" lon="4.94868">
        <ele>412.8</ele>
        <time>2024-10-14T08:08:45.612Z</time>
      </trkpt>
      <trkpt lat="47.30082" lon="4.94866">
        <ele>413.4</ele>
        <time>2024-10-14T08:08:46.975Z</time>
      </trkpt>
      <trkpt lat="47.30082" lon="4.94865">
        <ele>413.6</ele>
        <time>2024-10-14T08:08:48.338Z</time>
      </trkpt>
      <trkpt lat="47.30082" lon="4.94865">
        <ele>416.2</ele>
        <time>2024-10-14T08:08:49.701Z</time>
      </trkpt>
      <trkpt lat="47.30084" lon="4.94865">
        <ele>416.4</ele>
        <time>2024-10-14T08:08:51.064Z</time>
      </trkpt>
      <trkpt lat="47.30085" lon="4.94865">
        <ele>416.8</ele>
        <time>2024-10-14T08:08:52.427Z</time>
      </trkpt>
      <trkpt lat="47.30085" lon="4.94865">
        <ele>417</ele>
        <time>2024-10-14T08:08:53.790Z</time>
      </trkpt>
      <trkpt lat="47.30086" lon="4.94864">
        <ele>417.4</ele>
        <time>2024-10-14T08:08:55.153Z</time>
      </trkpt>
      <trkpt lat="47.30091" lon="4.94862">
        <ele>417.8</ele>
        <time>2024-10-14T08:08:56.517Z</time>
      </trkpt>
      <trkpt lat="47.30093" lon="4.9486">
        <ele>418</ele>
        <time>2024-10-14T08:08:57.882Z</time>
      </trkpt>
      <trkpt lat="47.30094" lon="4.94859">
        <ele>418</ele>
        <time>2024-10-14T08:08:59.247Z</time>
      </trkpt>
      <trkpt lat="47.30097" lon="4.94857">
        <ele>418</ele>
        <time>2024-10-14T08:09:00.613Z</time>
      </trkpt>
      <trkpt lat="47.30099" lon="4.94855">
        <ele>418.2</ele>
        <time>2024-10-14T08:09:01.979Z</time>
      </trkpt>
      <trkpt lat="47.30101" lon="4.94854">
        <ele>418.2</ele>
        <time>2024-10-14T08:09:03.346Z</time>
      </trkpt>
      <trkpt lat="47.30104" lon="4.94852">
        <ele>418.2</ele>
        <time>2024-10-14T08:09:04.713Z</time>
      </trkpt>
      <trkpt lat="47.30106" lon="4.9485">
        <ele>418.2</ele>
        <time>2024-10-14T08:09:06.081Z</time>
      </trkpt>
      <trkpt lat="47.30108" lon="4.94848">
        <ele>418.2</ele>
        <time>2024-10-14T08:09:07.449Z</time>
      </trkpt>
      <trkpt lat="47.30109" lon="4.94848">
        <ele>418.2</ele>
        <time>2024-10-14T08:09:08.817Z</time>
      </trkpt>
      <trkpt lat="47.30111" lon="4.94847">
        <ele>418.2</ele>
        <time>2024-10-14T08:09:10.186Z</time>
      </trkpt>
      <trkpt lat="47.30112" lon="4.94846">
        <ele>418.4</ele>
        <time>2024-10-14T08:09:11.555Z</time>
      </trkpt>
      <trkpt lat="47.30115" lon="4.94844">
        <ele>418.4</ele>
        <time>2024-10-14T08:09:12.924Z</time>
      </trkpt>
      <trkpt lat="47.30117" lon="4.94843">
        <ele>418.4</ele>
        <time>2024-10-14T08:09:14.294Z</time>
      </trkpt>
      <trkpt lat="47.30118" lon="4.94842">
        <ele>418.4</ele>
        <time>2024-10-14T08:09:15.664Z</time>
      </trkpt>
      <trkpt lat="47.30121" lon="4.94841">
        <ele>418.4</ele>
        <time>2024-10-14T08:09:17.034Z</time>
      </trkpt>
      <trkpt lat="47.30123" lon="4.94839">
        <ele>418.4</ele>
        <time>2024-10-14T08:09:18.405Z</time>
      </trkpt>
      <trkpt lat="47.30125" lon="4.94838">
        <ele>418.4</ele>
        <time>2024-10-14T08:09:19.776Z</time>
      </trkpt>
      <trkpt lat="47.30127" lon="4.94837">
        <ele>418.4</ele>
        <time>2024-10-14T08:09:21.148Z</time>
      </trkpt>
      <trkpt lat="47.30129" lon="4.94836">
        <ele>418.4</ele>
        <time>2024-10-14T08:09:22.520Z</time>
      </trkpt>
      <trkpt lat="47.30129" lon="4.94835">
        <ele>418.4</ele>
        <time>2024-10-14T08:09:23.892Z</time>
      </trkpt>
      <trkpt lat="47.30134" lon="4.94834">
        <ele>419.2</ele>
        <time>2024-10-14T08:09:25.265Z</time>
      </trkpt>
      <trkpt lat="47.30129" lon="4.94835">
        <ele>419.4</ele>
        <time>2024-10-14T08:09:26.639Z</time>
      </trkpt>
      <trkpt lat="47.30138" lon="4.94833">
        <ele>420.2</ele>
        <time>2024-10-14T08:09:28.015Z</time>
      </trkpt>
      <trkpt lat="47.30129" lon="4.94835">
        <ele>420.2</ele>
        <time>2024-10-14T08:09:29.392Z</time>
      </trkpt>
      <trkpt lat="47.30138" lon="4.94833">
        <ele>420.6</ele>
        <time>2024-10-14T08:09:30.771Z</time>
      </trkpt>
      <trkpt lat="47.3018" lon="4.94479">
        <ele>431.6</ele>
        <time>2024-10-14T08:09:32.195Z</time>
      </trkpt>
      <trkpt lat="47.30179" lon="4.94477">
        <ele>431.8</ele>
        <time>2024-10-14T08:09:33.619Z</time>
      </trkpt>
      <trkpt lat="47.30179" lon="4.94474">
        <ele>432</ele>
        <time>2024-10-14T08:09:35.044Z</time>
      </trkpt>
      <trkpt lat="47.30179" lon="4.9447">
        <ele>432.4</ele>
        <time>2024-10-14T08:09:36.469Z</time>
      </trkpt>
      <trkpt lat="47.3018" lon="4.94465">
        <ele>432.6</ele>
        <time>2024-10-14T08:09:37.895Z</time>
      </trkpt>
      <trkpt lat="47.3018" lon="4.94461">
        <ele>432.6</ele>
        <time>2024-10-14T08:09:39.321Z</time>
      </trkpt>
      <trkpt lat="47.30181" lon="4.94458">
        <ele>433</ele>
        <time>2024-10-14T08:09:40.748Z</time>
      </trkpt>
      <trkpt lat="47.30181" lon="4.94453">
        <ele>433.2</ele>
        <time>2024-10-14T08:09:42.175Z</time>
      </trkpt>
      <trkpt lat="47.30181" lon="4.94449">
        <ele>433.2</ele>
        <time>2024-10-14T08:09:43.603Z</time>
      </trkpt>
      <trkpt lat="47.30181" lon="4.94446">
        <ele>433.8</ele>
        <time>2024-10-14T08:09:45.031Z</time>
      </trkpt>
      <trkpt lat="47.30181" lon="4.94442">
        <ele>434</ele>
        <time>2024-10-14T08:09:46.460Z</time>
      </trkpt>
      <trkpt lat="47.30181" lon="4.94438">
        <ele>434.4</ele>
        <time>2024-10-14T08:09:47.889Z</time>
      </trkpt>
      <trkpt lat="47.30181" lon="4.94435">
        <ele>434.6</ele>
        <time>2024-10-14T08:09:49.319Z</time>
      </trkpt>
      <trkpt lat="47.3018" lon="4.94431">
        <ele>435</ele>
        <time>2024-10-14T08:09:50.749Z</time>
      </trkpt>
      <trkpt lat="47.3018" lon="4.94427">
        <ele>435.2</ele>
        <time>2024-10-14T08:09:52.180Z</time>
      </trkpt>
      <trkpt lat="47.3018" lon="4.94423">
        <ele>435.2</ele>
        <time>2024-10-14T08:09:53.611Z</time>
      </trkpt>
      <trkpt lat="47.30179" lon="4.94419">
        <ele>435.6</ele>
        <time>2024-10-14T08:09:55.043Z</time>
      </trkpt>
      <trkpt lat="47.30179" lon="4.94415">
        <ele>435.8</ele>
        <time>2024-10-14T08:09:56.475Z</time>
      </trkpt>
      <trkpt lat="47.30178" lon="4.94412">
        <ele>435.8</ele>
        <time>2024-10-14T08:09:57.908Z</time>
      </trkpt>
      <trkpt lat="47.30178" lon="4.94409">
        <ele>436</ele>
        <time>2024-10-14T08:09:59.341Z</time>
      </trkpt>
      <trkpt lat="47.30178" lon="4.94405">
        <ele>436</ele>
        <time>2024-10-14T08:10:00.775Z</time>
      </trkpt>
      <trkpt lat="47.30178" lon="4.94402">
        <ele>436.2</ele>
        <time>2024-10-14T08:10:02.209Z</time>
      </trkpt>
      <trkpt lat="47.30177" lon="4.94399">
        <ele>436.4</ele>
        <time>2024-10-14T08:10:03.643Z</time>
      </trkpt>
      <trkpt lat="47.30177" lon="4.94394">
        <ele>436.6</ele>
        <time>2024-10-14T08:10:05.078Z</time>
      </trkpt>
      <trkpt lat="47.30176" lon="4.94391">
        <ele>436.8</ele>
        <time>2024-10-14T08:10:06.513Z</time>
      </trkpt>
      <trkpt lat="47.30176" lon="4.94388">
        <ele>437</ele>
        <time>2024-10-14T08:10:07.949Z</time>
      </trkpt>
      <trkpt lat="47.30176" lon="4.94385">
        <ele>437.4</ele>
        <time>2024-10-14T08:10:09.385Z</time>
      </trkpt>
      <trkpt lat="47.30175" lon="4.94382">
        <ele>437.4</ele>
        <time>2024-10-14T08:10:10.822Z</time>
      </trkpt>
      <trkpt lat="47.30174" lon="4.94378">
        <ele>437.8</ele>
        <time>2024-10-14T08:10:12.259Z</time>
      </trkpt>
      <trkpt lat="47.30174" lon="4.94374">
        <ele>438</ele>
        <time>2024-10-14T08:10:13.697Z</time>
      </trkpt>
      <trkpt lat="47.30173" lon="4.9437">
        <ele>438</ele>
        <time>2024-10-14T08:10:15.135Z</time>
      </trkpt>
      <trkpt lat="47.30173" lon="4.94367">
        <ele>438.4</ele>
        <time>2024-10-14T08:10:16.574Z</time>
      </trkpt>
      <trkpt lat="47.30172" lon="4.94363">
        <ele>438.8</ele>
        <time>2024-10-14T08:10:18.013Z</time>
      </trkpt>
      <trkpt lat="47.30172" lon="4.94359">
        <ele>439.2</ele>
        <time>2024-10-14T08:10:19.453Z</time>
      </trkpt>
      <trkpt lat="47.30171" lon="4.94355">
        <ele>439.2</ele>
        <time>2024-10-14T08:10:20.893Z</time>
      </trkpt>
      <trkpt lat="47.3017" lon="4.94352">
        <ele>439.2</ele>
        <time>2024-10-14T08:10:22.333Z</time>
      </trkpt>
      <trkpt lat="47.3017" lon="4.94348">
        <ele>439.4</ele>
        <time>2024-10-14T08:10:23.774Z</time>
      </trkpt>
      <trkpt lat="47.30169" lon="4.94344">
        <ele>439.4</ele>
        <time>2024-10-14T08:10:25.215Z</time>
      </trkpt>
      <trkpt lat="47.30169" lon="4.9434">
        <ele>439.6</ele>
        <time>2024-10-14T08:10:26.657Z</time>
      </trkpt>
      <trkpt lat="47.30168" lon="4.94336">
        <ele>439.8</ele>
        <time>2024-10-14T08:10:28.099Z</time>
      </trkpt>
      <trkpt lat="47.30167" lon="4.94332">
        <ele>440</ele>
        <time>2024-10-14T08:10:29.542Z</time>
      </trkpt>
      <trkpt lat="47.30167" lon="4.94328">
        <ele>440.2</ele>
        <time>2024-10-14T08:10:30.986Z</time>
      </trkpt>
      <trkpt lat="47.30166" lon="4.94324">
        <ele>440.4</ele>
        <time>2024-10-14T08:10:32.430Z</time>
      </trkpt>
      <trkpt lat="47.30166" lon="4.94321">
        <ele>440.6</ele>
        <time>2024-10-14T08:10:33.874Z</time>
      </trkpt>
      <trkpt lat="47.30165" lon="4.94316">
        <ele>440.8</ele>
        <time>2024-10-14T08:10:35.319Z</time>
      </trkpt>
      <trkpt lat="47.30164" lon="4.94312">
        <ele>441</ele>
        <time>2024-10-14T08:10:36.765Z</time>
      </trkpt>
      <trkpt lat="47.30164" lon="4.94308">
        <ele>441.2</ele>
        <time>2024-10-14T08:10:38.211Z</time>
      </trkpt>
      <trkpt lat="47.30163" lon="4.94304">
        <ele>441.2</ele>
        <time>2024-10-14T08:10:39.658Z</time>
      </trkpt>
      <trkpt lat="47.30162" lon="4.943">
        <ele>441.4</ele>
        <time>2024-10-14T08:10:41.105Z</time>
      </trkpt>
      <trkpt lat="47.30162" lon="4.94297">
        <ele>441.6</ele>
        <time>2024-10-14T08:10:42.553Z</time>
      </trkpt>
      <trkpt lat="47.30161" lon="4.94293">
        <ele>441.6</ele>
        <time>2024-10-14T08:10:44.001Z</time>
      </trkpt>
      <trkpt lat="47.30161" lon="4.94289">
        <ele>442</ele>
        <time>2024-10-14T08:10:45.450Z</time>
      </trkpt>
      <trkpt lat="47.3016" lon="4.94286">
        <ele>442</ele>
        <time>2024-10-14T08:10:46.899Z</time>
      </trkpt>
      <trkpt lat="47.3016" lon="4.94282">
        <ele>442.2</ele>
        <time>2024-10-14T08:10:48.348Z</time>
      </trkpt>
      <trkpt lat="47.30159" lon="4.94279">
        <ele>442.2</ele>
        <time>2024-10-14T08:10:49.798Z</time>
      </trkpt>
      <trkpt lat="47.30159" lon="4.94275">
        <ele>442.4</ele>
        <time>2024-10-14T08:10:51.248Z</time>
      </trkpt>
      <trkpt lat="47.30158" lon="4.94271">
        <ele>442.8</ele>
        <time>2024-10-14T08:10:52.699Z</time>
      </trkpt>
      <trkpt lat="47.30157" lon="4.94268">
        <ele>443.2</ele>
        <time>2024-10-14T08:10:54.150Z</time>
      </trkpt>
      <trkpt lat="47.30157" lon="4.94265">
        <ele>443.6</ele>
        <time>2024-10-14T08:10:55.602Z</time>
      </trkpt>
      <trkpt lat="47.30156" lon="4.94261">
        <ele>443.8</ele>
        <time>2024-10-14T08:10:57.054Z</time>
      </trkpt>
      <trkpt lat="47.30156" lon="4.94257">
        <ele>444</ele>
        <time>2024-10-14T08:10:58.507Z</time>
      </trkpt>
      <trkpt lat="47.30155" lon="4.94254">
        <ele>444.2</ele>
        <time>2024-10-14T08:10:59.960Z</time>
      </trkpt>
      <trkpt lat="47.30155" lon="4.9425">
        <ele>444.2</ele>
        <time>2024-10-14T08:11:01.414Z</time>
      </trkpt>
      <trkpt lat="47.30154" lon="4.94246">
        <ele>444.6</ele>
        <time>2024-10-14T08:11:02.868Z</time>
      </trkpt>
      <trkpt lat="47.30154" lon="4.94243">
        <ele>444.8</ele>
        <time>2024-10-14T08:11:04.322Z</time>
      </trkpt>
      <trkpt lat="47.30153" lon="4.94239">
        <ele>445</ele>
        <time>2024-10-14T08:11:05.777Z</time>
      </trkpt>
      <trkpt lat="47.30152" lon="4.94236">
        <ele>445.2</ele>
        <time>2024-10-14T08:11:07.232Z</time>
      </trkpt>
      <trkpt lat="47.30152" lon="4.94232">
        <ele>445.2</ele>
        <time>2024-10-14T08:11:08.688Z</time>
      </trkpt>
      <trkpt lat="47.30151" lon="4.94228">
        <ele>445.4</ele>
        <time>2024-10-14T08:11:10.144Z</time>
      </trkpt>
      <trkpt lat="47.30151" lon="4.94225">
        <ele>445.4</ele>
        <time>2024-10-14T08:11:11.601Z</time>
      </trkpt>
      <trkpt lat="47.3015" lon="4.94222">
        <ele>445.6</ele>
        <time>2024-10-14T08:11:13.058Z</time>
      </trkpt>
      <trkpt lat="47.3015" lon="4.94218">
        <ele>446</ele>
        <time>2024-10-14T08:11:14.516Z</time>
      </trkpt>
      <trkpt lat="47.30149" lon="4.94215">
        <ele>446.2</ele>
        <time>2024-10-14T08:11:15.974Z</time>
      </trkpt>
      <trkpt lat="47.30149" lon="4.94212">
        <ele>446.6</ele>
        <time>2024-10-14T08:11:17.432Z</time>
      </trkpt>
      <trkpt lat="47.30148" lon="4.94209">
        <ele>447</ele>
        <time>2024-10-14T08:11:18.891Z</time>
      </trkpt>
      <trkpt lat="47.30148" lon="4.94206">
        <ele>447.2</ele>
        <time>2024-10-14T08:11:20.350Z</time>
      </trkpt>
      <trkpt lat="47.30148" lon="4.94203">
        <ele>447.4</ele>
        <time>2024-10-14T08:11:21.810Z</time>
      </trkpt>
      <trkpt lat="47.30147" lon="4.942">
        <ele>447.6</ele>
        <time>2024-10-14T08:11:23.270Z</time>
      </trkpt>
      <trkpt lat="47.30147" lon="4.94197">
        <ele>448</ele>
        <time>2024-10-14T08:11:24.730Z</time>
      </trkpt>
      <trkpt lat="47.30146" lon="4.94194">
        <ele>448</ele>
        <time>2024-10-14T08:11:26.191Z</time>
      </trkpt>
      <trkpt lat="47.30146" lon="4.94191">
        <ele>448.4</ele>
        <time>2024-10-14T08:11:27.652Z</time>
      </trkpt>
      <trkpt lat="47.30146" lon="4.94189">
        <ele>448.8</ele>
        <time>2024-10-14T08:11:29.113Z</time>
      </trkpt>
      <trkpt lat="47.30145" lon="4.94186">
        <ele>449.4</ele>
        <time>2024-10-14T08:11:30.575Z</time>
      </trkpt>
      <trkpt lat="47.30145" lon="4.94184">
        <ele>450.2</ele>
        <time>2024-10-14T08:11:32.037Z</time>
      </trkpt>
      <trkpt lat="47.30151" lon="4.94182">
        <ele>450.2</ele>
        <time>2024-10-14T08:11:33.500Z</time>
      </trkpt>
      <trkpt lat="47.30153" lon="4.94184">
        <ele>450.2</ele>
        <time>2024-10-14T08:11:34.963Z</time>
      </trkpt>
      <trkpt lat="47.30155" lon="4.94186">
        <ele>450.2</ele>
        <time>2024-10-14T08:11:36.427Z</time>
      </trkpt>
      <trkpt lat="47.30157" lon="4.94188">
        <ele>450.2</ele>
        <time>2024-10-14T08:11:37.891Z</time>
      </trkpt>
      <trkpt lat="47.3016" lon="4.9419">
        <ele>450</ele>
        <time>2024-10-14T08:11:39.356Z</time>
      </trkpt>
      <trkpt lat="47.30162" lon="4.94193">
        <ele>449.8</ele>
        <time>2024-10-14T08:11:40.822Z</time>
      </trkpt>
      <trkpt lat="47.30165" lon="4.94196">
        <ele>449.6</ele>
        <time>2024-10-14T08:11:42.288Z</time>
      </trkpt>
      <trkpt lat="47.30167" lon="4.942">
        <ele>449.4</ele>
        <time>2024-10-14T08:11:43.755Z</time>
      </trkpt>
      <trkpt lat="47.3017" lon="4.94204">
        <ele>449.2</ele>
        <time>2024-10-14T08:11:45.222Z</time>
      </trkpt>
      <trkpt lat="47.30172" lon="4.94209">
        <ele>449.2</ele>
        <time>2024-10-14T08:11:46.690Z</time>
      </trkpt>
      <trkpt lat="47.30175" lon="4.94214">
        <ele>449.2</ele>
        <time>2024-10-14T08:11:48.159Z</time>
      </trkpt>
      <trkpt lat="47.30177" lon="4.94219">
        <ele>449.4</ele>
        <time>2024-10-14T08:11:49.629Z</time>
      </trkpt>
      <trkpt lat="47.30179" lon="4.94224">
        <ele>449.2</ele>
        <time>2024-10-14T08:11:51.100Z</time>
      </trkpt>
      <trkpt lat="47.30181" lon="4.94229">
        <ele>449.2</ele>
        <time>2024-10-14T08:11:52.571Z</time>
      </trkpt>
      <trkpt lat="47.30183" lon="4.94235">
        <ele>449.2</ele>
        <time>2024-10-14T08:11:54.043Z</time>
      </trkpt>
      <trkpt lat="47.30186" lon="4.94241">
        <ele>449.2</ele>
        <time>2024-10-14T08:11:55.516Z</time>
      </trkpt>
      <trkpt lat="47.30188" lon="4.94247">
        <ele>448.8</ele>
        <time>2024-10-14T08:11:56.990Z</time>
      </trkpt>
      <trkpt lat="47.3019" lon="4.94253">
        <ele>448.8</ele>
        <time>2024-10-14T08:11:58.465Z</time>
      </trkpt>
      <trkpt lat="47.30192" lon="4.94259">
        <ele>448.6</ele>
        <time>2024-10-14T08:11:59.941Z</time>
      </trkpt>
      <trkpt lat="47.30195" lon="4.94265">
        <ele>448.6</ele>
        <time>2024-10-14T08:12:01.417Z</time>
      </trkpt>
      <trkpt lat="47.30197" lon="4.94271">
        <ele>448.2</ele>
        <time>2024-10-14T08:12:02.894Z</time>
      </trkpt>
      <trkpt lat="47.30198" lon="4.94273">
        <ele>448.2</ele>
        <time>2024-10-14T08:12:04.372Z</time>
      </trkpt>
      <trkpt lat="47.3026" lon="4.94615">
        <ele>442.6</ele>
        <time>2024-10-14T08:12:05.894Z</time>
      </trkpt>
      <trkpt lat="47.3026" lon="4.94626">
        <ele>442.4</ele>
        <time>2024-10-14T08:12:07.417Z</time>
      </trkpt>
      <trkpt lat="47.3026" lon="4.94636">
        <ele>442.2</ele>
        <time>2024-10-14T08:12:08.942Z</time>
      </trkpt>
      <trkpt lat="47.30259" lon="4.94646">
        <ele>441.8</ele>
        <time>2024-10-14T08:12:10.468Z</time>
      </trkpt>
      <trkpt lat="47.3026" lon="4.94656">
        <ele>441.8</ele>
        <time>2024-10-14T08:12:11.995Z</time>
      </trkpt>
      <trkpt lat="47.30261" lon="4.94665">
        <ele>441.6</ele>
        <time>2024-10-14T08:12:13.523Z</time>
      </trkpt>
      <trkpt lat="47.30264" lon="4.94675">
        <ele>441.4</ele>
        <time>2024-10-14T08:12:15.053Z</time>
      </trkpt>
      <trkpt lat="47.30265" lon="4.94685">
        <ele>441.2</ele>
        <time>2024-10-14T08:12:16.584Z</time>
      </trkpt>
      <trkpt lat="47.30267" lon="4.94694">
        <ele>440.6</ele>
        <time>2024-10-14T08:12:18.116Z</time>
      </trkpt>
      <trkpt lat="47.30269" lon="4.94704">
        <ele>440.2</ele>
        <time>2024-10-14T08:12:19.650Z</time>
      </trkpt>
      <trkpt lat="47.30271" lon="4.94714">
        <ele>439.8</ele>
        <time>2024-10-14T08:12:21.185Z</time>
      </trkpt>
      <trkpt lat="47.30274" lon="4.94724">
        <ele>439.6</ele>
        <time>2024-10-14T08:12:22.721Z</time>
      </trkpt>
      <trkpt lat="47.30276" lon="4.94733">
        <ele>439.2</ele>
        <time>2024-10-14T08:12:24.258Z</time>
      </trkpt>
      <trkpt lat="47.30278" lon="4.94742">
        <ele>439</ele>
        <time>2024-10-14T08:12:25.797Z</time>
      </trkpt>
      <trkpt lat="47.30282" lon="4.94751">
        <ele>438.8</ele>
        <time>2024-10-14T08:12:27.337Z</time>
      </trkpt>
      <trkpt lat="47.30286" lon="4.94759">
        <ele>438.4</ele>
        <time>2024-10-14T08:12:28.878Z</time>
      </trkpt>
      <trkpt lat="47.30291" lon="4.94765">
        <ele>438.2</ele>
        <time>2024-10-14T08:12:30.420Z</time>
      </trkpt>
      <trkpt lat="47.30296" lon="4.9477">
        <ele>438</ele>
        <time>2024-10-14T08:12:31.963Z</time>
      </trkpt>
      <trkpt lat="47.30301" lon="4.94772">
        <ele>437.8</ele>
        <time>2024-10-14T08:12:33.507Z</time>
      </trkpt>
      <trkpt lat="47.30306" lon="4.94771">
        <ele>437.8</ele>
        <time>2024-10-14T08:12:35.052Z</time>
      </trkpt>
      <trkpt lat="47.30311" lon="4.94769">
        <ele>437.4</ele>
        <time>2024-10-14T08:12:36.598Z</time>
      </trkpt>
      <trkpt lat="47.30316" lon="4.94766">
        <ele>437.4</ele>
        <time>2024-10-14T08:12:38.145Z</time>
      </trkpt>
      <trkpt lat="47.30321" lon="4.94764">
        <ele>437.6</ele>
        <time>2024-10-14T08:12:39.693Z</time>
      </trkpt>
      <trkpt lat="47.30326" lon="4.94763">
        <ele>437.6</ele>
        <time>2024-10-14T08:12:41.242Z</time>
      </trkpt>
      <trkpt lat="47.30267" lon="4.94775">
        <ele>437.6</ele>
        <time>2024-10-14T08:12:42.802Z</time>
      </trkpt>
      <trkpt lat="47.30489" lon="4.94679">
        <ele>445.4</ele>
        <time>2024-10-14T08:12:44.405Z</time>
      </trkpt>
      <trkpt lat="47.30495" lon="4.94676">
        <ele>445.4</ele>
        <time>2024-10-14T08:12:46.009Z</time>
      </trkpt>
      <trkpt lat="47.305" lon="4.94674">
        <ele>445.4</ele>
        <time>2024-10-14T08:12:47.614Z</time>
      </trkpt>
      <trkpt lat="47.30506" lon="4.94671">
        <ele>445.2</ele>
        <time>2024-10-14T08:12:49.220Z</time>
      </trkpt>
      <trkpt lat="47.30511" lon="4.94667">
        <ele>445</ele>
        <time>2024-10-14T08:12:50.828Z</time>
      </trkpt>
      <trkpt lat="47.30517" lon="4.94664">
        <ele>444.8</ele>
        <time>2024-10-14T08:12:52.437Z</time>
      </trkpt>
      <trkpt lat="47.30522" lon="4.94661">
        <ele>444.6</ele>
        <time>2024-10-14T08:12:54.047Z</time>
      </trkpt>
      <trkpt lat="47.30527" lon="4.94658">
        <ele>444.6</ele>
        <time>2024-10-14T08:12:55.658Z</time>
      </trkpt>
      <trkpt lat="47.30532" lon="4.94654">
        <ele>444.6</ele>
        <time>2024-10-14T08:12:57.270Z</time>
      </trkpt>
      <trkpt lat="47.30538" lon="4.9465">
        <ele>444.2</ele>
        <time>2024-10-14T08:12:58.883Z</time>
      </trkpt>
      <trkpt lat="47.30543" lon="4.94647">
        <ele>444.2</ele>
        <time>2024-10-14T08:13:00.497Z</time>
      </trkpt>
      <trkpt lat="47.30549" lon="4.94643">
        <ele>444.2</ele>
        <time>2024-10-14T08:13:02.112Z</time>
      </trkpt>
      <trkpt lat="47.30554" lon="4.9464">
        <ele>444.2</ele>
        <time>2024-10-14T08:13:03.728Z</time>
      </trkpt>
      <trkpt lat="47.30559" lon="4.94636">
        <ele>444.2</ele>
        <time>2024-10-14T08:13:05.345Z</time>
      </trkpt>
      <trkpt lat="47.30564" lon="4.94632">
        <ele>444</ele>
        <time>2024-10-14T08:13:06.963Z</time>
      </trkpt>
      <trkpt lat="47.30569" lon="4.94629">
        <ele>443.8</ele>
        <time>2024-10-14T08:13:08.582Z</time>
      </trkpt>
      <trkpt lat="47.30575" lon="4.94624">
        <ele>443.6</ele>
        <time>2024-10-14T08:13:10.202Z</time>
      </trkpt>
      <trkpt lat="47.3058" lon="4.94619">
        <ele>443.4</ele>
        <time>2024-10-14T08:13:11.824Z</time>
      </trkpt>
      <trkpt lat="47.30585" lon="4.94614">
        <ele>443.4</ele>
        <time>2024-10-14T08:13:13.447Z</time>
      </trkpt>
      <trkpt lat="47.3059" lon="4.94609">
        <ele>443.2</ele>
        <time>2024-10-14T08:13:15.071Z</time>
      </trkpt>
      <trkpt lat="47.30594" lon="4.94604">
        <ele>443.2</ele>
        <time>2024-10-14T08:13:16.696Z</time>
      </trkpt>
      <trkpt lat="47.30599" lon="4.94598">
        <ele>443.2</ele>
        <time>2024-10-14T08:13:18.322Z</time>
      </trkpt>
      <trkpt lat="47.30603" lon="4.94593">
        <ele>443</ele>
        <time>2024-10-14T08:13:19.949Z</time>
      </trkpt>
      <trkpt lat="47.30608" lon="4.94588">
        <ele>443</ele>
        <time>2024-10-14T08:13:21.577Z</time>
      </trkpt>
      <trkpt lat="47.30613" lon="4.94582">
        <ele>443</ele>
        <time>2024-10-14T08:13:23.206Z</time>
      </trkpt>
      <trkpt lat="47.30617" lon="4.94576">
        <ele>442.4</ele>
        <time>2024-10-14T08:13:24.836Z</time>
      </trkpt>
      <trkpt lat="47.30621" lon="4.9457">
        <ele>442</ele>
        <time>2024-10-14T08:13:26.467Z</time>
      </trkpt>
      <trkpt lat="47.30626" lon="4.94566">
        <ele>441.8</ele>
        <time>2024-10-14T08:13:28.099Z</time>
      </trkpt>
      <trkpt lat="47.30631" lon="4.9456">
        <ele>441.6</ele>
        <time>2024-10-14T08:13:29.733Z</time>
      </trkpt>
      <trkpt lat="47.30636" lon="4.94555">
        <ele>441.4</ele>
        <time>2024-10-14T08:13:31.368Z</time>
      </trkpt>
      <trkpt lat="47.3064" lon="4.94549">
        <ele>441</ele>
        <time>2024-10-14T08:13:33.004Z</time>
      </trkpt>
      <trkpt lat="47.30646" lon="4.94542">
        <ele>440.8</ele>
        <time>2024-10-14T08:13:34.641Z</time>
      </trkpt>
      <trkpt lat="47.3065" lon="4.94535">
        <ele>440.6</ele>
        <time>2024-10-14T08:13:36.279Z</time>
      </trkpt>
      <trkpt lat="47.30655" lon="4.94529">
        <ele>440.6</ele>
        <time>2024-10-14T08:13:37.919Z</time>
      </trkpt>
      <trkpt lat="47.3066" lon="4.94521">
        <ele>440.6</ele>
        <time>2024-10-14T08:13:39.560Z</time>
      </trkpt>
      <trkpt lat="47.30664" lon="4.94514">
        <ele>440.6</ele>
        <time>2024-10-14T08:13:41.202Z</time>
      </trkpt>
      <trkpt lat="47.30668" lon="4.94505">
        <ele>440.4</ele>
        <time>2024-10-14T08:13:42.845Z</time>
      </trkpt>
      <trkpt lat="47.30673" lon="4.94498">
        <ele>440.2</ele>
        <time>2024-10-14T08:13:44.490Z</time>
      </trkpt>
      <trkpt lat="47.30711" lon="4.94518">
        <ele>440.2</ele>
        <time>2024-10-14T08:13:46.142Z</time>
      </trkpt>
      <trkpt lat="47.30713" lon="4.94509">
        <ele>439.8</ele>
        <time>2024-10-14T08:13:47.795Z</time>
      </trkpt>
      <trkpt lat="47.30717" lon="4.94492">
        <ele>439.2</ele>
        <time>2024-10-14T08:13:49.451Z</time>
      </trkpt>
      <trkpt lat="47.30718" lon="4.94483">
        <ele>439</ele>
        <time>2024-10-14T08:13:51.108Z</time>
      </trkpt>
      <trkpt lat="47.3072" lon="4.94474">
        <ele>439</ele>
        <time>2024-10-14T08:13:52.766Z</time>
      </trkpt>
      <trkpt lat="47.30721" lon="4.94463">
        <ele>435.4</ele>
        <time>2024-10-14T08:13:54.425Z</time>
      </trkpt>
      <trkpt lat="47.30723" lon="4.94454">
        <ele>434</ele>
        <time>2024-10-14T08:13:56.085Z</time>
      </trkpt>
      <trkpt lat="47.30724" lon="4.94448">
        <ele>433.6</ele>
        <time>2024-10-14T08:13:57.746Z</time>
      </trkpt>
      <trkpt lat="47.30728" lon="4.94439">
        <ele>433</ele>
        <time>2024-10-14T08:13:59.409Z</time>
      </trkpt>
      <trkpt lat="47.3073" lon="4.94432">
        <ele>432.6</ele>
        <time>2024-10-14T08:14:01.072Z</time>
      </trkpt>
      <trkpt lat="47.30736" lon="4.94424">
        <ele>432.4</ele>
        <time>2024-10-14T08:14:02.737Z</time>
      </trkpt>
      <trkpt lat="47.30741" lon="4.94415">
        <ele>431.6</ele>
        <time>2024-10-14T08:14:04.403Z</time>
      </trkpt>
      <trkpt lat="47.30747" lon="4.94406">
        <ele>430.8</ele>
        <time>2024-10-14T08:14:06.071Z</time>
      </trkpt>
      <trkpt lat="47.30753" lon="4.94396">
        <ele>430.2</ele>
        <time>2024-10-14T08:14:07.741Z</time>
      </trkpt>
      <trkpt lat="47.30756" lon="4.94391">
        <ele>429.8</ele>
        <time>2024-10-14T08:14:09.411Z</time>
      </trkpt>
      <trkpt lat="47.30773" lon="4.94382">
        <ele>428.6</ele>
        <time>2024-10-14T08:14:11.085Z</time>
      </trkpt>
      <trkpt lat="47.30775" lon="4.94381">
        <ele>428.6</ele>
        <time>2024-10-14T08:14:12.759Z</time>
      </trkpt>
      <trkpt lat="47.30791" lon="4.94399">
        <ele>434.4</ele>
        <time>2024-10-14T08:14:14.437Z</time>
      </trkpt>
      <trkpt lat="47.30795" lon="4.94404">
        <ele>434.4</ele>
        <time>2024-10-14T08:14:16.116Z</time>
      </trkpt>
      <trkpt lat="47.30799" lon="4.94409">
        <ele>434.2</ele>
        <time>2024-10-14T08:14:17.796Z</time>
      </trkpt>
      <trkpt lat="47.30803" lon="4.94415">
        <ele>430.6</ele>
        <time>2024-10-14T08:14:19.477Z</time>
      </trkpt>
      <trkpt lat="47.30807" lon="4.94419">
        <ele>428</ele>
        <time>2024-10-14T08:14:21.159Z</time>
      </trkpt>
      <trkpt lat="47.30826" lon="4.94436">
        <ele>427</ele>
        <time>2024-10-14T08:14:22.845Z</time>
      </trkpt>
      <trkpt lat="47.30832" lon="4.9444">
        <ele>426.4</ele>
        <time>2024-10-14T08:14:24.532Z</time>
      </trkpt>
      <trkpt lat="47.30837" lon="4.94443">
        <ele>426.4</ele>
        <time>2024-10-14T08:14:26.220Z</time>
      </trkpt>
      <trkpt lat="47.30842" lon="4.94447">
        <ele>426.4</ele>
        <time>2024-10-14T08:14:27.909Z</time>
      </trkpt>
      <trkpt lat="47.30847" lon="4.9445">
        <ele>426.2</ele>
        <time>2024-10-14T08:14:29.599Z</time>
      </trkpt>
      <trkpt lat="47.30852" lon="4.94454">
        <ele>426.2</ele>
        <time>2024-10-14T08:14:31.290Z</time>
      </trkpt>
      <trkpt lat="47.30858" lon="4.94457">
        <ele>426.4</ele>
        <time>2024-10-14T08:14:32.982Z</time>
      </trkpt>
      <trkpt lat="47.30966" lon="4.94428">
        <ele>426.4</ele>
        <time>2024-10-14T08:14:34.695Z</time>
      </trkpt>
      <trkpt lat="47.30968" lon="4.944">
        <ele>426.4</ele>
        <time>2024-10-14T08:14:36.411Z</time>
      </trkpt>
      <trkpt lat="47.30972" lon="4.94395">
        <ele>426.2</ele>
        <time>2024-10-14T08:14:38.128Z</time>
      </trkpt>
      <trkpt lat="47.3099" lon="4.94303">
        <ele>426</ele>
        <time>2024-10-14T08:14:39.857Z</time>
      </trkpt>
      <trkpt lat="47.3099" lon="4.94314">
        <ele>425.6</ele>
        <time>2024-10-14T08:14:41.588Z</time>
      </trkpt>
      <trkpt lat="47.3099" lon="4.94308">
        <ele>425.8</ele>
        <time>2024-10-14T08:14:43.319Z</time>
      </trkpt>
      <trkpt lat="47.3099" lon="4.94303">
        <ele>425.8</ele>
        <time>2024-10-14T08:14:45.051Z</time>
      </trkpt>
      <trkpt lat="47.30991" lon="4.94302">
        <ele>426.2</ele>
        <time>2024-10-14T08:14:46.783Z</time>
      </trkpt>
      <trkpt lat="47.30994" lon="4.94297">
        <ele>426.8</ele>
        <time>2024-10-14T08:14:48.516Z</time>
      </trkpt>
      <trkpt lat="47.31001" lon="4.94255">
        <ele>427.4</ele>
        <time>2024-10-14T08:14:50.254Z</time>
      </trkpt>
      <trkpt lat="47.31001" lon="4.94246">
        <ele>427.6</ele>
        <time>2024-10-14T08:14:51.994Z</time>
      </trkpt>
      <trkpt lat="47.31002" lon="4.94238">
        <ele>427.6</ele>
        <time>2024-10-14T08:14:53.735Z</time>
      </trkpt>
      <trkpt lat="47.31003" lon="4.94232">
        <ele>427.6</ele>
        <time>2024-10-14T08:14:55.476Z</time>
      </trkpt>
      <trkpt lat="47.31003" lon="4.94227">
        <ele>427.4</ele>
        <time>2024-10-14T08:14:57.218Z</time>
      </trkpt>
      <trkpt lat="47.31004" lon="4.94224">
        <ele>426.8</ele>
        <time>2024-10-14T08:14:58.960Z</time>
      </trkpt>
      <trkpt lat="47.31004" lon="4.94223">
        <ele>426.2</ele>
        <time>2024-10-14T08:15:00.703Z</time>
      </trkpt>
      <trkpt lat="47.31004" lon="4.94226">
        <ele>425.8</ele>
        <time>2024-10-14T08:15:02.446Z</time>
      </trkpt>
      <trkpt lat="47.31003" lon="4.94232">
        <ele>424.4</ele>
        <time>2024-10-14T08:15:04.190Z</time>
      </trkpt>
      <trkpt lat="47.31002" lon="4.9424">
        <ele>424</ele>
        <time>2024-10-14T08:15:05.935Z</time>
      </trkpt>
      <trkpt lat="47.31001" lon="4.94249">
        <ele>424</ele>
        <time>2024-10-14T08:15:07.681Z</time>
      </trkpt>
      <trkpt lat="47.31001" lon="4.94267">
        <ele>424</ele>
        <time>2024-10-14T08:15:09.429Z</time>
      </trkpt>
      <trkpt lat="47.31002" lon="4.94277">
        <ele>424.4</ele>
        <time>2024-10-14T08:15:11.178Z</time>
      </trkpt>
      <trkpt lat="47.31002" lon="4.94285">
        <ele>424.4</ele>
        <time>2024-10-14T08:15:12.928Z</time>
      </trkpt>
      <trkpt lat="47.31002" lon="4.94293">
        <ele>424.6</ele>
        <time>2024-10-14T08:15:14.679Z</time>
      </trkpt>
      <trkpt lat="47.31003" lon="4.94297">
        <ele>424.8</ele>
        <time>2024-10-14T08:15:16.431Z</time>
      </trkpt>
      <trkpt lat="47.31019" lon="4.94315">
        <ele>425.4</ele>
        <time>2024-10-14T08:15:18.187Z</time>
      </trkpt>
      <trkpt lat="47.31021" lon="4.94323">
        <ele>425.4</ele>
        <time>2024-10-14T08:15:19.944Z</time>
      </trkpt>
      <trkpt lat="47.31024" lon="4.9433">
        <ele>425</ele>
        <time>2024-10-14T08:15:21.702Z</time>
      </trkpt>
      <trkpt lat="47.31027" lon="4.94339">
        <ele>425.8</ele>
        <time>2024-10-14T08:15:23.461Z</time>
      </trkpt>
      <trkpt lat="47.31029" lon="4.94346">
        <ele>426.4</ele>
        <time>2024-10-14T08:15:25.221Z</time>
      </trkpt>
      <trkpt lat="47.31031" lon="4.94356">
        <ele>426.2</ele>
        <time>2024-10-14T08:15:26.982Z</time>
      </trkpt>
      <trkpt lat="47.31034" lon="4.94366">
        <ele>425.8</ele>
        <time>2024-10-14T08:15:28.745Z</time>
      </trkpt>
      <trkpt lat="47.31036" lon="4.94375">
        <ele>423.8</ele>
        <time>2024-10-14T08:15:30.509Z</time>
      </trkpt>
      <trkpt lat="47.31039" lon="4.94387">
        <ele>423</ele>
        <time>2024-10-14T08:15:32.275Z</time>
      </trkpt>
      <trkpt lat="47.31042" lon="4.94397">
        <ele>422.6</ele>
        <time>2024-10-14T08:15:34.042Z</time>
      </trkpt>
      <trkpt lat="47.31047" lon="4.94409">
        <ele>422.4</ele>
        <time>2024-10-14T08:15:35.811Z</time>
      </trkpt>
      <trkpt lat="47.31052" lon="4.94418">
        <ele>422.4</ele>
        <time>2024-10-14T08:15:37.581Z</time>
      </trkpt>
      <trkpt lat="47.31056" lon="4.94427">
        <ele>422.2</ele>
        <time>2024-10-14T08:15:39.352Z</time>
      </trkpt>
      <trkpt lat="47.3106" lon="4.94436">
        <ele>422</ele>
        <time>2024-10-14T08:15:41.125Z</time>
      </trkpt>
      <trkpt lat="47.31065" lon="4.94445">
        <ele>422</ele>
        <time>2024-10-14T08:15:42.899Z</time>
      </trkpt>
      <trkpt lat="47.31069" lon="4.94454">
        <ele>421.8</ele>
        <time>2024-10-14T08:15:44.675Z</time>
      </trkpt>
      <trkpt lat="47.31074" lon="4.94462">
        <ele>421.8</ele>
        <time>2024-10-14T08:15:46.452Z</time>
      </trkpt>
      <trkpt lat="47.31077" lon="4.94471">
        <ele>422</ele>
        <time>2024-10-14T08:15:48.230Z</time>
      </trkpt>
      <trkpt lat="47.31081" lon="4.9448">
        <ele>422.4</ele>
        <time>2024-10-14T08:15:50.010Z</time>
      </trkpt>
      <trkpt lat="47.31084" lon="4.94488">
        <ele>424.8</ele>
        <time>2024-10-14T08:15:51.791Z</time>
      </trkpt>
      <trkpt lat="47.31086" lon="4.94498">
        <ele>425.2</ele>
        <time>2024-10-14T08:15:53.573Z</time>
      </trkpt>
      <trkpt lat="47.31086" lon="4.94499">
        <ele>425.2</ele>
        <time>2024-10-14T08:15:55.355Z</time>
      </trkpt>
      <trkpt lat="47.31073" lon="4.94542">
        <ele>426.4</ele>
        <time>2024-10-14T08:15:57.143Z</time>
      </trkpt>
      <trkpt lat="47.31074" lon="4.94589">
        <ele>426.6</ele>
        <time>2024-10-14T08:15:58.937Z</time>
      </trkpt>
      <trkpt lat="47.31075" lon="4.94596">
        <ele>426.8</ele>
        <time>2024-10-14T08:16:00.732Z</time>
      </trkpt>
      <trkpt lat="47.31076" lon="4.94604">
        <ele>427.2</ele>
        <time>2024-10-14T08:16:02.528Z</time>
      </trkpt>
      <trkpt lat="47.31077" lon="4.94612">
        <ele>427.4</ele>
        <time>2024-10-14T08:16:04.325Z</time>
      </trkpt>
      <trkpt lat="47.31078" lon="4.94614">
        <ele>427.4</ele>
        <time>2024-10-14T08:16:06.122Z</time>
      </trkpt>
      <trkpt lat="47.31078" lon="4.94616">
        <ele>427.4</ele>
        <time>2024-10-14T08:16:07.919Z</time>
      </trkpt>
      <trkpt lat="47.31078" lon="4.94625">
        <ele>427.4</ele>
        <time>2024-10-14T08:16:09.718Z</time>
      </trkpt>
      <trkpt lat="47.31078" lon="4.94632">
        <ele>427.6</ele>
        <time>2024-10-14T08:16:11.517Z</time>
      </trkpt>
      <trkpt lat="47.31078" lon="4.94632">
        <ele>427.4</ele>
        <time>2024-10-14T08:16:13.316Z</time>
      </trkpt>
      <trkpt lat="47.31077" lon="4.94641">
        <ele>427.4</ele>
        <time>2024-10-14T08:16:15.117Z</time>
      </trkpt>
      <trkpt lat="47.31076" lon="4.94649">
        <ele>427.4</ele>
        <time>2024-10-14T08:16:16.919Z</time>
      </trkpt>
      <trkpt lat="47.31075" lon="4.94655">
        <ele>427.4</ele>
        <time>2024-10-14T08:16:18.721Z</time>
      </trkpt>
      <trkpt lat="47.31073" lon="4.94664">
        <ele>427.4</ele>
        <time>2024-10-14T08:16:20.525Z</time>
      </trkpt>
      <trkpt lat="47.31072" lon="4.94673">
        <ele>427.2</ele>
        <time>2024-10-14T08:16:22.330Z</time>
      </trkpt>
      <trkpt lat="47.31071" lon="4.94682">
        <ele>427</ele>
        <time>2024-10-14T08:16:24.136Z</time>
      </trkpt>
      <trkpt lat="47.31069" lon="4.94691">
        <ele>427.2</ele>
        <time>2024-10-14T08:16:25.943Z</time>
      </trkpt>
      <trkpt lat="47.31069" lon="4.94692">
        <ele>427.2</ele>
        <time>2024-10-14T08:16:27.750Z</time>
      </trkpt>
      <trkpt lat="47.31068" lon="4.94694">
        <ele>427.4</ele>
        <time>2024-10-14T08:16:29.558Z</time>
      </trkpt>
      <trkpt lat="47.31054" lon="4.9476">
        <ele>427.4</ele>
        <time>2024-10-14T08:16:31.374Z</time>
      </trkpt>
      <trkpt lat="47.31053" lon="4.94765">
        <ele>427.2</ele>
        <time>2024-10-14T08:16:33.191Z</time>
      </trkpt>
      <trkpt lat="47.31052" lon="4.94773">
        <ele>427.2</ele>
        <time>2024-10-14T08:16:35.009Z</time>
      </trkpt>
      <trkpt lat="47.3105" lon="4.94848">
        <ele>427.2</ele>
        <time>2024-10-14T08:16:36.836Z</time>
      </trkpt>
      <trkpt lat="47.3105" lon="4.94857">
        <ele>427.6</ele>
        <time>2024-10-14T08:16:38.664Z</time>
      </trkpt>
      <trkpt lat="47.3105" lon="4.94861">
        <ele>427.4</ele>
        <time>2024-10-14T08:16:40.493Z</time>
      </trkpt>
      <trkpt lat="47.31056" lon="4.94936">
        <ele>427.4</ele>
        <time>2024-10-14T08:16:42.331Z</time>
      </trkpt>
      <trkpt lat="47.31061" lon="4.94938">
        <ele>427.2</ele>
        <time>2024-10-14T08:16:44.170Z</time>
      </trkpt>
      <trkpt lat="47.31183" lon="4.95029">
        <ele>426</ele>
        <time>2024-10-14T08:16:46.035Z</time>
      </trkpt>
      <trkpt lat="47.31184" lon="4.9503">
        <ele>421.6</ele>
        <time>2024-10-14T08:16:47.900Z</time>
      </trkpt>
      <trkpt lat="47.3119" lon="4.95035">
        <ele>420.4</ele>
        <time>2024-10-14T08:16:49.766Z</time>
      </trkpt>
      <trkpt lat="47.31196" lon="4.9504">
        <ele>419.6</ele>
        <time>2024-10-14T08:16:51.633Z</time>
      </trkpt>
      <trkpt lat="47.31202" lon="4.95045">
        <ele>418.4</ele>
        <time>2024-10-14T08:16:53.502Z</time>
      </trkpt>
      <trkpt lat="47.31208" lon="4.95051">
        <ele>417.2</ele>
        <time>2024-10-14T08:16:55.372Z</time>
      </trkpt>
      <trkpt lat="47.31215" lon="4.95056">
        <ele>416.2</ele>
        <time>2024-10-14T08:16:57.243Z</time>
      </trkpt>
      <trkpt lat="47.3123" lon="4.95069">
        <ele>415.6</ele>
        <time>2024-10-14T08:16:59.118Z</time>
      </trkpt>
      <trkpt lat="47.31232" lon="4.95076">
        <ele>415</ele>
        <time>2024-10-14T08:17:00.994Z</time>
      </trkpt>
      <trkpt lat="47.31236" lon="4.95086">
        <ele>415</ele>
        <time>2024-10-14T08:17:02.871Z</time>
      </trkpt>
      <trkpt lat="47.31239" lon="4.95095">
        <ele>415.2</ele>
        <time>2024-10-14T08:17:04.749Z</time>
      </trkpt>
      <trkpt lat="47.3124" lon="4.9512">
        <ele>415.8</ele>
        <time>2024-10-14T08:17:06.630Z</time>
      </trkpt>
      <trkpt lat="47.3124" lon="4.95129">
        <ele>416.6</ele>
        <time>2024-10-14T08:17:08.512Z</time>
      </trkpt>
      <trkpt lat="47.31241" lon="4.95139">
        <ele>416.8</ele>
        <time>2024-10-14T08:17:10.396Z</time>
      </trkpt>
      <trkpt lat="47.31241" lon="4.95149">
        <ele>416.8</ele>
        <time>2024-10-14T08:17:12.281Z</time>
      </trkpt>
      <trkpt lat="47.31242" lon="4.9516">
        <ele>417</ele>
        <time>2024-10-14T08:17:14.167Z</time>
      </trkpt>
      <trkpt lat="47.31243" lon="4.95171">
        <ele>417</ele>
        <time>2024-10-14T08:17:16.055Z</time>
      </trkpt>
      <trkpt lat="47.31243" lon="4.95179">
        <ele>416.8</ele>
        <time>2024-10-14T08:17:17.944Z</time>
      </trkpt>
      <trkpt lat="47.31242" lon="4.95189">
        <ele>416.8</ele>
        <time>2024-10-14T08:17:19.834Z</time>
      </trkpt>
      <trkpt lat="47.31242" lon="4.952">
        <ele>416.8</ele>
        <time>2024-10-14T08:17:21.725Z</time>
      </trkpt>
      <trkpt lat="47.31242" lon="4.95209">
        <ele>416.6</ele>
        <time>2024-10-14T08:17:23.618Z</time>
      </trkpt>
      <trkpt lat="47.31241" lon="4.95219">
        <ele>416.6</ele>
        <time>2024-10-14T08:17:25.512Z</time>
      </trkpt>
      <trkpt lat="47.31241" lon="4.95228">
        <ele>416.6</ele>
        <time>2024-10-14T08:17:27.407Z</time>
      </trkpt>
      <trkpt lat="47.3124" lon="4.95236">
        <ele>416.8</ele>
        <time>2024-10-14T08:17:29.303Z</time>
      </trkpt>
      <trkpt lat="47.31239" lon="4.95246">
        <ele>416.8</ele>
        <time>2024-10-14T08:17:31.200Z</time>
      </trkpt>
      <trkpt lat="47.31239" lon="4.95254">
        <ele>416.8</ele>
        <time>2024-10-14T08:17:33.098Z</time>
      </trkpt>
      <trkpt lat="47.31236" lon="4.95268">
        <ele>417</ele>
        <time>2024-10-14T08:17:34.998Z</time>
      </trkpt>
      <trkpt lat="47.31234" lon="4.95277">
        <ele>417</ele>
        <time>2024-10-14T08:17:36.899Z</time>
      </trkpt>
      <trkpt lat="47.31231" lon="4.95291">
        <ele>417</ele>
        <time>2024-10-14T08:17:38.802Z</time>
      </trkpt>
      <trkpt lat="47.3123" lon="4.95301">
        <ele>416.8</ele>
        <time>2024-10-14T08:17:40.706Z</time>
      </trkpt>
      <trkpt lat="47.31229" lon="4.95311">
        <ele>416.8</ele>
        <time>2024-10-14T08:17:42.612Z</time>
      </trkpt>
      <trkpt lat="47.31227" lon="4.95322">
        <ele>416.8</ele>
        <time>2024-10-14T08:17:44.519Z</time>
      </trkpt>
      <trkpt lat="47.31226" lon="4.95332">
        <ele>416.6</ele>
        <time>2024-10-14T08:17:46.427Z</time>
      </trkpt>
      <trkpt lat="47.31226" lon="4.95335">
        <ele>416.2</ele>
        <time>2024-10-14T08:17:48.336Z</time>
      </trkpt>
      <trkpt lat="47.31219" lon="4.9536">
        <ele>416</ele>
        <time>2024-10-14T08:17:50.248Z</time>
      </trkpt>
      <trkpt lat="47.31217" lon="4.95367">
        <ele>416.8</ele>
        <time>2024-10-14T08:17:52.161Z</time>
      </trkpt>
      <trkpt lat="47.31217" lon="4.95368">
        <ele>417</ele>
        <time>2024-10-14T08:17:54.074Z</time>
      </trkpt>
      <trkpt lat="47.31216" lon="4.9537">
        <ele>417.2</ele>
        <time>2024-10-14T08:17:55.988Z</time>
      </trkpt>
      <trkpt lat="47.31213" lon="4.95376">
        <ele>417.4</ele>
        <time>2024-10-14T08:17:57.902Z</time>
      </trkpt>
      <trkpt lat="47.31211" lon="4.95382">
        <ele>417.4</ele>
        <time>2024-10-14T08:17:59.817Z</time>
      </trkpt>
      <trkpt lat="47.31209" lon="4.95387">
        <ele>417.6</ele>
        <time>2024-10-14T08:18:01.733Z</time>
      </trkpt>
      <trkpt lat="47.31207" lon="4.95391">
        <ele>418</ele>
        <time>2024-10-14T08:18:03.650Z</time>
      </trkpt>
      <trkpt lat="47.31205" lon="4.95395">
        <ele>418.4</ele>
        <time>2024-10-14T08:18:05.567Z</time>
      </trkpt>
      <trkpt lat="47.31203" lon="4.95399">
        <ele>419.6</ele>
        <time>2024-10-14T08:18:07.485Z</time>
      </trkpt>
      <trkpt lat="47.31202" lon="4.95403">
        <ele>419.8</ele>
        <time>2024-10-14T08:18:09.403Z</time>
      </trkpt>
      <trkpt lat="47.312" lon="4.95407">
        <ele>421.2</ele>
        <time>2024-10-14T08:18:11.322Z</time>
      </trkpt>
      <trkpt lat="47.31197" lon="4.95412">
        <ele>421.6</ele>
        <time>2024-10-14T08:18:13.242Z</time>
      </trkpt>
      <trkpt lat="47.31195" lon="4.95418">
        <ele>422</ele>
        <time>2024-10-14T08:18:15.163Z</time>
      </trkpt>
      <trkpt lat="47.31192" lon="4.95423">
        <ele>422.2</ele>
        <time>2024-10-14T08:18:17.084Z</time>
      </trkpt>
      <trkpt lat="47.31189" lon="4.95431">
        <ele>422.4</ele>
        <time>2024-10-14T08:18:19.007Z</time>
      </trkpt>
      <trkpt lat="47.31187" lon="4.95436">
        <ele>422.4</ele>
        <time>2024-10-14T08:18:20.930Z</time>
      </trkpt>
      <trkpt lat="47.31185" lon="4.95441">
        <ele>422.4</ele>
        <time>2024-10-14T08:18:22.854Z</time>
      </trkpt>
      <trkpt lat="47.31184" lon="4.95445">
        <ele>422.6</ele>
        <time>2024-10-14T08:18:24.779Z</time>
      </trkpt>
      <trkpt lat="47.31182" lon="4.95448">
        <ele>422.8</ele>
        <time>2024-10-14T08:18:26.704Z</time>
      </trkpt>
      <trkpt lat="47.31178" lon="4.95458">
        <ele>423</ele>
        <time>2024-10-14T08:18:28.631Z</time>
      </trkpt>
      <trkpt lat="47.31177" lon="4.95462">
        <ele>423.2</ele>
        <time>2024-10-14T08:18:30.558Z</time>
      </trkpt>
      <trkpt lat="47.31176" lon="4.95466">
        <ele>423.4</ele>
        <time>2024-10-14T08:18:32.486Z</time>
      </trkpt>
      <trkpt lat="47.31175" lon="4.95468">
        <ele>423.6</ele>
        <time>2024-10-14T08:18:34.414Z</time>
      </trkpt>
      <trkpt lat="47.31175" lon="4.9547">
        <ele>423.6</ele>
        <time>2024-10-14T08:18:36.342Z</time>
      </trkpt>
      <trkpt lat="47.31174" lon="4.95471">
        <ele>423.8</ele>
        <time>2024-10-14T08:18:38.270Z</time>
      </trkpt>
      <trkpt lat="47.31174" lon="4.95473">
        <ele>423.8</ele>
        <time>2024-10-14T08:18:40.199Z</time>
      </trkpt>
      <trkpt lat="47.31173" lon="4.95475">
        <ele>423.8</ele>
        <time>2024-10-14T08:18:42.128Z</time>
      </trkpt>
      <trkpt lat="47.31172" lon="4.95478">
        <ele>423.8</ele>
        <time>2024-10-14T08:18:44.057Z</time>
      </trkpt>
      <trkpt lat="47.31164" lon="4.9552">
        <ele>423.8</ele>
        <time>2024-10-14T08:18:45.992Z</time>
      </trkpt>
      <trkpt lat="47.31469" lon="4.95677">
        <ele>423.8</ele>
        <time>2024-10-14T08:18:47.987Z</time>
      </trkpt>
      <trkpt lat="47.31475" lon="4.95677">
        <ele>423.6</ele>
        <time>2024-10-14T08:18:49.983Z</time>
      </trkpt>
      <trkpt lat="47.31481" lon="4.9568">
        <ele>423.6</ele>
        <time>2024-10-14T08:18:51.980Z</time>
      </trkpt>
      <trkpt lat="47.31486" lon="4.95683">
        <ele>423.6</ele>
        <time>2024-10-14T08:18:53.978Z</time>
      </trkpt>
      <trkpt lat="47.31491" lon="4.95683">
        <ele>423.6</ele>
        <time>2024-10-14T08:18:55.977Z</time>
      </trkpt>
      <trkpt lat="47.31497" lon="4.95682">
        <ele>423.4</ele>
        <time>2024-10-14T08:18:57.977Z</time>
      </trkpt>
      <trkpt lat="47.31503" lon="4.95682">
        <ele>423.4</ele>
        <time>2024-10-14T08:18:59.978Z</time>
      </trkpt>
      <trkpt lat="47.31509" lon="4.95683">
        <ele>423.4</ele>
        <time>2024-10-14T08:19:01.980Z</time>
      </trkpt>
      <trkpt lat="47.31514" lon="4.9568">
        <ele>423.2</ele>
        <time>2024-10-14T08:19:03.983Z</time>
      </trkpt>
      <trkpt lat="47.31517" lon="4.95674">
        <ele>423.2</ele>
        <time>2024-10-14T08:19:05.987Z</time>
      </trkpt>
      <trkpt lat="47.31519" lon="4.95667">
        <ele>423.2</ele>
        <time>2024-10-14T08:19:07.992Z</time>
      </trkpt>
      <trkpt lat="47.31521" lon="4.95659">
        <ele>423.2</ele>
        <time>2024-10-14T08:19:09.998Z</time>
      </trkpt>
      <trkpt lat="47.31522" lon="4.9565">
        <ele>423</ele>
        <time>2024-10-14T08:19:12.005Z</time>
      </trkpt>
      <trkpt lat="47.31525" lon="4.9564">
        <ele>423</ele>
        <time>2024-10-14T08:19:14.013Z</time>
      </trkpt>
      <trkpt lat="47.31527" lon="4.95632">
        <ele>422.8</ele>
        <time>2024-10-14T08:19:16.023Z</time>
      </trkpt>
      <trkpt lat="47.3153" lon="4.95623">
        <ele>422.6</ele>
        <time>2024-10-14T08:19:18.034Z</time>
      </trkpt>
      <trkpt lat="47.31534" lon="4.95616">
        <ele>422.4</ele>
        <time>2024-10-14T08:19:20.046Z</time>
      </trkpt>
      <trkpt lat="47.3154" lon="4.95613">
        <ele>422.4</ele>
        <time>2024-10-14T08:19:22.059Z</time>
      </trkpt>
      <trkpt lat="47.31547" lon="4.95613">
        <ele>422.4</ele>
        <time>2024-10-14T08:19:24.073Z</time>
      </trkpt>
      <trkpt lat="47.31552" lon="4.95617">
        <ele>422.2</ele>
        <time>2024-10-14T08:19:26.088Z</time>
      </trkpt>
      <trkpt lat="47.31559" lon="4.9562">
        <ele>422.2</ele>
        <time>2024-10-14T08:19:28.105Z</time>
      </trkpt>
      <trkpt lat="47.31564" lon="4.95624">
        <ele>422</ele>
        <time>2024-10-14T08:19:30.123Z</time>
      </trkpt>
      <trkpt lat="47.3157" lon="4.95627">
        <ele>422</ele>
        <time>2024-10-14T08:19:32.142Z</time>
      </trkpt>
      <trkpt lat="47.31577" lon="4.95629">
        <ele>422</ele>
        <time>2024-10-14T08:19:34.162Z</time>
      </trkpt>
      <trkpt lat="47.31583" lon="4.95632">
        <ele>421.8</ele>
        <time>2024-10-14T08:19:36.183Z</time>
      </trkpt>
      <trkpt lat="47.31589" lon="4.95634">
        <ele>421.8</ele>
        <time>2024-10-14T08:19:38.206Z</time>
      </trkpt>
      <trkpt lat="47.31596" lon="4.95637">
        <ele>421.6</ele>
        <time>2024-10-14T08:19:40.230Z</time>
      </trkpt>
      <trkpt lat="47.31602" lon="4.95639">
        <ele>421.6</ele>
        <time>2024-10-14T08:19:42.255Z</time>
      </trkpt>
      <trkpt lat="47.31609" lon="4.95642">
        <ele>420.8</ele>
        <time>2024-10-14T08:19:44.281Z</time>
      </trkpt>
      <trkpt lat="47.31616" lon="4.95644">
        <ele>420.6</ele>
        <time>2024-10-14T08:19:46.309Z</time>
      </trkpt>
      <trkpt lat="47.31623" lon="4.95646">
        <ele>420.6</ele>
        <time>2024-10-14T08:19:48.338Z</time>
      </trkpt>
      <trkpt lat="47.3163" lon="4.9565">
        <ele>420</ele>
        <time>2024-10-14T08:19:50.368Z</time>
      </trkpt>
      <trkpt lat="47.31635" lon="4.95657">
        <ele>419.6</ele>
        <time>2024-10-14T08:19:52.400Z</time>
      </trkpt>
      <trkpt lat="47.31639" lon="4.95667">
        <ele>419.4</ele>
        <time>2024-10-14T08:19:54.433Z</time>
      </trkpt>
      <trkpt lat="47.31642" lon="4.95676">
        <ele>419.4</ele>
        <time>2024-10-14T08:19:56.468Z</time>
      </trkpt>
      <trkpt lat="47.31644" lon="4.95686">
        <ele>419.2</ele>
        <time>2024-10-14T08:19:58.504Z</time>
      </trkpt>
      <trkpt lat="47.31645" lon="4.95696">
        <ele>419</ele>
        <time>2024-10-14T08:20:00.541Z</time>
      </trkpt>
      <trkpt lat="47.31646" lon="4.95706">
        <ele>419.2</ele>
        <time>2024-10-14T08:20:02.579Z</time>
      </trkpt>
      <trkpt lat="47.3165" lon="4.95715">
        <ele>419.2</ele>
        <time>2024-10-14T08:20:04.619Z</time>
      </trkpt>
      <trkpt lat="47.31647" lon="4.95718">
        <ele>419.2</ele>
        <time>2024-10-14T08:20:06.659Z</time>
      </trkpt>
      <trkpt lat="47.31644" lon="4.95721">
        <ele>419</ele>
        <time>2024-10-14T08:20:08.700Z</time>
      </trkpt>
      <trkpt lat="47.31642" lon="4.95724">
        <ele>419.2</ele>
        <time>2024-10-14T08:20:10.741Z</time>
      </trkpt>
      <trkpt lat="47.31639" lon="4.95728">
        <ele>419.2</ele>
        <time>2024-10-14T08:20:12.783Z</time>
      </trkpt>
      <trkpt lat="47.31636" lon="4.95731">
        <ele>418.8</ele>
        <time>2024-10-14T08:20:14.826Z</time>
      </trkpt>
      <trkpt lat="47.31633" lon="4.95735">
        <ele>418.6</ele>
        <time>2024-10-14T08:20:16.870Z</time>
      </trkpt>
      <trkpt lat="47.31629" lon="4.9574">
        <ele>418.2</ele>
        <time>2024-10-14T08:20:18.915Z</time>
      </trkpt>
      <trkpt lat="47.31626" lon="4.95744">
        <ele>418</ele>
        <time>2024-10-14T08:20:20.960Z</time>
      </trkpt>
      <trkpt lat="47.31623" lon="4.95747">
        <ele>418</ele>
        <time>2024-10-14T08:20:23.006Z</time>
      </trkpt>
      <trkpt lat="47.31617" lon="4.95753">
        <ele>417.6</ele>
        <time>2024-10-14T08:20:25.053Z</time>
      </trkpt>
      <trkpt lat="47.31613" lon="4.95757">
        <ele>417.6</ele>
        <time>2024-10-14T08:20:27.101Z</time>
      </trkpt>
      <trkpt lat="47.31623" lon="4.95747">
        <ele>417.4</ele>
        <time>2024-10-14T08:20:29.151Z</time>
      </trkpt>
      <trkpt lat="47.31608" lon="4.95762">
        <ele>417</ele>
        <time>2024-10-14T08:20:31.205Z</time>
      </trkpt>
      <trkpt lat="47.31623" lon="4.95747">
        <ele>416.8</ele>
        <time>2024-10-14T08:20:33.262Z</time>
      </trkpt>
      <trkpt lat="47.31608" lon="4.95762">
        <ele>416.6</ele>
        <time>2024-10-14T08:20:35.322Z</time>
      </trkpt>
      <trkpt lat="47.31605" lon="4.95764">
        <ele>416.4</ele>
        <time>2024-10-14T08:20:37.383Z</time>
      </trkpt>
      <trkpt lat="47.31601" lon="4.95767">
        <ele>416.2</ele>
        <time>2024-10-14T08:20:39.445Z</time>
      </trkpt>
      <trkpt lat="47.31597" lon="4.95769">
        <ele>416.2</ele>
        <time>2024-10-14T08:20:41.507Z</time>
      </trkpt>
      <trkpt lat="47.31585" lon="4.96126">
        <ele>414.4</ele>
        <time>2024-10-14T08:20:43.614Z</time>
      </trkpt>
      <trkpt lat="47.31586" lon="4.96132">
        <ele>414.2</ele>
        <time>2024-10-14T08:20:45.722Z</time>
      </trkpt>
      <trkpt lat="47.31581" lon="4.96137">
        <ele>414</ele>
        <time>2024-10-14T08:20:47.831Z</time>
      </trkpt>
      <trkpt lat="47.31577" lon="4.96141">
        <ele>413.8</ele>
        <time>2024-10-14T08:20:49.941Z</time>
      </trkpt>
      <trkpt lat="47.31569" lon="4.96139">
        <ele>413.8</ele>
        <time>2024-10-14T08:20:52.052Z</time>
      </trkpt>
      <trkpt lat="47.31564" lon="4.96137">
        <ele>413.8</ele>
        <time>2024-10-14T08:20:54.165Z</time>
      </trkpt>
      <trkpt lat="47.31559" lon="4.96132">
        <ele>413.8</ele>
        <time>2024-10-14T08:20:56.279Z</time>
      </trkpt>
      <trkpt lat="47.31555" lon="4.96128">
        <ele>413.8</ele>
        <time>2024-10-14T08:20:58.393Z</time>
      </trkpt>
      <trkpt lat="47.31551" lon="4.96124">
        <ele>414.2</ele>
        <time>2024-10-14T08:21:00.508Z</time>
      </trkpt>
      <trkpt lat="47.31547" lon="4.9612">
        <ele>414.4</ele>
        <time>2024-10-14T08:21:02.624Z</time>
      </trkpt>
      <trkpt lat="47.31543" lon="4.96116">
        <ele>414.4</ele>
        <time>2024-10-14T08:21:04.741Z</time>
      </trkpt>
      <trkpt lat="47.31539" lon="4.96112">
        <ele>414.8</ele>
        <time>2024-10-14T08:21:06.859Z</time>
      </trkpt>
      <trkpt lat="47.31536" lon="4.96107">
        <ele>415</ele>
        <time>2024-10-14T08:21:08.978Z</time>
      </trkpt>
      <trkpt lat="47.31532" lon="4.96101">
        <ele>415.2</ele>
        <time>2024-10-14T08:21:11.098Z</time>
      </trkpt>
      <trkpt lat="47.31527" lon="4.96096">
        <ele>415.6</ele>
        <time>2024-10-14T08:21:13.219Z</time>
      </trkpt>
      <trkpt lat="47.31524" lon="4.9609">
        <ele>415.8</ele>
        <time>2024-10-14T08:21:15.341Z</time>
      </trkpt>
      <trkpt lat="47.31521" lon="4.96085">
        <ele>415.6</ele>
        <time>2024-10-14T08:21:17.464Z</time>
      </trkpt>
      <trkpt lat="47.31518" lon="4.96079">
        <ele>415.6</ele>
        <time>2024-10-14T08:21:19.588Z</time>
      </trkpt>
      <trkpt lat="47.31515" lon="4.96074">
        <ele>415.8</ele>
        <time>2024-10-14T08:21:21.713Z</time>
      </trkpt>
      <trkpt lat="47.31512" lon="4.96068">
        <ele>415.8</ele>
        <time>2024-10-14T08:21:23.839Z</time>
      </trkpt>
      <trkpt lat="47.31508" lon="4.96063">
        <ele>416</ele>
        <time>2024-10-14T08:21:25.966Z</time>
      </trkpt>
      <trkpt lat="47.31505" lon="4.96057">
        <ele>416.2</ele>
        <time>2024-10-14T08:21:28.093Z</time>
      </trkpt>
      <trkpt lat="47.31502" lon="4.96052">
        <ele>416.4</ele>
        <time>2024-10-14T08:21:30.221Z</time>
      </trkpt>
      <trkpt lat="47.31499" lon="4.96046">
        <ele>416.6</ele>
        <time>2024-10-14T08:21:32.350Z</time>
      </trkpt>
      <trkpt lat="47.31496" lon="4.9604">
        <ele>416.6</ele>
        <time>2024-10-14T08:21:34.480Z</time>
      </trkpt>
      <trkpt lat="47.31493" lon="4.96033">
        <ele>416.8</ele>
        <time>2024-10-14T08:21:36.611Z</time>
      </trkpt>
      <trkpt lat="47.3149" lon="4.96028">
        <ele>416.8</ele>
        <time>2024-10-14T08:21:38.743Z</time>
      </trkpt>
      <trkpt lat="47.31488" lon="4.96023">
        <ele>416.8</ele>
        <time>2024-10-14T08:21:40.876Z</time>
      </trkpt>
      <trkpt lat="47.31486" lon="4.96018">
        <ele>417.2</ele>
        <time>2024-10-14T08:21:43.010Z</time>
      </trkpt>
      <trkpt lat="47.31483" lon="4.96012">
        <ele>417.6</ele>
        <time>2024-10-14T08:21:45.144Z</time>
      </trkpt>
      <trkpt lat="47.31481" lon="4.96007">
        <ele>417.8</ele>
        <time>2024-10-14T08:21:47.279Z</time>
      </trkpt>
      <trkpt lat="47.31478" lon="4.95999">
        <ele>418</ele>
        <time>2024-10-14T08:21:49.415Z</time>
      </trkpt>
      <trkpt lat="47.31476" lon="4.95992">
        <ele>418.4</ele>
        <time>2024-10-14T08:21:51.552Z</time>
      </trkpt>
      <trkpt lat="47.31474" lon="4.95985">
        <ele>418.6</ele>
        <time>2024-10-14T08:21:53.690Z</time>
      </trkpt>
      <trkpt lat="47.31473" lon="4.9598">
        <ele>418.6</ele>
        <time>2024-10-14T08:21:55.829Z</time>
      </trkpt>
      <trkpt lat="47.31471" lon="4.95972">
        <ele>418.8</ele>
        <time>2024-10-14T08:21:57.969Z</time>
      </trkpt>
      <trkpt lat="47.31469" lon="4.95966">
        <ele>419.2</ele>
        <time>2024-10-14T08:22:00.110Z</time>
      </trkpt>
      <trkpt lat="47.31467" lon="4.95959">
        <ele>419.4</ele>
        <time>2024-10-14T08:22:02.252Z</time>
      </trkpt>
      <trkpt lat="47.31466" lon="4.95953">
        <ele>419.6</ele>
        <time>2024-10-14T08:22:04.394Z</time>
      </trkpt>
      <trkpt lat="47.31464" lon="4.95948">
        <ele>419.6</ele>
        <time>2024-10-14T08:22:06.537Z</time>
      </trkpt>
      <trkpt lat="47.31452" lon="4.95947">
        <ele>419.8</ele>
        <time>2024-10-14T08:22:08.682Z</time>
      </trkpt>
      <trkpt lat="47.3145" lon="4.95951">
        <ele>420</ele>
        <time>2024-10-14T08:22:10.828Z</time>
      </trkpt>
      <trkpt lat="47.31448" lon="4.95956">
        <ele>420</ele>
        <time>2024-10-14T08:22:12.975Z</time>
      </trkpt>
      <trkpt lat="47.31445" lon="4.95961">
        <ele>420</ele>
        <time>2024-10-14T08:22:15.123Z</time>
      </trkpt>
      <trkpt lat="47.31442" lon="4.95968">
        <ele>420</ele>
        <time>2024-10-14T08:22:17.272Z</time>
      </trkpt>
      <trkpt lat="47.31439" lon="4.95973">
        <ele>419.6</ele>
        <time>2024-10-14T08:22:19.421Z</time>
      </trkpt>
      <trkpt lat="47.31439" lon="4.95983">
        <ele>419.4</ele>
        <time>2024-10-14T08:22:21.572Z</time>
      </trkpt>
      <trkpt lat="47.31439" lon="4.9599">
        <ele>419</ele>
        <time>2024-10-14T08:22:23.724Z</time>
      </trkpt>
      <trkpt lat="47.3144" lon="4.95998">
        <ele>418.6</ele>
        <time>2024-10-14T08:22:25.877Z</time>
      </trkpt>
      <trkpt lat="47.31441" lon="4.96005">
        <ele>418.2</ele>
        <time>2024-10-14T08:22:28.030Z</time>
      </trkpt>
      <trkpt lat="47.31441" lon="4.96013">
        <ele>417.8</ele>
        <time>2024-10-14T08:22:30.185Z</time>
      </trkpt>
      <trkpt lat="47.31442" lon="4.96022">
        <ele>417.6</ele>
        <time>2024-10-14T08:22:32.341Z</time>
      </trkpt>
      <trkpt lat="47.31443" lon="4.96031">
        <ele>417.6</ele>
        <time>2024-10-14T08:22:34.498Z</time>
      </trkpt>
      <trkpt lat="47.31443" lon="4.96039">
        <ele>417.4</ele>
        <time>2024-10-14T08:22:36.656Z</time>
      </trkpt>
      <trkpt lat="47.31444" lon="4.96047">
        <ele>417.4</ele>
        <time>2024-10-14T08:22:38.815Z</time>
      </trkpt>
      <trkpt lat="47.31445" lon="4.96054">
        <ele>417.4</ele>
        <time>2024-10-14T08:22:40.975Z</time>
      </trkpt>
      <trkpt lat="47.31445" lon="4.96054">
        <ele>417.2</ele>
        <time>2024-10-14T08:22:43.135Z</time>
      </trkpt>
      <trkpt lat="47.31425" lon="4.96071">
        <ele>416.8</ele>
        <time>2024-10-14T08:22:45.299Z</time>
      </trkpt>
      <trkpt lat="47.3142" lon="4.96067">
        <ele>416.6</ele>
        <time>2024-10-14T08:22:47.464Z</time>
      </trkpt>
      <trkpt lat="47.31415" lon="4.96064">
        <ele>416.2</ele>
        <time>2024-10-14T08:22:49.630Z</time>
      </trkpt>
      <trkpt lat="47.3141" lon="4.9606">
        <ele>416.2</ele>
        <time>2024-10-14T08:22:51.797Z</time>
      </trkpt>
      <trkpt lat="47.31406" lon="4.96057">
        <ele>416.2</ele>
        <time>2024-10-14T08:22:53.965Z</time>
      </trkpt>
      <trkpt lat="47.314" lon="4.96053">
        <ele>415.8</ele>
        <time>2024-10-14T08:22:56.134Z</time>
      </trkpt>
      <trkpt lat="47.31395" lon="4.9605">
        <ele>415.8</ele>
        <time>2024-10-14T08:22:58.304Z</time>
      </trkpt>
      <trkpt lat="47.3139" lon="4.96046">
        <ele>415.8</ele>
        <time>2024-10-14T08:23:00.475Z</time>
      </trkpt>
      <trkpt lat="47.31384" lon="4.96041">
        <ele>416</ele>
        <time>2024-10-14T08:23:02.647Z</time>
      </trkpt>
      <trkpt lat="47.31379" lon="4.96038">
        <ele>415.8</ele>
        <time>2024-10-14T08:23:04.820Z</time>
      </trkpt>
      <trkpt lat="47.31374" lon="4.96034">
        <ele>415.8</ele>
        <time>2024-10-14T08:23:06.994Z</time>
      </trkpt>
      <trkpt lat="47.31369" lon="4.9603">
        <ele>415.8</ele>
        <time>2024-10-14T08:23:09.169Z</time>
      </trkpt>
      <trkpt lat="47.31363" lon="4.96026">
        <ele>415.8</ele>
        <time>2024-10-14T08:23:11.346Z</time>
      </trkpt>
      <trkpt lat="47.31358" lon="4.96022">
        <ele>415.8</ele>
        <time>2024-10-14T08:23:13.524Z</time>
      </trkpt>
      <trkpt lat="47.31353" lon="4.96018">
        <ele>415.8</ele>
        <time>2024-10-14T08:23:15.703Z</time>
      </trkpt>
      <trkpt lat="47.31348" lon="4.96012">
        <ele>415.8</ele>
        <time>2024-10-14T08:23:17.883Z</time>
      </trkpt>
      <trkpt lat="47.31343" lon="4.96006">
        <ele>415.8</ele>
        <time>2024-10-14T08:23:20.064Z</time>
      </trkpt>
      <trkpt lat="47.31338" lon="4.96">
        <ele>415.8</ele>
        <time>2024-10-14T08:23:22.246Z</time>
      </trkpt>
      <trkpt lat="47.31334" lon="4.95994">
        <ele>415.8</ele>
        <time>2024-10-14T08:23:24.429Z</time>
      </trkpt>
      <trkpt lat="47.31329" lon="4.95988">
        <ele>415.8</ele>
        <time>2024-10-14T08:23:26.613Z</time>
      </trkpt>
      <trkpt lat="47.31325" lon="4.9598">
        <ele>415.8</ele>
        <time>2024-10-14T08:23:28.799Z</time>
      </trkpt>
      <trkpt lat="47.31322" lon="4.95972">
        <ele>416.4</ele>
        <time>2024-10-14T08:23:30.986Z</time>
      </trkpt>
      <trkpt lat="47.31319" lon="4.95965">
        <ele>416.6</ele>
        <time>2024-10-14T08:23:33.174Z</time>
      </trkpt>
      <trkpt lat="47.31316" lon="4.95957">
        <ele>416.6</ele>
        <time>2024-10-14T08:23:35.363Z</time>
      </trkpt>
      <trkpt lat="47.31312" lon="4.95949">
        <ele>416.6</ele>
        <time>2024-10-14T08:23:37.553Z</time>
      </trkpt>
      <trkpt lat="47.31309" lon="4.95943">
        <ele>416.6</ele>
        <time>2024-10-14T08:23:39.744Z</time>
      </trkpt>
      <trkpt lat="47.31305" lon="4.95936">
        <ele>416.4</ele>
        <time>2024-10-14T08:23:41.936Z</time>
      </trkpt>
      <trkpt lat="47.31302" lon="4.95929">
        <ele>416</ele>
        <time>2024-10-14T08:23:44.130Z</time>
      </trkpt>
      <trkpt lat="47.31298" lon="4.95921">
        <ele>416</ele>
        <time>2024-10-14T08:23:46.325Z</time>
      </trkpt>
      <trkpt lat="47.31293" lon="4.95914">
        <ele>415.8</ele>
        <time>2024-10-14T08:23:48.521Z</time>
      </trkpt>
      <trkpt lat="47.31289" lon="4.95905">
        <ele>415.6</ele>
        <time>2024-10-14T08:23:50.718Z</time>
      </trkpt>
      <trkpt lat="47.31284" lon="4.95896">
        <ele>414.2</ele>
        <time>2024-10-14T08:23:52.917Z</time>
      </trkpt>
      <trkpt lat="47.31279" lon="4.95888">
        <ele>413.8</ele>
        <time>2024-10-14T08:23:55.117Z</time>
      </trkpt>
      <trkpt lat="47.31276" lon="4.95881">
        <ele>413.8</ele>
        <time>2024-10-14T08:23:57.318Z</time>
      </trkpt>
      <trkpt lat="47.31274" lon="4.95877">
        <ele>413.8</ele>
        <time>2024-10-14T08:23:59.520Z</time>
      </trkpt>
      <trkpt lat="47.31272" lon="4.95874">
        <ele>414</ele>
        <time>2024-10-14T08:24:01.722Z</time>
      </trkpt>
      <trkpt lat="47.3127" lon="4.95871">
        <ele>414.4</ele>
        <time>2024-10-14T08:24:03.925Z</time>
      </trkpt>
      <trkpt lat="47.31267" lon="4.95866">
        <ele>414.4</ele>
        <time>2024-10-14T08:24:06.129Z</time>
      </trkpt>
      <trkpt lat="47.31264" lon="4.9586">
        <ele>414.4</ele>
        <time>2024-10-14T08:24:08.334Z</time>
      </trkpt>
      <trkpt lat="47.31261" lon="4.95855">
        <ele>414.4</ele>
        <time>2024-10-14T08:24:10.539Z</time>
      </trkpt>
      <trkpt lat="47.31258" lon="4.95849">
        <ele>413.8</ele>
        <time>2024-10-14T08:24:12.745Z</time>
      </trkpt>
      <trkpt lat="47.31255" lon="4.95843">
        <ele>413.6</ele>
        <time>2024-10-14T08:24:14.952Z</time>
      </trkpt>
      <trkpt lat="47.3125" lon="4.95835">
        <ele>413.4</ele>
        <time>2024-10-14T08:24:17.161Z</time>
      </trkpt>
      <trkpt lat="47.31247" lon="4.95829">
        <ele>412.8</ele>
        <time>2024-10-14T08:24:19.371Z</time>
      </trkpt>
      <trkpt lat="47.31243" lon="4.95803">
        <ele>411</ele>
        <time>2024-10-14T08:24:21.584Z</time>
      </trkpt>
      <trkpt lat="47.31243" lon="4.95793">
        <ele>410.8</ele>
        <time>2024-10-14T08:24:23.798Z</time>
      </trkpt>
      <trkpt lat="47.31242" lon="4.95782">
        <ele>410.8</ele>
        <time>2024-10-14T08:24:26.014Z</time>
      </trkpt>
      <trkpt lat="47.31241" lon="4.95771">
        <ele>410.6</ele>
        <time>2024-10-14T08:24:28.231Z</time>
      </trkpt>
      <trkpt lat="47.3124" lon="4.95762">
        <ele>410.4</ele>
        <time>2024-10-14T08:24:30.449Z</time>
      </trkpt>
      <trkpt lat="47.31239" lon="4.95751">
        <ele>410.4</ele>
        <time>2024-10-14T08:24:32.669Z</time>
      </trkpt>
      <trkpt lat="47.31238" lon="4.9574">
        <ele>410.2</ele>
        <time>2024-10-14T08:24:34.890Z</time>
      </trkpt>
      <trkpt lat="47.31238" lon="4.95729">
        <ele>410.2</ele>
        <time>2024-10-14T08:24:37.112Z</time>
      </trkpt>
      <trkpt lat="47.31237" lon="4.95719">
        <ele>410.2</ele>
        <time>2024-10-14T08:24:39.336Z</time>
      </trkpt>
      <trkpt lat="47.31237" lon="4.95709">
        <ele>410.2</ele>
        <time>2024-10-14T08:24:41.561Z</time>
      </trkpt>
      <trkpt lat="47.31237" lon="4.95697">
        <ele>410.2</ele>
        <time>2024-10-14T08:24:43.787Z</time>
      </trkpt>
      <trkpt lat="47.31237" lon="4.95686">
        <ele>410.2</ele>
        <time>2024-10-14T08:24:46.015Z</time>
      </trkpt>
      <trkpt lat="47.31237" lon="4.95675">
        <ele>410</ele>
        <time>2024-10-14T08:24:48.244Z</time>
      </trkpt>
      <trkpt lat="47.31237" lon="4.95665">
        <ele>409.8</ele>
        <time>2024-10-14T08:24:50.474Z</time>
      </trkpt>
      <trkpt lat="47.31237" lon="4.95654">
        <ele>409.8</ele>
        <time>2024-10-14T08:24:52.706Z</time>
      </trkpt>
      <trkpt lat="47.31237" lon="4.95644">
        <ele>409.8</ele>
        <time>2024-10-14T08:24:54.939Z</time>
      </trkpt>
      <trkpt lat="47.31237" lon="4.95635">
        <ele>409.8</ele>
        <time>2024-10-14T08:24:57.173Z</time>
      </trkpt>
      <trkpt lat="47.31237" lon="4.95625">
        <ele>409.8</ele>
        <time>2024-10-14T08:24:59.408Z</time>
      </trkpt>
      <trkpt lat="47.31237" lon="4.95615">
        <ele>410</ele>
        <time>2024-10-14T08:25:01.645Z</time>
      </trkpt>
      <trkpt lat="47.31238" lon="4.95605">
        <ele>410.2</ele>
        <time>2024-10-14T08:25:03.883Z</time>
      </trkpt>
      <trkpt lat="47.31239" lon="4.95595">
        <ele>410.2</ele>
        <time>2024-10-14T08:25:06.122Z</time>
      </trkpt>
      <trkpt lat="47.31239" lon="4.95585">
        <ele>410.2</ele>
        <time>2024-10-14T08:25:08.362Z</time>
      </trkpt>
      <trkpt lat="47.3124" lon="4.95576">
        <ele>410.4</ele>
        <time>2024-10-14T08:25:10.604Z</time>
      </trkpt>
      <trkpt lat="47.3124" lon="4.95567">
        <ele>410.2</ele>
        <time>2024-10-14T08:25:12.847Z</time>
      </trkpt>
      <trkpt lat="47.31241" lon="4.95556">
        <ele>410.2</ele>
        <time>2024-10-14T08:25:15.091Z</time>
      </trkpt>
      <trkpt lat="47.31242" lon="4.95546">
        <ele>409.8</ele>
        <time>2024-10-14T08:25:17.336Z</time>
      </trkpt>
      <trkpt lat="47.31242" lon="4.95536">
        <ele>409.4</ele>
        <time>2024-10-14T08:25:19.583Z</time>
      </trkpt>
      <trkpt lat="47.31243" lon="4.95527">
        <ele>409.4</ele>
        <time>2024-10-14T08:25:21.831Z</time>
      </trkpt>
      <trkpt lat="47.31244" lon="4.95518">
        <ele>409.4</ele>
        <time>2024-10-14T08:25:24.080Z</time>
      </trkpt>
      <trkpt lat="47.31246" lon="4.95508">
        <ele>409.4</ele>
        <time>2024-10-14T08:25:26.330Z</time>
      </trkpt>
      <trkpt lat="47.31247" lon="4.95499">
        <ele>409.4</ele>
        <time>2024-10-14T08:25:28.581Z</time>
      </trkpt>
      <trkpt lat="47.31249" lon="4.95491">
        <ele>409.8</ele>
        <time>2024-10-14T08:25:30.833Z</time>
      </trkpt>
      <trkpt lat="47.31252" lon="4.95482">
        <ele>410.2</ele>
        <time>2024-10-14T08:25:33.087Z</time>
      </trkpt>
      <trkpt lat="47.31254" lon="4.95475">
        <ele>410.6</ele>
        <time>2024-10-14T08:25:35.342Z</time>
      </trkpt>
      <trkpt lat="47.31256" lon="4.95469">
        <ele>411.2</ele>
        <time>2024-10-14T08:25:37.597Z</time>
      </trkpt>
      <trkpt lat="47.31259" lon="4.95464">
        <ele>411.6</ele>
        <time>2024-10-14T08:25:39.853Z</time>
      </trkpt>
      <trkpt lat="47.31262" lon="4.9546">
        <ele>412.2</ele>
        <time>2024-10-14T08:25:42.110Z</time>
      </trkpt>
      <trkpt lat="47.31265" lon="4.95456">
        <ele>413.2</ele>
        <time>2024-10-14T08:25:44.368Z</time>
      </trkpt>
      <trkpt lat="47.31267" lon="4.95452">
        <ele>413.6</ele>
        <time>2024-10-14T08:25:46.626Z</time>
      </trkpt>
      <trkpt lat="47.3127" lon="4.95448">
        <ele>414</ele>
        <time>2024-10-14T08:25:48.885Z</time>
      </trkpt>
      <trkpt lat="47.31273" lon="4.95443">
        <ele>416</ele>
        <time>2024-10-14T08:25:51.145Z</time>
      </trkpt>
      <trkpt lat="47.31276" lon="4.95439">
        <ele>416.2</ele>
        <time>2024-10-14T08:25:53.406Z</time>
      </trkpt>
      <trkpt lat="47.31279" lon="4.95434">
        <ele>416.6</ele>
        <time>2024-10-14T08:25:55.668Z</time>
      </trkpt>
      <trkpt lat="47.31282" lon="4.95429">
        <ele>416.8</ele>
        <time>2024-10-14T08:25:57.930Z</time>
      </trkpt>
      <trkpt lat="47.31286" lon="4.95424">
        <ele>417</ele>
        <time>2024-10-14T08:26:00.193Z</time>
      </trkpt>
      <trkpt lat="47.31289" lon="4.95419">
        <ele>417</ele>
        <time>2024-10-14T08:26:02.457Z</time>
      </trkpt>
      <trkpt lat="47.31292" lon="4.95413">
        <ele>417.2</ele>
        <time>2024-10-14T08:26:04.722Z</time>
      </trkpt>
      <trkpt lat="47.31295" lon="4.95408">
        <ele>417.4</ele>
        <time>2024-10-14T08:26:06.988Z</time>
      </trkpt>
      <trkpt lat="47.31298" lon="4.95404">
        <ele>417.4</ele>
        <time>2024-10-14T08:26:09.255Z</time>
      </trkpt>
      <trkpt lat="47.313" lon="4.954">
        <ele>417.6</ele>
        <time>2024-10-14T08:26:11.522Z</time>
      </trkpt>
      <trkpt lat="47.31302" lon="4.95398">
        <ele>418</ele>
        <time>2024-10-14T08:26:13.790Z</time>
      </trkpt>
      <trkpt lat="47.31304" lon="4.95395">
        <ele>418.4</ele>
        <time>2024-10-14T08:26:16.058Z</time>
      </trkpt>
      <trkpt lat="47.31306" lon="4.95392">
        <ele>418.8</ele>
        <time>2024-10-14T08:26:18.327Z</time>
      </trkpt>
      <trkpt lat="47.31307" lon="4.95389">
        <ele>419</ele>
        <time>2024-10-14T08:26:20.596Z</time>
      </trkpt>
      <trkpt lat="47.31309" lon="4.95386">
        <ele>419.2</ele>
        <time>2024-10-14T08:26:22.866Z</time>
      </trkpt>
      <trkpt lat="47.31311" lon="4.95383">
        <ele>419.4</ele>
        <time>2024-10-14T08:26:25.136Z</time>
      </trkpt>
      <trkpt lat="47.31312" lon="4.95383">
        <ele>419.6</ele>
        <time>2024-10-14T08:26:27.406Z</time>
      </trkpt>
      <trkpt lat="47.31244" lon="4.95049">
        <ele>419.8</ele>
        <time>2024-10-14T08:26:29.720Z</time>
      </trkpt>
      <trkpt lat="47.31241" lon="4.95041">
        <ele>419.8</ele>
        <time>2024-10-14T08:26:32.035Z</time>
      </trkpt>
      <trkpt lat="47.31239" lon="4.95033">
        <ele>419.8</ele>
        <time>2024-10-14T08:26:34.351Z</time>
      </trkpt>
      <trkpt lat="47.31236" lon="4.95026">
        <ele>419.8</ele>
        <time>2024-10-14T08:26:36.668Z</time>
      </trkpt>
      <trkpt lat="47.31237" lon="4.95026">
        <ele>419.8</ele>
        <time>2024-10-14T08:26:38.986Z</time>
      </trkpt>
      <trkpt lat="47.31199" lon="4.95042">
        <ele>420.8</ele>
        <time>2024-10-14T08:26:41.311Z</time>
      </trkpt>
      <trkpt lat="47.31195" lon="4.95039">
        <ele>420.8</ele>
        <time>2024-10-14T08:26:43.637Z</time>
      </trkpt>
      <trkpt lat="47.31191" lon="4.95036">
        <ele>421</ele>
        <time>2024-10-14T08:26:45.963Z</time>
      </trkpt>
      <trkpt lat="47.31188" lon="4.95033">
        <ele>421.2</ele>
        <time>2024-10-14T08:26:48.290Z</time>
      </trkpt>
      <trkpt lat="47.31185" lon="4.9503">
        <ele>421.6</ele>
        <time>2024-10-14T08:26:50.618Z</time>
      </trkpt>
      <trkpt lat="47.31183" lon="4.95029">
        <ele>422</ele>
        <time>2024-10-14T08:26:52.946Z</time>
      </trkpt>
      <trkpt lat="47.31168" lon="4.95024">
        <ele>423.2</ele>
        <time>2024-10-14T08:26:55.277Z</time>
      </trkpt>
      <trkpt lat="47.31151" lon="4.94936">
        <ele>424.4</ele>
        <time>2024-10-14T08:26:57.620Z</time>
      </trkpt>
      <trkpt lat="47.31148" lon="4.94936">
        <ele>424.6</ele>
        <time>2024-10-14T08:26:59.963Z</time>
      </trkpt>
      <trkpt lat="47.31144" lon="4.94936">
        <ele>424.8</ele>
        <time>2024-10-14T08:27:02.307Z</time>
      </trkpt>
      <trkpt lat="47.31141" lon="4.94936">
        <ele>424.8</ele>
        <time>2024-10-14T08:27:04.651Z</time>
      </trkpt>
      <trkpt lat="47.31124" lon="4.95004">
        <ele>424.6</ele>
        <time>2024-10-14T08:27:07.004Z</time>
      </trkpt>
      <trkpt lat="47.31127" lon="4.95007">
        <ele>424.6</ele>
        <time>2024-10-14T08:27:09.358Z</time>
      </trkpt>
      <trkpt lat="47.31131" lon="4.95011">
        <ele>424.6</ele>
        <time>2024-10-14T08:27:11.713Z</time>
      </trkpt>
      <trkpt lat="47.31134" lon="4.95015">
        <ele>424.6</ele>
        <time>2024-10-14T08:27:14.069Z</time>
      </trkpt>
      <trkpt lat="47.31137" lon="4.95019">
        <ele>424.4</ele>
        <time>2024-10-14T08:27:16.425Z</time>
      </trkpt>
      <trkpt lat="47.31141" lon="4.95023">
        <ele>424.4</ele>
        <time>2024-10-14T08:27:18.782Z</time>
      </trkpt>
      <trkpt lat="47.31142" lon="4.95024">
        <ele>424</ele>
        <time>2024-10-14T08:27:21.140Z</time>
      </trkpt>
      <trkpt lat="47.31149" lon="4.95029">
        <ele>420.2</ele>
        <time>2024-10-14T08:27:23.499Z</time>
      </trkpt>
      <trkpt lat="47.31142" lon="4.95024">
        <ele>417.8</ele>
        <time>2024-10-14T08:27:25.859Z</time>
      </trkpt>
      <trkpt lat="47.31149" lon="4.95029">
        <ele>416.4</ele>
        <time>2024-10-14T08:27:28.220Z</time>
      </trkpt>
      <trkpt lat="47.31142" lon="4.95024">
        <ele>416</ele>
        <time>2024-10-14T08:27:30.583Z</time>
      </trkpt>
      <trkpt lat="47.31149" lon="4.95029">
        <ele>415.4</ele>
        <time>2024-10-14T08:27:32.947Z</time>
      </trkpt>
      <trkpt lat="47.3123" lon="4.95069">
        <ele>411.4</ele>
        <time>2024-10-14T08:27:35.327Z</time>
      </trkpt>
      <trkpt lat="47.3123" lon="4.95069">
        <ele>410.8</ele>
        <time>2024-10-14T08:27:37.707Z</time>
      </trkpt>
      <trkpt lat="47.31142" lon="4.95024">
        <ele>409.4</ele>
        <time>2024-10-14T08:27:40.104Z</time>
      </trkpt>
      <trkpt lat="47.31131" lon="4.95351">
        <ele>407.6</ele>
        <time>2024-10-14T08:27:42.542Z</time>
      </trkpt>
      <trkpt lat="47.31126" lon="4.95359">
        <ele>406.6</ele>
        <time>2024-10-14T08:27:44.982Z</time>
      </trkpt>
      <trkpt lat="47.3112" lon="4.95367">
        <ele>406.2</ele>
        <time>2024-10-14T08:27:47.423Z</time>
      </trkpt>
      <trkpt lat="47.31114" lon="4.95374">
        <ele>405.8</ele>
        <time>2024-10-14T08:27:49.866Z</time>
      </trkpt>
      <trkpt lat="47.31107" lon="4.9538">
        <ele>405.4</ele>
        <time>2024-10-14T08:27:52.310Z</time>
      </trkpt>
      <trkpt lat="47.31099" lon="4.95385">
        <ele>405</ele>
        <time>2024-10-14T08:27:54.756Z</time>
      </trkpt>
      <trkpt lat="47.31091" lon="4.95387">
        <ele>404.4</ele>
        <time>2024-10-14T08:27:57.203Z</time>
      </trkpt>
      <trkpt lat="47.31082" lon="4.95387">
        <ele>403.6</ele>
        <time>2024-10-14T08:27:59.652Z</time>
      </trkpt>
      <trkpt lat="47.31074" lon="4.95382">
        <ele>403.4</ele>
        <time>2024-10-14T08:28:02.102Z</time>
      </trkpt>
      <trkpt lat="47.31067" lon="4.95373">
        <ele>403</ele>
        <time>2024-10-14T08:28:04.554Z</time>
      </trkpt>
      <trkpt lat="47.31061" lon="4.95364">
        <ele>402.4</ele>
        <time>2024-10-14T08:28:07.008Z</time>
      </trkpt>
      <trkpt lat="47.31056" lon="4.95354">
        <ele>402.2</ele>
        <time>2024-10-14T08:28:09.463Z</time>
      </trkpt>
      <trkpt lat="47.31052" lon="4.95344">
        <ele>402</ele>
        <time>2024-10-14T08:28:11.920Z</time>
      </trkpt>
      <trkpt lat="47.31048" lon="4.95334">
        <ele>402</ele>
        <time>2024-10-14T08:28:14.378Z</time>
      </trkpt>
      <trkpt lat="47.31045" lon="4.95324">
        <ele>402.2</ele>
        <time>2024-10-14T08:28:16.838Z</time>
      </trkpt>
      <trkpt lat="47.31041" lon="4.95314">
        <ele>402.4</ele>
        <time>2024-10-14T08:28:19.299Z</time>
      </trkpt>
      <trkpt lat="47.31038" lon="4.95304">
        <ele>402.6</ele>
        <time>2024-10-14T08:28:21.761Z</time>
      </trkpt>
      <trkpt lat="47.31037" lon="4.95295">
        <ele>402.8</ele>
        <time>2024-10-14T08:28:24.225Z</time>
      </trkpt>
      <trkpt lat="47.31033" lon="4.95285">
        <ele>402.8</ele>
        <time>2024-10-14T08:28:26.690Z</time>
      </trkpt>
      <trkpt lat="47.31031" lon="4.95275">
        <ele>403</ele>
        <time>2024-10-14T08:28:29.156Z</time>
      </trkpt>
      <trkpt lat="47.31028" lon="4.95265">
        <ele>403</ele>
        <time>2024-10-14T08:28:31.624Z</time>
      </trkpt>
      <trkpt lat="47.31026" lon="4.95256">
        <ele>403.2</ele>
        <time>2024-10-14T08:28:34.093Z</time>
      </trkpt>
      <trkpt lat="47.31024" lon="4.95246">
        <ele>403.2</ele>
        <time>2024-10-14T08:28:36.563Z</time>
      </trkpt>
      <trkpt lat="47.31022" lon="4.95236">
        <ele>403.2</ele>
        <time>2024-10-14T08:28:39.034Z</time>
      </trkpt>
      <trkpt lat="47.3102" lon="4.95227">
        <ele>403.4</ele>
        <time>2024-10-14T08:28:41.507Z</time>
      </trkpt>
      <trkpt lat="47.31018" lon="4.95218">
        <ele>403.6</ele>
        <time>2024-10-14T08:28:43.981Z</time>
      </trkpt>
      <trkpt lat="47.31015" lon="4.9521">
        <ele>403.6</ele>
        <time>2024-10-14T08:28:46.456Z</time>
      </trkpt>
      <trkpt lat="47.31011" lon="4.95201">
        <ele>403.6</ele>
        <time>2024-10-14T08:28:48.932Z</time>
      </trkpt>
      <trkpt lat="47.31007" lon="4.95191">
        <ele>403.6</ele>
        <time>2024-10-14T08:28:51.410Z</time>
      </trkpt>
      <trkpt lat="47.31003" lon="4.9518">
        <ele>403.4</ele>
        <time>2024-10-14T08:28:53.889Z</time>
      </trkpt>
      <trkpt lat="47.31" lon="4.95169">
        <ele>402.6</ele>
        <time>2024-10-14T08:28:56.370Z</time>
      </trkpt>
      <trkpt lat="47.30998" lon="4.95158">
        <ele>402</ele>
        <time>2024-10-14T08:28:58.852Z</time>
      </trkpt>
      <trkpt lat="47.30995" lon="4.95147">
        <ele>401.2</ele>
        <time>2024-10-14T08:29:01.336Z</time>
      </trkpt>
      <trkpt lat="47.30992" lon="4.95135">
        <ele>400.8</ele>
        <time>2024-10-14T08:29:03.821Z</time>
      </trkpt>
      <trkpt lat="47.30989" lon="4.95124">
        <ele>400</ele>
        <time>2024-10-14T08:29:06.308Z</time>
      </trkpt>
      <trkpt lat="47.30987" lon="4.95113">
        <ele>399.8</ele>
        <time>2024-10-14T08:29:08.796Z</time>
      </trkpt>
      <trkpt lat="47.30985" lon="4.95102">
        <ele>399.8</ele>
        <time>2024-10-14T08:29:11.286Z</time>
      </trkpt>
      <trkpt lat="47.30983" lon="4.95092">
        <ele>399.8</ele>
        <time>2024-10-14T08:29:13.777Z</time>
      </trkpt>
      <trkpt lat="47.30981" lon="4.95082">
        <ele>400</ele>
        <time>2024-10-14T08:29:16.269Z</time>
      </trkpt>
      <trkpt lat="47.3098" lon="4.95071">
        <ele>400.6</ele>
        <time>2024-10-14T08:29:18.763Z</time>
      </trkpt>
      <trkpt lat="47.30979" lon="4.95062">
        <ele>401</ele>
        <time>2024-10-14T08:29:21.258Z</time>
      </trkpt>
      <trkpt lat="47.30978" lon="4.95053">
        <ele>401.2</ele>
        <time>2024-10-14T08:29:23.754Z</time>
      </trkpt>
      <trkpt lat="47.30976" lon="4.95044">
        <ele>401.6</ele>
        <time>2024-10-14T08:29:26.251Z</time>
      </trkpt>
      <trkpt lat="47.30975" lon="4.95036">
        <ele>401.6</ele>
        <time>2024-10-14T08:29:28.749Z</time>
      </trkpt>
      <trkpt lat="47.30973" lon="4.95027">
        <ele>401.6</ele>
        <time>2024-10-14T08:29:31.248Z</time>
      </trkpt>
      <trkpt lat="47.30972" lon="4.95015">
        <ele>401.6</ele>
        <time>2024-10-14T08:29:33.749Z</time>
      </trkpt>
      <trkpt lat="47.30972" lon="4.95004">
        <ele>401.6</ele>
        <time>2024-10-14T08:29:36.251Z</time>
      </trkpt>
      <trkpt lat="47.30972" lon="4.94993">
        <ele>401.4</ele>
        <time>2024-10-14T08:29:38.755Z</time>
      </trkpt>
      <trkpt lat="47.30972" lon="4.94983">
        <ele>401.2</ele>
        <time>2024-10-14T08:29:41.260Z</time>
      </trkpt>
      <trkpt lat="47.30971" lon="4.94973">
        <ele>401.2</ele>
        <time>2024-10-14T08:29:43.766Z</time>
      </trkpt>
      <trkpt lat="47.30972" lon="4.94964">
        <ele>401.2</ele>
        <time>2024-10-14T08:29:46.273Z</time>
      </trkpt>
      <trkpt lat="47.30973" lon="4.94952">
        <ele>401.4</ele>
        <time>2024-10-14T08:29:48.782Z</time>
      </trkpt>
      <trkpt lat="47.30973" lon="4.94942">
        <ele>401.4</ele>
        <time>2024-10-14T08:29:51.292Z</time>
      </trkpt>
      <trkpt lat="47.30973" lon="4.94932">
        <ele>401.6</ele>
        <time>2024-10-14T08:29:53.803Z</time>
      </trkpt>
      <trkpt lat="47.30974" lon="4.94921">
        <ele>401.8</ele>
        <time>2024-10-14T08:29:56.316Z</time>
      </trkpt>
      <trkpt lat="47.30976" lon="4.94911">
        <ele>402</ele>
        <time>2024-10-14T08:29:58.830Z</time>
      </trkpt>
      <trkpt lat="47.30977" lon="4.94903">
        <ele>402</ele>
        <time>2024-10-14T08:30:01.345Z</time>
      </trkpt>
      <trkpt lat="47.30979" lon="4.94894">
        <ele>402</ele>
        <time>2024-10-14T08:30:03.861Z</time>
      </trkpt>
      <trkpt lat="47.30981" lon="4.94885">
        <ele>402.4</ele>
        <time>2024-10-14T08:30:06.378Z</time>
      </trkpt>
      <trkpt lat="47.30982" lon="4.94876">
        <ele>402.6</ele>
        <time>2024-10-14T08:30:08.897Z</time>
      </trkpt>
      <trkpt lat="47.30984" lon="4.94868">
        <ele>403</ele>
        <time>2024-10-14T08:30:11.417Z</time>
      </trkpt>
      <trkpt lat="47.30986" lon="4.94861">
        <ele>403.4</ele>
        <time>2024-10-14T08:30:13.938Z</time>
      </trkpt>
      <trkpt lat="47.30987" lon="4.94854">
        <ele>403.8</ele>
        <time>2024-10-14T08:30:16.460Z</time>
      </trkpt>
      <trkpt lat="47.30989" lon="4.94846">
        <ele>404</ele>
        <time>2024-10-14T08:30:18.983Z</time>
      </trkpt>
      <trkpt lat="47.3099" lon="4.94839">
        <ele>404.2</ele>
        <time>2024-10-14T08:30:21.506Z</time>
      </trkpt>
      <trkpt lat="47.30992" lon="4.94831">
        <ele>404.2</ele>
        <time>2024-10-14T08:30:24.031Z</time>
      </trkpt>
      <trkpt lat="47.30993" lon="4.94823">
        <ele>404.4</ele>
        <time>2024-10-14T08:30:26.556Z</time>
      </trkpt>
      <trkpt lat="47.30995" lon="4.94816">
        <ele>404.8</ele>
        <time>2024-10-14T08:30:29.082Z</time>
      </trkpt>
      <trkpt lat="47.30996" lon="4.94808">
        <ele>405</ele>
        <time>2024-10-14T08:30:31.610Z</time>
      </trkpt>
      <trkpt lat="47.30998" lon="4.94801">
        <ele>405.2</ele>
        <time>2024-10-14T08:30:34.138Z</time>
      </trkpt>
      <trkpt lat="47.30999" lon="4.94794">
        <ele>405.6</ele>
        <time>2024-10-14T08:30:36.667Z</time>
      </trkpt>
      <trkpt lat="47.31" lon="4.94788">
        <ele>405.8</ele>
        <time>2024-10-14T08:30:39.197Z</time>
      </trkpt>
      <trkpt lat="47.31001" lon="4.9478">
        <ele>405.8</ele>
        <time>2024-10-14T08:30:41.728Z</time>
      </trkpt>
      <trkpt lat="47.31002" lon="4.94773">
        <ele>405.8</ele>
        <time>2024-10-14T08:30:44.260Z</time>
      </trkpt>
      <trkpt lat="47.31003" lon="4.94765">
        <ele>405.8</ele>
        <time>2024-10-14T08:30:46.793Z</time>
      </trkpt>
      <trkpt lat="47.31003" lon="4.94757">
        <ele>405.8</ele>
        <time>2024-10-14T08:30:49.327Z</time>
      </trkpt>
      <trkpt lat="47.31046" lon="4.9479">
        <ele>405.2</ele>
        <time>2024-10-14T08:30:51.870Z</time>
      </trkpt>
      <trkpt lat="47.31043" lon="4.9481">
        <ele>404.8</ele>
        <time>2024-10-14T08:30:54.415Z</time>
      </trkpt>
      <trkpt lat="47.3105" lon="4.9493">
        <ele>404.6</ele>
        <time>2024-10-14T08:30:56.975Z</time>
      </trkpt>
      <trkpt lat="47.31046" lon="4.94913">
        <ele>399</ele>
        <time>2024-10-14T08:30:59.538Z</time>
      </trkpt>
      <trkpt lat="47.3105" lon="4.9493">
        <ele>397.4</ele>
        <time>2024-10-14T08:31:02.103Z</time>
      </trkpt>
      <trkpt lat="47.31043" lon="4.9481">
        <ele>396.2</ele>
        <time>2024-10-14T08:31:04.683Z</time>
      </trkpt>
      <trkpt lat="47.31046" lon="4.94791">
        <ele>395</ele>
        <time>2024-10-14T08:31:07.266Z</time>
      </trkpt>
      <trkpt lat="47.31046" lon="4.9479">
        <ele>394.4</ele>
        <time>2024-10-14T08:31:09.849Z</time>
      </trkpt>
      <trkpt lat="47.31054" lon="4.94739">
        <ele>395</ele>
        <time>2024-10-14T08:31:12.438Z</time>
      </trkpt>
      <trkpt lat="47.31054" lon="4.94738">
        <ele>397.6</ele>
        <time>2024-10-14T08:31:15.027Z</time>
      </trkpt>
      <trkpt lat="47.31055" lon="4.94734">
        <ele>398</ele>
        <time>2024-10-14T08:31:17.617Z</time>
      </trkpt>
      <trkpt lat="47.31057" lon="4.94729">
        <ele>398.2</ele>
        <time>2024-10-14T08:31:20.208Z</time>
      </trkpt>
      <trkpt lat="47.31058" lon="4.94724">
        <ele>398.4</ele>
        <time>2024-10-14T08:31:22.799Z</time>
      </trkpt>
      <trkpt lat="47.31058" lon="4.94722">
        <ele>398.8</ele>
        <time>2024-10-14T08:31:25.391Z</time>
      </trkpt>
      <trkpt lat="47.31059" lon="4.9472">
        <ele>399.6</ele>
        <time>2024-10-14T08:31:27.983Z</time>
      </trkpt>
      <trkpt lat="47.31061" lon="4.94715">
        <ele>400</ele>
        <time>2024-10-14T08:31:30.576Z</time>
      </trkpt>
      <trkpt lat="47.31063" lon="4.9471">
        <ele>400.2</ele>
        <time>2024-10-14T08:31:33.169Z</time>
      </trkpt>
      <trkpt lat="47.31064" lon="4.94706">
        <ele>400.4</ele>
        <time>2024-10-14T08:31:35.763Z</time>
      </trkpt>
      <trkpt lat="47.31071" lon="4.94678">
        <ele>400.4</ele>
        <time>2024-10-14T08:31:38.361Z</time>
      </trkpt>
      <trkpt lat="47.31072" lon="4.94672">
        <ele>400.6</ele>
        <time>2024-10-14T08:31:40.959Z</time>
      </trkpt>
      <trkpt lat="47.31073" lon="4.94668">
        <ele>400.8</ele>
        <time>2024-10-14T08:31:43.558Z</time>
      </trkpt>
      <trkpt lat="47.31074" lon="4.94662">
        <ele>401.2</ele>
        <time>2024-10-14T08:31:46.158Z</time>
      </trkpt>
      <trkpt lat="47.31074" lon="4.94657">
        <ele>401.4</ele>
        <time>2024-10-14T08:31:48.758Z</time>
      </trkpt>
      <trkpt lat="47.31075" lon="4.94652">
        <ele>401.6</ele>
        <time>2024-10-14T08:31:51.359Z</time>
      </trkpt>
      <trkpt lat="47.31076" lon="4.94644">
        <ele>402</ele>
        <time>2024-10-14T08:31:53.961Z</time>
      </trkpt>
      <trkpt lat="47.31077" lon="4.9464">
        <ele>402</ele>
        <time>2024-10-14T08:31:56.563Z</time>
      </trkpt>
      <trkpt lat="47.31078" lon="4.94621">
        <ele>402.2</ele>
        <time>2024-10-14T08:31:59.168Z</time>
      </trkpt>
      <trkpt lat="47.31076" lon="4.94601">
        <ele>402.4</ele>
        <time>2024-10-14T08:32:01.775Z</time>
      </trkpt>
      <trkpt lat="47.31075" lon="4.94595">
        <ele>402.6</ele>
        <time>2024-10-14T08:32:04.383Z</time>
      </trkpt>
      <trkpt lat="47.31074" lon="4.94591">
        <ele>402.8</ele>
        <time>2024-10-14T08:32:06.992Z</time>
      </trkpt>
      <trkpt lat="47.31073" lon="4.94587">
        <ele>403.2</ele>
        <time>2024-10-14T08:32:09.601Z</time>
      </trkpt>
      <trkpt lat="47.31073" lon="4.94583">
        <ele>403.4</ele>
        <time>2024-10-14T08:32:12.211Z</time>
      </trkpt>
      <trkpt lat="47.31072" lon="4.9458">
        <ele>403.8</ele>
        <time>2024-10-14T08:32:14.821Z</time>
      </trkpt>
      <trkpt lat="47.31072" lon="4.94575">
        <ele>403.8</ele>
        <time>2024-10-14T08:32:17.432Z</time>
      </trkpt>
      <trkpt lat="47.31071" lon="4.94574">
        <ele>404.2</ele>
        <time>2024-10-14T08:32:20.043Z</time>
      </trkpt>
      <trkpt lat="47.31071" lon="4.94572">
        <ele>404.4</ele>
        <time>2024-10-14T08:32:22.654Z</time>
      </trkpt>
      <trkpt lat="47.31071" lon="4.94567">
        <ele>404.6</ele>
        <time>2024-10-14T08:32:25.266Z</time>
      </trkpt>
      <trkpt lat="47.31071" lon="4.94562">
        <ele>404.8</ele>
        <time>2024-10-14T08:32:27.878Z</time>
      </trkpt>
      <trkpt lat="47.31071" lon="4.94557">
        <ele>405</ele>
        <time>2024-10-14T08:32:30.491Z</time>
      </trkpt>
      <trkpt lat="47.31071" lon="4.94552">
        <ele>405.2</ele>
        <time>2024-10-14T08:32:33.105Z</time>
      </trkpt>
      <trkpt lat="47.31071" lon="4.9455">
        <ele>405.4</ele>
        <time>2024-10-14T08:32:35.719Z</time>
      </trkpt>
      <trkpt lat="47.31072" lon="4.94546">
        <ele>405.6</ele>
        <time>2024-10-14T08:32:38.333Z</time>
      </trkpt>
      <trkpt lat="47.31073" lon="4.94542">
        <ele>406</ele>
        <time>2024-10-14T08:32:40.948Z</time>
      </trkpt>
      <trkpt lat="47.31074" lon="4.94538">
        <ele>406.2</ele>
        <time>2024-10-14T08:32:43.563Z</time>
      </trkpt>
      <trkpt lat="47.31075" lon="4.94534">
        <ele>406.4</ele>
        <time>2024-10-14T08:32:46.179Z</time>
      </trkpt>
      <trkpt lat="47.31075" lon="4.94529">
        <ele>406.8</ele>
        <time>2024-10-14T08:32:48.796Z</time>
      </trkpt>
      <trkpt lat="47.31076" lon="4.94528">
        <ele>407</ele>
        <time>2024-10-14T08:32:51.413Z</time>
      </trkpt>
      <trkpt lat="47.31077" lon="4.94525">
        <ele>407.2</ele>
        <time>2024-10-14T08:32:54.030Z</time>
      </trkpt>
      <trkpt lat="47.31078" lon="4.94522">
        <ele>407.4</ele>
        <time>2024-10-14T08:32:56.648Z</time>
      </trkpt>
      <trkpt lat="47.3108" lon="4.94518">
        <ele>407.6</ele>
        <time>2024-10-14T08:32:59.266Z</time>
      </trkpt>
      <trkpt lat="47.31081" lon="4.94515">
        <ele>408.2</ele>
        <time>2024-10-14T08:33:01.885Z</time>
      </trkpt>
      <trkpt lat="47.31082" lon="4.94512">
        <ele>408.4</ele>
        <time>2024-10-14T08:33:04.504Z</time>
      </trkpt>
      <trkpt lat="47.31085" lon="4.94505">
        <ele>408.6</ele>
        <time>2024-10-14T08:33:07.124Z</time>
      </trkpt>
      <trkpt lat="47.31085" lon="4.94493">
        <ele>408.8</ele>
        <time>2024-10-14T08:33:09.746Z</time>
      </trkpt>
      <trkpt lat="47.31084" lon="4.94489">
        <ele>409.2</ele>
        <time>2024-10-14T08:33:12.368Z</time>
      </trkpt>
      <trkpt lat="47.31084" lon="4.94488">
        <ele>409.4</ele>
        <time>2024-10-14T08:33:14.990Z</time>
      </trkpt>
      <trkpt lat="47.31081" lon="4.9448">
        <ele>409.6</ele>
        <time>2024-10-14T08:33:17.613Z</time>
      </trkpt>
      <trkpt lat="47.31079" lon="4.94476">
        <ele>409.8</ele>
        <time>2024-10-14T08:33:20.237Z</time>
      </trkpt>
      <trkpt lat="47.31078" lon="4.94472">
        <ele>409.8</ele>
        <time>2024-10-14T08:33:22.862Z</time>
      </trkpt>
      <trkpt lat="47.31076" lon="4.94468">
        <ele>410</ele>
        <time>2024-10-14T08:33:25.487Z</time>
      </trkpt>
      <trkpt lat="47.31074" lon="4.94463">
        <ele>410.6</ele>
        <time>2024-10-14T08:33:28.113Z</time>
      </trkpt>
      <trkpt lat="47.31072" lon="4.9446">
        <ele>411</ele>
        <time>2024-10-14T08:33:30.739Z</time>
      </trkpt>
      <trkpt lat="47.31071" lon="4.94457">
        <ele>411</ele>
        <time>2024-10-14T08:33:33.366Z</time>
      </trkpt>
      <trkpt lat="47.31069" lon="4.94454">
        <ele>411.2</ele>
        <time>2024-10-14T08:33:35.993Z</time>
      </trkpt>
      <trkpt lat="47.31068" lon="4.9445">
        <ele>411.4</ele>
        <time>2024-10-14T08:33:38.621Z</time>
      </trkpt>
      <trkpt lat="47.31066" lon="4.94447">
        <ele>412</ele>
        <time>2024-10-14T08:33:41.249Z</time>
      </trkpt>
      <trkpt lat="47.31064" lon="4.94443">
        <ele>412.2</ele>
        <time>2024-10-14T08:33:43.878Z</time>
      </trkpt>
      <trkpt lat="47.31062" lon="4.9444">
        <ele>412.4</ele>
        <time>2024-10-14T08:33:46.507Z</time>
      </trkpt>
      <trkpt lat="47.31061" lon="4.94437">
        <ele>412.6</ele>
        <time>2024-10-14T08:33:49.137Z</time>
      </trkpt>
      <trkpt lat="47.31059" lon="4.94434">
        <ele>413</ele>
        <time>2024-10-14T08:33:51.767Z</time>
      </trkpt>
      <trkpt lat="47.31058" lon="4.9443">
        <ele>413</ele>
        <time>2024-10-14T08:33:54.398Z</time>
      </trkpt>
      <trkpt lat="47.31056" lon="4.94427">
        <ele>413.2</ele>
        <time>2024-10-14T08:33:57.030Z</time>
      </trkpt>
      <trkpt lat="47.31054" lon="4.94424">
        <ele>413.6</ele>
        <time>2024-10-14T08:33:59.662Z</time>
      </trkpt>
      <trkpt lat="47.31053" lon="4.94421">
        <ele>413.8</ele>
        <time>2024-10-14T08:34:02.294Z</time>
      </trkpt>
      <trkpt lat="47.31051" lon="4.94418">
        <ele>413.8</ele>
        <time>2024-10-14T08:34:04.927Z</time>
      </trkpt>
      <trkpt lat="47.3105" lon="4.94414">
        <ele>414</ele>
        <time>2024-10-14T08:34:07.560Z</time>
      </trkpt>
      <trkpt lat="47.31048" lon="4.94411">
        <ele>414.2</ele>
        <time>2024-10-14T08:34:10.194Z</time>
      </trkpt>
      <trkpt lat="47.31046" lon="4.94408">
        <ele>414.4</ele>
        <time>2024-10-14T08:34:12.829Z</time>
      </trkpt>
      <trkpt lat="47.31044" lon="4.94402">
        <ele>414.6</ele>
        <time>2024-10-14T08:34:15.464Z</time>
      </trkpt>
      <trkpt lat="47.31043" lon="4.94398">
        <ele>415</ele>
        <time>2024-10-14T08:34:18.100Z</time>
      </trkpt>
      <trkpt lat="47.31042" lon="4.94394">
        <ele>415.2</ele>
        <time>2024-10-14T08:34:20.736Z</time>
      </trkpt>
      <trkpt lat="47.3104" lon="4.94391">
        <ele>415.4</ele>
        <time>2024-10-14T08:34:23.373Z</time>
      </trkpt>
      <trkpt lat="47.31039" lon="4.94387">
        <ele>415.6</ele>
        <time>2024-10-14T08:34:26.010Z</time>
      </trkpt>
      <trkpt lat="47.31038" lon="4.94384">
        <ele>416</ele>
        <time>2024-10-14T08:34:28.648Z</time>
      </trkpt>
      <trkpt lat="47.31036" lon="4.94378">
        <ele>416.2</ele>
        <time>2024-10-14T08:34:31.287Z</time>
      </trkpt>
      <trkpt lat="47.31035" lon="4.94373">
        <ele>416.4</ele>
        <time>2024-10-14T08:34:33.926Z</time>
      </trkpt>
      <trkpt lat="47.31035" lon="4.9437">
        <ele>416.6</ele>
        <time>2024-10-14T08:34:36.566Z</time>
      </trkpt>
      <trkpt lat="47.31034" lon="4.94366">
        <ele>417</ele>
        <time>2024-10-14T08:34:39.206Z</time>
      </trkpt>
      <trkpt lat="47.31033" lon="4.94361">
        <ele>417.2</ele>
        <time>2024-10-14T08:34:41.847Z</time>
      </trkpt>
      <trkpt lat="47.31032" lon="4.94357">
        <ele>417.2</ele>
        <time>2024-10-14T08:34:44.488Z</time>
      </trkpt>
      <trkpt lat="47.31031" lon="4.94353">
        <ele>417.4</ele>
        <time>2024-10-14T08:34:47.130Z</time>
      </trkpt>
      <trkpt lat="47.3103" lon="4.94349">
        <ele>417.8</ele>
        <time>2024-10-14T08:34:49.773Z</time>
      </trkpt>
      <trkpt lat="47.31029" lon="4.94345">
        <ele>418</ele>
        <time>2024-10-14T08:34:52.416Z</time>
      </trkpt>
      <trkpt lat="47.31028" lon="4.94342">
        <ele>418.2</ele>
        <time>2024-10-14T08:34:55.059Z</time>
      </trkpt>
      <trkpt lat="47.31027" lon="4.94339">
        <ele>418.4</ele>
        <time>2024-10-14T08:34:57.703Z</time>
      </trkpt>
      <trkpt lat="47.31026" lon="4.94335">
        <ele>418.8</ele>
        <time>2024-10-14T08:35:00.347Z</time>
      </trkpt>
      <trkpt lat="47.31025" lon="4.94332">
        <ele>419</ele>
        <time>2024-10-14T08:35:02.992Z</time>
      </trkpt>
      <trkpt lat="47.31023" lon="4.94328">
        <ele>419.4</ele>
        <time>2024-10-14T08:35:05.637Z</time>
      </trkpt>
      <trkpt lat="47.31022" lon="4.94323">
        <ele>419.6</ele>
        <time>2024-10-14T08:35:08.283Z</time>
      </trkpt>
      <trkpt lat="47.3102" lon="4.94319">
        <ele>420</ele>
        <time>2024-10-14T08:35:10.930Z</time>
      </trkpt>
      <trkpt lat="47.31019" lon="4.94314">
        <ele>420.4</ele>
        <time>2024-10-14T08:35:13.577Z</time>
      </trkpt>
      <trkpt lat="47.31018" lon="4.94312">
        <ele>420.4</ele>
        <time>2024-10-14T08:35:16.225Z</time>
      </trkpt>
      <trkpt lat="47.31002" lon="4.94285">
        <ele>421.4</ele>
        <time>2024-10-14T08:35:18.877Z</time>
      </trkpt>
      <trkpt lat="47.31002" lon="4.94281">
        <ele>421.6</ele>
        <time>2024-10-14T08:35:21.530Z</time>
      </trkpt>
      <trkpt lat="47.31002" lon="4.94278">
        <ele>421.8</ele>
        <time>2024-10-14T08:35:24.183Z</time>
      </trkpt>
      <trkpt lat="47.31001" lon="4.94274">
        <ele>422.2</ele>
        <time>2024-10-14T08:35:26.837Z</time>
      </trkpt>
      <trkpt lat="47.31001" lon="4.94269">
        <ele>422.4</ele>
        <time>2024-10-14T08:35:29.491Z</time>
      </trkpt>
      <trkpt lat="47.31001" lon="4.94266">
        <ele>422.6</ele>
        <time>2024-10-14T08:35:32.146Z</time>
      </trkpt>
      <trkpt lat="47.31001" lon="4.94261">
        <ele>422.8</ele>
        <time>2024-10-14T08:35:34.801Z</time>
      </trkpt>
      <trkpt lat="47.31001" lon="4.94254">
        <ele>423</ele>
        <time>2024-10-14T08:35:37.457Z</time>
      </trkpt>
      <trkpt lat="47.31001" lon="4.9425">
        <ele>423.2</ele>
        <time>2024-10-14T08:35:40.114Z</time>
      </trkpt>
      <trkpt lat="47.31001" lon="4.94246">
        <ele>423.4</ele>
        <time>2024-10-14T08:35:42.771Z</time>
      </trkpt>
      <trkpt lat="47.31002" lon="4.94243">
        <ele>423.8</ele>
        <time>2024-10-14T08:35:45.428Z</time>
      </trkpt>
      <trkpt lat="47.31002" lon="4.94239">
        <ele>423.8</ele>
        <time>2024-10-14T08:35:48.086Z</time>
      </trkpt>
      <trkpt lat="47.31003" lon="4.94235">
        <ele>424.2</ele>
        <time>2024-10-14T08:35:50.744Z</time>
      </trkpt>
      <trkpt lat="47.31003" lon="4.94232">
        <ele>424.6</ele>
        <time>2024-10-14T08:35:53.403Z</time>
      </trkpt>
      <trkpt lat="47.31003" lon="4.94228">
        <ele>424.8</ele>
        <time>2024-10-14T08:35:56.062Z</time>
      </trkpt>
      <trkpt lat="47.31004" lon="4.94225">
        <ele>424.8</ele>
        <time>2024-10-14T08:35:58.722Z</time>
      </trkpt>
      <trkpt lat="47.31004" lon="4.94221">
        <ele>425</ele>
        <time>2024-10-14T08:36:01.382Z</time>
      </trkpt>
      <trkpt lat="47.31004" lon="4.94217">
        <ele>425.2</ele>
        <time>2024-10-14T08:36:04.043Z</time>
      </trkpt>
      <trkpt lat="47.31006" lon="4.94211">
        <ele>425.6</ele>
        <time>2024-10-14T08:36:06.705Z</time>
      </trkpt>
      <trkpt lat="47.31006" lon="4.94208">
        <ele>425.8</ele>
        <time>2024-10-14T08:36:09.367Z</time>
      </trkpt>
      <trkpt lat="47.31007" lon="4.94207">
        <ele>426.6</ele>
        <time>2024-10-14T08:36:12.029Z</time>
      </trkpt>
      <trkpt lat="47.31" lon="4.94256">
        <ele>426.8</ele>
        <time>2024-10-14T08:36:14.697Z</time>
      </trkpt>
      <trkpt lat="47.31004" lon="4.94218">
        <ele>426.8</ele>
        <time>2024-10-14T08:36:17.370Z</time>
      </trkpt>
      <trkpt lat="47.31004" lon="4.94222">
        <ele>426.8</ele>
        <time>2024-10-14T08:36:20.044Z</time>
      </trkpt>
      <trkpt lat="47.31003" lon="4.94227">
        <ele>426.8</ele>
        <time>2024-10-14T08:36:22.718Z</time>
      </trkpt>
      <trkpt lat="47.31003" lon="4.94232">
        <ele>426.6</ele>
        <time>2024-10-14T08:36:25.393Z</time>
      </trkpt>
      <trkpt lat="47.31002" lon="4.94237">
        <ele>426.6</ele>
        <time>2024-10-14T08:36:28.069Z</time>
      </trkpt>
      <trkpt lat="47.31002" lon="4.94243">
        <ele>426.4</ele>
        <time>2024-10-14T08:36:30.745Z</time>
      </trkpt>
      <trkpt lat="47.31001" lon="4.94249">
        <ele>426.4</ele>
        <time>2024-10-14T08:36:33.422Z</time>
      </trkpt>
      <trkpt lat="47.31001" lon="4.94259">
        <ele>426.4</ele>
        <time>2024-10-14T08:36:36.100Z</time>
      </trkpt>
      <trkpt lat="47.31001" lon="4.94265">
        <ele>426.4</ele>
        <time>2024-10-14T08:36:38.779Z</time>
      </trkpt>
      <trkpt lat="47.31001" lon="4.94271">
        <ele>426.2</ele>
        <time>2024-10-14T08:36:41.459Z</time>
      </trkpt>
      <trkpt lat="47.31002" lon="4.94278">
        <ele>426.2</ele>
        <time>2024-10-14T08:36:44.140Z</time>
      </trkpt>
      <trkpt lat="47.31002" lon="4.94286">
        <ele>426.2</ele>
        <time>2024-10-14T08:36:46.822Z</time>
      </trkpt>
      <trkpt lat="47.31002" lon="4.94292">
        <ele>426.2</ele>
        <time>2024-10-14T08:36:49.505Z</time>
      </trkpt>
      <trkpt lat="47.31017" lon="4.94311">
        <ele>426.2</ele>
        <time>2024-10-14T08:36:52.191Z</time>
      </trkpt>
      <trkpt lat="47.31018" lon="4.94312">
        <ele>426</ele>
        <time>2024-10-14T08:36:54.877Z</time>
      </trkpt>
      <trkpt lat="47.3102" lon="4.94319">
        <ele>425.8</ele>
        <time>2024-10-14T08:36:57.564Z</time>
      </trkpt>
      <trkpt lat="47.31022" lon="4.94325">
        <ele>425.4</ele>
        <time>2024-10-14T08:37:00.252Z</time>
      </trkpt>
      <trkpt lat="47.31025" lon="4.94333">
        <ele>425.2</ele>
        <time>2024-10-14T08:37:02.941Z</time>
      </trkpt>
      <trkpt lat="47.31028" lon="4.94341">
        <ele>425</ele>
        <time>2024-10-14T08:37:05.631Z</time>
      </trkpt>
      <trkpt lat="47.31029" lon="4.94346">
        <ele>425</ele>
        <time>2024-10-14T08:37:08.322Z</time>
      </trkpt>
      <trkpt lat="47.31031" lon="4.94354">
        <ele>424.8</ele>
        <time>2024-10-14T08:37:11.014Z</time>
      </trkpt>
      <trkpt lat="47.31033" lon="4.94361">
        <ele>424.8</ele>
        <time>2024-10-14T08:37:13.707Z</time>
      </trkpt>
      <trkpt lat="47.31034" lon="4.94369">
        <ele>424.6</ele>
        <time>2024-10-14T08:37:16.401Z</time>
      </trkpt>
      <trkpt lat="47.31036" lon="4.94377">
        <ele>424.4</ele>
        <time>2024-10-14T08:37:19.096Z</time>
      </trkpt>
      <trkpt lat="47.31039" lon="4.94387">
        <ele>424.4</ele>
        <time>2024-10-14T08:37:21.793Z</time>
      </trkpt>
      <trkpt lat="47.31042" lon="4.94395">
        <ele>424.2</ele>
        <time>2024-10-14T08:37:24.491Z</time>
      </trkpt>
      <trkpt lat="47.31044" lon="4.94402">
        <ele>424.2</ele>
        <time>2024-10-14T08:37:27.190Z</time>
      </trkpt>
      <trkpt lat="47.31049" lon="4.94413">
        <ele>424</ele>
        <time>2024-10-14T08:37:29.890Z</time>
      </trkpt>
      <trkpt lat="47.31052" lon="4.9442">
        <ele>424</ele>
        <time>2024-10-14T08:37:32.591Z</time>
      </trkpt>
      <trkpt lat="47.31056" lon="4.94427">
        <ele>423.8</ele>
        <time>2024-10-14T08:37:35.294Z</time>
      </trkpt>
      <trkpt lat="47.31059" lon="4.94434">
        <ele>423.8</ele>
        <time>2024-10-14T08:37:37.998Z</time>
      </trkpt>
      <trkpt lat="47.31063" lon="4.94441">
        <ele>423.8</ele>
        <time>2024-10-14T08:37:40.703Z</time>
      </trkpt>
      <trkpt lat="47.31066" lon="4.94447">
        <ele>423.8</ele>
        <time>2024-10-14T08:37:43.409Z</time>
      </trkpt>
      <trkpt lat="47.3107" lon="4.94455">
        <ele>423.8</ele>
        <time>2024-10-14T08:37:46.116Z</time>
      </trkpt>
      <trkpt lat="47.31073" lon="4.94462">
        <ele>423.8</ele>
        <time>2024-10-14T08:37:48.824Z</time>
      </trkpt>
      <trkpt lat="47.31076" lon="4.94468">
        <ele>424</ele>
        <time>2024-10-14T08:37:51.533Z</time>
      </trkpt>
      <trkpt lat="47.31079" lon="4.94475">
        <ele>424.2</ele>
        <time>2024-10-14T08:37:54.243Z</time>
      </trkpt>
      <trkpt lat="47.31082" lon="4.94481">
        <ele>424.2</ele>
        <time>2024-10-14T08:37:56.954Z</time>
      </trkpt>
      <trkpt lat="47.31084" lon="4.94488">
        <ele>424.4</ele>
        <time>2024-10-14T08:37:59.666Z</time>
      </trkpt>
      <trkpt lat="47.31086" lon="4.94495">
        <ele>424.4</ele>
        <time>2024-10-14T08:38:02.379Z</time>
      </trkpt>
      <trkpt lat="47.31086" lon="4.94499">
        <ele>424.2</ele>
        <time>2024-10-14T08:38:05.092Z</time>
      </trkpt>
      <trkpt lat="47.31074" lon="4.94537">
        <ele>427.8</ele>
        <time>2024-10-14T08:38:07.811Z</time>
      </trkpt>
      <trkpt lat="47.31071" lon="4.94561">
        <ele>427.8</ele>
        <time>2024-10-14T08:38:10.533Z</time>
      </trkpt>
      <trkpt lat="47.31073" lon="4.94583">
        <ele>427.8</ele>
        <time>2024-10-14T08:38:13.257Z</time>
      </trkpt>
      <trkpt lat="47.31074" lon="4.94591">
        <ele>427.8</ele>
        <time>2024-10-14T08:38:15.982Z</time>
      </trkpt>
      <trkpt lat="47.31075" lon="4.94598">
        <ele>427.6</ele>
        <time>2024-10-14T08:38:18.708Z</time>
      </trkpt>
      <trkpt lat="47.31076" lon="4.94605">
        <ele>427.6</ele>
        <time>2024-10-14T08:38:21.435Z</time>
      </trkpt>
      <trkpt lat="47.31078" lon="4.94613">
        <ele>427.4</ele>
        <time>2024-10-14T08:38:24.163Z</time>
      </trkpt>
      <trkpt lat="47.31078" lon="4.94614">
        <ele>427.4</ele>
        <time>2024-10-14T08:38:26.891Z</time>
      </trkpt>
      <trkpt lat="47.31078" lon="4.94618">
        <ele>427.4</ele>
        <time>2024-10-14T08:38:29.620Z</time>
      </trkpt>
      <trkpt lat="47.31078" lon="4.94626">
        <ele>427</ele>
        <time>2024-10-14T08:38:32.350Z</time>
      </trkpt>
      <trkpt lat="47.31078" lon="4.94632">
        <ele>427</ele>
        <time>2024-10-14T08:38:35.081Z</time>
      </trkpt>
      <trkpt lat="47.31077" lon="4.94634">
        <ele>426.8</ele>
        <time>2024-10-14T08:38:37.812Z</time>
      </trkpt>
      <trkpt lat="47.31076" lon="4.94643">
        <ele>426.6</ele>
        <time>2024-10-14T08:38:40.544Z</time>
      </trkpt>
      <trkpt lat="47.31075" lon="4.9465">
        <ele>426.6</ele>
        <time>2024-10-14T08:38:43.277Z</time>
      </trkpt>
      <trkpt lat="47.31074" lon="4.94658">
        <ele>426.6</ele>
        <time>2024-10-14T08:38:46.011Z</time>
      </trkpt>
      <trkpt lat="47.31073" lon="4.94666">
        <ele>426.6</ele>
        <time>2024-10-14T08:38:48.746Z</time>
      </trkpt>
      <trkpt lat="47.31072" lon="4.94674">
        <ele>426.6</ele>
        <time>2024-10-14T08:38:51.482Z</time>
      </trkpt>
      <trkpt lat="47.31071" lon="4.94682">
        <ele>426.6</ele>
        <time>2024-10-14T08:38:54.219Z</time>
      </trkpt>
      <trkpt lat="47.31069" lon="4.9469">
        <ele>426.8</ele>
        <time>2024-10-14T08:38:56.957Z</time>
      </trkpt>
      <trkpt lat="47.31069" lon="4.94692">
        <ele>426.8</ele>
        <time>2024-10-14T08:38:59.695Z</time>
      </trkpt>
      <trkpt lat="47.31063" lon="4.94709">
        <ele>427</ele>
        <time>2024-10-14T08:39:02.436Z</time>
      </trkpt>
      <trkpt lat="47.31061" lon="4.94714">
        <ele>426.8</ele>
        <time>2024-10-14T08:39:05.177Z</time>
      </trkpt>
      <trkpt lat="47.31057" lon="4.94728">
        <ele>426.8</ele>
        <time>2024-10-14T08:39:07.920Z</time>
      </trkpt>
      <trkpt lat="47.31054" lon="4.94756">
        <ele>426.8</ele>
        <time>2024-10-14T08:39:10.667Z</time>
      </trkpt>
      <trkpt lat="47.31054" lon="4.9476">
        <ele>426.8</ele>
        <time>2024-10-14T08:39:13.414Z</time>
      </trkpt>
      <trkpt lat="47.31053" lon="4.94765">
        <ele>426.8</ele>
        <time>2024-10-14T08:39:16.162Z</time>
      </trkpt>
      <trkpt lat="47.31052" lon="4.94773">
        <ele>426.6</ele>
        <time>2024-10-14T08:39:18.911Z</time>
      </trkpt>
      <trkpt lat="47.31046" lon="4.94827">
        <ele>426.4</ele>
        <time>2024-10-14T08:39:21.667Z</time>
      </trkpt>
      <trkpt lat="47.31048" lon="4.94836">
        <ele>426.2</ele>
        <time>2024-10-14T08:39:24.424Z</time>
      </trkpt>
      <trkpt lat="47.31049" lon="4.94846">
        <ele>426.2</ele>
        <time>2024-10-14T08:39:27.182Z</time>
      </trkpt>
      <trkpt lat="47.3105" lon="4.94848">
        <ele>426</ele>
        <time>2024-10-14T08:39:29.941Z</time>
      </trkpt>
      <trkpt lat="47.3105" lon="4.94852">
        <ele>425.6</ele>
        <time>2024-10-14T08:39:32.700Z</time>
      </trkpt>
      <trkpt lat="47.3105" lon="4.94861">
        <ele>425.4</ele>
        <time>2024-10-14T08:39:35.460Z</time>
      </trkpt>
      <trkpt lat="47.31049" lon="4.94866">
        <ele>425</ele>
        <time>2024-10-14T08:39:38.221Z</time>
      </trkpt>
      <trkpt lat="47.31049" lon="4.94876">
        <ele>424.8</ele>
        <time>2024-10-14T08:39:40.983Z</time>
      </trkpt>
      <trkpt lat="47.31048" lon="4.94885">
        <ele>424.6</ele>
        <time>2024-10-14T08:39:43.746Z</time>
      </trkpt>
      <trkpt lat="47.31047" lon="4.94895">
        <ele>424.4</ele>
        <time>2024-10-14T08:39:46.511Z</time>
      </trkpt>
      <trkpt lat="47.31046" lon="4.94903">
        <ele>424.4</ele>
        <time>2024-10-14T08:39:49.277Z</time>
      </trkpt>
      <trkpt lat="47.31046" lon="4.9491">
        <ele>424.2</ele>
        <time>2024-10-14T08:39:52.044Z</time>
      </trkpt>
      <trkpt lat="47.31046" lon="4.94913">
        <ele>424.2</ele>
        <time>2024-10-14T08:39:54.811Z</time>
      </trkpt>
      <trkpt lat="47.31057" lon="4.94937">
        <ele>424.2</ele>
        <time>2024-10-14T08:39:57.582Z</time>
      </trkpt>
      <trkpt lat="47.31056" lon="4.94936">
        <ele>424.2</ele>
        <time>2024-10-14T08:40:00.353Z</time>
      </trkpt>
      <trkpt lat="47.31052" lon="4.94932">
        <ele>424.6</ele>
        <time>2024-10-14T08:40:03.125Z</time>
      </trkpt>
      <trkpt lat="47.31052" lon="4.94932">
        <ele>425.2</ele>
        <time>2024-10-14T08:40:05.897Z</time>
      </trkpt>
      <trkpt lat="47.31048" lon="4.94922">
        <ele>425.6</ele>
        <time>2024-10-14T08:40:08.670Z</time>
      </trkpt>
      <trkpt lat="47.31052" lon="4.94932">
        <ele>425.6</ele>
        <time>2024-10-14T08:40:11.444Z</time>
      </trkpt>
      <trkpt lat="47.31052" lon="4.94932">
        <ele>425.8</ele>
        <time>2024-10-14T08:40:14.218Z</time>
      </trkpt>
      <trkpt lat="47.31052" lon="4.94932">
        <ele>425.8</ele>
        <time>2024-10-14T08:40:16.992Z</time>
      </trkpt>
      <trkpt lat="47.31051" lon="4.94931">
        <ele>425.8</ele>
        <time>2024-10-14T08:40:19.766Z</time>
      </trkpt>
      <trkpt lat="47.31051" lon="4.94931">
        <ele>426</ele>
        <time>2024-10-14T08:40:22.541Z</time>
      </trkpt>
      <trkpt lat="47.3105" lon="4.9493">
        <ele>426.2</ele>
        <time>2024-10-14T08:40:25.316Z</time>
      </trkpt>
      <trkpt lat="47.31056" lon="4.94936">
        <ele>426.2</ele>
        <time>2024-10-14T08:40:28.092Z</time>
      </trkpt>
      <trkpt lat="47.3105" lon="4.9493">
        <ele>426.4</ele>
        <time>2024-10-14T08:40:30.870Z</time>
      </trkpt>
      <trkpt lat="47.31046" lon="4.94913">
        <ele>425</ele>
        <time>2024-10-14T08:40:33.650Z</time>
      </trkpt>
      <trkpt lat="47.31046" lon="4.94908">
        <ele>424.2</ele>
        <time>2024-10-14T08:40:36.431Z</time>
      </trkpt>
      <trkpt lat="47.31046" lon="4.94903">
        <ele>424</ele>
        <time>2024-10-14T08:40:39.212Z</time>
      </trkpt>
      <trkpt lat="47.31047" lon="4.94899">
        <ele>424</ele>
        <time>2024-10-14T08:40:41.994Z</time>
      </trkpt>
      <trkpt lat="47.31047" lon="4.94894">
        <ele>424</ele>
        <time>2024-10-14T08:40:44.776Z</time>
      </trkpt>
      <trkpt lat="47.31048" lon="4.94888">
        <ele>424</ele>
        <time>2024-10-14T08:40:47.559Z</time>
      </trkpt>
      <trkpt lat="47.31048" lon="4.94883">
        <ele>424.2</ele>
        <time>2024-10-14T08:40:50.343Z</time>
      </trkpt>
      <trkpt lat="47.31049" lon="4.94877">
        <ele>424.2</ele>
        <time>2024-10-14T08:40:53.127Z</time>
      </trkpt>
      <trkpt lat="47.31049" lon="4.94871">
        <ele>424</ele>
        <time>2024-10-14T08:40:55.912Z</time>
      </trkpt>
      <trkpt lat="47.3105" lon="4.94864">
        <ele>424</ele>
        <time>2024-10-14T08:40:58.698Z</time>
      </trkpt>
      <trkpt lat="47.3105" lon="4.94854">
        <ele>424</ele>
        <time>2024-10-14T08:41:01.485Z</time>
      </trkpt>
      <trkpt lat="47.31049" lon="4.94841">
        <ele>423.8</ele>
        <time>2024-10-14T08:41:04.274Z</time>
      </trkpt>
      <trkpt lat="47.31048" lon="4.94835">
        <ele>423.8</ele>
        <time>2024-10-14T08:41:07.064Z</time>
      </trkpt>
      <trkpt lat="47.31046" lon="4.94827">
        <ele>423.6</ele>
        <time>2024-10-14T08:41:09.855Z</time>
      </trkpt>
      <trkpt lat="47.31045" lon="4.94818">
        <ele>423.2</ele>
        <time>2024-10-14T08:41:12.647Z</time>
      </trkpt>
      <trkpt lat="47.31043" lon="4.9481">
        <ele>422.4</ele>
        <time>2024-10-14T08:41:15.440Z</time>
      </trkpt>
      <trkpt lat="47.31044" lon="4.94808">
        <ele>421.8</ele>
        <time>2024-10-14T08:41:18.233Z</time>
      </trkpt>
      <trkpt lat="47.31045" lon="4.94799">
        <ele>421.4</ele>
        <time>2024-10-14T08:41:21.027Z</time>
      </trkpt>
      <trkpt lat="47.31046" lon="4.94791">
        <ele>421.4</ele>
        <time>2024-10-14T08:41:23.822Z</time>
      </trkpt>
      <trkpt lat="47.31047" lon="4.94787">
        <ele>421.6</ele>
        <time>2024-10-14T08:41:26.618Z</time>
      </trkpt>
      <trkpt lat="47.3105" lon="4.9478">
        <ele>421.4</ele>
        <time>2024-10-14T08:41:29.415Z</time>
      </trkpt>
      <trkpt lat="47.31053" lon="4.94769">
        <ele>421.6</ele>
        <time>2024-10-14T08:41:32.213Z</time>
      </trkpt>
      <trkpt lat="47.31054" lon="4.94758">
        <ele>421.6</ele>
        <time>2024-10-14T08:41:35.013Z</time>
      </trkpt>
      <trkpt lat="47.31054" lon="4.94751">
        <ele>421.6</ele>
        <time>2024-10-14T08:41:37.814Z</time>
      </trkpt>
      <trkpt lat="47.31054" lon="4.94743">
        <ele>421.4</ele>
        <time>2024-10-14T08:41:40.616Z</time>
      </trkpt>
      <trkpt lat="47.31055" lon="4.94737">
        <ele>421.2</ele>
        <time>2024-10-14T08:41:43.419Z</time>
      </trkpt>
      <trkpt lat="47.31056" lon="4.9473">
        <ele>421</ele>
        <time>2024-10-14T08:41:46.222Z</time>
      </trkpt>
      <trkpt lat="47.31058" lon="4.94722">
        <ele>420.6</ele>
        <time>2024-10-14T08:41:49.027Z</time>
      </trkpt>
      <trkpt lat="47.31061" lon="4.94714">
        <ele>420.4</ele>
        <time>2024-10-14T08:41:51.833Z</time>
      </trkpt>
      <trkpt lat="47.31064" lon="4.94706">
        <ele>420.4</ele>
        <time>2024-10-14T08:41:54.640Z</time>
      </trkpt>
      <trkpt lat="47.31066" lon="4.94699">
        <ele>420.4</ele>
        <time>2024-10-14T08:41:57.448Z</time>
      </trkpt>
      <trkpt lat="47.31069" lon="4.94693">
        <ele>420.8</ele>
        <time>2024-10-14T08:42:00.257Z</time>
      </trkpt>
      <trkpt lat="47.3107" lon="4.94685">
        <ele>421.2</ele>
        <time>2024-10-14T08:42:03.067Z</time>
      </trkpt>
      <trkpt lat="47.31071" lon="4.94678">
        <ele>421.4</ele>
        <time>2024-10-14T08:42:05.878Z</time>
      </trkpt>
      <trkpt lat="47.31072" lon="4.94672">
        <ele>421.4</ele>
        <time>2024-10-14T08:42:08.689Z</time>
      </trkpt>
      <trkpt lat="47.31073" lon="4.94664">
        <ele>421.4</ele>
        <time>2024-10-14T08:42:11.501Z</time>
      </trkpt>
      <trkpt lat="47.31074" lon="4.94657">
        <ele>421.2</ele>
        <time>2024-10-14T08:42:14.314Z</time>
      </trkpt>
      <trkpt lat="47.31076" lon="4.94647">
        <ele>420.2</ele>
        <time>2024-10-14T08:42:17.129Z</time>
      </trkpt>
      <trkpt lat="47.31077" lon="4.94638">
        <ele>419.2</ele>
        <time>2024-10-14T08:42:19.945Z</time>
      </trkpt>
      <trkpt lat="47.31078" lon="4.9463">
        <ele>418.8</ele>
        <time>2024-10-14T08:42:22.762Z</time>
      </trkpt>
      <trkpt lat="47.31078" lon="4.94623">
        <ele>418.6</ele>
        <time>2024-10-14T08:42:25.580Z</time>
      </trkpt>
      <trkpt lat="47.31078" lon="4.94618">
        <ele>418.6</ele>
        <time>2024-10-14T08:42:28.398Z</time>
      </trkpt>
      <trkpt lat="47.31077" lon="4.94612">
        <ele>418.6</ele>
        <time>2024-10-14T08:42:31.217Z</time>
      </trkpt>
      <trkpt lat="47.31077" lon="4.94608">
        <ele>418.6</ele>
        <time>2024-10-14T08:42:34.037Z</time>
      </trkpt>
      <trkpt lat="47.31076" lon="4.94603">
        <ele>418.6</ele>
        <time>2024-10-14T08:42:36.857Z</time>
      </trkpt>
      <trkpt lat="47.31075" lon="4.94597">
        <ele>418.6</ele>
        <time>2024-10-14T08:42:39.678Z</time>
      </trkpt>
      <trkpt lat="47.31074" lon="4.94589">
        <ele>418.4</ele>
        <time>2024-10-14T08:42:42.500Z</time>
      </trkpt>
      <trkpt lat="47.31073" lon="4.94582">
        <ele>417.6</ele>
        <time>2024-10-14T08:42:45.323Z</time>
      </trkpt>
      <trkpt lat="47.31071" lon="4.94573">
        <ele>417.2</ele>
        <time>2024-10-14T08:42:48.147Z</time>
      </trkpt>
      <trkpt lat="47.31071" lon="4.94565">
        <ele>416.4</ele>
        <time>2024-10-14T08:42:50.972Z</time>
      </trkpt>
      <trkpt lat="47.31071" lon="4.94555">
        <ele>416.4</ele>
        <time>2024-10-14T08:42:53.798Z</time>
      </trkpt>
      <trkpt lat="47.31072" lon="4.94547">
        <ele>416.4</ele>
        <time>2024-10-14T08:42:56.625Z</time>
      </trkpt>
      <trkpt lat="47.31073" lon="4.9454">
        <ele>416.4</ele>
        <time>2024-10-14T08:42:59.453Z</time>
      </trkpt>
      <trkpt lat="47.31074" lon="4.94534">
        <ele>416.6</ele>
        <time>2024-10-14T08:43:02.282Z</time>
      </trkpt>
      <trkpt lat="47.31076" lon="4.94527">
        <ele>416.8</ele>
        <time>2024-10-14T08:43:05.112Z</time>
      </trkpt>
      <trkpt lat="47.31079" lon="4.94521">
        <ele>417.4</ele>
        <time>2024-10-14T08:43:07.943Z</time>
      </trkpt>
      <trkpt lat="47.31081" lon="4.94516">
        <ele>417.4</ele>
        <time>2024-10-14T08:43:10.775Z</time>
      </trkpt>
      <trkpt lat="47.31083" lon="4.9451">
        <ele>417.4</ele>
        <time>2024-10-14T08:43:13.607Z</time>
      </trkpt>
      <trkpt lat="47.31086" lon="4.94496">
        <ele>417.4</ele>
        <time>2024-10-14T08:43:16.441Z</time>
      </trkpt>
      <trkpt lat="47.31084" lon="4.94489">
        <ele>417.4</ele>
        <time>2024-10-14T08:43:19.276Z</time>
      </trkpt>
      <trkpt lat="47.31082" lon="4.94483">
        <ele>417.4</ele>
        <time>2024-10-14T08:43:22.112Z</time>
      </trkpt>
      <trkpt lat="47.3108" lon="4.94478">
        <ele>417.6</ele>
        <time>2024-10-14T08:43:24.949Z</time>
      </trkpt>
      <trkpt lat="47.31078" lon="4.94472">
        <ele>417.8</ele>
        <time>2024-10-14T08:43:27.787Z</time>
      </trkpt>
      <trkpt lat="47.31076" lon="4.94467">
        <ele>418.4</ele>
        <time>2024-10-14T08:43:30.625Z</time>
      </trkpt>
      <trkpt lat="47.31074" lon="4.94464">
        <ele>419.4</ele>
        <time>2024-10-14T08:43:33.464Z</time>
      </trkpt>
      <trkpt lat="47.31072" lon="4.9446">
        <ele>420.4</ele>
        <time>2024-10-14T08:43:36.303Z</time>
      </trkpt>
      <trkpt lat="47.3107" lon="4.94455">
        <ele>420.4</ele>
        <time>2024-10-14T08:43:39.143Z</time>
      </trkpt>
      <trkpt lat="47.31067" lon="4.9445">
        <ele>420.4</ele>
        <time>2024-10-14T08:43:41.984Z</time>
      </trkpt>
      <trkpt lat="47.31065" lon="4.94445">
        <ele>420.4</ele>
        <time>2024-10-14T08:43:44.826Z</time>
      </trkpt>
      <trkpt lat="47.31062" lon="4.94439">
        <ele>420</ele>
        <time>2024-10-14T08:43:47.669Z</time>
      </trkpt>
      <trkpt lat="47.31059" lon="4.94433">
        <ele>419.8</ele>
        <time>2024-10-14T08:43:50.513Z</time>
      </trkpt>
      <trkpt lat="47.31056" lon="4.94428">
        <ele>419.8</ele>
        <time>2024-10-14T08:43:53.357Z</time>
      </trkpt>
      <trkpt lat="47.31054" lon="4.94423">
        <ele>419.8</ele>
        <time>2024-10-14T08:43:56.202Z</time>
      </trkpt>
      <trkpt lat="47.31051" lon="4.94418">
        <ele>419.6</ele>
        <time>2024-10-14T08:43:59.048Z</time>
      </trkpt>
      <trkpt lat="47.31048" lon="4.94412">
        <ele>419.6</ele>
        <time>2024-10-14T08:44:01.895Z</time>
      </trkpt>
      <trkpt lat="47.31045" lon="4.94405">
        <ele>419.6</ele>
        <time>2024-10-14T08:44:04.743Z</time>
      </trkpt>
      <trkpt lat="47.31043" lon="4.94398">
        <ele>419.6</ele>
        <time>2024-10-14T08:44:07.592Z</time>
      </trkpt>
      <trkpt lat="47.3104" lon="4.94391">
        <ele>419.6</ele>
        <time>2024-10-14T08:44:10.442Z</time>
      </trkpt>
      <trkpt lat="47.31038" lon="4.94383">
        <ele>419.4</ele>
        <time>2024-10-14T08:44:13.293Z</time>
      </trkpt>
      <trkpt lat="47.31036" lon="4.94375">
        <ele>419.2</ele>
        <time>2024-10-14T08:44:16.145Z</time>
      </trkpt>
      <trkpt lat="47.31034" lon="4.94367">
        <ele>419.2</ele>
        <time>2024-10-14T08:44:18.998Z</time>
      </trkpt>
      <trkpt lat="47.31032" lon="4.94359">
        <ele>419.2</ele>
        <time>2024-10-14T08:44:21.852Z</time>
      </trkpt>
      <trkpt lat="47.3103" lon="4.94351">
        <ele>419.2</ele>
        <time>2024-10-14T08:44:24.707Z</time>
      </trkpt>
      <trkpt lat="47.31029" lon="4.94343">
        <ele>419.2</ele>
        <time>2024-10-14T08:44:27.563Z</time>
      </trkpt>
      <trkpt lat="47.31026" lon="4.94336">
        <ele>419.2</ele>
        <time>2024-10-14T08:44:30.420Z</time>
      </trkpt>
      <trkpt lat="47.31024" lon="4.94329">
        <ele>419.2</ele>
        <time>2024-10-14T08:44:33.278Z</time>
      </trkpt>
      <trkpt lat="47.31021" lon="4.94322">
        <ele>419.4</ele>
        <time>2024-10-14T08:44:36.137Z</time>
      </trkpt>
      <trkpt lat="47.31019" lon="4.94316">
        <ele>419.8</ele>
        <time>2024-10-14T08:44:38.997Z</time>
      </trkpt>
      <trkpt lat="47.31016" lon="4.9431">
        <ele>420</ele>
        <time>2024-10-14T08:44:41.858Z</time>
      </trkpt>
      <trkpt lat="47.31013" lon="4.94306">
        <ele>420.2</ele>
        <time>2024-10-14T08:44:44.720Z</time>
      </trkpt>
      <trkpt lat="47.3101" lon="4.94303">
        <ele>420.4</ele>
        <time>2024-10-14T08:44:47.583Z</time>
      </trkpt>
      <trkpt lat="47.31007" lon="4.94299">
        <ele>420.4</ele>
        <time>2024-10-14T08:44:50.446Z</time>
      </trkpt>
      <trkpt lat="47.31003" lon="4.94297">
        <ele>420.4</ele>
        <time>2024-10-14T08:44:53.310Z</time>
      </trkpt>
      <trkpt lat="47.30999" lon="4.94297">
        <ele>420.2</ele>
        <time>2024-10-14T08:44:56.175Z</time>
      </trkpt>
      <trkpt lat="47.30996" lon="4.94297">
        <ele>420.2</ele>
        <time>2024-10-14T08:44:59.040Z</time>
      </trkpt>
      <trkpt lat="47.30994" lon="4.94297">
        <ele>420.2</ele>
        <time>2024-10-14T08:45:01.906Z</time>
      </trkpt>
      <trkpt lat="47.30992" lon="4.94299">
        <ele>420.2</ele>
        <time>2024-10-14T08:45:04.772Z</time>
      </trkpt>
      <trkpt lat="47.3099" lon="4.94303">
        <ele>420.2</ele>
        <time>2024-10-14T08:45:07.639Z</time>
      </trkpt>
      <trkpt lat="47.3099" lon="4.94303">
        <ele>420.4</ele>
        <time>2024-10-14T08:45:10.506Z</time>
      </trkpt>
      <trkpt lat="47.3099" lon="4.94312">
        <ele>420.4</ele>
        <time>2024-10-14T08:45:13.374Z</time>
      </trkpt>
      <trkpt lat="47.3099" lon="4.94318">
        <ele>420.6</ele>
        <time>2024-10-14T08:45:16.243Z</time>
      </trkpt>
      <trkpt lat="47.3099" lon="4.94323">
        <ele>420.6</ele>
        <time>2024-10-14T08:45:19.112Z</time>
      </trkpt>
      <trkpt lat="47.3099" lon="4.94327">
        <ele>420.6</ele>
        <time>2024-10-14T08:45:21.982Z</time>
      </trkpt>
      <trkpt lat="47.3099" lon="4.94332">
        <ele>420.8</ele>
        <time>2024-10-14T08:45:24.852Z</time>
      </trkpt>
      <trkpt lat="47.3099" lon="4.94338">
        <ele>421</ele>
        <time>2024-10-14T08:45:27.723Z</time>
      </trkpt>
      <trkpt lat="47.3099" lon="4.94342">
        <ele>421.4</ele>
        <time>2024-10-14T08:45:30.595Z</time>
      </trkpt>
      <trkpt lat="47.3099" lon="4.94347">
        <ele>422.4</ele>
        <time>2024-10-14T08:45:33.467Z</time>
      </trkpt>
      <trkpt lat="47.3099" lon="4.94352">
        <ele>423.2</ele>
        <time>2024-10-14T08:45:36.340Z</time>
      </trkpt>
      <trkpt lat="47.3099" lon="4.94358">
        <ele>423.2</ele>
        <time>2024-10-14T08:45:39.214Z</time>
      </trkpt>
      <trkpt lat="47.3099" lon="4.94364">
        <ele>423.4</ele>
        <time>2024-10-14T08:45:42.089Z</time>
      </trkpt>
      <trkpt lat="47.30986" lon="4.94373">
        <ele>423.4</ele>
        <time>2024-10-14T08:45:44.965Z</time>
      </trkpt>
      <trkpt lat="47.30983" lon="4.94378">
        <ele>423.2</ele>
        <time>2024-10-14T08:45:47.842Z</time>
      </trkpt>
      <trkpt lat="47.3098" lon="4.94382">
        <ele>423.2</ele>
        <time>2024-10-14T08:45:50.719Z</time>
      </trkpt>
      <trkpt lat="47.30977" lon="4.94387">
        <ele>423.2</ele>
        <time>2024-10-14T08:45:53.597Z</time>
      </trkpt>
      <trkpt lat="47.30974" lon="4.94391">
        <ele>423.2</ele>
        <time>2024-10-14T08:45:56.476Z</time>
      </trkpt>
      <trkpt lat="47.30972" lon="4.94394">
        <ele>423.2</ele>
        <time>2024-10-14T08:45:59.356Z</time>
      </trkpt>
      <trkpt lat="47.3097" lon="4.94398">
        <ele>423.2</ele>
        <time>2024-10-14T08:46:02.236Z</time>
      </trkpt>
      <trkpt lat="47.30968" lon="4.944">
        <ele>423.4</ele>
        <time>2024-10-14T08:46:05.117Z</time>
      </trkpt>
      <trkpt lat="47.30968" lon="4.94406">
        <ele>424</ele>
        <time>2024-10-14T08:46:07.998Z</time>
      </trkpt>
      <trkpt lat="47.30967" lon="4.94412">
        <ele>424</ele>
        <time>2024-10-14T08:46:10.880Z</time>
      </trkpt>
      <trkpt lat="47.30967" lon="4.94418">
        <ele>424.2</ele>
        <time>2024-10-14T08:46:13.763Z</time>
      </trkpt>
      <trkpt lat="47.30966" lon="4.94425">
        <ele>424.4</ele>
        <time>2024-10-14T08:46:16.647Z</time>
      </trkpt>
      <trkpt lat="47.30966" lon="4.9443">
        <ele>424.4</ele>
        <time>2024-10-14T08:46:19.531Z</time>
      </trkpt>
      <trkpt lat="47.30964" lon="4.94436">
        <ele>424.6</ele>
        <time>2024-10-14T08:46:22.416Z</time>
      </trkpt>
      <trkpt lat="47.30963" lon="4.94441">
        <ele>424.8</ele>
        <time>2024-10-14T08:46:25.302Z</time>
      </trkpt>
      <trkpt lat="47.30962" lon="4.94445">
        <ele>424.8</ele>
        <time>2024-10-14T08:46:28.188Z</time>
      </trkpt>
      <trkpt lat="47.30957" lon="4.94451">
        <ele>424.8</ele>
        <time>2024-10-14T08:46:31.075Z</time>
      </trkpt>
      <trkpt lat="47.30954" lon="4.94454">
        <ele>425</ele>
        <time>2024-10-14T08:46:33.963Z</time>
      </trkpt>
      <trkpt lat="47.30951" lon="4.94458">
        <ele>425</ele>
        <time>2024-10-14T08:46:36.852Z</time>
      </trkpt>
      <trkpt lat="47.30947" lon="4.9446">
        <ele>425</ele>
        <time>2024-10-14T08:46:39.742Z</time>
      </trkpt>
      <trkpt lat="47.30944" lon="4.94463">
        <ele>424.6</ele>
        <time>2024-10-14T08:46:42.632Z</time>
      </trkpt>
      <trkpt lat="47.3094" lon="4.94466">
        <ele>424.6</ele>
        <time>2024-10-14T08:46:45.523Z</time>
      </trkpt>
      <trkpt lat="47.30937" lon="4.94468">
        <ele>424.6</ele>
        <time>2024-10-14T08:46:48.415Z</time>
      </trkpt>
      <trkpt lat="47.30934" lon="4.9447">
        <ele>424.6</ele>
        <time>2024-10-14T08:46:51.307Z</time>
      </trkpt>
      <trkpt lat="47.3093" lon="4.94473">
        <ele>424.4</ele>
        <time>2024-10-14T08:46:54.200Z</time>
      </trkpt>
      <trkpt lat="47.30927" lon="4.94475">
        <ele>424.6</ele>
        <time>2024-10-14T08:46:57.094Z</time>
      </trkpt>
      <trkpt lat="47.30925" lon="4.94477">
        <ele>424.6</ele>
        <time>2024-10-14T08:46:59.988Z</time>
      </trkpt>
      <trkpt lat="47.30924" lon="4.94477">
        <ele>424.8</ele>
        <time>2024-10-14T08:47:02.882Z</time>
      </trkpt>
      <trkpt lat="47.30923" lon="4.94478">
        <ele>425.2</ele>
        <time>2024-10-14T08:47:05.777Z</time>
      </trkpt>
      <trkpt lat="47.30922" lon="4.94479">
        <ele>425.4</ele>
        <time>2024-10-14T08:47:08.672Z</time>
      </trkpt>
      <trkpt lat="47.30921" lon="4.94479">
        <ele>425.4</ele>
        <time>2024-10-14T08:47:11.567Z</time>
      </trkpt>
      <trkpt lat="47.309" lon="4.94485">
        <ele>425.4</ele>
        <time>2024-10-14T08:47:14.466Z</time>
      </trkpt>
      <trkpt lat="47.30896" lon="4.94482">
        <ele>425.6</ele>
        <time>2024-10-14T08:47:17.366Z</time>
      </trkpt>
      <trkpt lat="47.30892" lon="4.9448">
        <ele>425.8</ele>
        <time>2024-10-14T08:47:20.267Z</time>
      </trkpt>
      <trkpt lat="47.30888" lon="4.94478">
        <ele>425.8</ele>
        <time>2024-10-14T08:47:23.168Z</time>
      </trkpt>
      <trkpt lat="47.30885" lon="4.94475">
        <ele>425.8</ele>
        <time>2024-10-14T08:47:26.070Z</time>
      </trkpt>
      <trkpt lat="47.30881" lon="4.94473">
        <ele>425.8</ele>
        <time>2024-10-14T08:47:28.973Z</time>
      </trkpt>
      <trkpt lat="47.30878" lon="4.9447">
        <ele>425.8</ele>
        <time>2024-10-14T08:47:31.876Z</time>
      </trkpt>
      <trkpt lat="47.30874" lon="4.94468">
        <ele>425.8</ele>
        <time>2024-10-14T08:47:34.780Z</time>
      </trkpt>
      <trkpt lat="47.3087" lon="4.94465">
        <ele>425.8</ele>
        <time>2024-10-14T08:47:37.685Z</time>
      </trkpt>
      <trkpt lat="47.30866" lon="4.94463">
        <ele>425.8</ele>
        <time>2024-10-14T08:47:40.591Z</time>
      </trkpt>
      <trkpt lat="47.30863" lon="4.9446">
        <ele>425.8</ele>
        <time>2024-10-14T08:47:43.498Z</time>
      </trkpt>
      <trkpt lat="47.30859" lon="4.94458">
        <ele>425.8</ele>
        <time>2024-10-14T08:47:46.405Z</time>
      </trkpt>
      <trkpt lat="47.30856" lon="4.94456">
        <ele>425.8</ele>
        <time>2024-10-14T08:47:49.313Z</time>
      </trkpt>
      <trkpt lat="47.30852" lon="4.94453">
        <ele>425.8</ele>
        <time>2024-10-14T08:47:52.222Z</time>
      </trkpt>
      <trkpt lat="47.30849" lon="4.94451">
        <ele>426</ele>
        <time>2024-10-14T08:47:55.131Z</time>
      </trkpt>
      <trkpt lat="47.30847" lon="4.9445">
        <ele>426.4</ele>
        <time>2024-10-14T08:47:58.041Z</time>
      </trkpt>
      <trkpt lat="47.30845" lon="4.94449">
        <ele>426.6</ele>
        <time>2024-10-14T08:48:00.951Z</time>
      </trkpt>
      <trkpt lat="47.30842" lon="4.94447">
        <ele>426.6</ele>
        <time>2024-10-14T08:48:03.862Z</time>
      </trkpt>
      <trkpt lat="47.30839" lon="4.94445">
        <ele>426.8</ele>
        <time>2024-10-14T08:48:06.773Z</time>
      </trkpt>
      <trkpt lat="47.30835" lon="4.94442">
        <ele>426.8</ele>
        <time>2024-10-14T08:48:09.685Z</time>
      </trkpt>
      <trkpt lat="47.30831" lon="4.94439">
        <ele>426.8</ele>
        <time>2024-10-14T08:48:12.598Z</time>
      </trkpt>
      <trkpt lat="47.30827" lon="4.94437">
        <ele>426.8</ele>
        <time>2024-10-14T08:48:15.512Z</time>
      </trkpt>
      <trkpt lat="47.30823" lon="4.94434">
        <ele>426.8</ele>
        <time>2024-10-14T08:48:18.427Z</time>
      </trkpt>
      <trkpt lat="47.3082" lon="4.94432">
        <ele>427</ele>
        <time>2024-10-14T08:48:21.342Z</time>
      </trkpt>
      <trkpt lat="47.30816" lon="4.94429">
        <ele>427.2</ele>
        <time>2024-10-14T08:48:24.258Z</time>
      </trkpt>
      <trkpt lat="47.30813" lon="4.94426">
        <ele>427.2</ele>
        <time>2024-10-14T08:48:27.175Z</time>
      </trkpt>
      <trkpt lat="47.3081" lon="4.94423">
        <ele>427.2</ele>
        <time>2024-10-14T08:48:30.092Z</time>
      </trkpt>
      <trkpt lat="47.30806" lon="4.94419">
        <ele>427.2</ele>
        <time>2024-10-14T08:48:33.010Z</time>
      </trkpt>
      <trkpt lat="47.30803" lon="4.94414">
        <ele>427</ele>
        <time>2024-10-14T08:48:35.929Z</time>
      </trkpt>
      <trkpt lat="47.30799" lon="4.9441">
        <ele>426.6</ele>
        <time>2024-10-14T08:48:38.849Z</time>
      </trkpt>
      <trkpt lat="47.30796" lon="4.94406">
        <ele>426.2</ele>
        <time>2024-10-14T08:48:41.770Z</time>
      </trkpt>
      <trkpt lat="47.30793" lon="4.94402">
        <ele>426</ele>
        <time>2024-10-14T08:48:44.691Z</time>
      </trkpt>
      <trkpt lat="47.3079" lon="4.94399">
        <ele>426</ele>
        <time>2024-10-14T08:48:47.613Z</time>
      </trkpt>
      <trkpt lat="47.30787" lon="4.94395">
        <ele>426</ele>
        <time>2024-10-14T08:48:50.536Z</time>
      </trkpt>
      <trkpt lat="47.30784" lon="4.94391">
        <ele>426</ele>
        <time>2024-10-14T08:48:53.460Z</time>
      </trkpt>
      <trkpt lat="47.30781" lon="4.94388">
        <ele>426</ele>
        <time>2024-10-14T08:48:56.384Z</time>
      </trkpt>
      <trkpt lat="47.30752" lon="4.944">
        <ele>426</ele>
        <time>2024-10-14T08:48:59.314Z</time>
      </trkpt>
      <trkpt lat="47.30762" lon="4.94388">
        <ele>426.2</ele>
        <time>2024-10-14T08:49:02.246Z</time>
      </trkpt>
      <trkpt lat="47.30752" lon="4.944">
        <ele>426.8</ele>
        <time>2024-10-14T08:49:05.181Z</time>
      </trkpt>
      <trkpt lat="47.30748" lon="4.94399">
        <ele>427.8</ele>
        <time>2024-10-14T08:49:08.116Z</time>
      </trkpt>
      <trkpt lat="47.30745" lon="4.94398">
        <ele>428.8</ele>
        <time>2024-10-14T08:49:11.052Z</time>
      </trkpt>
      <trkpt lat="47.30743" lon="4.94397">
        <ele>429</ele>
        <time>2024-10-14T08:49:13.989Z</time>
      </trkpt>
      <trkpt lat="47.30741" lon="4.94415">
        <ele>429.8</ele>
        <time>2024-10-14T08:49:16.928Z</time>
      </trkpt>
      <trkpt lat="47.3074" lon="4.94418">
        <ele>430.4</ele>
        <time>2024-10-14T08:49:19.867Z</time>
      </trkpt>
      <trkpt lat="47.30738" lon="4.9442">
        <ele>430.6</ele>
        <time>2024-10-14T08:49:22.807Z</time>
      </trkpt>
      <trkpt lat="47.30737" lon="4.94421">
        <ele>430.8</ele>
        <time>2024-10-14T08:49:25.747Z</time>
      </trkpt>
      <trkpt lat="47.30736" lon="4.94423">
        <ele>430.8</ele>
        <time>2024-10-14T08:49:28.687Z</time>
      </trkpt>
      <trkpt lat="47.30735" lon="4.94425">
        <ele>431</ele>
        <time>2024-10-14T08:49:31.628Z</time>
      </trkpt>
      <trkpt lat="47.30733" lon="4.94428">
        <ele>431</ele>
        <time>2024-10-14T08:49:34.569Z</time>
      </trkpt>
      <trkpt lat="47.30732" lon="4.94429">
        <ele>431.6</ele>
        <time>2024-10-14T08:49:37.510Z</time>
      </trkpt>
      <trkpt lat="47.3073" lon="4.94432">
        <ele>432.2</ele>
        <time>2024-10-14T08:49:40.452Z</time>
      </trkpt>
      <trkpt lat="47.30729" lon="4.94436">
        <ele>432.4</ele>
        <time>2024-10-14T08:49:43.394Z</time>
      </trkpt>
      <trkpt lat="47.30727" lon="4.94439">
        <ele>432.6</ele>
        <time>2024-10-14T08:49:46.337Z</time>
      </trkpt>
      <trkpt lat="47.30726" lon="4.94443">
        <ele>432.8</ele>
        <time>2024-10-14T08:49:49.280Z</time>
      </trkpt>
      <trkpt lat="47.30724" lon="4.94448">
        <ele>433</ele>
        <time>2024-10-14T08:49:52.224Z</time>
      </trkpt>
      <trkpt lat="47.30723" lon="4.94454">
        <ele>433</ele>
        <time>2024-10-14T08:49:55.169Z</time>
      </trkpt>
      <trkpt lat="47.30722" lon="4.9446">
        <ele>433.2</ele>
        <time>2024-10-14T08:49:58.115Z</time>
      </trkpt>
      <trkpt lat="47.30721" lon="4.94465">
        <ele>433.2</ele>
        <time>2024-10-14T08:50:01.061Z</time>
      </trkpt>
      <trkpt lat="47.3072" lon="4.94471">
        <ele>433.4</ele>
        <time>2024-10-14T08:50:04.008Z</time>
      </trkpt>
      <trkpt lat="47.30719" lon="4.94476">
        <ele>433.4</ele>
        <time>2024-10-14T08:50:06.956Z</time>
      </trkpt>
      <trkpt lat="47.30719" lon="4.94481">
        <ele>433.6</ele>
        <time>2024-10-14T08:50:09.904Z</time>
      </trkpt>
      <trkpt lat="47.30718" lon="4.94486">
        <ele>433.6</ele>
        <time>2024-10-14T08:50:12.853Z</time>
      </trkpt>
      <trkpt lat="47.30717" lon="4.94492">
        <ele>433.8</ele>
        <time>2024-10-14T08:50:15.803Z</time>
      </trkpt>
      <trkpt lat="47.30716" lon="4.94497">
        <ele>434</ele>
        <time>2024-10-14T08:50:18.753Z</time>
      </trkpt>
      <trkpt lat="47.30715" lon="4.94502">
        <ele>434</ele>
        <time>2024-10-14T08:50:21.704Z</time>
      </trkpt>
      <trkpt lat="47.30714" lon="4.94506">
        <ele>434.2</ele>
        <time>2024-10-14T08:50:24.656Z</time>
      </trkpt>
      <trkpt lat="47.30713" lon="4.94509">
        <ele>434.2</ele>
        <time>2024-10-14T08:50:27.608Z</time>
      </trkpt>
      <trkpt lat="47.30712" lon="4.94514">
        <ele>434.4</ele>
        <time>2024-10-14T08:50:30.561Z</time>
      </trkpt>
      <trkpt lat="47.30711" lon="4.94518">
        <ele>434.4</ele>
        <time>2024-10-14T08:50:33.514Z</time>
      </trkpt>
      <trkpt lat="47.30709" lon="4.94523">
        <ele>434.6</ele>
        <time>2024-10-14T08:50:36.468Z</time>
      </trkpt>
      <trkpt lat="47.30708" lon="4.94528">
        <ele>434.6</ele>
        <time>2024-10-14T08:50:39.423Z</time>
      </trkpt>
      <trkpt lat="47.30707" lon="4.94532">
        <ele>434.6</ele>
        <time>2024-10-14T08:50:42.378Z</time>
      </trkpt>
      <trkpt lat="47.30706" lon="4.94536">
        <ele>434.8</ele>
        <time>2024-10-14T08:50:45.334Z</time>
      </trkpt>
      <trkpt lat="47.30705" lon="4.94539">
        <ele>435</ele>
        <time>2024-10-14T08:50:48.290Z</time>
      </trkpt>
      <trkpt lat="47.30704" lon="4.94542">
        <ele>435</ele>
        <time>2024-10-14T08:50:51.247Z</time>
      </trkpt>
      <trkpt lat="47.30703" lon="4.94547">
        <ele>435.2</ele>
        <time>2024-10-14T08:50:54.204Z</time>
      </trkpt>
      <trkpt lat="47.30701" lon="4.94551">
        <ele>435.2</ele>
        <time>2024-10-14T08:50:57.162Z</time>
      </trkpt>
      <trkpt lat="47.307" lon="4.94556">
        <ele>435.4</ele>
        <time>2024-10-14T08:51:00.120Z</time>
      </trkpt>
      <trkpt lat="47.30699" lon="4.94561">
        <ele>435.4</ele>
        <time>2024-10-14T08:51:03.079Z</time>
      </trkpt>
      <trkpt lat="47.30697" lon="4.94568">
        <ele>435.4</ele>
        <time>2024-10-14T08:51:06.039Z</time>
      </trkpt>
      <trkpt lat="47.30695" lon="4.94573">
        <ele>435.6</ele>
        <time>2024-10-14T08:51:09.000Z</time>
      </trkpt>
      <trkpt lat="47.30693" lon="4.94578">
        <ele>435.8</ele>
        <time>2024-10-14T08:51:11.962Z</time>
      </trkpt>
      <trkpt lat="47.30691" lon="4.94583">
        <ele>435.8</ele>
        <time>2024-10-14T08:51:14.924Z</time>
      </trkpt>
      <trkpt lat="47.30689" lon="4.94588">
        <ele>436</ele>
        <time>2024-10-14T08:51:17.887Z</time>
      </trkpt>
      <trkpt lat="47.30688" lon="4.94593">
        <ele>436</ele>
        <time>2024-10-14T08:51:20.851Z</time>
      </trkpt>
      <trkpt lat="47.30685" lon="4.94599">
        <ele>436</ele>
        <time>2024-10-14T08:51:23.815Z</time>
      </trkpt>
      <trkpt lat="47.30685" lon="4.94599">
        <ele>436.2</ele>
        <time>2024-10-14T08:51:26.780Z</time>
      </trkpt>
      <trkpt lat="47.30684" lon="4.94611">
        <ele>436.6</ele>
        <time>2024-10-14T08:51:29.746Z</time>
      </trkpt>
      <trkpt lat="47.30683" lon="4.94617">
        <ele>436.6</ele>
        <time>2024-10-14T08:51:32.713Z</time>
      </trkpt>
      <trkpt lat="47.30683" lon="4.94619">
        <ele>436.6</ele>
        <time>2024-10-14T08:51:35.680Z</time>
      </trkpt>
      <trkpt lat="47.30685" lon="4.94626">
        <ele>436.6</ele>
        <time>2024-10-14T08:51:38.648Z</time>
      </trkpt>
      <trkpt lat="47.30687" lon="4.94632">
        <ele>436.4</ele>
        <time>2024-10-14T08:51:41.617Z</time>
      </trkpt>
      <trkpt lat="47.30689" lon="4.94635">
        <ele>435.8</ele>
        <time>2024-10-14T08:51:44.586Z</time>
      </trkpt>
      <trkpt lat="47.30693" lon="4.94637">
        <ele>435.8</ele>
        <time>2024-10-14T08:51:47.556Z</time>
      </trkpt>
      <trkpt lat="47.30698" lon="4.9464">
        <ele>435.4</ele>
        <time>2024-10-14T08:51:50.527Z</time>
      </trkpt>
      <trkpt lat="47.30701" lon="4.94642">
        <ele>435</ele>
        <time>2024-10-14T08:51:53.499Z</time>
      </trkpt>
      <trkpt lat="47.30706" lon="4.94644">
        <ele>434.4</ele>
        <time>2024-10-14T08:51:56.472Z</time>
      </trkpt>
      <trkpt lat="47.3071" lon="4.94646">
        <ele>434</ele>
        <time>2024-10-14T08:51:59.445Z</time>
      </trkpt>
      <trkpt lat="47.30712" lon="4.9465">
        <ele>433.6</ele>
        <time>2024-10-14T08:52:02.419Z</time>
      </trkpt>
      <trkpt lat="47.30716" lon="4.94656">
        <ele>433.6</ele>
        <time>2024-10-14T08:52:05.394Z</time>
      </trkpt>
      <trkpt lat="47.30718" lon="4.94662">
        <ele>433.4</ele>
        <time>2024-10-14T08:52:08.370Z</time>
      </trkpt>
      <trkpt lat="47.30719" lon="4.94669">
        <ele>433.4</ele>
        <time>2024-10-14T08:52:11.347Z</time>
      </trkpt>
      <trkpt lat="47.30721" lon="4.94676">
        <ele>433.4</ele>
        <time>2024-10-14T08:52:14.325Z</time>
      </trkpt>
      <trkpt lat="47.30722" lon="4.94683">
        <ele>433.4</ele>
        <time>2024-10-14T08:52:17.304Z</time>
      </trkpt>
      <trkpt lat="47.30722" lon="4.9469">
        <ele>433.4</ele>
        <time>2024-10-14T08:52:20.284Z</time>
      </trkpt>
      <trkpt lat="47.30722" lon="4.94696">
        <ele>433.4</ele>
        <time>2024-10-14T08:52:23.264Z</time>
      </trkpt>
      <trkpt lat="47.30722" lon="4.94703">
        <ele>433.4</ele>
        <time>2024-10-14T08:52:26.245Z</time>
      </trkpt>
      <trkpt lat="47.30722" lon="4.94709">
        <ele>433.2</ele>
        <time>2024-10-14T08:52:29.227Z</time>
      </trkpt>
      <trkpt lat="47.30723" lon="4.94717">
        <ele>433.2</ele>
        <time>2024-10-14T08:52:32.210Z</time>
      </trkpt>
      <trkpt lat="47.30724" lon="4.94725">
        <ele>433</ele>
        <time>2024-10-14T08:52:35.194Z</time>
      </trkpt>
      <trkpt lat="47.30725" lon="4.94732">
        <ele>432.6</ele>
        <time>2024-10-14T08:52:38.179Z</time>
      </trkpt>
      <trkpt lat="47.30725" lon="4.9474">
        <ele>432.4</ele>
        <time>2024-10-14T08:52:41.165Z</time>
      </trkpt>
      <trkpt lat="47.30727" lon="4.94748">
        <ele>431.8</ele>
        <time>2024-10-14T08:52:44.152Z</time>
      </trkpt>
      <trkpt lat="47.30729" lon="4.94756">
        <ele>431.4</ele>
        <time>2024-10-14T08:52:47.140Z</time>
      </trkpt>
      <trkpt lat="47.30731" lon="4.94765">
        <ele>431</ele>
        <time>2024-10-14T08:52:50.129Z</time>
      </trkpt>
      <trkpt lat="47.30733" lon="4.94773">
        <ele>430.8</ele>
        <time>2024-10-14T08:52:53.119Z</time>
      </trkpt>
      <trkpt lat="47.30735" lon="4.94784">
        <ele>430.2</ele>
        <time>2024-10-14T08:52:56.111Z</time>
      </trkpt>
      <trkpt lat="47.30737" lon="4.94793">
        <ele>429.6</ele>
        <time>2024-10-14T08:52:59.104Z</time>
      </trkpt>
      <trkpt lat="47.30738" lon="4.94802">
        <ele>429.2</ele>
        <time>2024-10-14T08:53:02.098Z</time>
      </trkpt>
      <trkpt lat="47.30739" lon="4.94811">
        <ele>428.4</ele>
        <time>2024-10-14T08:53:05.093Z</time>
      </trkpt>
      <trkpt lat="47.3074" lon="4.94821">
        <ele>428.2</ele>
        <time>2024-10-14T08:53:08.089Z</time>
      </trkpt>
      <trkpt lat="47.30742" lon="4.9483">
        <ele>427.6</ele>
        <time>2024-10-14T08:53:11.087Z</time>
      </trkpt>
      <trkpt lat="47.30743" lon="4.94839">
        <ele>427.4</ele>
        <time>2024-10-14T08:53:14.086Z</time>
      </trkpt>
      <trkpt lat="47.30744" lon="4.94847">
        <ele>427.2</ele>
        <time>2024-10-14T08:53:17.086Z</time>
      </trkpt>
      <trkpt lat="47.30745" lon="4.94852">
        <ele>427</ele>
        <time>2024-10-14T08:53:20.086Z</time>
      </trkpt>
      <trkpt lat="47.30744" lon="4.94859">
        <ele>426.8</ele>
        <time>2024-10-14T08:53:23.087Z</time>
      </trkpt>
      <trkpt lat="47.30742" lon="4.94865">
        <ele>426.6</ele>
        <time>2024-10-14T08:53:26.089Z</time>
      </trkpt>
      <trkpt lat="47.30739" lon="4.9487">
        <ele>426.6</ele>
        <time>2024-10-14T08:53:29.092Z</time>
      </trkpt>
      <trkpt lat="47.30737" lon="4.94876">
        <ele>426.4</ele>
        <time>2024-10-14T08:53:32.096Z</time>
      </trkpt>
      <trkpt lat="47.30734" lon="4.94882">
        <ele>426.2</ele>
        <time>2024-10-14T08:53:35.101Z</time>
      </trkpt>
      <trkpt lat="47.30732" lon="4.94888">
        <ele>426</ele>
        <time>2024-10-14T08:53:38.107Z</time>
      </trkpt>
      <trkpt lat="47.30729" lon="4.94894">
        <ele>425.2</ele>
        <time>2024-10-14T08:53:41.113Z</time>
      </trkpt>
      <trkpt lat="47.30726" lon="4.949">
        <ele>424.4</ele>
        <time>2024-10-14T08:53:44.120Z</time>
      </trkpt>
      <trkpt lat="47.30726" lon="4.94902">
        <ele>423.2</ele>
        <time>2024-10-14T08:53:47.128Z</time>
      </trkpt>
      <trkpt lat="47.30722" lon="4.94924">
        <ele>421.4</ele>
        <time>2024-10-14T08:53:50.139Z</time>
      </trkpt>
      <trkpt lat="47.30721" lon="4.94931">
        <ele>421.4</ele>
        <time>2024-10-14T08:53:53.150Z</time>
      </trkpt>
      <trkpt lat="47.3072" lon="4.94939">
        <ele>421.4</ele>
        <time>2024-10-14T08:53:56.162Z</time>
      </trkpt>
      <trkpt lat="47.30717" lon="4.94946">
        <ele>421.8</ele>
        <time>2024-10-14T08:53:59.176Z</time>
      </trkpt>
      <trkpt lat="47.30715" lon="4.94951">
        <ele>422.4</ele>
        <time>2024-10-14T08:54:02.190Z</time>
      </trkpt>
      <trkpt lat="47.30712" lon="4.94956">
        <ele>422.8</ele>
        <time>2024-10-14T08:54:05.205Z</time>
      </trkpt>
      <trkpt lat="47.30709" lon="4.94961">
        <ele>423.8</ele>
        <time>2024-10-14T08:54:08.221Z</time>
      </trkpt>
      <trkpt lat="47.30708" lon="4.94964">
        <ele>424.8</ele>
        <time>2024-10-14T08:54:11.237Z</time>
      </trkpt>
      <trkpt lat="47.30703" lon="4.94968">
        <ele>425.2</ele>
        <time>2024-10-14T08:54:14.254Z</time>
      </trkpt>
      <trkpt lat="47.307" lon="4.9497">
        <ele>425.8</ele>
        <time>2024-10-14T08:54:17.272Z</time>
      </trkpt>
      <trkpt lat="47.30696" lon="4.94971">
        <ele>425.8</ele>
        <time>2024-10-14T08:54:20.291Z</time>
      </trkpt>
      <trkpt lat="47.30693" lon="4.94973">
        <ele>426.6</ele>
        <time>2024-10-14T08:54:23.310Z</time>
      </trkpt>
      <trkpt lat="47.3069" lon="4.94975">
        <ele>426.8</ele>
        <time>2024-10-14T08:54:26.330Z</time>
      </trkpt>
      <trkpt lat="47.30688" lon="4.94977">
        <ele>427.2</ele>
        <time>2024-10-14T08:54:29.350Z</time>
      </trkpt>
      <trkpt lat="47.30686" lon="4.94982">
        <ele>427.8</ele>
        <time>2024-10-14T08:54:32.371Z</time>
      </trkpt>
      <trkpt lat="47.30683" lon="4.94988">
        <ele>428</ele>
        <time>2024-10-14T08:54:35.393Z</time>
      </trkpt>
      <trkpt lat="47.30681" lon="4.94993">
        <ele>428</ele>
        <time>2024-10-14T08:54:38.416Z</time>
      </trkpt>
      <trkpt lat="47.30679" lon="4.94998">
        <ele>428.2</ele>
        <time>2024-10-14T08:54:41.440Z</time>
      </trkpt>
      <trkpt lat="47.30678" lon="4.95004">
        <ele>428.2</ele>
        <time>2024-10-14T08:54:44.464Z</time>
      </trkpt>
      <trkpt lat="47.30677" lon="4.9501">
        <ele>428.4</ele>
        <time>2024-10-14T08:54:47.489Z</time>
      </trkpt>
      <trkpt lat="47.30676" lon="4.95015">
        <ele>428.4</ele>
        <time>2024-10-14T08:54:50.515Z</time>
      </trkpt>
      <trkpt lat="47.30674" lon="4.95021">
        <ele>428.4</ele>
        <time>2024-10-14T08:54:53.541Z</time>
      </trkpt>
      <trkpt lat="47.30673" lon="4.95027">
        <ele>428.4</ele>
        <time>2024-10-14T08:54:56.568Z</time>
      </trkpt>
      <trkpt lat="47.30671" lon="4.95033">
        <ele>428.4</ele>
        <time>2024-10-14T08:54:59.596Z</time>
      </trkpt>
      <trkpt lat="47.3067" lon="4.9504">
        <ele>428.4</ele>
        <time>2024-10-14T08:55:02.625Z</time>
      </trkpt>
      <trkpt lat="47.30668" lon="4.95045">
        <ele>428.6</ele>
        <time>2024-10-14T08:55:05.655Z</time>
      </trkpt>
      <trkpt lat="47.30666" lon="4.95051">
        <ele>428.8</ele>
        <time>2024-10-14T08:55:08.686Z</time>
      </trkpt>
      <trkpt lat="47.30664" lon="4.95057">
        <ele>429.4</ele>
        <time>2024-10-14T08:55:11.717Z</time>
      </trkpt>
      <trkpt lat="47.30662" lon="4.95061">
        <ele>429.6</ele>
        <time>2024-10-14T08:55:14.749Z</time>
      </trkpt>
      <trkpt lat="47.3066" lon="4.95066">
        <ele>429.8</ele>
        <time>2024-10-14T08:55:17.782Z</time>
      </trkpt>
      <trkpt lat="47.30657" lon="4.9507">
        <ele>430</ele>
        <time>2024-10-14T08:55:20.816Z</time>
      </trkpt>
      <trkpt lat="47.30654" lon="4.95074">
        <ele>430.4</ele>
        <time>2024-10-14T08:55:23.850Z</time>
      </trkpt>
      <trkpt lat="47.30651" lon="4.95077">
        <ele>430.6</ele>
        <time>2024-10-14T08:55:26.885Z</time>
      </trkpt>
      <trkpt lat="47.30649" lon="4.95081">
        <ele>430.6</ele>
        <time>2024-10-14T08:55:29.921Z</time>
      </trkpt>
      <trkpt lat="47.30645" lon="4.95085">
        <ele>430.8</ele>
        <time>2024-10-14T08:55:32.957Z</time>
      </trkpt>
      <trkpt lat="47.30642" lon="4.95089">
        <ele>430.8</ele>
        <time>2024-10-14T08:55:35.994Z</time>
      </trkpt>
      <trkpt lat="47.3048" lon="4.9524">
        <ele>427.8</ele>
        <time>2024-10-14T08:55:39.067Z</time>
      </trkpt>
      <trkpt lat="47.30476" lon="4.95241">
        <ele>427.8</ele>
        <time>2024-10-14T08:55:42.140Z</time>
      </trkpt>
      <trkpt lat="47.30472" lon="4.95236">
        <ele>427.8</ele>
        <time>2024-10-14T08:55:45.214Z</time>
      </trkpt>
      <trkpt lat="47.30468" lon="4.9523">
        <ele>427.8</ele>
        <time>2024-10-14T08:55:48.289Z</time>
      </trkpt>
      <trkpt lat="47.30464" lon="4.95225">
        <ele>428</ele>
        <time>2024-10-14T08:55:51.365Z</time>
      </trkpt>
      <trkpt lat="47.30459" lon="4.95219">
        <ele>428.2</ele>
        <time>2024-10-14T08:55:54.442Z</time>
      </trkpt>
      <trkpt lat="47.30455" lon="4.95214">
        <ele>428.4</ele>
        <time>2024-10-14T08:55:57.520Z</time>
      </trkpt>
      <trkpt lat="47.30451" lon="4.95207">
        <ele>428.6</ele>
        <time>2024-10-14T08:56:00.600Z</time>
      </trkpt>
      <trkpt lat="47.30449" lon="4.95199">
        <ele>428.6</ele>
        <time>2024-10-14T08:56:03.681Z</time>
      </trkpt>
      <trkpt lat="47.30447" lon="4.95193">
        <ele>429</ele>
        <time>2024-10-14T08:56:06.763Z</time>
      </trkpt>
      <trkpt lat="47.30444" lon="4.95186">
        <ele>429.4</ele>
        <time>2024-10-14T08:56:09.846Z</time>
      </trkpt>
      <trkpt lat="47.30441" lon="4.95181">
        <ele>429.6</ele>
        <time>2024-10-14T08:56:12.929Z</time>
      </trkpt>
      <trkpt lat="47.30438" lon="4.95175">
        <ele>429.8</ele>
        <time>2024-10-14T08:56:16.013Z</time>
      </trkpt>
      <trkpt lat="47.30435" lon="4.95169">
        <ele>429.8</ele>
        <time>2024-10-14T08:56:19.098Z</time>
      </trkpt>
      <trkpt lat="47.30431" lon="4.95162">
        <ele>430</ele>
        <time>2024-10-14T08:56:22.184Z</time>
      </trkpt>
      <trkpt lat="47.30428" lon="4.95156">
        <ele>430</ele>
        <time>2024-10-14T08:56:25.271Z</time>
      </trkpt>
      <trkpt lat="47.30424" lon="4.9515">
        <ele>430.2</ele>
        <time>2024-10-14T08:56:28.359Z</time>
      </trkpt>
      <trkpt lat="47.30421" lon="4.95145">
        <ele>430.2</ele>
        <time>2024-10-14T08:56:31.448Z</time>
      </trkpt>
      <trkpt lat="47.30418" lon="4.9514">
        <ele>430.6</ele>
        <time>2024-10-14T08:56:34.538Z</time>
      </trkpt>
      <trkpt lat="47.30414" lon="4.95136">
        <ele>430.6</ele>
        <time>2024-10-14T08:56:37.629Z</time>
      </trkpt>
      <trkpt lat="47.3041" lon="4.95133">
        <ele>431</ele>
        <time>2024-10-14T08:56:40.721Z</time>
      </trkpt>
      <trkpt lat="47.30404" lon="4.95129">
        <ele>431.2</ele>
        <time>2024-10-14T08:56:43.814Z</time>
      </trkpt>
      <trkpt lat="47.30399" lon="4.95124">
        <ele>431.2</ele>
        <time>2024-10-14T08:56:46.908Z</time>
      </trkpt>
      <trkpt lat="47.30395" lon="4.95118">
        <ele>431</ele>
        <time>2024-10-14T08:56:50.003Z</time>
      </trkpt>
      <trkpt lat="47.30391" lon="4.95113">
        <ele>431.4</ele>
        <time>2024-10-14T08:56:53.099Z</time>
      </trkpt>
      <trkpt lat="47.30386" lon="4.95105">
        <ele>431</ele>
        <time>2024-10-14T08:56:56.196Z</time>
      </trkpt>
      <trkpt lat="47.30383" lon="4.95098">
        <ele>430.8</ele>
        <time>2024-10-14T08:56:59.295Z</time>
      </trkpt>
      <trkpt lat="47.30379" lon="4.95091">
        <ele>430.6</ele>
        <time>2024-10-14T08:57:02.395Z</time>
      </trkpt>
      <trkpt lat="47.30376" lon="4.95085">
        <ele>430.8</ele>
        <time>2024-10-14T08:57:05.496Z</time>
      </trkpt>
      <trkpt lat="47.30373" lon="4.95078">
        <ele>431</ele>
        <time>2024-10-14T08:57:08.598Z</time>
      </trkpt>
      <trkpt lat="47.3037" lon="4.95071">
        <ele>431</ele>
        <time>2024-10-14T08:57:11.701Z</time>
      </trkpt>
      <trkpt lat="47.30367" lon="4.95066">
        <ele>431.2</ele>
        <time>2024-10-14T08:57:14.805Z</time>
      </trkpt>
      <trkpt lat="47.30362" lon="4.95062">
        <ele>431.2</ele>
        <time>2024-10-14T08:57:17.910Z</time>
      </trkpt>
      <trkpt lat="47.30361" lon="4.95061">
        <ele>431.2</ele>
        <time>2024-10-14T08:57:21.015Z</time>
      </trkpt>
      <trkpt lat="47.30355" lon="4.95064">
        <ele>431.2</ele>
        <time>2024-10-14T08:57:24.121Z</time>
      </trkpt>
      <trkpt lat="47.30351" lon="4.95067">
        <ele>431.2</ele>
        <time>2024-10-14T08:57:27.228Z</time>
      </trkpt>
      <trkpt lat="47.30346" lon="4.95073">
        <ele>431.2</ele>
        <time>2024-10-14T08:57:30.336Z</time>
      </trkpt>
      <trkpt lat="47.30341" lon="4.95079">
        <ele>430.6</ele>
        <time>2024-10-14T08:57:33.445Z</time>
      </trkpt>
      <trkpt lat="47.30336" lon="4.95085">
        <ele>429.8</ele>
        <time>2024-10-14T08:57:36.555Z</time>
      </trkpt>
      <trkpt lat="47.3033" lon="4.95091">
        <ele>429</ele>
        <time>2024-10-14T08:57:39.667Z</time>
      </trkpt>
      <trkpt lat="47.30325" lon="4.95095">
        <ele>427.6</ele>
        <time>2024-10-14T08:57:42.780Z</time>
      </trkpt>
      <trkpt lat="47.30321" lon="4.95099">
        <ele>426.8</ele>
        <time>2024-10-14T08:57:45.894Z</time>
      </trkpt>
      <trkpt lat="47.30317" lon="4.95102">
        <ele>425.8</ele>
        <time>2024-10-14T08:57:49.009Z</time>
      </trkpt>
      <trkpt lat="47.30314" lon="4.95105">
        <ele>425</ele>
        <time>2024-10-14T08:57:52.124Z</time>
      </trkpt>
      <trkpt lat="47.30312" lon="4.95106">
        <ele>424.4</ele>
        <time>2024-10-14T08:57:55.240Z</time>
      </trkpt>
      <trkpt lat="47.303" lon="4.95102">
        <ele>423.8</ele>
        <time>2024-10-14T08:57:58.358Z</time>
      </trkpt>
      <trkpt lat="47.30297" lon="4.95097">
        <ele>423.4</ele>
        <time>2024-10-14T08:58:01.477Z</time>
      </trkpt>
      <trkpt lat="47.30294" lon="4.95092">
        <ele>423</ele>
        <time>2024-10-14T08:58:04.597Z</time>
      </trkpt>
      <trkpt lat="47.30291" lon="4.95087">
        <ele>422.6</ele>
        <time>2024-10-14T08:58:07.718Z</time>
      </trkpt>
      <trkpt lat="47.30287" lon="4.95081">
        <ele>422.4</ele>
        <time>2024-10-14T08:58:10.840Z</time>
      </trkpt>
      <trkpt lat="47.30284" lon="4.95073">
        <ele>421.6</ele>
        <time>2024-10-14T08:58:13.963Z</time>
      </trkpt>
      <trkpt lat="47.30281" lon="4.95066">
        <ele>421.2</ele>
        <time>2024-10-14T08:58:17.087Z</time>
      </trkpt>
      <trkpt lat="47.30278" lon="4.95058">
        <ele>420.8</ele>
        <time>2024-10-14T08:58:20.212Z</time>
      </trkpt>
      <trkpt lat="47.30275" lon="4.95051">
        <ele>420.6</ele>
        <time>2024-10-14T08:58:23.338Z</time>
      </trkpt>
      <trkpt lat="47.30272" lon="4.95044">
        <ele>420.4</ele>
        <time>2024-10-14T08:58:26.465Z</time>
      </trkpt>
      <trkpt lat="47.30269" lon="4.95037">
        <ele>420.4</ele>
        <time>2024-10-14T08:58:29.593Z</time>
      </trkpt>
      <trkpt lat="47.30266" lon="4.9503">
        <ele>420.4</ele>
        <time>2024-10-14T08:58:32.722Z</time>
      </trkpt>
      <trkpt lat="47.30263" lon="4.95023">
        <ele>420.2</ele>
        <time>2024-10-14T08:58:35.852Z</time>
      </trkpt>
      <trkpt lat="47.3026" lon="4.95015">
        <ele>420</ele>
        <time>2024-10-14T08:58:38.983Z</time>
      </trkpt>
      <trkpt lat="47.30255" lon="4.95009">
        <ele>419.4</ele>
        <time>2024-10-14T08:58:42.115Z</time>
      </trkpt>
      <trkpt lat="47.30251" lon="4.95003">
        <ele>418.4</ele>
        <time>2024-10-14T08:58:45.248Z</time>
      </trkpt>
      <trkpt lat="47.30248" lon="4.94997">
        <ele>418</ele>
        <time>2024-10-14T08:58:48.382Z</time>
      </trkpt>
      <trkpt lat="47.30246" lon="4.94991">
        <ele>417.4</ele>
        <time>2024-10-14T08:58:51.517Z</time>
      </trkpt>
      <trkpt lat="47.30244" lon="4.94984">
        <ele>416.6</ele>
        <time>2024-10-14T08:58:54.653Z</time>
      </trkpt>
      <trkpt lat="47.30242" lon="4.94976">
        <ele>416.4</ele>
        <time>2024-10-14T08:58:57.790Z</time>
      </trkpt>
      <trkpt lat="47.30239" lon="4.94969">
        <ele>416.2</ele>
        <time>2024-10-14T08:59:00.928Z</time>
      </trkpt>
      <trkpt lat="47.30236" lon="4.94959">
        <ele>416</ele>
        <time>2024-10-14T08:59:04.068Z</time>
      </trkpt>
      <trkpt lat="47.30233" lon="4.94949">
        <ele>415.8</ele>
        <time>2024-10-14T08:59:07.209Z</time>
      </trkpt>
      <trkpt lat="47.30229" lon="4.94939">
        <ele>415.8</ele>
        <time>2024-10-14T08:59:10.351Z</time>
      </trkpt>
      <trkpt lat="47.30225" lon="4.94932">
        <ele>415.8</ele>
        <time>2024-10-14T08:59:13.495Z</time>
      </trkpt>
      <trkpt lat="47.30222" lon="4.94924">
        <ele>416</ele>
        <time>2024-10-14T08:59:16.640Z</time>
      </trkpt>
      <trkpt lat="47.30218" lon="4.94918">
        <ele>416.4</ele>
        <time>2024-10-14T08:59:19.786Z</time>
      </trkpt>
      <trkpt lat="47.30215" lon="4.94912">
        <ele>417</ele>
        <time>2024-10-14T08:59:22.933Z</time>
      </trkpt>
      <trkpt lat="47.30212" lon="4.94906">
        <ele>417.8</ele>
        <time>2024-10-14T08:59:26.081Z</time>
      </trkpt>
      <trkpt lat="47.30208" lon="4.949">
        <ele>418</ele>
        <time>2024-10-14T08:59:29.230Z</time>
      </trkpt>
      <trkpt lat="47.30205" lon="4.94894">
        <ele>418.4</ele>
        <time>2024-10-14T08:59:32.380Z</time>
      </trkpt>
      <trkpt lat="47.30202" lon="4.94889">
        <ele>418.4</ele>
        <time>2024-10-14T08:59:35.531Z</time>
      </trkpt>
      <trkpt lat="47.30199" lon="4.94883">
        <ele>418.6</ele>
        <time>2024-10-14T08:59:38.682Z</time>
      </trkpt>
      <trkpt lat="47.30195" lon="4.94877">
        <ele>418.8</ele>
        <time>2024-10-14T08:59:41.834Z</time>
      </trkpt>
      <trkpt lat="47.30193" lon="4.94872">
        <ele>418.6</ele>
        <time>2024-10-14T08:59:44.987Z</time>
      </trkpt>
      <trkpt lat="47.30187" lon="4.94869">
        <ele>418.6</ele>
        <time>2024-10-14T08:59:48.141Z</time>
      </trkpt>
      <trkpt lat="47.30181" lon="4.94867">
        <ele>418.6</ele>
        <time>2024-10-14T08:59:51.297Z</time>
      </trkpt>
      <trkpt lat="47.30175" lon="4.94865">
        <ele>418.4</ele>
        <time>2024-10-14T08:59:54.454Z</time>
      </trkpt>
      <trkpt lat="47.30168" lon="4.94863">
        <ele>417.6</ele>
        <time>2024-10-14T08:59:57.612Z</time>
      </trkpt>
      <trkpt lat="47.30163" lon="4.94857">
        <ele>416.8</ele>
        <time>2024-10-14T09:00:00.771Z</time>
      </trkpt>
      <trkpt lat="47.30158" lon="4.94851">
        <ele>416</ele>
        <time>2024-10-14T09:00:03.931Z</time>
      </trkpt>
      <trkpt lat="47.30153" lon="4.94845">
        <ele>415.8</ele>
        <time>2024-10-14T09:00:07.093Z</time>
      </trkpt>
      <trkpt lat="47.30149" lon="4.9484">
        <ele>415.6</ele>
        <time>2024-10-14T09:00:10.256Z</time>
      </trkpt>
      <trkpt lat="47.30145" lon="4.94837">
        <ele>415.4</ele>
        <time>2024-10-14T09:00:13.419Z</time>
      </trkpt>
      <trkpt lat="47.3014" lon="4.94834">
        <ele>415</ele>
        <time>2024-10-14T09:00:16.583Z</time>
      </trkpt>
      <trkpt lat="47.30133" lon="4.94835">
        <ele>414.8</ele>
        <time>2024-10-14T09:00:19.749Z</time>
      </trkpt>
      <trkpt lat="47.30126" lon="4.94838">
        <ele>413.8</ele>
        <time>2024-10-14T09:00:22.916Z</time>
      </trkpt>
      <trkpt lat="47.30119" lon="4.94842">
        <ele>412.6</ele>
        <time>2024-10-14T09:00:26.084Z</time>
      </trkpt>
      <trkpt lat="47.30111" lon="4.94846">
        <ele>411</ele>
        <time>2024-10-14T09:00:29.254Z</time>
      </trkpt>
      <trkpt lat="47.30104" lon="4.94852">
        <ele>408.4</ele>
        <time>2024-10-14T09:00:32.425Z</time>
      </trkpt>
      <trkpt lat="47.30096" lon="4.94857">
        <ele>408.4</ele>
        <time>2024-10-14T09:00:35.598Z</time>
      </trkpt>
      <trkpt lat="47.30089" lon="4.94863">
        <ele>408.4</ele>
        <time>2024-10-14T09:00:38.772Z</time>
      </trkpt>
      <trkpt lat="47.30083" lon="4.94865">
        <ele>408.4</ele>
        <time>2024-10-14T09:00:41.948Z</time>
      </trkpt>
      <trkpt lat="47.30079" lon="4.94866">
        <ele>409.2</ele>
        <time>2024-10-14T09:00:45.124Z</time>
      </trkpt>
      <trkpt lat="47.30076" lon="4.94867">
        <ele>410.4</ele>
        <time>2024-10-14T09:00:48.301Z</time>
      </trkpt>
      <trkpt lat="47.30073" lon="4.94868">
        <ele>410.8</ele>
        <time>2024-10-14T09:00:51.478Z</time>
      </trkpt>
      <trkpt lat="47.30071" lon="4.94868">
        <ele>411.4</ele>
        <time>2024-10-14T09:00:54.656Z</time>
      </trkpt>
      <trkpt lat="47.30068" lon="4.94869">
        <ele>411.4</ele>
        <time>2024-10-14T09:00:57.834Z</time>
      </trkpt>
      <trkpt lat="47.30082" lon="4.94865">
        <ele>411.4</ele>
        <time>2024-10-14T09:01:01.015Z</time>
      </trkpt>
      <trkpt lat="47.30086" lon="4.94873">
        <ele>410.4</ele>
        <time>2024-10-14T09:01:04.197Z</time>
      </trkpt>
      <trkpt lat="47.30091" lon="4.94881">
        <ele>408</ele>
        <time>2024-10-14T09:01:07.381Z</time>
      </trkpt>
      <trkpt lat="47.30095" lon="4.94891">
        <ele>406.2</ele>
        <time>2024-10-14T09:01:10.566Z</time>
      </trkpt>
      <trkpt lat="47.30101" lon="4.94901">
        <ele>404.4</ele>
        <time>2024-10-14T09:01:13.753Z</time>
      </trkpt>
      <trkpt lat="47.30106" lon="4.94911">
        <ele>403.8</ele>
        <time>2024-10-14T09:01:16.941Z</time>
      </trkpt>
      <trkpt lat="47.3011" lon="4.94919">
        <ele>403.8</ele>
        <time>2024-10-14T09:01:20.130Z</time>
      </trkpt>
      <trkpt lat="47.30114" lon="4.94925">
        <ele>403.8</ele>
        <time>2024-10-14T09:01:23.320Z</time>
      </trkpt>
      <trkpt lat="47.30116" lon="4.9493">
        <ele>403.8</ele>
        <time>2024-10-14T09:01:26.511Z</time>
      </trkpt>
      <trkpt lat="47.30119" lon="4.94934">
        <ele>406</ele>
        <time>2024-10-14T09:01:29.703Z</time>
      </trkpt>
      <trkpt lat="47.30121" lon="4.94938">
        <ele>407</ele>
        <time>2024-10-14T09:01:32.896Z</time>
      </trkpt>
      <trkpt lat="47.30121" lon="4.94938">
        <ele>407.8</ele>
        <time>2024-10-14T09:01:36.089Z</time>
      </trkpt>
      <trkpt lat="47.30125" lon="4.94944">
        <ele>409.8</ele>
        <time>2024-10-14T09:01:39.283Z</time>
      </trkpt>
      <trkpt lat="47.30136" lon="4.94973">
        <ele>409.8</ele>
        <time>2024-10-14T09:01:42.481Z</time>
      </trkpt>
      <trkpt lat="47.30112" lon="4.95336">
        <ele>409.6</ele>
        <time>2024-10-14T09:01:45.725Z</time>
      </trkpt>
      <trkpt lat="47.30113" lon="4.95346">
        <ele>409.6</ele>
        <time>2024-10-14T09:01:48.970Z</time>
      </trkpt>
      <trkpt lat="47.30114" lon="4.95355">
        <ele>409.2</ele>
        <time>2024-10-14T09:01:52.216Z</time>
      </trkpt>
      <trkpt lat="47.30115" lon="4.95364">
        <ele>409.2</ele>
        <time>2024-10-14T09:01:55.463Z</time>
      </trkpt>
      <trkpt lat="47.30116" lon="4.95372">
        <ele>409.2</ele>
        <time>2024-10-14T09:01:58.711Z</time>
      </trkpt>
      <trkpt lat="47.30117" lon="4.95381">
        <ele>409.2</ele>
        <time>2024-10-14T09:02:01.960Z</time>
      </trkpt>
      <trkpt lat="47.30118" lon="4.95389">
        <ele>409.8</ele>
        <time>2024-10-14T09:02:05.210Z</time>
      </trkpt>
      <trkpt lat="47.30118" lon="4.95396">
        <ele>410.8</ele>
        <time>2024-10-14T09:02:08.461Z</time>
      </trkpt>
      <trkpt lat="47.30119" lon="4.95403">
        <ele>411.2</ele>
        <time>2024-10-14T09:02:11.713Z</time>
      </trkpt>
      <trkpt lat="47.30119" lon="4.95411">
        <ele>411.4</ele>
        <time>2024-10-14T09:02:14.966Z</time>
      </trkpt>
      <trkpt lat="47.30118" lon="4.95418">
        <ele>411.6</ele>
        <time>2024-10-14T09:02:18.220Z</time>
      </trkpt>
      <trkpt lat="47.30119" lon="4.95426">
        <ele>411.8</ele>
        <time>2024-10-14T09:02:21.475Z</time>
      </trkpt>
      <trkpt lat="47.3012" lon="4.95433">
        <ele>412.2</ele>
        <time>2024-10-14T09:02:24.731Z</time>
      </trkpt>
      <trkpt lat="47.3012" lon="4.95441">
        <ele>412.6</ele>
        <time>2024-10-14T09:02:27.988Z</time>
      </trkpt>
      <trkpt lat="47.30121" lon="4.95448">
        <ele>412.8</ele>
        <time>2024-10-14T09:02:31.246Z</time>
      </trkpt>
      <trkpt lat="47.30122" lon="4.95456">
        <ele>413</ele>
        <time>2024-10-14T09:02:34.505Z</time>
      </trkpt>
      <trkpt lat="47.30122" lon="4.95463">
        <ele>413.2</ele>
        <time>2024-10-14T09:02:37.765Z</time>
      </trkpt>
      <trkpt lat="47.30123" lon="4.95471">
        <ele>413.8</ele>
        <time>2024-10-14T09:02:41.026Z</time>
      </trkpt>
      <trkpt lat="47.30124" lon="4.95478">
        <ele>414.2</ele>
        <time>2024-10-14T09:02:44.288Z</time>
      </trkpt>
      <trkpt lat="47.30124" lon="4.95485">
        <ele>414.6</ele>
        <time>2024-10-14T09:02:47.550Z</time>
      </trkpt>
      <trkpt lat="47.30124" lon="4.95492">
        <ele>415.4</ele>
        <time>2024-10-14T09:02:50.813Z</time>
      </trkpt>
      <trkpt lat="47.30123" lon="4.95499">
        <ele>415.8</ele>
        <time>2024-10-14T09:02:54.077Z</time>
      </trkpt>
      <trkpt lat="47.30123" lon="4.95506">
        <ele>415.8</ele>
        <time>2024-10-14T09:02:57.342Z</time>
      </trkpt>
      <trkpt lat="47.30123" lon="4.95512">
        <ele>416</ele>
        <time>2024-10-14T09:03:00.608Z</time>
      </trkpt>
      <trkpt lat="47.30123" lon="4.95517">
        <ele>416.2</ele>
        <time>2024-10-14T09:03:03.875Z</time>
      </trkpt>
      <trkpt lat="47.30123" lon="4.95523">
        <ele>416.2</ele>
        <time>2024-10-14T09:03:07.142Z</time>
      </trkpt>
      <trkpt lat="47.30123" lon="4.9553">
        <ele>416.6</ele>
        <time>2024-10-14T09:03:10.410Z</time>
      </trkpt>
      <trkpt lat="47.30123" lon="4.95536">
        <ele>417</ele>
        <time>2024-10-14T09:03:13.679Z</time>
      </trkpt>
      <trkpt lat="47.30123" lon="4.95543">
        <ele>417.4</ele>
        <time>2024-10-14T09:03:16.949Z</time>
      </trkpt>
      <trkpt lat="47.30123" lon="4.95548">
        <ele>417.6</ele>
        <time>2024-10-14T09:03:20.219Z</time>
      </trkpt>
      <trkpt lat="47.30124" lon="4.95554">
        <ele>418</ele>
        <time>2024-10-14T09:03:23.490Z</time>
      </trkpt>
      <trkpt lat="47.30124" lon="4.9556">
        <ele>418.4</ele>
        <time>2024-10-14T09:03:26.762Z</time>
      </trkpt>
      <trkpt lat="47.30125" lon="4.95565">
        <ele>418.6</ele>
        <time>2024-10-14T09:03:30.035Z</time>
      </trkpt>
      <trkpt lat="47.30128" lon="4.95568">
        <ele>418.6</ele>
        <time>2024-10-14T09:03:33.308Z</time>
      </trkpt>
      <trkpt lat="47.30132" lon="4.95569">
        <ele>418.6</ele>
        <time>2024-10-14T09:03:36.582Z</time>
      </trkpt>
      <trkpt lat="47.30137" lon="4.95567">
        <ele>418.4</ele>
        <time>2024-10-14T09:03:39.857Z</time>
      </trkpt>
      <trkpt lat="47.30143" lon="4.95563">
        <ele>418.4</ele>
        <time>2024-10-14T09:03:43.133Z</time>
      </trkpt>
      <trkpt lat="47.30149" lon="4.95561">
        <ele>418</ele>
        <time>2024-10-14T09:03:46.410Z</time>
      </trkpt>
      <trkpt lat="47.30157" lon="4.95561">
        <ele>416.4</ele>
        <time>2024-10-14T09:03:49.689Z</time>
      </trkpt>
      <trkpt lat="47.30165" lon="4.95564">
        <ele>415.2</ele>
        <time>2024-10-14T09:03:52.969Z</time>
      </trkpt>
      <trkpt lat="47.30173" lon="4.9557">
        <ele>413</ele>
        <time>2024-10-14T09:03:56.251Z</time>
      </trkpt>
      <trkpt lat="47.30181" lon="4.95575">
        <ele>410.6</ele>
        <time>2024-10-14T09:03:59.534Z</time>
      </trkpt>
      <trkpt lat="47.30189" lon="4.95582">
        <ele>409.2</ele>
        <time>2024-10-14T09:04:02.819Z</time>
      </trkpt>
      <trkpt lat="47.30197" lon="4.95589">
        <ele>407.4</ele>
        <time>2024-10-14T09:04:06.106Z</time>
      </trkpt>
      <trkpt lat="47.30205" lon="4.95598">
        <ele>406.8</ele>
        <time>2024-10-14T09:04:09.395Z</time>
      </trkpt>
      <trkpt lat="47.30212" lon="4.95607">
        <ele>404</ele>
        <time>2024-10-14T09:04:12.686Z</time>
      </trkpt>
      <trkpt lat="47.3022" lon="4.95618">
        <ele>403.8</ele>
        <time>2024-10-14T09:04:15.979Z</time>
      </trkpt>
      <trkpt lat="47.30227" lon="4.95628">
        <ele>403.4</ele>
        <time>2024-10-14T09:04:19.273Z</time>
      </trkpt>
      <trkpt lat="47.30235" lon="4.95637">
        <ele>402.4</ele>
        <time>2024-10-14T09:04:22.569Z</time>
      </trkpt>
      <trkpt lat="47.30242" lon="4.95647">
        <ele>401.6</ele>
        <time>2024-10-14T09:04:25.867Z</time>
      </trkpt>
      <trkpt lat="47.30249" lon="4.95657">
        <ele>400.8</ele>
        <time>2024-10-14T09:04:29.167Z</time>
      </trkpt>
      <trkpt lat="47.30256" lon="4.95666">
        <ele>400.2</ele>
        <time>2024-10-14T09:04:32.469Z</time>
      </trkpt>
      <trkpt lat="47.30264" lon="4.95675">
        <ele>399.8</ele>
        <time>2024-10-14T09:04:35.772Z</time>
      </trkpt>
      <trkpt lat="47.30271" lon="4.95684">
        <ele>397.6</ele>
        <time>2024-10-14T09:04:39.077Z</time>
      </trkpt>
      <trkpt lat="47.3028" lon="4.95692">
        <ele>397</ele>
        <time>2024-10-14T09:04:42.384Z</time>
      </trkpt>
      <trkpt lat="47.30288" lon="4.957">
        <ele>396.6</ele>
        <time>2024-10-14T09:04:45.693Z</time>
      </trkpt>
      <trkpt lat="47.30296" lon="4.95709">
        <ele>396.2</ele>
        <time>2024-10-14T09:04:49.004Z</time>
      </trkpt>
      <trkpt lat="47.30304" lon="4.95716">
        <ele>395.8</ele>
        <time>2024-10-14T09:04:52.316Z</time>
      </trkpt>
      <trkpt lat="47.30313" lon="4.95725">
        <ele>395.2</ele>
        <time>2024-10-14T09:04:55.630Z</time>
      </trkpt>
      <trkpt lat="47.30322" lon="4.95734">
        <ele>394.4</ele>
        <time>2024-10-14T09:04:58.946Z</time>
      </trkpt>
      <trkpt lat="47.3033" lon="4.95743">
        <ele>393.2</ele>
        <time>2024-10-14T09:05:02.264Z</time>
      </trkpt>
      <trkpt lat="47.30339" lon="4.95751">
        <ele>391.6</ele>
        <time>2024-10-14T09:05:05.584Z</time>
      </trkpt>
      <trkpt lat="47.30344" lon="4.95758">
        <ele>390.8</ele>
        <time>2024-10-14T09:05:08.906Z</time>
      </trkpt>
      <trkpt lat="47.30347" lon="4.95766">
        <ele>389.6</ele>
        <time>2024-10-14T09:05:12.229Z</time>
      </trkpt>
      <trkpt lat="47.30352" lon="4.95778">
        <ele>388.8</ele>
        <time>2024-10-14T09:05:15.553Z</time>
      </trkpt>
      <trkpt lat="47.30357" lon="4.95789">
        <ele>388</ele>
        <time>2024-10-14T09:05:18.879Z</time>
      </trkpt>
      <trkpt lat="47.30359" lon="4.95795">
        <ele>387.6</ele>
        <time>2024-10-14T09:05:22.206Z</time>
      </trkpt>
      <trkpt lat="47.30361" lon="4.95805">
        <ele>387.4</ele>
        <time>2024-10-14T09:05:25.534Z</time>
      </trkpt>
      <trkpt lat="47.30363" lon="4.95828">
        <ele>388</ele>
        <time>2024-10-14T09:05:28.865Z</time>
      </trkpt>
      <trkpt lat="47.30363" lon="4.95833">
        <ele>388.6</ele>
        <time>2024-10-14T09:05:32.197Z</time>
      </trkpt>
      <trkpt lat="47.30363" lon="4.95866">
        <ele>390.4</ele>
        <time>2024-10-14T09:05:35.533Z</time>
      </trkpt>
      <trkpt lat="47.3037" lon="4.95915">
        <ele>389.6</ele>
        <time>2024-10-14T09:05:38.875Z</time>
      </trkpt>
      <trkpt lat="47.3059" lon="4.96053">
        <ele>385.2</ele>
        <time>2024-10-14T09:05:42.261Z</time>
      </trkpt>
      <trkpt lat="47.30596" lon="4.96062">
        <ele>385.2</ele>
        <time>2024-10-14T09:05:45.649Z</time>
      </trkpt>
      <trkpt lat="47.30601" lon="4.9607">
        <ele>385.2</ele>
        <time>2024-10-14T09:05:49.038Z</time>
      </trkpt>
      <trkpt lat="47.30605" lon="4.96079">
        <ele>385.2</ele>
        <time>2024-10-14T09:05:52.429Z</time>
      </trkpt>
      <trkpt lat="47.30608" lon="4.96088">
        <ele>385.4</ele>
        <time>2024-10-14T09:05:55.821Z</time>
      </trkpt>
      <trkpt lat="47.30611" lon="4.96098">
        <ele>385.4</ele>
        <time>2024-10-14T09:05:59.214Z</time>
      </trkpt>
      <trkpt lat="47.30611" lon="4.96109">
        <ele>385.4</ele>
        <time>2024-10-14T09:06:02.609Z</time>
      </trkpt>
      <trkpt lat="47.30611" lon="4.96118">
        <ele>385.4</ele>
        <time>2024-10-14T09:06:06.005Z</time>
      </trkpt>
      <trkpt lat="47.30611" lon="4.96128">
        <ele>385.6</ele>
        <time>2024-10-14T09:06:09.402Z</time>
      </trkpt>
      <trkpt lat="47.30612" lon="4.96137">
        <ele>386.4</ele>
        <time>2024-10-14T09:06:12.800Z</time>
      </trkpt>
      <trkpt lat="47.30613" lon="4.96145">
        <ele>386.6</ele>
        <time>2024-10-14T09:06:16.199Z</time>
      </trkpt>
      <trkpt lat="47.30614" lon="4.96153">
        <ele>386.8</ele>
        <time>2024-10-14T09:06:19.599Z</time>
      </trkpt>
      <trkpt lat="47.30614" lon="4.96161">
        <ele>387.2</ele>
        <time>2024-10-14T09:06:23.000Z</time>
      </trkpt>
      <trkpt lat="47.30631" lon="4.96181">
        <ele>387.4</ele>
        <time>2024-10-14T09:06:26.405Z</time>
      </trkpt>
      <trkpt lat="47.3063" lon="4.96187">
        <ele>387.4</ele>
        <time>2024-10-14T09:06:29.811Z</time>
      </trkpt>
      <trkpt lat="47.30629" lon="4.96196">
        <ele>387.4</ele>
        <time>2024-10-14T09:06:33.218Z</time>
      </trkpt>
      <trkpt lat="47.30627" lon="4.96204">
        <ele>386.8</ele>
        <time>2024-10-14T09:06:36.626Z</time>
      </trkpt>
      <trkpt lat="47.30626" lon="4.96211">
        <ele>386</ele>
        <time>2024-10-14T09:06:40.035Z</time>
      </trkpt>
      <trkpt lat="47.30625" lon="4.96216">
        <ele>384.6</ele>
        <time>2024-10-14T09:06:43.445Z</time>
      </trkpt>
      <trkpt lat="47.30625" lon="4.96217">
        <ele>384.6</ele>
        <time>2024-10-14T09:06:46.855Z</time>
      </trkpt>
      <trkpt lat="47.30642" lon="4.96239">
        <ele>385</ele>
        <time>2024-10-14T09:06:50.269Z</time>
      </trkpt>
      <trkpt lat="47.30646" lon="4.96235">
        <ele>386</ele>
        <time>2024-10-14T09:06:53.684Z</time>
      </trkpt>
      <trkpt lat="47.30651" lon="4.96233">
        <ele>387.2</ele>
        <time>2024-10-14T09:06:57.100Z</time>
      </trkpt>
      <trkpt lat="47.30655" lon="4.96229">
        <ele>387.8</ele>
        <time>2024-10-14T09:07:00.517Z</time>
      </trkpt>
      <trkpt lat="47.30659" lon="4.96225">
        <ele>388</ele>
        <time>2024-10-14T09:07:03.935Z</time>
      </trkpt>
      <trkpt lat="47.30663" lon="4.9622">
        <ele>388</ele>
        <time>2024-10-14T09:07:07.354Z</time>
      </trkpt>
      <trkpt lat="47.30667" lon="4.96215">
        <ele>388</ele>
        <time>2024-10-14T09:07:10.774Z</time>
      </trkpt>
      <trkpt lat="47.30629" lon="4.96196">
        <ele>387.8</ele>
        <time>2024-10-14T09:07:14.201Z</time>
      </trkpt>
      <trkpt lat="47.30637" lon="4.96169">
        <ele>387.6</ele>
        <time>2024-10-14T09:07:17.632Z</time>
      </trkpt>
      <trkpt lat="47.30641" lon="4.96161">
        <ele>386.8</ele>
        <time>2024-10-14T09:07:21.064Z</time>
      </trkpt>
      <trkpt lat="47.30645" lon="4.96152">
        <ele>386.2</ele>
        <time>2024-10-14T09:07:24.497Z</time>
      </trkpt>
      <trkpt lat="47.30646" lon="4.96149">
        <ele>385</ele>
        <time>2024-10-14T09:07:27.931Z</time>
      </trkpt>
      <trkpt lat="47.3065" lon="4.96137">
        <ele>384.8</ele>
        <time>2024-10-14T09:07:31.367Z</time>
      </trkpt>
      <trkpt lat="47.30694" lon="4.96114">
        <ele>384.6</ele>
        <time>2024-10-14T09:07:34.811Z</time>
      </trkpt>
      <trkpt lat="47.30716" lon="4.96113">
        <ele>384.8</ele>
        <time>2024-10-14T09:07:38.259Z</time>
      </trkpt>
      <trkpt lat="47.30721" lon="4.96115">
        <ele>385.2</ele>
        <time>2024-10-14T09:07:41.708Z</time>
      </trkpt>
      <trkpt lat="47.30728" lon="4.96118">
        <ele>385.8</ele>
        <time>2024-10-14T09:07:45.159Z</time>
      </trkpt>
      <trkpt lat="47.30735" lon="4.96121">
        <ele>386.2</ele>
        <time>2024-10-14T09:07:48.611Z</time>
      </trkpt>
      <trkpt lat="47.30741" lon="4.96124">
        <ele>386.2</ele>
        <time>2024-10-14T09:07:52.064Z</time>
      </trkpt>
      <trkpt lat="47.30747" lon="4.96127">
        <ele>386.2</ele>
        <time>2024-10-14T09:07:55.518Z</time>
      </trkpt>
      <trkpt lat="47.30754" lon="4.9613">
        <ele>386</ele>
        <time>2024-10-14T09:07:58.974Z</time>
      </trkpt>
      <trkpt lat="47.3076" lon="4.96133">
        <ele>385.8</ele>
        <time>2024-10-14T09:08:02.431Z</time>
      </trkpt>
      <trkpt lat="47.30767" lon="4.96137">
        <ele>385.6</ele>
        <time>2024-10-14T09:08:05.889Z</time>
      </trkpt>
      <trkpt lat="47.30771" lon="4.9614">
        <ele>385.8</ele>
        <time>2024-10-14T09:08:09.348Z</time>
      </trkpt>
      <trkpt lat="47.30775" lon="4.96143">
        <ele>385.8</ele>
        <time>2024-10-14T09:08:12.808Z</time>
      </trkpt>
      <trkpt lat="47.30779" lon="4.96145">
        <ele>385.8</ele>
        <time>2024-10-14T09:08:16.269Z</time>
      </trkpt>
      <trkpt lat="47.30783" lon="4.96147">
        <ele>385.6</ele>
        <time>2024-10-14T09:08:19.730Z</time>
      </trkpt>
      <trkpt lat="47.30787" lon="4.9615">
        <ele>385.6</ele>
        <time>2024-10-14T09:08:23.192Z</time>
      </trkpt>
      <trkpt lat="47.30791" lon="4.96153">
        <ele>385.6</ele>
        <time>2024-10-14T09:08:26.655Z</time>
      </trkpt>
      <trkpt lat="47.30796" lon="4.96156">
        <ele>385.4</ele>
        <time>2024-10-14T09:08:30.119Z</time>
      </trkpt>
      <trkpt lat="47.308" lon="4.96158">
        <ele>385.2</ele>
        <time>2024-10-14T09:08:33.584Z</time>
      </trkpt>
      <trkpt lat="47.30811" lon="4.96167">
        <ele>385</ele>
        <time>2024-10-14T09:08:37.051Z</time>
      </trkpt>
      <trkpt lat="47.30816" lon="4.96171">
        <ele>384.8</ele>
        <time>2024-10-14T09:08:40.519Z</time>
      </trkpt>
      <trkpt lat="47.30821" lon="4.96176">
        <ele>384.6</ele>
        <time>2024-10-14T09:08:43.988Z</time>
      </trkpt>
      <trkpt lat="47.30827" lon="4.96181">
        <ele>384.2</ele>
        <time>2024-10-14T09:08:47.459Z</time>
      </trkpt>
      <trkpt lat="47.30832" lon="4.96186">
        <ele>384.2</ele>
        <time>2024-10-14T09:08:50.931Z</time>
      </trkpt>
      <trkpt lat="47.30838" lon="4.96191">
        <ele>384</ele>
        <time>2024-10-14T09:08:54.404Z</time>
      </trkpt>
      <trkpt lat="47.30844" lon="4.96196">
        <ele>384</ele>
        <time>2024-10-14T09:08:57.878Z</time>
      </trkpt>
      <trkpt lat="47.3085" lon="4.96202">
        <ele>383.6</ele>
        <time>2024-10-14T09:09:01.354Z</time>
      </trkpt>
      <trkpt lat="47.30856" lon="4.96207">
        <ele>383.2</ele>
        <time>2024-10-14T09:09:04.831Z</time>
      </trkpt>
      <trkpt lat="47.30862" lon="4.96213">
        <ele>382.6</ele>
        <time>2024-10-14T09:09:08.309Z</time>
      </trkpt>
      <trkpt lat="47.30869" lon="4.96219">
        <ele>381.8</ele>
        <time>2024-10-14T09:09:11.789Z</time>
      </trkpt>
      <trkpt lat="47.30875" lon="4.96224">
        <ele>381.4</ele>
        <time>2024-10-14T09:09:15.270Z</time>
      </trkpt>
      <trkpt lat="47.30881" lon="4.9623">
        <ele>381</ele>
        <time>2024-10-14T09:09:18.752Z</time>
      </trkpt>
      <trkpt lat="47.30888" lon="4.96235">
        <ele>380.8</ele>
        <time>2024-10-14T09:09:22.236Z</time>
      </trkpt>
      <trkpt lat="47.30892" lon="4.9624">
        <ele>380</ele>
        <time>2024-10-14T09:09:25.721Z</time>
      </trkpt>
      <trkpt lat="47.30897" lon="4.96244">
        <ele>379.8</ele>
        <time>2024-10-14T09:09:29.207Z</time>
      </trkpt>
      <trkpt lat="47.309" lon="4.96247">
        <ele>379.8</ele>
        <time>2024-10-14T09:09:32.693Z</time>
      </trkpt>
      <trkpt lat="47.30903" lon="4.9625">
        <ele>379.8</ele>
        <time>2024-10-14T09:09:36.180Z</time>
      </trkpt>
      <trkpt lat="47.30918" lon="4.96266">
        <ele>379.8</ele>
        <time>2024-10-14T09:09:39.670Z</time>
      </trkpt>
      <trkpt lat="47.30922" lon="4.96271">
        <ele>380</ele>
        <time>2024-10-14T09:09:43.161Z</time>
      </trkpt>
      <trkpt lat="47.30926" lon="4.96277">
        <ele>380.2</ele>
        <time>2024-10-14T09:09:46.654Z</time>
      </trkpt>
      <trkpt lat="47.30931" lon="4.96283">
        <ele>382.8</ele>
        <time>2024-10-14T09:09:50.148Z</time>
      </trkpt>
      <trkpt lat="47.30936" lon="4.9629">
        <ele>383.6</ele>
        <time>2024-10-14T09:09:53.643Z</time>
      </trkpt>
      <trkpt lat="47.3094" lon="4.96297">
        <ele>383.8</ele>
        <time>2024-10-14T09:09:57.139Z</time>
      </trkpt>
      <trkpt lat="47.30953" lon="4.96316">
        <ele>383.8</ele>
        <time>2024-10-14T09:10:00.639Z</time>
      </trkpt>
      <trkpt lat="47.30958" lon="4.96324">
        <ele>383.8</ele>
        <time>2024-10-14T09:10:04.140Z</time>
      </trkpt>
      <trkpt lat="47.30963" lon="4.96333">
        <ele>383.6</ele>
        <time>2024-10-14T09:10:07.642Z</time>
      </trkpt>
      <trkpt lat="47.30968" lon="4.96341">
        <ele>383.4</ele>
        <time>2024-10-14T09:10:11.146Z</time>
      </trkpt>
      <trkpt lat="47.30983" lon="4.96374">
        <ele>383.4</ele>
        <time>2024-10-14T09:10:14.655Z</time>
      </trkpt>
      <trkpt lat="47.30995" lon="4.96474">
        <ele>383.4</ele>
        <time>2024-10-14T09:10:18.176Z</time>
      </trkpt>
      <trkpt lat="47.30994" lon="4.9648">
        <ele>383.2</ele>
        <time>2024-10-14T09:10:21.698Z</time>
      </trkpt>
      <trkpt lat="47.30993" lon="4.96486">
        <ele>383</ele>
        <time>2024-10-14T09:10:25.221Z</time>
      </trkpt>
      <trkpt lat="47.30987" lon="4.9651">
        <ele>383</ele>
        <time>2024-10-14T09:10:28.747Z</time>
      </trkpt>
      <trkpt lat="47.30985" lon="4.96517">
        <ele>382.8</ele>
        <time>2024-10-14T09:10:32.274Z</time>
      </trkpt>
      <trkpt lat="47.30983" lon="4.96522">
        <ele>382.6</ele>
        <time>2024-10-14T09:10:35.802Z</time>
      </trkpt>
      <trkpt lat="47.30934" lon="4.96528">
        <ele>382.2</ele>
        <time>2024-10-14T09:10:39.339Z</time>
      </trkpt>
      <trkpt lat="47.30934" lon="4.96529">
        <ele>379</ele>
        <time>2024-10-14T09:10:42.876Z</time>
      </trkpt>
      <trkpt lat="47.30933" lon="4.96529">
        <ele>378.2</ele>
        <time>2024-10-14T09:10:46.413Z</time>
      </trkpt>
      <trkpt lat="47.30932" lon="4.9653">
        <ele>378.2</ele>
        <time>2024-10-14T09:10:49.950Z</time>
      </trkpt>
      <trkpt lat="47.30929" lon="4.96531">
        <ele>378.2</ele>
        <time>2024-10-14T09:10:53.488Z</time>
      </trkpt>
      <trkpt lat="47.30926" lon="4.96533">
        <ele>378.2</ele>
        <time>2024-10-14T09:10:57.027Z</time>
      </trkpt>
      <trkpt lat="47.30925" lon="4.96533">
        <ele>378.2</ele>
        <time>2024-10-14T09:11:00.566Z</time>
      </trkpt>
      <trkpt lat="47.30918" lon="4.96534">
        <ele>378.4</ele>
        <time>2024-10-14T09:11:04.106Z</time>
      </trkpt>
      <trkpt lat="47.30912" lon="4.96535">
        <ele>378.8</ele>
        <time>2024-10-14T09:11:07.647Z</time>
      </trkpt>
      <trkpt lat="47.30925" lon="4.96533">
        <ele>381.6</ele>
        <time>2024-10-14T09:11:11.190Z</time>
      </trkpt>
      <trkpt lat="47.30771" lon="4.96832">
        <ele>381.2</ele>
        <time>2024-10-14T09:11:14.781Z</time>
      </trkpt>
      <trkpt lat="47.30775" lon="4.96842">
        <ele>380.8</ele>
        <time>2024-10-14T09:11:18.373Z</time>
      </trkpt>
      <trkpt lat="47.30779" lon="4.96852">
        <ele>379.8</ele>
        <time>2024-10-14T09:11:21.967Z</time>
      </trkpt>
      <trkpt lat="47.30781" lon="4.96863">
        <ele>378.8</ele>
        <time>2024-10-14T09:11:25.562Z</time>
      </trkpt>
      <trkpt lat="47.3078" lon="4.96874">
        <ele>378.8</ele>
        <time>2024-10-14T09:11:29.158Z</time>
      </trkpt>
      <trkpt lat="47.30777" lon="4.96883">
        <ele>378.8</ele>
        <time>2024-10-14T09:11:32.756Z</time>
      </trkpt>
      <trkpt lat="47.30772" lon="4.96888">
        <ele>378.6</ele>
        <time>2024-10-14T09:11:36.355Z</time>
      </trkpt>
      <trkpt lat="47.30766" lon="4.9689">
        <ele>379</ele>
        <time>2024-10-14T09:11:39.955Z</time>
      </trkpt>
      <trkpt lat="47.3076" lon="4.96892">
        <ele>379.8</ele>
        <time>2024-10-14T09:11:43.556Z</time>
      </trkpt>
      <trkpt lat="47.30755" lon="4.96893">
        <ele>380.6</ele>
        <time>2024-10-14T09:11:47.158Z</time>
      </trkpt>
      <trkpt lat="47.30749" lon="4.96895">
        <ele>381</ele>
        <time>2024-10-14T09:11:50.761Z</time>
      </trkpt>
      <trkpt lat="47.30744" lon="4.96896">
        <ele>381.6</ele>
        <time>2024-10-14T09:11:54.365Z</time>
      </trkpt>
      <trkpt lat="47.30739" lon="4.96899">
        <ele>381.8</ele>
        <time>2024-10-14T09:11:57.970Z</time>
      </trkpt>
      <trkpt lat="47.30734" lon="4.96903">
        <ele>381.8</ele>
        <time>2024-10-14T09:12:01.576Z</time>
      </trkpt>
      <trkpt lat="47.30729" lon="4.96908">
        <ele>382.6</ele>
        <time>2024-10-14T09:12:05.183Z</time>
      </trkpt>
      <trkpt lat="47.30725" lon="4.96913">
        <ele>382.4</ele>
        <time>2024-10-14T09:12:08.791Z</time>
      </trkpt>
      <trkpt lat="47.30721" lon="4.96918">
        <ele>382.6</ele>
        <time>2024-10-14T09:12:12.400Z</time>
      </trkpt>
      <trkpt lat="47.30716" lon="4.96924">
        <ele>382.6</ele>
        <time>2024-10-14T09:12:16.010Z</time>
      </trkpt>
      <trkpt lat="47.3071" lon="4.96928">
        <ele>382.4</ele>
        <time>2024-10-14T09:12:19.621Z</time>
      </trkpt>
      <trkpt lat="47.30705" lon="4.96933">
        <ele>382.4</ele>
        <time>2024-10-14T09:12:23.234Z</time>
      </trkpt>
      <trkpt lat="47.30698" lon="4.96935">
        <ele>382.4</ele>
        <time>2024-10-14T09:12:26.848Z</time>
      </trkpt>
      <trkpt lat="47.30692" lon="4.96937">
        <ele>382.4</ele>
        <time>2024-10-14T09:12:30.463Z</time>
      </trkpt>
      <trkpt lat="47.30686" lon="4.96937">
        <ele>382.6</ele>
        <time>2024-10-14T09:12:34.079Z</time>
      </trkpt>
      <trkpt lat="47.30681" lon="4.96936">
        <ele>382.6</ele>
        <time>2024-10-14T09:12:37.696Z</time>
      </trkpt>
      <trkpt lat="47.30676" lon="4.96936">
        <ele>383.2</ele>
        <time>2024-10-14T09:12:41.314Z</time>
      </trkpt>
      <trkpt lat="47.3067" lon="4.96937">
        <ele>383.6</ele>
        <time>2024-10-14T09:12:44.933Z</time>
      </trkpt>
      <trkpt lat="47.30664" lon="4.96938">
        <ele>384.2</ele>
        <time>2024-10-14T09:12:48.553Z</time>
      </trkpt>
      <trkpt lat="47.30659" lon="4.9694">
        <ele>384.2</ele>
        <time>2024-10-14T09:12:52.174Z</time>
      </trkpt>
      <trkpt lat="47.30653" lon="4.96941">
        <ele>384.4</ele>
        <time>2024-10-14T09:12:55.796Z</time>
      </trkpt>
      <trkpt lat="47.30647" lon="4.96943">
        <ele>384.4</ele>
        <time>2024-10-14T09:12:59.419Z</time>
      </trkpt>
      <trkpt lat="47.30641" lon="4.96945">
        <ele>384.4</ele>
        <time>2024-10-14T09:13:03.044Z</time>
      </trkpt>
      <trkpt lat="47.30635" lon="4.96947">
        <ele>384.4</ele>
        <time>2024-10-14T09:13:06.670Z</time>
      </trkpt>
      <trkpt lat="47.30628" lon="4.96946">
        <ele>384.4</ele>
        <time>2024-10-14T09:13:10.297Z</time>
      </trkpt>
      <trkpt lat="47.30623" lon="4.96945">
        <ele>384.4</ele>
        <time>2024-10-14T09:13:13.925Z</time>
      </trkpt>
      <trkpt lat="47.30617" lon="4.96942">
        <ele>384.4</ele>
        <time>2024-10-14T09:13:17.554Z</time>
      </trkpt>
      <trkpt lat="47.30612" lon="4.96939">
        <ele>384.6</ele>
        <time>2024-10-14T09:13:21.184Z</time>
      </trkpt>
      <trkpt lat="47.30607" lon="4.96936">
        <ele>384.6</ele>
        <time>2024-10-14T09:13:24.815Z</time>
      </trkpt>
      <trkpt lat="47.30603" lon="4.96933">
        <ele>385</ele>
        <time>2024-10-14T09:13:28.447Z</time>
      </trkpt>
      <trkpt lat="47.30599" lon="4.9693">
        <ele>385.4</ele>
        <time>2024-10-14T09:13:32.080Z</time>
      </trkpt>
      <trkpt lat="47.30596" lon="4.96927">
        <ele>385.6</ele>
        <time>2024-10-14T09:13:35.713Z</time>
      </trkpt>
      <trkpt lat="47.30592" lon="4.96925">
        <ele>386.6</ele>
        <time>2024-10-14T09:13:39.347Z</time>
      </trkpt>
      <trkpt lat="47.30588" lon="4.96923">
        <ele>387</ele>
        <time>2024-10-14T09:13:42.982Z</time>
      </trkpt>
      <trkpt lat="47.30585" lon="4.96921">
        <ele>387.6</ele>
        <time>2024-10-14T09:13:46.618Z</time>
      </trkpt>
      <trkpt lat="47.30581" lon="4.96921">
        <ele>388</ele>
        <time>2024-10-14T09:13:50.254Z</time>
      </trkpt>
      <trkpt lat="47.30577" lon="4.96921">
        <ele>388.6</ele>
        <time>2024-10-14T09:13:53.891Z</time>
      </trkpt>
      <trkpt lat="47.30572" lon="4.96922">
        <ele>389</ele>
        <time>2024-10-14T09:13:57.529Z</time>
      </trkpt>
      <trkpt lat="47.30568" lon="4.96923">
        <ele>389</ele>
        <time>2024-10-14T09:14:01.168Z</time>
      </trkpt>
      <trkpt lat="47.30565" lon="4.96923">
        <ele>389</ele>
        <time>2024-10-14T09:14:04.807Z</time>
      </trkpt>
      <trkpt lat="47.3056" lon="4.96924">
        <ele>389.2</ele>
        <time>2024-10-14T09:14:08.447Z</time>
      </trkpt>
      <trkpt lat="47.30555" lon="4.96925">
        <ele>389.2</ele>
        <time>2024-10-14T09:14:12.088Z</time>
      </trkpt>
      <trkpt lat="47.3055" lon="4.96926">
        <ele>389.2</ele>
        <time>2024-10-14T09:14:15.730Z</time>
      </trkpt>
      <trkpt lat="47.30544" lon="4.96926">
        <ele>389.2</ele>
        <time>2024-10-14T09:14:19.373Z</time>
      </trkpt>
      <trkpt lat="47.30538" lon="4.96926">
        <ele>389.4</ele>
        <time>2024-10-14T09:14:23.017Z</time>
      </trkpt>
      <trkpt lat="47.30532" lon="4.96927">
        <ele>389.4</ele>
        <time>2024-10-14T09:14:26.662Z</time>
      </trkpt>
      <trkpt lat="47.30527" lon="4.96929">
        <ele>389.2</ele>
        <time>2024-10-14T09:14:30.308Z</time>
      </trkpt>
      <trkpt lat="47.30523" lon="4.96931">
        <ele>389.2</ele>
        <time>2024-10-14T09:14:33.955Z</time>
      </trkpt>
      <trkpt lat="47.30517" lon="4.96935">
        <ele>389</ele>
        <time>2024-10-14T09:14:37.603Z</time>
      </trkpt>
      <trkpt lat="47.30511" lon="4.96937">
        <ele>389</ele>
        <time>2024-10-14T09:14:41.253Z</time>
      </trkpt>
      <trkpt lat="47.30505" lon="4.96938">
        <ele>388.8</ele>
        <time>2024-10-14T09:14:44.904Z</time>
      </trkpt>
      <trkpt lat="47.30499" lon="4.96939">
        <ele>388.6</ele>
        <time>2024-10-14T09:14:48.556Z</time>
      </trkpt>
      <trkpt lat="47.30494" lon="4.96938">
        <ele>388</ele>
        <time>2024-10-14T09:14:52.209Z</time>
      </trkpt>
      <trkpt lat="47.30488" lon="4.96938">
        <ele>387.8</ele>
        <time>2024-10-14T09:14:55.863Z</time>
      </trkpt>
      <trkpt lat="47.30487" lon="4.96938">
        <ele>387.4</ele>
        <time>2024-10-14T09:14:59.517Z</time>
      </trkpt>
      <trkpt lat="47.30484" lon="4.96939">
        <ele>387.2</ele>
        <time>2024-10-14T09:15:03.171Z</time>
      </trkpt>
      <trkpt lat="47.30481" lon="4.9694">
        <ele>387.2</ele>
        <time>2024-10-14T09:15:06.826Z</time>
      </trkpt>
      <trkpt lat="47.30478" lon="4.96942">
        <ele>386.8</ele>
        <time>2024-10-14T09:15:10.482Z</time>
      </trkpt>
      <trkpt lat="47.30475" lon="4.96943">
        <ele>386.2</ele>
        <time>2024-10-14T09:15:14.138Z</time>
      </trkpt>
      <trkpt lat="47.30474" lon="4.96945">
        <ele>384.8</ele>
        <time>2024-10-14T09:15:17.795Z</time>
      </trkpt>
      <trkpt lat="47.30473" lon="4.96948">
        <ele>384.4</ele>
        <time>2024-10-14T09:15:21.452Z</time>
      </trkpt>
      <trkpt lat="47.30473" lon="4.96949">
        <ele>383.8</ele>
        <time>2024-10-14T09:15:25.109Z</time>
      </trkpt>
      <trkpt lat="47.30475" lon="4.96942">
        <ele>383.4</ele>
        <time>2024-10-14T09:15:28.767Z</time>
      </trkpt>
      <trkpt lat="47.30478" lon="4.96942">
        <ele>383</ele>
        <time>2024-10-14T09:15:32.425Z</time>
      </trkpt>
      <trkpt lat="47.3048" lon="4.96941">
        <ele>382.8</ele>
        <time>2024-10-14T09:15:36.084Z</time>
      </trkpt>
      <trkpt lat="47.30483" lon="4.9694">
        <ele>382.4</ele>
        <time>2024-10-14T09:15:39.744Z</time>
      </trkpt>
      <trkpt lat="47.30486" lon="4.96939">
        <ele>381.2</ele>
        <time>2024-10-14T09:15:43.404Z</time>
      </trkpt>
      <trkpt lat="47.30488" lon="4.96938">
        <ele>379.6</ele>
        <time>2024-10-14T09:15:47.064Z</time>
      </trkpt>
      <trkpt lat="47.30727" lon="4.97009">
        <ele>358.6</ele>
        <time>2024-10-14T09:15:50.769Z</time>
      </trkpt>
      <trkpt lat="47.30738" lon="4.97011">
        <ele>357.4</ele>
        <time>2024-10-14T09:15:54.476Z</time>
      </trkpt>
      <trkpt lat="47.30748" lon="4.97012">
        <ele>356.4</ele>
        <time>2024-10-14T09:15:58.185Z</time>
      </trkpt>
      <trkpt lat="47.3076" lon="4.97012">
        <ele>355.6</ele>
        <time>2024-10-14T09:16:01.897Z</time>
      </trkpt>
      <trkpt lat="47.30771" lon="4.97015">
        <ele>354.2</ele>
        <time>2024-10-14T09:16:05.611Z</time>
      </trkpt>
      <trkpt lat="47.30782" lon="4.97016">
        <ele>353.6</ele>
        <time>2024-10-14T09:16:09.327Z</time>
      </trkpt>
      <trkpt lat="47.30793" lon="4.97016">
        <ele>353</ele>
        <time>2024-10-14T09:16:13.045Z</time>
      </trkpt>
      <trkpt lat="47.30804" lon="4.97016">
        <ele>352.4</ele>
        <time>2024-10-14T09:16:16.765Z</time>
      </trkpt>
      <trkpt lat="47.30813" lon="4.97015">
        <ele>352</ele>
        <time>2024-10-14T09:16:20.486Z</time>
      </trkpt>
      <trkpt lat="47.30823" lon="4.97013">
        <ele>352</ele>
        <time>2024-10-14T09:16:24.209Z</time>
      </trkpt>
      <trkpt lat="47.30832" lon="4.97013">
        <ele>352</ele>
        <time>2024-10-14T09:16:27.934Z</time>
      </trkpt>
      <trkpt lat="47.3084" lon="4.97013">
        <ele>352.4</ele>
        <time>2024-10-14T09:16:31.660Z</time>
      </trkpt>
      <trkpt lat="47.30849" lon="4.97013">
        <ele>352.4</ele>
        <time>2024-10-14T09:16:35.388Z</time>
      </trkpt>
      <trkpt lat="47.30858" lon="4.97013">
        <ele>352.4</ele>
        <time>2024-10-14T09:16:39.118Z</time>
      </trkpt>
      <trkpt lat="47.30866" lon="4.97015">
        <ele>352.6</ele>
        <time>2024-10-14T09:16:42.849Z</time>
      </trkpt>
      <trkpt lat="47.30874" lon="4.97018">
        <ele>352.6</ele>
        <time>2024-10-14T09:16:46.582Z</time>
      </trkpt>
      <trkpt lat="47.30882" lon="4.9702">
        <ele>352.6</ele>
        <time>2024-10-14T09:16:50.316Z</time>
      </trkpt>
      <trkpt lat="47.30889" lon="4.97021">
        <ele>352.4</ele>
        <time>2024-10-14T09:16:54.052Z</time>
      </trkpt>
      <trkpt lat="47.30895" lon="4.97021">
        <ele>351.8</ele>
        <time>2024-10-14T09:16:57.789Z</time>
      </trkpt>
      <trkpt lat="47.30901" lon="4.97021">
        <ele>351</ele>
        <time>2024-10-14T09:17:01.527Z</time>
      </trkpt>
      <trkpt lat="47.30906" lon="4.97022">
        <ele>350.2</ele>
        <time>2024-10-14T09:17:05.266Z</time>
      </trkpt>
      <trkpt lat="47.3091" lon="4.9702">
        <ele>349.2</ele>
        <time>2024-10-14T09:17:09.006Z</time>
      </trkpt>
      <trkpt lat="47.30915" lon="4.97017">
        <ele>348</ele>
        <time>2024-10-14T09:17:12.747Z</time>
      </trkpt>
      <trkpt lat="47.30922" lon="4.97012">
        <ele>346.2</ele>
        <time>2024-10-14T09:17:16.489Z</time>
      </trkpt>
      <trkpt lat="47.30928" lon="4.97006">
        <ele>342.2</ele>
        <time>2024-10-14T09:17:20.232Z</time>
      </trkpt>
      <trkpt lat="47.30936" lon="4.96997">
        <ele>339.8</ele>
        <time>2024-10-14T09:17:23.977Z</time>
      </trkpt>
      <trkpt lat="47.30945" lon="4.9699">
        <ele>337.4</ele>
        <time>2024-10-14T09:17:27.724Z</time>
      </trkpt>
      <trkpt lat="47.30953" lon="4.96984">
        <ele>336.8</ele>
        <time>2024-10-14T09:17:31.473Z</time>
      </trkpt>
      <trkpt lat="47.30961" lon="4.96977">
        <ele>336</ele>
        <time>2024-10-14T09:17:35.223Z</time>
      </trkpt>
      <trkpt lat="47.30969" lon="4.96969">
        <ele>335.8</ele>
        <time>2024-10-14T09:17:38.975Z</time>
      </trkpt>
      <trkpt lat="47.30976" lon="4.9696">
        <ele>335.6</ele>
        <time>2024-10-14T09:17:42.729Z</time>
      </trkpt>
      <trkpt lat="47.30981" lon="4.9695">
        <ele>335.4</ele>
        <time>2024-10-14T09:17:46.484Z</time>
      </trkpt>
      <trkpt lat="47.30986" lon="4.96938">
        <ele>334.8</ele>
        <time>2024-10-14T09:17:50.241Z</time>
      </trkpt>
      <trkpt lat="47.30993" lon="4.96929">
        <ele>334.6</ele>
        <time>2024-10-14T09:17:54.000Z</time>
      </trkpt>
      <trkpt lat="47.30999" lon="4.96922">
        <ele>334.4</ele>
        <time>2024-10-14T09:17:57.760Z</time>
      </trkpt>
      <trkpt lat="47.31006" lon="4.96915">
        <ele>333.8</ele>
        <time>2024-10-14T09:18:01.522Z</time>
      </trkpt>
      <trkpt lat="47.31012" lon="4.96909">
        <ele>333.4</ele>
        <time>2024-10-14T09:18:05.285Z</time>
      </trkpt>
      <trkpt lat="47.30979" lon="4.96872">
        <ele>333.2</ele>
        <time>2024-10-14T09:18:09.056Z</time>
      </trkpt>
      <trkpt lat="47.30981" lon="4.96859">
        <ele>329</ele>
        <time>2024-10-14T09:18:12.828Z</time>
      </trkpt>
      <trkpt lat="47.30979" lon="4.96872">
        <ele>328.2</ele>
        <time>2024-10-14T09:18:16.602Z</time>
      </trkpt>
      <trkpt lat="47.30981" lon="4.96859">
        <ele>328</ele>
        <time>2024-10-14T09:18:20.378Z</time>
      </trkpt>
      <trkpt lat="47.31212" lon="4.968">
        <ele>316.4</ele>
        <time>2024-10-14T09:18:24.197Z</time>
      </trkpt>
      <trkpt lat="47.31219" lon="4.96796">
        <ele>316.4</ele>
        <time>2024-10-14T09:18:28.017Z</time>
      </trkpt>
      <trkpt lat="47.31227" lon="4.96797">
        <ele>316.4</ele>
        <time>2024-10-14T09:18:31.839Z</time>
      </trkpt>
      <trkpt lat="47.31234" lon="4.96805">
        <ele>316.2</ele>
        <time>2024-10-14T09:18:35.663Z</time>
      </trkpt>
      <trkpt lat="47.31238" lon="4.96816">
        <ele>316.2</ele>
        <time>2024-10-14T09:18:39.488Z</time>
      </trkpt>
      <trkpt lat="47.31243" lon="4.96827">
        <ele>316.2</ele>
        <time>2024-10-14T09:18:43.315Z</time>
      </trkpt>
      <trkpt lat="47.31249" lon="4.96836">
        <ele>316.2</ele>
        <time>2024-10-14T09:18:47.143Z</time>
      </trkpt>
      <trkpt lat="47.31255" lon="4.96808">
        <ele>317.2</ele>
        <time>2024-10-14T09:18:50.975Z</time>
      </trkpt>
      <trkpt lat="47.31262" lon="4.96809">
        <ele>318.4</ele>
        <time>2024-10-14T09:18:54.808Z</time>
      </trkpt>
      <trkpt lat="47.31264" lon="4.9681">
        <ele>318.4</ele>
        <time>2024-10-14T09:18:58.642Z</time>
      </trkpt>
      <trkpt lat="47.31273" lon="4.9681">
        <ele>318.4</ele>
        <time>2024-10-14T09:19:02.477Z</time>
      </trkpt>
      <trkpt lat="47.3128" lon="4.9681">
        <ele>318.4</ele>
        <time>2024-10-14T09:19:06.314Z</time>
      </trkpt>
      <trkpt lat="47.31288" lon="4.9681">
        <ele>318.2</ele>
        <time>2024-10-14T09:19:10.152Z</time>
      </trkpt>
      <trkpt lat="47.31295" lon="4.9681">
        <ele>318</ele>
        <time>2024-10-14T09:19:13.991Z</time>
      </trkpt>
      <trkpt lat="47.31308" lon="4.96811">
        <ele>317.4</ele>
        <time>2024-10-14T09:19:17.833Z</time>
      </trkpt>
      <trkpt lat="47.31316" lon="4.96812">
        <ele>317</ele>
        <time>2024-10-14T09:19:21.676Z</time>
      </trkpt>
      <trkpt lat="47.31327" lon="4.96815">
        <ele>317</ele>
        <time>2024-10-14T09:19:25.521Z</time>
      </trkpt>
      <trkpt lat="47.31335" lon="4.96818">
        <ele>316.8</ele>
        <time>2024-10-14T09:19:29.368Z</time>
      </trkpt>
      <trkpt lat="47.31343" lon="4.96821">
        <ele>316.4</ele>
        <time>2024-10-14T09:19:33.216Z</time>
      </trkpt>
      <trkpt lat="47.31348" lon="4.96822">
        <ele>316.2</ele>
        <time>2024-10-14T09:19:37.065Z</time>
      </trkpt>
      <trkpt lat="47.3136" lon="4.96825">
        <ele>315.4</ele>
        <time>2024-10-14T09:19:40.917Z</time>
      </trkpt>
      <trkpt lat="47.31366" lon="4.96826">
        <ele>314.8</ele>
        <time>2024-10-14T09:19:44.770Z</time>
      </trkpt>
      <trkpt lat="47.31372" lon="4.96827">
        <ele>314.6</ele>
        <time>2024-10-14T09:19:48.624Z</time>
      </trkpt>
      <trkpt lat="47.31348" lon="4.96822">
        <ele>314.4</ele>
        <time>2024-10-14T09:19:52.482Z</time>
      </trkpt>
      <trkpt lat="47.31372" lon="4.96827">
        <ele>313.8</ele>
        <time>2024-10-14T09:19:56.345Z</time>
      </trkpt>
      <trkpt lat="47.31382" lon="4.96827">
        <ele>313.8</ele>
        <time>2024-10-14T09:20:00.209Z</time>
      </trkpt>
      <trkpt lat="47.31388" lon="4.96827">
        <ele>313.6</ele>
        <time>2024-10-14T09:20:04.075Z</time>
      </trkpt>
      <trkpt lat="47.31393" lon="4.96827">
        <ele>313.4</ele>
        <time>2024-10-14T09:20:07.942Z</time>
      </trkpt>
      <trkpt lat="47.31513" lon="4.97175">
        <ele>310.2</ele>
        <time>2024-10-14T09:20:11.858Z</time>
      </trkpt>
      <trkpt lat="47.31521" lon="4.9718">
        <ele>309.8</ele>
        <time>2024-10-14T09:20:15.775Z</time>
      </trkpt>
      <trkpt lat="47.31528" lon="4.97187">
        <ele>309.6</ele>
        <time>2024-10-14T09:20:19.694Z</time>
      </trkpt>
      <trkpt lat="47.31536" lon="4.97193">
        <ele>309.6</ele>
        <time>2024-10-14T09:20:23.614Z</time>
      </trkpt>
      <trkpt lat="47.31544" lon="4.97199">
        <ele>309.2</ele>
        <time>2024-10-14T09:20:27.536Z</time>
      </trkpt>
      <trkpt lat="47.31552" lon="4.97205">
        <ele>309.2</ele>
        <time>2024-10-14T09:20:31.460Z</time>
      </trkpt>
      <trkpt lat="47.3156" lon="4.9721">
        <ele>308.6</ele>
        <time>2024-10-14T09:20:35.385Z</time>
      </trkpt>
      <trkpt lat="47.31568" lon="4.97215">
        <ele>308.6</ele>
        <time>2024-10-14T09:20:39.312Z</time>
      </trkpt>
      <trkpt lat="47.31576" lon="4.9722">
        <ele>308.4</ele>
        <time>2024-10-14T09:20:43.241Z</time>
      </trkpt>
      <trkpt lat="47.31585" lon="4.97224">
        <ele>308.4</ele>
        <time>2024-10-14T09:20:47.171Z</time>
      </trkpt>
      <trkpt lat="47.31594" lon="4.97228">
        <ele>308.2</ele>
        <time>2024-10-14T09:20:51.103Z</time>
      </trkpt>
      <trkpt lat="47.31602" lon="4.97232">
        <ele>308</ele>
        <time>2024-10-14T09:20:55.037Z</time>
      </trkpt>
      <trkpt lat="47.31611" lon="4.97235">
        <ele>307.8</ele>
        <time>2024-10-14T09:20:58.972Z</time>
      </trkpt>
      <trkpt lat="47.31619" lon="4.97238">
        <ele>307.4</ele>
        <time>2024-10-14T09:21:02.909Z</time>
      </trkpt>
      <trkpt lat="47.31629" lon="4.97239">
        <ele>307</ele>
        <time>2024-10-14T09:21:06.848Z</time>
      </trkpt>
      <trkpt lat="47.31638" lon="4.97241">
        <ele>307</ele>
        <time>2024-10-14T09:21:10.788Z</time>
      </trkpt>
      <trkpt lat="47.31646" lon="4.97242">
        <ele>306.8</ele>
        <time>2024-10-14T09:21:14.730Z</time>
      </trkpt>
      <trkpt lat="47.31655" lon="4.97243">
        <ele>306.6</ele>
        <time>2024-10-14T09:21:18.673Z</time>
      </trkpt>
      <trkpt lat="47.31663" lon="4.97245">
        <ele>306.6</ele>
        <time>2024-10-14T09:21:22.618Z</time>
      </trkpt>
      <trkpt lat="47.31672" lon="4.97248">
        <ele>306.6</ele>
        <time>2024-10-14T09:21:26.565Z</time>
      </trkpt>
      <trkpt lat="47.31679" lon="4.97253">
        <ele>306.6</ele>
        <time>2024-10-14T09:21:30.513Z</time>
      </trkpt>
      <trkpt lat="47.31686" lon="4.97259">
        <ele>306.6</ele>
        <time>2024-10-14T09:21:34.463Z</time>
      </trkpt>
      <trkpt lat="47.31693" lon="4.97267">
        <ele>306.4</ele>
        <time>2024-10-14T09:21:38.414Z</time>
      </trkpt>
      <trkpt lat="47.317" lon="4.97275">
        <ele>306.4</ele>
        <time>2024-10-14T09:21:42.367Z</time>
      </trkpt>
      <trkpt lat="47.31707" lon="4.97283">
        <ele>305.8</ele>
        <time>2024-10-14T09:21:46.322Z</time>
      </trkpt>
      <trkpt lat="47.31714" lon="4.97291">
        <ele>305.4</ele>
        <time>2024-10-14T09:21:50.278Z</time>
      </trkpt>
      <trkpt lat="47.31721" lon="4.97299">
        <ele>305.2</ele>
        <time>2024-10-14T09:21:54.236Z</time>
      </trkpt>
      <trkpt lat="47.31728" lon="4.97307">
        <ele>305</ele>
        <time>2024-10-14T09:21:58.195Z</time>
      </trkpt>
      <trkpt lat="47.31736" lon="4.97315">
        <ele>304.6</ele>
        <time>2024-10-14T09:22:02.156Z</time>
      </trkpt>
      <trkpt lat="47.31743" lon="4.97323">
        <ele>304.4</ele>
        <time>2024-10-14T09:22:06.119Z</time>
      </trkpt>
      <trkpt lat="47.31751" lon="4.97329">
        <ele>301.6</ele>
        <time>2024-10-14T09:22:10.083Z</time>
      </trkpt>
      <trkpt lat="47.3176" lon="4.97334">
        <ele>298.6</ele>
        <time>2024-10-14T09:22:14.049Z</time>
      </trkpt>
      <trkpt lat="47.31769" lon="4.97339">
        <ele>298</ele>
        <time>2024-10-14T09:22:18.017Z</time>
      </trkpt>
      <trkpt lat="47.31777" lon="4.97345">
        <ele>297.6</ele>
        <time>2024-10-14T09:22:21.987Z</time>
      </trkpt>
      <trkpt lat="47.31785" lon="4.9735">
        <ele>297</ele>
        <time>2024-10-14T09:22:25.958Z</time>
      </trkpt>
      <trkpt lat="47.31793" lon="4.97356">
        <ele>296.6</ele>
        <time>2024-10-14T09:22:29.931Z</time>
      </trkpt>
      <trkpt lat="47.31801" lon="4.97363">
        <ele>296.2</ele>
        <time>2024-10-14T09:22:33.906Z</time>
      </trkpt>
      <trkpt lat="47.31807" lon="4.9737">
        <ele>296</ele>
        <time>2024-10-14T09:22:37.882Z</time>
      </trkpt>
      <trkpt lat="47.31808" lon="4.97373">
        <ele>296</ele>
        <time>2024-10-14T09:22:41.859Z</time>
      </trkpt>
      <trkpt lat="47.31808" lon="4.97383">
        <ele>295.8</ele>
        <time>2024-10-14T09:22:45.837Z</time>
      </trkpt>
      <trkpt lat="47.31809" lon="4.97392">
        <ele>295.2</ele>
        <time>2024-10-14T09:22:49.816Z</time>
      </trkpt>
      <trkpt lat="47.31809" lon="4.97402">
        <ele>294.8</ele>
        <time>2024-10-14T09:22:53.796Z</time>
      </trkpt>
      <trkpt lat="47.31807" lon="4.9747">
        <ele>293.6</ele>
        <time>2024-10-14T09:22:57.785Z</time>
      </trkpt>
      <trkpt lat="47.31801" lon="4.97515">
        <ele>291.4</ele>
        <time>2024-10-14T09:23:01.780Z</time>
      </trkpt>
      <trkpt lat="47.31824" lon="4.97565">
        <ele>291.4</ele>
        <time>2024-10-14T09:23:05.782Z</time>
      </trkpt>
      <trkpt lat="47.3183" lon="4.97574">
        <ele>291.4</ele>
        <time>2024-10-14T09:23:09.786Z</time>
      </trkpt>
      <trkpt lat="47.31835" lon="4.97582">
        <ele>291.4</ele>
        <time>2024-10-14T09:23:13.791Z</time>
      </trkpt>
      <trkpt lat="47.31841" lon="4.97592">
        <ele>291.4</ele>
        <time>2024-10-14T09:23:17.798Z</time>
      </trkpt>
      <trkpt lat="47.31844" lon="4.97597">
        <ele>291.4</ele>
        <time>2024-10-14T09:23:21.806Z</time>
      </trkpt>
      <trkpt lat="47.31849" lon="4.97611">
        <ele>291.4</ele>
        <time>2024-10-14T09:23:25.815Z</time>
      </trkpt>
      <trkpt lat="47.31852" lon="4.97622">
        <ele>291.2</ele>
        <time>2024-10-14T09:23:29.826Z</time>
      </trkpt>
      <trkpt lat="47.31857" lon="4.97633">
        <ele>291.2</ele>
        <time>2024-10-14T09:23:33.839Z</time>
      </trkpt>
      <trkpt lat="47.31857" lon="4.97634">
        <ele>291.2</ele>
        <time>2024-10-14T09:23:37.852Z</time>
      </trkpt>
      <trkpt lat="47.31858" lon="4.97641">
        <ele>290.8</ele>
        <time>2024-10-14T09:23:41.866Z</time>
      </trkpt>
      <trkpt lat="47.31859" lon="4.97654">
        <ele>289.8</ele>
        <time>2024-10-14T09:23:45.881Z</time>
      </trkpt>
      <trkpt lat="47.31863" lon="4.97677">
        <ele>289.4</ele>
        <time>2024-10-14T09:23:49.899Z</time>
      </trkpt>
      <trkpt lat="47.31866" lon="4.97688">
        <ele>289</ele>
        <time>2024-10-14T09:23:53.919Z</time>
      </trkpt>
      <trkpt lat="47.31869" lon="4.97699">
        <ele>288.8</ele>
        <time>2024-10-14T09:23:57.940Z</time>
      </trkpt>
      <trkpt lat="47.3187" lon="4.977">
        <ele>288.4</ele>
        <time>2024-10-14T09:24:01.961Z</time>
      </trkpt>
      <trkpt lat="47.31872" lon="4.97715">
        <ele>288.2</ele>
        <time>2024-10-14T09:24:05.984Z</time>
      </trkpt>
      <trkpt lat="47.31874" lon="4.97724">
        <ele>288</ele>
        <time>2024-10-14T09:24:10.008Z</time>
      </trkpt>
      <trkpt lat="47.31874" lon="4.97726">
        <ele>287.8</ele>
        <time>2024-10-14T09:24:14.033Z</time>
      </trkpt>
      <trkpt lat="47.31874" lon="4.97738">
        <ele>287.8</ele>
        <time>2024-10-14T09:24:18.059Z</time>
      </trkpt>
      <trkpt lat="47.31874" lon="4.97771">
        <ele>287.8</ele>
        <time>2024-10-14T09:24:22.089Z</time>
      </trkpt>
      <trkpt lat="47.31874" lon="4.97763">
        <ele>287.6</ele>
        <time>2024-10-14T09:24:26.120Z</time>
      </trkpt>
      <trkpt lat="47.31874" lon="4.97772">
        <ele>287.2</ele>
        <time>2024-10-14T09:24:30.153Z</time>
      </trkpt>
      <trkpt lat="47.31892" lon="4.97801">
        <ele>287.2</ele>
        <time>2024-10-14T09:24:34.190Z</time>
      </trkpt>
      <trkpt lat="47.31895" lon="4.97812">
        <ele>286.6</ele>
        <time>2024-10-14T09:24:38.229Z</time>
      </trkpt>
      <trkpt lat="47.31898" lon="4.97825">
        <ele>286</ele>
        <time>2024-10-14T09:24:42.270Z</time>
      </trkpt>
      <trkpt lat="47.31904" lon="4.97839">
        <ele>286</ele>
        <time>2024-10-14T09:24:46.313Z</time>
      </trkpt>
      <trkpt lat="47.31908" lon="4.9785">
        <ele>286</ele>
        <time>2024-10-14T09:24:50.357Z</time>
      </trkpt>
      <trkpt lat="47.31913" lon="4.97862">
        <ele>285.8</ele>
        <time>2024-10-14T09:24:54.403Z</time>
      </trkpt>
      <trkpt lat="47.31917" lon="4.97872">
        <ele>285.6</ele>
        <time>2024-10-14T09:24:58.451Z</time>
      </trkpt>
      <trkpt lat="47.31922" lon="4.97882">
        <ele>285.6</ele>
        <time>2024-10-14T09:25:02.500Z</time>
      </trkpt>
      <trkpt lat="47.31927" lon="4.97893">
        <ele>285.6</ele>
        <time>2024-10-14T09:25:06.551Z</time>
      </trkpt>
      <trkpt lat="47.31927" lon="4.9791">
        <ele>285.4</ele>
        <time>2024-10-14T09:25:10.604Z</time>
      </trkpt>
      <trkpt lat="47.3193" lon="4.97919">
        <ele>285.4</ele>
        <time>2024-10-14T09:25:14.658Z</time>
      </trkpt>
      <trkpt lat="47.31934" lon="4.97931">
        <ele>285.2</ele>
        <time>2024-10-14T09:25:18.714Z</time>
      </trkpt>
      <trkpt lat="47.31934" lon="4.97932">
        <ele>285</ele>
        <time>2024-10-14T09:25:22.770Z</time>
      </trkpt>
      <trkpt lat="47.31932" lon="4.97958">
        <ele>284.8</ele>
        <time>2024-10-14T09:25:26.829Z</time>
      </trkpt>
      <trkpt lat="47.31934" lon="4.97962">
        <ele>284.8</ele>
        <time>2024-10-14T09:25:30.889Z</time>
      </trkpt>
      <trkpt lat="47.31957" lon="4.97968">
        <ele>284.6</ele>
        <time>2024-10-14T09:25:34.953Z</time>
      </trkpt>
      <trkpt lat="47.31966" lon="4.97979">
        <ele>284.6</ele>
        <time>2024-10-14T09:25:39.019Z</time>
      </trkpt>
      <trkpt lat="47.31968" lon="4.97981">
        <ele>284.6</ele>
        <time>2024-10-14T09:25:43.086Z</time>
      </trkpt>
      <trkpt lat="47.32158" lon="4.98245">
        <ele>283.6</ele>
        <time>2024-10-14T09:25:47.201Z</time>
      </trkpt>
      <trkpt lat="47.32162" lon="4.98255">
        <ele>283.4</ele>
        <time>2024-10-14T09:25:51.317Z</time>
      </trkpt>
      <trkpt lat="47.32166" lon="4.98264">
        <ele>283.4</ele>
        <time>2024-10-14T09:25:55.435Z</time>
      </trkpt>
      <trkpt lat="47.3217" lon="4.98274">
        <ele>283.4</ele>
        <time>2024-10-14T09:25:59.554Z</time>
      </trkpt>
      <trkpt lat="47.32174" lon="4.98283">
        <ele>283</ele>
        <time>2024-10-14T09:26:03.675Z</time>
      </trkpt>
      <trkpt lat="47.32178" lon="4.98293">
        <ele>282.4</ele>
        <time>2024-10-14T09:26:07.797Z</time>
      </trkpt>
      <trkpt lat="47.32182" lon="4.98302">
        <ele>282</ele>
        <time>2024-10-14T09:26:11.920Z</time>
      </trkpt>
      <trkpt lat="47.32184" lon="4.98313">
        <ele>281.8</ele>
        <time>2024-10-14T09:26:16.045Z</time>
      </trkpt>
      <trkpt lat="47.32186" lon="4.98325">
        <ele>281.6</ele>
        <time>2024-10-14T09:26:20.171Z</time>
      </trkpt>
      <trkpt lat="47.32188" lon="4.98336">
        <ele>281.2</ele>
        <time>2024-10-14T09:26:24.299Z</time>
      </trkpt>
      <trkpt lat="47.32191" lon="4.98346">
        <ele>281</ele>
        <time>2024-10-14T09:26:28.428Z</time>
      </trkpt>
      <trkpt lat="47.32193" lon="4.98358">
        <ele>280.8</ele>
        <time>2024-10-14T09:26:32.559Z</time>
      </trkpt>
      <trkpt lat="47.32194" lon="4.98369">
        <ele>280.6</ele>
        <time>2024-10-14T09:26:36.691Z</time>
      </trkpt>
      <trkpt lat="47.32195" lon="4.98381">
        <ele>280.4</ele>
        <time>2024-10-14T09:26:40.825Z</time>
      </trkpt>
      <trkpt lat="47.32196" lon="4.98393">
        <ele>280.4</ele>
        <time>2024-10-14T09:26:44.960Z</time>
      </trkpt>
      <trkpt lat="47.32194" lon="4.98405">
        <ele>280</ele>
        <time>2024-10-14T09:26:49.097Z</time>
      </trkpt>
      <trkpt lat="47.32191" lon="4.98415">
        <ele>279.6</ele>
        <time>2024-10-14T09:26:53.235Z</time>
      </trkpt>
      <trkpt lat="47.32188" lon="4.98427">
        <ele>278.8</ele>
        <time>2024-10-14T09:26:57.375Z</time>
      </trkpt>
      <trkpt lat="47.32184" lon="4.98439">
        <ele>278.4</ele>
        <time>2024-10-14T09:27:01.516Z</time>
      </trkpt>
      <trkpt lat="47.32181" lon="4.98452">
        <ele>278.2</ele>
        <time>2024-10-14T09:27:05.659Z</time>
      </trkpt>
      <trkpt lat="47.32177" lon="4.98463">
        <ele>277.8</ele>
        <time>2024-10-14T09:27:09.804Z</time>
      </trkpt>
      <trkpt lat="47.32171" lon="4.98474">
        <ele>277.2</ele>
        <time>2024-10-14T09:27:13.950Z</time>
      </trkpt>
      <trkpt lat="47.32166" lon="4.98484">
        <ele>276.2</ele>
        <time>2024-10-14T09:27:18.098Z</time>
      </trkpt>
      <trkpt lat="47.3216" lon="4.98495">
        <ele>275.2</ele>
        <time>2024-10-14T09:27:22.248Z</time>
      </trkpt>
      <trkpt lat="47.32154" lon="4.98507">
        <ele>273.6</ele>
        <time>2024-10-14T09:27:26.400Z</time>
      </trkpt>
      <trkpt lat="47.32149" lon="4.98518">
        <ele>272.8</ele>
        <time>2024-10-14T09:27:30.553Z</time>
      </trkpt>
      <trkpt lat="47.32143" lon="4.98529">
        <ele>272.2</ele>
        <time>2024-10-14T09:27:34.708Z</time>
      </trkpt>
      <trkpt lat="47.32137" lon="4.9854">
        <ele>272.2</ele>
        <time>2024-10-14T09:27:38.865Z</time>
      </trkpt>
      <trkpt lat="47.32132" lon="4.98551">
        <ele>272.2</ele>
        <time>2024-10-14T09:27:43.024Z</time>
      </trkpt>
      <trkpt lat="47.32127" lon="4.98563">
        <ele>272</ele>
        <time>2024-10-14T09:27:47.184Z</time>
      </trkpt>
      <trkpt lat="47.32124" lon="4.98576">
        <ele>271.8</ele>
        <time>2024-10-14T09:27:51.346Z</time>
      </trkpt>
      <trkpt lat="47.32121" lon="4.98588">
        <ele>271</ele>
        <time>2024-10-14T09:27:55.510Z</time>
      </trkpt>
      <trkpt lat="47.3212" lon="4.98602">
        <ele>270.8</ele>
        <time>2024-10-14T09:27:59.675Z</time>
      </trkpt>
      <trkpt lat="47.32119" lon="4.98616">
        <ele>270.4</ele>
        <time>2024-10-14T09:28:03.842Z</time>
      </trkpt>
      <trkpt lat="47.32119" lon="4.98629">
        <ele>270.2</ele>
        <time>2024-10-14T09:28:08.011Z</time>
      </trkpt>
      <trkpt lat="47.32119" lon="4.98643">
        <ele>270</ele>
        <time>2024-10-14T09:28:12.182Z</time>
      </trkpt>
      <trkpt lat="47.3212" lon="4.98656">
        <ele>269.8</ele>
        <time>2024-10-14T09:28:16.354Z</time>
      </trkpt>
      <trkpt lat="47.32121" lon="4.9867">
        <ele>269.4</ele>
        <time>2024-10-14T09:28:20.528Z</time>
      </trkpt>
      <trkpt lat="47.32122" lon="4.98684">
        <ele>269.4</ele>
        <time>2024-10-14T09:28:24.704Z</time>
      </trkpt>
      <trkpt lat="47.32123" lon="4.98697">
        <ele>269.4</ele>
        <time>2024-10-14T09:28:28.881Z</time>
      </trkpt>
      <trkpt lat="47.32124" lon="4.9871">
        <ele>269.4</ele>
        <time>2024-10-14T09:28:33.060Z</time>
      </trkpt>
      <trkpt lat="47.32125" lon="4.98723">
        <ele>269.4</ele>
        <time>2024-10-14T09:28:37.241Z</time>
      </trkpt>
      <trkpt lat="47.32126" lon="4.98736">
        <ele>269</ele>
        <time>2024-10-14T09:28:41.423Z</time>
      </trkpt>
      <trkpt lat="47.32127" lon="4.98748">
        <ele>269</ele>
        <time>2024-10-14T09:28:45.607Z</time>
      </trkpt>
      <trkpt lat="47.32129" lon="4.98761">
        <ele>269.4</ele>
        <time>2024-10-14T09:28:49.793Z</time>
      </trkpt>
      <trkpt lat="47.32131" lon="4.98774">
        <ele>270</ele>
        <time>2024-10-14T09:28:53.980Z</time>
      </trkpt>
      <trkpt lat="47.32134" lon="4.98786">
        <ele>270</ele>
        <time>2024-10-14T09:28:58.169Z</time>
      </trkpt>
      <trkpt lat="47.32138" lon="4.98797">
        <ele>273</ele>
        <time>2024-10-14T09:29:02.359Z</time>
      </trkpt>
      <trkpt lat="47.32141" lon="4.98809">
        <ele>273.2</ele>
        <time>2024-10-14T09:29:06.551Z</time>
      </trkpt>
      <trkpt lat="47.32145" lon="4.98822">
        <ele>273.4</ele>
        <time>2024-10-14T09:29:10.745Z</time>
      </trkpt>
      <trkpt lat="47.32148" lon="4.98833">
        <ele>273.4</ele>
        <time>2024-10-14T09:29:14.940Z</time>
      </trkpt>
      <trkpt lat="47.32151" lon="4.98845">
        <ele>273.2</ele>
        <time>2024-10-14T09:29:19.137Z</time>
      </trkpt>
      <trkpt lat="47.32155" lon="4.98857">
        <ele>273</ele>
        <time>2024-10-14T09:29:23.335Z</time>
      </trkpt>
      <trkpt lat="47.32158" lon="4.98869">
        <ele>273</ele>
        <time>2024-10-14T09:29:27.535Z</time>
      </trkpt>
      <trkpt lat="47.32162" lon="4.98882">
        <ele>272.8</ele>
        <time>2024-10-14T09:29:31.737Z</time>
      </trkpt>
      <trkpt lat="47.32165" lon="4.98894">
        <ele>272.6</ele>
        <time>2024-10-14T09:29:35.940Z</time>
      </trkpt>
      <trkpt lat="47.32169" lon="4.98906">
        <ele>272.4</ele>
        <time>2024-10-14T09:29:40.145Z</time>
      </trkpt>
      <trkpt lat="47.32172" lon="4.98919">
        <ele>272.2</ele>
        <time>2024-10-14T09:29:44.352Z</time>
      </trkpt>
      <trkpt lat="47.32176" lon="4.98931">
        <ele>272</ele>
        <time>2024-10-14T09:29:48.561Z</time>
      </trkpt>
      <trkpt lat="47.3218" lon="4.98943">
        <ele>271.8</ele>
        <time>2024-10-14T09:29:52.771Z</time>
      </trkpt>
      <trkpt lat="47.32183" lon="4.98956">
        <ele>271.6</ele>
        <time>2024-10-14T09:29:56.983Z</time>
      </trkpt>
      <trkpt lat="47.32187" lon="4.98969">
        <ele>271.4</ele>
        <time>2024-10-14T09:30:01.197Z</time>
      </trkpt>
      <trkpt lat="47.3219" lon="4.98981">
        <ele>271.2</ele>
        <time>2024-10-14T09:30:05.412Z</time>
      </trkpt>
      <trkpt lat="47.32194" lon="4.98992">
        <ele>271</ele>
        <time>2024-10-14T09:30:09.629Z</time>
      </trkpt>
      <trkpt lat="47.32197" lon="4.99004">
        <ele>270.8</ele>
        <time>2024-10-14T09:30:13.848Z</time>
      </trkpt>
      <trkpt lat="47.322" lon="4.99016">
        <ele>270.6</ele>
        <time>2024-10-14T09:30:18.068Z</time>
      </trkpt>
      <trkpt lat="47.32204" lon="4.99027">
        <ele>270.6</ele>
        <time>2024-10-14T09:30:22.290Z</time>
      </trkpt>
      <trkpt lat="47.32207" lon="4.99038">
        <ele>270.2</ele>
        <time>2024-10-14T09:30:26.513Z</time>
      </trkpt>
      <trkpt lat="47.3221" lon="4.99049">
        <ele>270.2</ele>
        <time>2024-10-14T09:30:30.738Z</time>
      </trkpt>
      <trkpt lat="47.32213" lon="4.9906">
        <ele>270.2</ele>
        <time>2024-10-14T09:30:34.964Z</time>
      </trkpt>
      <trkpt lat="47.32216" lon="4.9907">
        <ele>270</ele>
        <time>2024-10-14T09:30:39.192Z</time>
      </trkpt>
      <trkpt lat="47.32219" lon="4.99082">
        <ele>269.8</ele>
        <time>2024-10-14T09:30:43.421Z</time>
      </trkpt>
      <trkpt lat="47.32222" lon="4.99092">
        <ele>269.4</ele>
        <time>2024-10-14T09:30:47.651Z</time>
      </trkpt>
      <trkpt lat="47.32228" lon="4.99112">
        <ele>269.4</ele>
        <time>2024-10-14T09:30:51.884Z</time>
      </trkpt>
      <trkpt lat="47.32228" lon="4.99112">
        <ele>269.4</ele>
        <time>2024-10-14T09:30:56.117Z</time>
      </trkpt>
      <trkpt lat="47.3223" lon="4.99123">
        <ele>269.4</ele>
        <time>2024-10-14T09:31:00.352Z</time>
      </trkpt>
      <trkpt lat="47.32231" lon="4.99134">
        <ele>269</ele>
        <time>2024-10-14T09:31:04.588Z</time>
      </trkpt>
      <trkpt lat="47.32232" lon="4.99145">
        <ele>268.8</ele>
        <time>2024-10-14T09:31:08.825Z</time>
      </trkpt>
      <trkpt lat="47.32232" lon="4.99156">
        <ele>268.8</ele>
        <time>2024-10-14T09:31:13.064Z</time>
      </trkpt>
      <trkpt lat="47.32231" lon="4.99166">
        <ele>268.8</ele>
        <time>2024-10-14T09:31:17.304Z</time>
      </trkpt>
      <trkpt lat="47.3223" lon="4.99175">
        <ele>268.6</ele>
        <time>2024-10-14T09:31:21.545Z</time>
      </trkpt>
      <trkpt lat="47.3223" lon="4.99184">
        <ele>267.8</ele>
        <time>2024-10-14T09:31:25.787Z</time>
      </trkpt>
      <trkpt lat="47.32228" lon="4.99206">
        <ele>267.8</ele>
        <time>2024-10-14T09:31:30.032Z</time>
      </trkpt>
      <trkpt lat="47.32228" lon="4.99201">
        <ele>267.8</ele>
        <time>2024-10-14T09:31:34.278Z</time>
      </trkpt>
      <trkpt lat="47.32228" lon="4.99209">
        <ele>268</ele>
        <time>2024-10-14T09:31:38.525Z</time>
      </trkpt>
      <trkpt lat="47.32228" lon="4.99224">
        <ele>268.8</ele>
        <time>2024-10-14T09:31:42.774Z</time>
      </trkpt>
      <trkpt lat="47.32228" lon="4.99226">
        <ele>269.4</ele>
        <time>2024-10-14T09:31:47.023Z</time>
      </trkpt>
      <trkpt lat="47.32227" lon="4.99234">
        <ele>269.6</ele>
        <time>2024-10-14T09:31:51.273Z</time>
      </trkpt>
      <trkpt lat="47.32226" lon="4.99241">
        <ele>269.8</ele>
        <time>2024-10-14T09:31:55.524Z</time>
      </trkpt>
      <trkpt lat="47.32226" lon="4.99248">
        <ele>270.2</ele>
        <time>2024-10-14T09:31:59.776Z</time>
      </trkpt>
      <trkpt lat="47.32225" lon="4.99254">
        <ele>270.4</ele>
        <time>2024-10-14T09:32:04.029Z</time>
      </trkpt>
      <trkpt lat="47.32224" lon="4.99262">
        <ele>270.6</ele>
        <time>2024-10-14T09:32:08.283Z</time>
      </trkpt>
      <trkpt lat="47.32224" lon="4.99269">
        <ele>271.2</ele>
        <time>2024-10-14T09:32:12.538Z</time>
      </trkpt>
      <trkpt lat="47.32223" lon="4.99276">
        <ele>271.4</ele>
        <time>2024-10-14T09:32:16.793Z</time>
      </trkpt>
      <trkpt lat="47.32222" lon="4.99282">
        <ele>271.8</ele>
        <time>2024-10-14T09:32:21.049Z</time>
      </trkpt>
      <trkpt lat="47.32222" lon="4.99289">
        <ele>272</ele>
        <time>2024-10-14T09:32:25.306Z</time>
      </trkpt>
      <trkpt lat="47.32221" lon="4.99296">
        <ele>272.2</ele>
        <time>2024-10-14T09:32:29.564Z</time>
      </trkpt>
      <trkpt lat="47.32221" lon="4.99303">
        <ele>272.6</ele>
        <time>2024-10-14T09:32:33.823Z</time>
      </trkpt>
      <trkpt lat="47.3222" lon="4.9931">
        <ele>272.6</ele>
        <time>2024-10-14T09:32:38.083Z</time>
      </trkpt>
      <trkpt lat="47.32219" lon="4.99316">
        <ele>272.8</ele>
        <time>2024-10-14T09:32:42.344Z</time>
      </trkpt>
      <trkpt lat="47.32219" lon="4.99323">
        <ele>273</ele>
        <time>2024-10-14T09:32:46.605Z</time>
      </trkpt>
      <trkpt lat="47.32217" lon="4.99348">
        <ele>273.2</ele>
        <time>2024-10-14T09:32:50.870Z</time>
      </trkpt>
      <trkpt lat="47.32218" lon="4.99337">
        <ele>273.4</ele>
        <time>2024-10-14T09:32:55.136Z</time>
      </trkpt>
      <trkpt lat="47.32217" lon="4.99344">
        <ele>273.6</ele>
        <time>2024-10-14T09:32:59.403Z</time>
      </trkpt>
      <trkpt lat="47.32217" lon="4.99351">
        <ele>273.6</ele>
        <time>2024-10-14T09:33:03.671Z</time>
      </trkpt>
      <trkpt lat="47.32216" lon="4.99358">
        <ele>273.8</ele>
        <time>2024-10-14T09:33:07.940Z</time>
      </trkpt>
      <trkpt lat="47.32214" lon="4.99365">
        <ele>273.8</ele>
        <time>2024-10-14T09:33:12.209Z</time>
      </trkpt>
      <trkpt lat="47.32213" lon="4.99372">
        <ele>273.8</ele>
        <time>2024-10-14T09:33:16.479Z</time>
      </trkpt>
      <trkpt lat="47.32212" lon="4.9938">
        <ele>274</ele>
        <time>2024-10-14T09:33:20.750Z</time>
      </trkpt>
      <trkpt lat="47.32211" lon="4.99387">
        <ele>274</ele>
        <time>2024-10-14T09:33:25.022Z</time>
      </trkpt>
      <trkpt lat="47.3221" lon="4.99394">
        <ele>274</ele>
        <time>2024-10-14T09:33:29.295Z</time>
      </trkpt>
      <trkpt lat="47.32208" lon="4.99402">
        <ele>274</ele>
        <time>2024-10-14T09:33:33.569Z</time>
      </trkpt>
      <trkpt lat="47.32207" lon="4.9941">
        <ele>274</ele>
        <time>2024-10-14T09:33:37.844Z</time>
      </trkpt>
      <trkpt lat="47.32206" lon="4.99418">
        <ele>274</ele>
        <time>2024-10-14T09:33:42.120Z</time>
      </trkpt>
      <trkpt lat="47.32204" lon="4.99426">
        <ele>274</ele>
        <time>2024-10-14T09:33:46.397Z</time>
      </trkpt>
      <trkpt lat="47.32203" lon="4.99434">
        <ele>273.8</ele>
        <time>2024-10-14T09:33:50.675Z</time>
      </trkpt>
      <trkpt lat="47.32201" lon="4.99442">
        <ele>273.8</ele>
        <time>2024-10-14T09:33:54.954Z</time>
      </trkpt>
      <trkpt lat="47.322" lon="4.99453">
        <ele>273.6</ele>
        <time>2024-10-14T09:33:59.235Z</time>
      </trkpt>
      <trkpt lat="47.32197" lon="4.99462">
        <ele>273.4</ele>
        <time>2024-10-14T09:34:03.517Z</time>
      </trkpt>
      <trkpt lat="47.32195" lon="4.99473">
        <ele>272.6</ele>
        <time>2024-10-14T09:34:07.800Z</time>
      </trkpt>
      <trkpt lat="47.32192" lon="4.99483">
        <ele>269.4</ele>
        <time>2024-10-14T09:34:12.085Z</time>
      </trkpt>
      <trkpt lat="47.32189" lon="4.99493">
        <ele>269.2</ele>
        <time>2024-10-14T09:34:16.371Z</time>
      </trkpt>
      <trkpt lat="47.32185" lon="4.99504">
        <ele>269</ele>
        <time>2024-10-14T09:34:20.659Z</time>
      </trkpt>
      <trkpt lat="47.32182" lon="4.99514">
        <ele>268.6</ele>
        <time>2024-10-14T09:34:24.948Z</time>
      </trkpt>
      <trkpt lat="47.32178" lon="4.99524">
        <ele>268.2</ele>
        <time>2024-10-14T09:34:29.239Z</time>
      </trkpt>
      <trkpt lat="47.32174" lon="4.99534">
        <ele>267.8</ele>
        <time>2024-10-14T09:34:33.531Z</time>
      </trkpt>
      <trkpt lat="47.3217" lon="4.99543">
        <ele>267.8</ele>
        <time>2024-10-14T09:34:37.824Z</time>
      </trkpt>
      <trkpt lat="47.32168" lon="4.9955">
        <ele>267.8</ele>
        <time>2024-10-14T09:34:42.118Z</time>
      </trkpt>
      <trkpt lat="47.32173" lon="4.9956">
        <ele>267.6</ele>
        <time>2024-10-14T09:34:46.414Z</time>
      </trkpt>
      <trkpt lat="47.32177" lon="4.99568">
        <ele>267.4</ele>
        <time>2024-10-14T09:34:50.711Z</time>
      </trkpt>
      <trkpt lat="47.32182" lon="4.99575">
        <ele>267.4</ele>
        <time>2024-10-14T09:34:55.010Z</time>
      </trkpt>
      <trkpt lat="47.32187" lon="4.99583">
        <ele>266.6</ele>
        <time>2024-10-14T09:34:59.310Z</time>
      </trkpt>
      <trkpt lat="47.32192" lon="4.99591">
        <ele>265.6</ele>
        <time>2024-10-14T09:35:03.611Z</time>
      </trkpt>
      <trkpt lat="47.32198" lon="4.99598">
        <ele>264.8</ele>
        <time>2024-10-14T09:35:07.914Z</time>
      </trkpt>
      <trkpt lat="47.32204" lon="4.99607">
        <ele>264.2</ele>
        <time>2024-10-14T09:35:12.218Z</time>
      </trkpt>
      <trkpt lat="47.32209" lon="4.99616">
        <ele>262.8</ele>
        <time>2024-10-14T09:35:16.524Z</time>
      </trkpt>
      <trkpt lat="47.32215" lon="4.99625">
        <ele>261.8</ele>
        <time>2024-10-14T09:35:20.831Z</time>
      </trkpt>
      <trkpt lat="47.3222" lon="4.99634">
        <ele>260.4</ele>
        <time>2024-10-14T09:35:25.140Z</time>
      </trkpt>
      <trkpt lat="47.32226" lon="4.99643">
        <ele>258.8</ele>
        <time>2024-10-14T09:35:29.450Z</time>
      </trkpt>
      <trkpt lat="47.32232" lon="4.99653">
        <ele>258.6</ele>
        <time>2024-10-14T09:35:33.762Z</time>
      </trkpt>
      <trkpt lat="47.32234" lon="4.99657">
        <ele>258.4</ele>
        <time>2024-10-14T09:35:38.075Z</time>
      </trkpt>
      <trkpt lat="47.32239" lon="4.99676">
        <ele>258</ele>
        <time>2024-10-14T09:35:42.390Z</time>
      </trkpt>
      <trkpt lat="47.32246" lon="4.9969">
        <ele>257.8</ele>
        <time>2024-10-14T09:35:46.707Z</time>
      </trkpt>
      <trkpt lat="47.32254" lon="4.99698">
        <ele>257.4</ele>
        <time>2024-10-14T09:35:51.026Z</time>
      </trkpt>
      <trkpt lat="47.3226" lon="4.99706">
        <ele>257.2</ele>
        <time>2024-10-14T09:35:55.347Z</time>
      </trkpt>
      <trkpt lat="47.32262" lon="4.99721">
        <ele>256.4</ele>
        <time>2024-10-14T09:35:59.670Z</time>
      </trkpt>
      <trkpt lat="47.32266" lon="4.99733">
        <ele>255.2</ele>
        <time>2024-10-14T09:36:03.994Z</time>
      </trkpt>
      <trkpt lat="47.32266" lon="4.99734">
        <ele>254.8</ele>
        <time>2024-10-14T09:36:08.318Z</time>
      </trkpt>
      <trkpt lat="47.3228" lon="4.99754">
        <ele>254.6</ele>
        <time>2024-10-14T09:36:12.646Z</time>
      </trkpt>
      <trkpt lat="47.32285" lon="4.99764">
        <ele>254.4</ele>
        <time>2024-10-14T09:36:16.976Z</time>
      </trkpt>
      <trkpt lat="47.32291" lon="4.99774">
        <ele>253.8</ele>
        <time>2024-10-14T09:36:21.307Z</time>
      </trkpt>
      <trkpt lat="47.32296" lon="4.99784">
        <ele>253.4</ele>
        <time>2024-10-14T09:36:25.640Z</time>
      </trkpt>
      <trkpt lat="47.32301" lon="4.99794">
        <ele>253</ele>
        <time>2024-10-14T09:36:29.974Z</time>
      </trkpt>
      <trkpt lat="47.32306" lon="4.99804">
        <ele>253</ele>
        <time>2024-10-14T09:36:34.310Z</time>
      </trkpt>
      <trkpt lat="47.32311" lon="4.99814">
        <ele>252.8</ele>
        <time>2024-10-14T09:36:38.647Z</time>
      </trkpt>
      <trkpt lat="47.32315" lon="4.99824">
        <ele>252.8</ele>
        <time>2024-10-14T09:36:42.986Z</time>
      </trkpt>
      <trkpt lat="47.3232" lon="4.99833">
        <ele>253.2</ele>
        <time>2024-10-14T09:36:47.326Z</time>
      </trkpt>
      <trkpt lat="47.32325" lon="4.99843">
        <ele>253.4</ele>
        <time>2024-10-14T09:36:51.668Z</time>
      </trkpt>
      <trkpt lat="47.3233" lon="4.99852">
        <ele>253.2</ele>
        <time>2024-10-14T09:36:56.011Z</time>
      </trkpt>
      <trkpt lat="47.32334" lon="4.99861">
        <ele>253.2</ele>
        <time>2024-10-14T09:37:00.356Z</time>
      </trkpt>
      <trkpt lat="47.32339" lon="4.9987">
        <ele>252.8</ele>
        <time>2024-10-14T09:37:04.702Z</time>
      </trkpt>
      <trkpt lat="47.32344" lon="4.99879">
        <ele>252.8</ele>
        <time>2024-10-14T09:37:09.050Z</time>
      </trkpt>
      <trkpt lat="47.32349" lon="4.99888">
        <ele>252.2</ele>
        <time>2024-10-14T09:37:13.399Z</time>
      </trkpt>
      <trkpt lat="47.32353" lon="4.99897">
        <ele>251.8</ele>
        <time>2024-10-14T09:37:17.749Z</time>
      </trkpt>
      <trkpt lat="47.32358" lon="4.99906">
        <ele>251.6</ele>
        <time>2024-10-14T09:37:22.101Z</time>
      </trkpt>
      <trkpt lat="47.32363" lon="4.99915">
        <ele>251.6</ele>
        <time>2024-10-14T09:37:26.454Z</time>
      </trkpt>
      <trkpt lat="47.32368" lon="4.99924">
        <ele>251.6</ele>
        <time>2024-10-14T09:37:30.809Z</time>
      </trkpt>
      <trkpt lat="47.32372" lon="4.99933">
        <ele>251.6</ele>
        <time>2024-10-14T09:37:35.165Z</time>
      </trkpt>
      <trkpt lat="47.32377" lon="4.99941">
        <ele>251.8</ele>
        <time>2024-10-14T09:37:39.522Z</time>
      </trkpt>
      <trkpt lat="47.32381" lon="4.9995">
        <ele>252</ele>
        <time>2024-10-14T09:37:43.881Z</time>
      </trkpt>
      <trkpt lat="47.32386" lon="4.99957">
        <ele>252</ele>
        <time>2024-10-14T09:37:48.241Z</time>
      </trkpt>
      <trkpt lat="47.32393" lon="4.99963">
        <ele>252</ele>
        <time>2024-10-14T09:37:52.603Z</time>
      </trkpt>
      <trkpt lat="47.32398" lon="4.99972">
        <ele>252</ele>
        <time>2024-10-14T09:37:56.966Z</time>
      </trkpt>
      <trkpt lat="47.32408" lon="4.99992">
        <ele>252</ele>
        <time>2024-10-14T09:38:01.332Z</time>
      </trkpt>
      <trkpt lat="47.32411" lon="4.99997">
        <ele>252</ele>
        <time>2024-10-14T09:38:05.699Z</time>
      </trkpt>
      <trkpt lat="47.32415" lon="5.00004">
        <ele>252.6</ele>
        <time>2024-10-14T09:38:10.067Z</time>
      </trkpt>
      <trkpt lat="47.32419" lon="5.00011">
        <ele>252.8</ele>
        <time>2024-10-14T09:38:14.436Z</time>
      </trkpt>
      <trkpt lat="47.32423" lon="5.00018">
        <ele>253</ele>
        <time>2024-10-14T09:38:18.806Z</time>
      </trkpt>
      <trkpt lat="47.32427" lon="5.00026">
        <ele>253</ele>
        <time>2024-10-14T09:38:23.178Z</time>
      </trkpt>
      <trkpt lat="47.32432" lon="5.00034">
        <ele>253</ele>
        <time>2024-10-14T09:38:27.551Z</time>
      </trkpt>
      <trkpt lat="47.32436" lon="5.00042">
        <ele>252.8</ele>
        <time>2024-10-14T09:38:31.925Z</time>
      </trkpt>
      <trkpt lat="47.32441" lon="5.00049">
        <ele>252.4</ele>
        <time>2024-10-14T09:38:36.301Z</time>
      </trkpt>
      <trkpt lat="47.32445" lon="5.00057">
        <ele>252.2</ele>
        <time>2024-10-14T09:38:40.678Z</time>
      </trkpt>
      <trkpt lat="47.32449" lon="5.00065">
        <ele>252</ele>
        <time>2024-10-14T09:38:45.056Z</time>
      </trkpt>
      <trkpt lat="47.32453" lon="5.00071">
        <ele>251.8</ele>
        <time>2024-10-14T09:38:49.435Z</time>
      </trkpt>
      <trkpt lat="47.32456" lon="5.00081">
        <ele>251.6</ele>
        <time>2024-10-14T09:38:53.815Z</time>
      </trkpt>
      <trkpt lat="47.3246" lon="5.00088">
        <ele>251.6</ele>
        <time>2024-10-14T09:38:58.197Z</time>
      </trkpt>
      <trkpt lat="47.32464" lon="5.00095">
        <ele>251.6</ele>
        <time>2024-10-14T09:39:02.580Z</time>
      </trkpt>
      <trkpt lat="47.32467" lon="5.00102">
        <ele>251.6</ele>
        <time>2024-10-14T09:39:06.964Z</time>
      </trkpt>
      <trkpt lat="47.32471" lon="5.00109">
        <ele>251.8</ele>
        <time>2024-10-14T09:39:11.349Z</time>
      </trkpt>
      <trkpt lat="47.32474" lon="5.00115">
        <ele>252</ele>
        <time>2024-10-14T09:39:15.735Z</time>
      </trkpt>
      <trkpt lat="47.32477" lon="5.00121">
        <ele>252</ele>
        <time>2024-10-14T09:39:20.122Z</time>
      </trkpt>
      <trkpt lat="47.32481" lon="5.00127">
        <ele>252</ele>
        <time>2024-10-14T09:39:24.510Z</time>
      </trkpt>
      <trkpt lat="47.32474" lon="5.00143">
        <ele>252</ele>
        <time>2024-10-14T09:39:28.900Z</time>
      </trkpt>
      <trkpt lat="47.3247" lon="5.00148">
        <ele>252.2</ele>
        <time>2024-10-14T09:39:33.291Z</time>
      </trkpt>
      <trkpt lat="47.32466" lon="5.00153">
        <ele>252.2</ele>
        <time>2024-10-14T09:39:37.683Z</time>
      </trkpt>
      <trkpt lat="47.32461" lon="5.00159">
        <ele>252.4</ele>
        <time>2024-10-14T09:39:42.076Z</time>
      </trkpt>
      <trkpt lat="47.32457" lon="5.00164">
        <ele>252.4</ele>
        <time>2024-10-14T09:39:46.470Z</time>
      </trkpt>
      <trkpt lat="47.32452" lon="5.00171">
        <ele>252.4</ele>
        <time>2024-10-14T09:39:50.866Z</time>
      </trkpt>
      <trkpt lat="47.32447" lon="5.00177">
        <ele>252.4</ele>
        <time>2024-10-14T09:39:55.263Z</time>
      </trkpt>
      <trkpt lat="47.32442" lon="5.00183">
        <ele>252.2</ele>
        <time>2024-10-14T09:39:59.661Z</time>
      </trkpt>
      <trkpt lat="47.32437" lon="5.00189">
        <ele>252</ele>
        <time>2024-10-14T09:40:04.060Z</time>
      </trkpt>
      <trkpt lat="47.32432" lon="5.00195">
        <ele>252</ele>
        <time>2024-10-14T09:40:08.460Z</time>
      </trkpt>
      <trkpt lat="47.32426" lon="5.00202">
        <ele>252</ele>
        <time>2024-10-14T09:40:12.862Z</time>
      </trkpt>
      <trkpt lat="47.32421" lon="5.00208">
        <ele>252</ele>
        <time>2024-10-14T09:40:17.265Z</time>
      </trkpt>
      <trkpt lat="47.32416" lon="5.00214">
        <ele>252</ele>
        <time>2024-10-14T09:40:21.669Z</time>
      </trkpt>
      <trkpt lat="47.32411" lon="5.00221">
        <ele>252</ele>
        <time>2024-10-14T09:40:26.074Z</time>
      </trkpt>
      <trkpt lat="47.32406" lon="5.00227">
        <ele>252</ele>
        <time>2024-10-14T09:40:30.481Z</time>
      </trkpt>
      <trkpt lat="47.324" lon="5.00234">
        <ele>251.8</ele>
        <time>2024-10-14T09:40:34.889Z</time>
      </trkpt>
      <trkpt lat="47.32395" lon="5.0024">
        <ele>251.8</ele>
        <time>2024-10-14T09:40:39.298Z</time>
      </trkpt>
      <trkpt lat="47.32389" lon="5.00247">
        <ele>251.8</ele>
        <time>2024-10-14T09:40:43.709Z</time>
      </trkpt>
      <trkpt lat="47.32384" lon="5.00254">
        <ele>251.6</ele>
        <time>2024-10-14T09:40:48.121Z</time>
      </trkpt>
      <trkpt lat="47.32379" lon="5.0026">
        <ele>251.6</ele>
        <time>2024-10-14T09:40:52.534Z</time>
      </trkpt>
      <trkpt lat="47.32374" lon="5.00266">
        <ele>251.6</ele>
        <time>2024-10-14T09:40:56.948Z</time>
      </trkpt>
      <trkpt lat="47.32368" lon="5.00273">
        <ele>251.6</ele>
        <time>2024-10-14T09:41:01.364Z</time>
      </trkpt>
      <trkpt lat="47.32363" lon="5.00279">
        <ele>251.6</ele>
        <time>2024-10-14T09:41:05.781Z</time>
      </trkpt>
      <trkpt lat="47.32357" lon="5.00286">
        <ele>251.6</ele>
        <time>2024-10-14T09:41:10.199Z</time>
      </trkpt>
      <trkpt lat="47.32352" lon="5.00293">
        <ele>251.6</ele>
        <time>2024-10-14T09:41:14.619Z</time>
      </trkpt>
      <trkpt lat="47.32347" lon="5.00299">
        <ele>251.6</ele>
        <time>2024-10-14T09:41:19.040Z</time>
      </trkpt>
      <trkpt lat="47.32342" lon="5.00305">
        <ele>251.6</ele>
        <time>2024-10-14T09:41:23.462Z</time>
      </trkpt>
      <trkpt lat="47.32337" lon="5.00311">
        <ele>251.8</ele>
        <time>2024-10-14T09:41:27.885Z</time>
      </trkpt>
      <trkpt lat="47.32333" lon="5.00316">
        <ele>252</ele>
        <time>2024-10-14T09:41:32.309Z</time>
      </trkpt>
      <trkpt lat="47.32329" lon="5.00321">
        <ele>252.4</ele>
        <time>2024-10-14T09:41:36.734Z</time>
      </trkpt>
      <trkpt lat="47.32326" lon="5.00325">
        <ele>253</ele>
        <time>2024-10-14T09:41:41.160Z</time>
      </trkpt>
      <trkpt lat="47.32331" lon="5.00334">
        <ele>253.4</ele>
        <time>2024-10-14T09:41:45.587Z</time>
      </trkpt>
      <trkpt lat="47.32333" lon="5.00339">
        <ele>253.8</ele>
        <time>2024-10-14T09:41:50.015Z</time>
      </trkpt>
      <trkpt lat="47.32335" lon="5.00344">
        <ele>254</ele>
        <time>2024-10-14T09:41:54.444Z</time>
      </trkpt>
      <trkpt lat="47.32337" lon="5.00349">
        <ele>254.2</ele>
        <time>2024-10-14T09:41:58.874Z</time>
      </trkpt>
      <trkpt lat="47.32339" lon="5.00354">
        <ele>254.2</ele>
        <time>2024-10-14T09:42:03.304Z</time>
      </trkpt>
      <trkpt lat="47.32339" lon="5.00354">
        <ele>254.2</ele>
        <time>2024-10-14T09:42:07.734Z</time>
      </trkpt>
      <trkpt lat="47.32335" lon="5.0036">
        <ele>254.2</ele>
        <time>2024-10-14T09:42:12.165Z</time>
      </trkpt>
      <trkpt lat="47.32333" lon="5.00363">
        <ele>254.2</ele>
        <time>2024-10-14T09:42:16.597Z</time>
      </trkpt>
      <trkpt lat="47.3233" lon="5.00367">
        <ele>254</ele>
        <time>2024-10-14T09:42:21.030Z</time>
      </trkpt>
      <trkpt lat="47.32328" lon="5.0037">
        <ele>253.8</ele>
        <time>2024-10-14T09:42:25.463Z</time>
      </trkpt>
      <trkpt lat="47.32327" lon="5.00373">
        <ele>253.8</ele>
        <time>2024-10-14T09:42:29.897Z</time>
      </trkpt>
      <trkpt lat="47.32328" lon="5.00375">
        <ele>253.6</ele>
        <time>2024-10-14T09:42:34.331Z</time>
      </trkpt>
      <trkpt lat="47.32328" lon="5.00374">
        <ele>253.4</ele>
        <time>2024-10-14T09:42:38.765Z</time>
      </trkpt>
      <trkpt lat="47.32337" lon="5.00366">
        <ele>252.8</ele>
        <time>2024-10-14T09:42:43.201Z</time>
      </trkpt>
      <trkpt lat="47.3234" lon="5.00363">
        <ele>252.6</ele>
        <time>2024-10-14T09:42:47.638Z</time>
      </trkpt>
      <trkpt lat="47.32343" lon="5.0036">
        <ele>252.4</ele>
        <time>2024-10-14T09:42:52.075Z</time>
      </trkpt>
      <trkpt lat="47.32329" lon="5.00376">
        <ele>252.2</ele>
        <time>2024-10-14T09:42:56.515Z</time>
      </trkpt>
      <trkpt lat="47.3234" lon="5.00369">
        <ele>252.2</ele>
        <time>2024-10-14T09:43:00.958Z</time>
      </trkpt>
      <trkpt lat="47.32339" lon="5.00373">
        <ele>252</ele>
        <time>2024-10-14T09:43:05.401Z</time>
      </trkpt>
      <trkpt lat="47.32329" lon="5.00376">
        <ele>251.8</ele>
        <time>2024-10-14T09:43:09.846Z</time>
      </trkpt>
      <trkpt lat="47.32352" lon="5.00384">
        <ele>251.6</ele>
        <time>2024-10-14T09:43:14.295Z</time>
      </trkpt>
      <trkpt lat="47.32356" lon="5.00384">
        <ele>251.6</ele>
        <time>2024-10-14T09:43:18.745Z</time>
      </trkpt>
      <trkpt lat="47.3236" lon="5.00383">
        <ele>251.8</ele>
        <time>2024-10-14T09:43:23.196Z</time>
      </trkpt>
      <trkpt lat="47.32364" lon="5.00382">
        <ele>251.8</ele>
        <time>2024-10-14T09:43:27.648Z</time>
      </trkpt>
      <trkpt lat="47.32367" lon="5.00382">
        <ele>252</ele>
        <time>2024-10-14T09:43:32.100Z</time>
      </trkpt>
      <trkpt lat="47.32373" lon="5.00397">
        <ele>252</ele>
        <time>2024-10-14T09:43:36.555Z</time>
      </trkpt>
      <trkpt lat="47.32372" lon="5.00403">
        <ele>252</ele>
        <time>2024-10-14T09:43:41.010Z</time>
      </trkpt>
      <trkpt lat="47.32372" lon="5.0041">
        <ele>252</ele>
        <time>2024-10-14T09:43:45.466Z</time>
      </trkpt>
      <trkpt lat="47.32372" lon="5.00412">
        <ele>252</ele>
        <time>2024-10-14T09:43:49.922Z</time>
      </trkpt>
      <trkpt lat="47.32368" lon="5.00423">
        <ele>252.2</ele>
        <time>2024-10-14T09:43:54.380Z</time>
      </trkpt>
      <trkpt lat="47.32366" lon="5.00429">
        <ele>252.2</ele>
        <time>2024-10-14T09:43:58.839Z</time>
      </trkpt>
      <trkpt lat="47.32363" lon="5.00437">
        <ele>252.2</ele>
        <time>2024-10-14T09:44:03.299Z</time>
      </trkpt>
      <trkpt lat="47.3236" lon="5.00446">
        <ele>252.2</ele>
        <time>2024-10-14T09:44:07.760Z</time>
      </trkpt>
      <trkpt lat="47.32358" lon="5.00454">
        <ele>252.2</ele>
        <time>2024-10-14T09:44:12.222Z</time>
      </trkpt>
      <trkpt lat="47.32355" lon="5.00463">
        <ele>252</ele>
        <time>2024-10-14T09:44:16.685Z</time>
      </trkpt>
      <trkpt lat="47.32353" lon="5.00472">
        <ele>251.8</ele>
        <time>2024-10-14T09:44:21.150Z</time>
      </trkpt>
      <trkpt lat="47.32351" lon="5.00482">
        <ele>251.8</ele>
        <time>2024-10-14T09:44:25.616Z</time>
      </trkpt>
      <trkpt lat="47.32349" lon="5.00491">
        <ele>251.8</ele>
        <time>2024-10-14T09:44:30.083Z</time>
      </trkpt>
      <trkpt lat="47.32347" lon="5.00501">
        <ele>252</ele>
        <time>2024-10-14T09:44:34.551Z</time>
      </trkpt>
      <trkpt lat="47.32346" lon="5.0051">
        <ele>253</ele>
        <time>2024-10-14T09:44:39.021Z</time>
      </trkpt>
      <trkpt lat="47.32345" lon="5.0052">
        <ele>253.2</ele>
        <time>2024-10-14T09:44:43.492Z</time>
      </trkpt>
      <trkpt lat="47.32344" lon="5.0053">
        <ele>253.2</ele>
        <time>2024-10-14T09:44:47.964Z</time>
      </trkpt>
      <trkpt lat="47.32342" lon="5.0054">
        <ele>253.2</ele>
        <time>2024-10-14T09:44:52.437Z</time>
      </trkpt>
      <trkpt lat="47.32341" lon="5.00549">
        <ele>253</ele>
        <time>2024-10-14T09:44:56.912Z</time>
      </trkpt>
      <trkpt lat="47.3234" lon="5.00559">
        <ele>252.8</ele>
        <time>2024-10-14T09:45:01.388Z</time>
      </trkpt>
      <trkpt lat="47.32339" lon="5.00568">
        <ele>252.6</ele>
        <time>2024-10-14T09:45:05.865Z</time>
      </trkpt>
      <trkpt lat="47.32339" lon="5.00577">
        <ele>251.4</ele>
        <time>2024-10-14T09:45:10.343Z</time>
      </trkpt>
      <trkpt lat="47.32339" lon="5.00586">
        <ele>250.8</ele>
        <time>2024-10-14T09:45:14.822Z</time>
      </trkpt>
      <trkpt lat="47.32342" lon="5.00596">
        <ele>250.6</ele>
        <time>2024-10-14T09:45:19.303Z</time>
      </trkpt>
      <trkpt lat="47.32344" lon="5.00603">
        <ele>250.2</ele>
        <time>2024-10-14T09:45:23.785Z</time>
      </trkpt>
      <trkpt lat="47.32355" lon="5.00605">
        <ele>249.8</ele>
        <time>2024-10-14T09:45:28.269Z</time>
      </trkpt>
      <trkpt lat="47.3236" lon="5.00605">
        <ele>249.4</ele>
        <time>2024-10-14T09:45:32.754Z</time>
      </trkpt>
      <trkpt lat="47.32366" lon="5.00606">
        <ele>249</ele>
        <time>2024-10-14T09:45:37.240Z</time>
      </trkpt>
      <trkpt lat="47.32371" lon="5.00606">
        <ele>248.6</ele>
        <time>2024-10-14T09:45:41.727Z</time>
      </trkpt>
      <trkpt lat="47.32384" lon="5.00621">
        <ele>248.4</ele>
        <time>2024-10-14T09:45:46.217Z</time>
      </trkpt>
      <trkpt lat="47.32387" lon="5.00629">
        <ele>248.2</ele>
        <time>2024-10-14T09:45:50.708Z</time>
      </trkpt>
      <trkpt lat="47.32389" lon="5.00637">
        <ele>247.8</ele>
        <time>2024-10-14T09:45:55.200Z</time>
      </trkpt>
      <trkpt lat="47.32391" lon="5.00644">
        <ele>247.8</ele>
        <time>2024-10-14T09:45:59.693Z</time>
      </trkpt>
      <trkpt lat="47.32393" lon="5.00652">
        <ele>247.8</ele>
        <time>2024-10-14T09:46:04.187Z</time>
      </trkpt>
      <trkpt lat="47.32396" lon="5.0066">
        <ele>247.8</ele>
        <time>2024-10-14T09:46:08.682Z</time>
      </trkpt>
      <trkpt lat="47.32398" lon="5.00668">
        <ele>248</ele>
        <time>2024-10-14T09:46:13.178Z</time>
      </trkpt>
      <trkpt lat="47.32401" lon="5.00677">
        <ele>248.2</ele>
        <time>2024-10-14T09:46:17.675Z</time>
      </trkpt>
      <trkpt lat="47.32403" lon="5.00685">
        <ele>248.4</ele>
        <time>2024-10-14T09:46:22.173Z</time>
      </trkpt>
      <trkpt lat="47.32406" lon="5.00693">
        <ele>248.6</ele>
        <time>2024-10-14T09:46:26.673Z</time>
      </trkpt>
      <trkpt lat="47.32408" lon="5.00701">
        <ele>248.8</ele>
        <time>2024-10-14T09:46:31.174Z</time>
      </trkpt>
      <trkpt lat="47.3241" lon="5.00709">
        <ele>248.8</ele>
        <time>2024-10-14T09:46:35.676Z</time>
      </trkpt>
      <trkpt lat="47.32413" lon="5.00717">
        <ele>249</ele>
        <time>2024-10-14T09:46:40.179Z</time>
      </trkpt>
      <trkpt lat="47.32415" lon="5.00726">
        <ele>249</ele>
        <time>2024-10-14T09:46:44.683Z</time>
      </trkpt>
      <trkpt lat="47.32417" lon="5.00733">
        <ele>249.2</ele>
        <time>2024-10-14T09:46:49.188Z</time>
      </trkpt>
      <trkpt lat="47.32419" lon="5.00741">
        <ele>249.2</ele>
        <time>2024-10-14T09:46:53.694Z</time>
      </trkpt>
      <trkpt lat="47.32421" lon="5.00748">
        <ele>249.2</ele>
        <time>2024-10-14T09:46:58.201Z</time>
      </trkpt>
      <trkpt lat="47.32422" lon="5.00756">
        <ele>249.4</ele>
        <time>2024-10-14T09:47:02.709Z</time>
      </trkpt>
      <trkpt lat="47.32423" lon="5.00764">
        <ele>249.4</ele>
        <time>2024-10-14T09:47:07.218Z</time>
      </trkpt>
      <trkpt lat="47.32417" lon="5.00771">
        <ele>249.4</ele>
        <time>2024-10-14T09:47:11.728Z</time>
      </trkpt>
      <trkpt lat="47.32411" lon="5.00773">
        <ele>249.4</ele>
        <time>2024-10-14T09:47:16.239Z</time>
      </trkpt>
      <trkpt lat="47.32404" lon="5.00775">
        <ele>249.4</ele>
        <time>2024-10-14T09:47:20.752Z</time>
      </trkpt>
      <trkpt lat="47.32397" lon="5.00778">
        <ele>249.2</ele>
        <time>2024-10-14T09:47:25.266Z</time>
      </trkpt>
      <trkpt lat="47.32389" lon="5.0078">
        <ele>248.8</ele>
        <time>2024-10-14T09:47:29.782Z</time>
      </trkpt>
      <trkpt lat="47.32381" lon="5.00783">
        <ele>246.6</ele>
        <time>2024-10-14T09:47:34.299Z</time>
      </trkpt>
      <trkpt lat="47.32372" lon="5.00786">
        <ele>245.6</ele>
        <time>2024-10-14T09:47:38.818Z</time>
      </trkpt>
      <trkpt lat="47.32363" lon="5.00786">
        <ele>244.8</ele>
        <time>2024-10-14T09:47:43.338Z</time>
      </trkpt>
      <trkpt lat="47.32354" lon="5.00784">
        <ele>244.2</ele>
        <time>2024-10-14T09:47:47.860Z</time>
      </trkpt>
      <trkpt lat="47.32346" lon="5.00782">
        <ele>244.2</ele>
        <time>2024-10-14T09:47:52.384Z</time>
      </trkpt>
      <trkpt lat="47.32337" lon="5.0078">
        <ele>243.8</ele>
        <time>2024-10-14T09:47:56.909Z</time>
      </trkpt>
      <trkpt lat="47.32328" lon="5.00779">
        <ele>243.6</ele>
        <time>2024-10-14T09:48:01.436Z</time>
      </trkpt>
      <trkpt lat="47.3232" lon="5.00779">
        <ele>243.2</ele>
        <time>2024-10-14T09:48:05.965Z</time>
      </trkpt>
      <trkpt lat="47.32311" lon="5.00782">
        <ele>243.4</ele>
        <time>2024-10-14T09:48:10.495Z</time>
      </trkpt>
      <trkpt lat="47.32303" lon="5.00784">
        <ele>243.6</ele>
        <time>2024-10-14T09:48:15.027Z</time>
      </trkpt>
      <trkpt lat="47.32295" lon="5.00787">
        <ele>243.6</ele>
        <time>2024-10-14T09:48:19.560Z</time>
      </trkpt>
      <trkpt lat="47.32288" lon="5.0079">
        <ele>243.6</ele>
        <time>2024-10-14T09:48:24.095Z</time>
      </trkpt>
      <trkpt lat="47.3228" lon="5.00793">
        <ele>243.6</ele>
        <time>2024-10-14T09:48:28.631Z</time>
      </trkpt>
      <trkpt lat="47.32273" lon="5.00796">
        <ele>243.6</ele>
        <time>2024-10-14T09:48:33.168Z</time>
      </trkpt>
      <trkpt lat="47.32266" lon="5.00799">
        <ele>243.8</ele>
        <time>2024-10-14T09:48:37.707Z</time>
      </trkpt>
      <trkpt lat="47.32259" lon="5.00803">
        <ele>243.8</ele>
        <time>2024-10-14T09:48:42.247Z</time>
      </trkpt>
      <trkpt lat="47.32252" lon="5.00808">
        <ele>243.8</ele>
        <time>2024-10-14T09:48:46.789Z</time>
      </trkpt>
      <trkpt lat="47.32245" lon="5.00815">
        <ele>243.8</ele>
        <time>2024-10-14T09:48:51.332Z</time>
      </trkpt>
      <trkpt lat="47.32239" lon="5.00824">
        <ele>243.6</ele>
        <time>2024-10-14T09:48:55.877Z</time>
      </trkpt>
      <trkpt lat="47.32234" lon="5.00831">
        <ele>243.6</ele>
        <time>2024-10-14T09:49:00.423Z</time>
      </trkpt>
      <trkpt lat="47.32228" lon="5.00838">
        <ele>243.6</ele>
        <time>2024-10-14T09:49:04.970Z</time>
      </trkpt>
      <trkpt lat="47.32222" lon="5.00846">
        <ele>243.4</ele>
        <time>2024-10-14T09:49:09.519Z</time>
      </trkpt>
      <trkpt lat="47.32216" lon="5.00853">
        <ele>243.4</ele>
        <time>2024-10-14T09:49:14.069Z</time>
      </trkpt>
      <trkpt lat="47.3221" lon="5.00861">
        <ele>243.2</ele>
        <time>2024-10-14T09:49:18.621Z</time>
      </trkpt>
      <trkpt lat="47.32204" lon="5.00868">
        <ele>243.4</ele>
        <time>2024-10-14T09:49:23.174Z</time>
      </trkpt>
      <trkpt lat="47.32199" lon="5.00875">
        <ele>243.4</ele>
        <time>2024-10-14T09:49:27.729Z</time>
      </trkpt>
      <trkpt lat="47.32193" lon="5.00882">
        <ele>243.4</ele>
        <time>2024-10-14T09:49:32.285Z</time>
      </trkpt>
      <trkpt lat="47.32188" lon="5.00891">
        <ele>243.4</ele>
        <time>2024-10-14T09:49:36.842Z</time>
      </trkpt>
      <trkpt lat="47.32184" lon="5.00901">
        <ele>243.4</ele>
        <time>2024-10-14T09:49:41.401Z</time>
      </trkpt>
      <trkpt lat="47.3218" lon="5.00911">
        <ele>243.6</ele>
        <time>2024-10-14T09:49:45.961Z</time>
      </trkpt>
      <trkpt lat="47.32177" lon="5.0092">
        <ele>243.6</ele>
        <time>2024-10-14T09:49:50.523Z</time>
      </trkpt>
      <trkpt lat="47.32173" lon="5.00929">
        <ele>243.6</ele>
        <time>2024-10-14T09:49:55.086Z</time>
      </trkpt>
      <trkpt lat="47.32171" lon="5.00939">
        <ele>243.6</ele>
        <time>2024-10-14T09:49:59.650Z</time>
      </trkpt>
      <trkpt lat="47.3217" lon="5.00949">
        <ele>243.4</ele>
        <time>2024-10-14T09:50:04.215Z</time>
      </trkpt>
      <trkpt lat="47.3217" lon="5.00959">
        <ele>243.4</ele>
        <time>2024-10-14T09:50:08.782Z</time>
      </trkpt>
      <trkpt lat="47.3217" lon="5.00962">
        <ele>243.4</ele>
        <time>2024-10-14T09:50:13.349Z</time>
      </trkpt>
      <trkpt lat="47.32172" lon="5.00976">
        <ele>243.2</ele>
        <time>2024-10-14T09:50:17.918Z</time>
      </trkpt>
      <trkpt lat="47.32172" lon="5.00979">
        <ele>243</ele>
        <time>2024-10-14T09:50:22.487Z</time>
      </trkpt>
      <trkpt lat="47.32163" lon="5.01001">
        <ele>243</ele>
        <time>2024-10-14T09:50:27.059Z</time>
      </trkpt>
      <trkpt lat="47.32161" lon="5.01011">
        <ele>243</ele>
        <time>2024-10-14T09:50:31.633Z</time>
      </trkpt>
      <trkpt lat="47.32161" lon="5.01011">
        <ele>243.2</ele>
        <time>2024-10-14T09:50:36.207Z</time>
      </trkpt>
      <trkpt lat="47.3215" lon="5.01027">
        <ele>243.2</ele>
        <time>2024-10-14T09:50:40.784Z</time>
      </trkpt>
      <trkpt lat="47.32147" lon="5.01035">
        <ele>243.2</ele>
        <time>2024-10-14T09:50:45.362Z</time>
      </trkpt>
      <trkpt lat="47.32143" lon="5.01046">
        <ele>243.2</ele>
        <time>2024-10-14T09:50:49.941Z</time>
      </trkpt>
      <trkpt lat="47.32139" lon="5.01057">
        <ele>243.4</ele>
        <time>2024-10-14T09:50:54.522Z</time>
      </trkpt>
      <trkpt lat="47.32135" lon="5.01065">
        <ele>243.4</ele>
        <time>2024-10-14T09:50:59.104Z</time>
      </trkpt>
      <trkpt lat="47.32131" lon="5.01072">
        <ele>243.6</ele>
        <time>2024-10-14T09:51:03.687Z</time>
      </trkpt>
      <trkpt lat="47.32127" lon="5.01079">
        <ele>243.6</ele>
        <time>2024-10-14T09:51:08.272Z</time>
      </trkpt>
      <trkpt lat="47.32121" lon="5.01087">
        <ele>244.4</ele>
        <time>2024-10-14T09:51:12.858Z</time>
      </trkpt>
      <trkpt lat="47.32116" lon="5.01091">
        <ele>245</ele>
        <time>2024-10-14T09:51:17.445Z</time>
      </trkpt>
      <trkpt lat="47.3211" lon="5.01097">
        <ele>245</ele>
        <time>2024-10-14T09:51:22.033Z</time>
      </trkpt>
      <trkpt lat="47.32105" lon="5.01103">
        <ele>245</ele>
        <time>2024-10-14T09:51:26.623Z</time>
      </trkpt>
      <trkpt lat="47.32099" lon="5.01109">
        <ele>245</ele>
        <time>2024-10-14T09:51:31.214Z</time>
      </trkpt>
      <trkpt lat="47.32093" lon="5.01115">
        <ele>245</ele>
        <time>2024-10-14T09:51:35.806Z</time>
      </trkpt>
      <trkpt lat="47.32087" lon="5.01121">
        <ele>245</ele>
        <time>2024-10-14T09:51:40.400Z</time>
      </trkpt>
      <trkpt lat="47.32081" lon="5.01129">
        <ele>244.6</ele>
        <time>2024-10-14T09:51:44.995Z</time>
      </trkpt>
      <trkpt lat="47.32076" lon="5.01136">
        <ele>244.6</ele>
        <time>2024-10-14T09:51:49.591Z</time>
      </trkpt>
      <trkpt lat="47.3207" lon="5.01143">
        <ele>244.6</ele>
        <time>2024-10-14T09:51:54.189Z</time>
      </trkpt>
      <trkpt lat="47.32065" lon="5.0115">
        <ele>244.4</ele>
        <time>2024-10-14T09:51:58.788Z</time>
      </trkpt>
      <trkpt lat="47.32059" lon="5.01158">
        <ele>244.4</ele>
        <time>2024-10-14T09:52:03.388Z</time>
      </trkpt>
      <trkpt lat="47.32052" lon="5.01163">
        <ele>244.4</ele>
        <time>2024-10-14T09:52:07.990Z</time>
      </trkpt>
      <trkpt lat="47.32045" lon="5.01168">
        <ele>244.4</ele>
        <time>2024-10-14T09:52:12.593Z</time>
      </trkpt>
      <trkpt lat="47.32038" lon="5.0117">
        <ele>244.6</ele>
        <time>2024-10-14T09:52:17.198Z</time>
      </trkpt>
      <trkpt lat="47.32031" lon="5.01172">
        <ele>246.4</ele>
        <time>2024-10-14T09:52:21.804Z</time>
      </trkpt>
      <trkpt lat="47.32024" lon="5.01173">
        <ele>246.6</ele>
        <time>2024-10-14T09:52:26.411Z</time>
      </trkpt>
      <trkpt lat="47.32017" lon="5.01173">
        <ele>246.8</ele>
        <time>2024-10-14T09:52:31.020Z</time>
      </trkpt>
      <trkpt lat="47.32009" lon="5.01174">
        <ele>246.8</ele>
        <time>2024-10-14T09:52:35.630Z</time>
      </trkpt>
      <trkpt lat="47.32001" lon="5.01175">
        <ele>246.8</ele>
        <time>2024-10-14T09:52:40.242Z</time>
      </trkpt>
      <trkpt lat="47.31994" lon="5.01175">
        <ele>247</ele>
        <time>2024-10-14T09:52:44.855Z</time>
      </trkpt>
      <trkpt lat="47.31986" lon="5.01176">
        <ele>247</ele>
        <time>2024-10-14T09:52:49.469Z</time>
      </trkpt>
      <trkpt lat="47.31978" lon="5.01177">
        <ele>247</ele>
        <time>2024-10-14T09:52:54.085Z</time>
      </trkpt>
      <trkpt lat="47.31971" lon="5.01178">
        <ele>247</ele>
        <time>2024-10-14T09:52:58.702Z</time>
      </trkpt>
      <trkpt lat="47.31963" lon="5.01178">
        <ele>247</ele>
        <time>2024-10-14T09:53:03.321Z</time>
      </trkpt>
      <trkpt lat="47.31956" lon="5.01181">
        <ele>247</ele>
        <time>2024-10-14T09:53:07.941Z</time>
      </trkpt>
      <trkpt lat="47.31948" lon="5.01183">
        <ele>247</ele>
        <time>2024-10-14T09:53:12.562Z</time>
      </trkpt>
      <trkpt lat="47.31941" lon="5.01185">
        <ele>247</ele>
        <time>2024-10-14T09:53:17.185Z</time>
      </trkpt>
      <trkpt lat="47.31934" lon="5.01188">
        <ele>247</ele>
        <time>2024-10-14T09:53:21.809Z</time>
      </trkpt>
      <trkpt lat="47.31927" lon="5.0119">
        <ele>247</ele>
        <time>2024-10-14T09:53:26.434Z</time>
      </trkpt>
      <trkpt lat="47.3192" lon="5.01193">
        <ele>246.8</ele>
        <time>2024-10-14T09:53:31.061Z</time>
      </trkpt>
      <trkpt lat="47.31913" lon="5.01196">
        <ele>246.8</ele>
        <time>2024-10-14T09:53:35.689Z</time>
      </trkpt>
      <trkpt lat="47.31905" lon="5.01201">
        <ele>246.8</ele>
        <time>2024-10-14T09:53:40.319Z</time>
      </trkpt>
      <trkpt lat="47.319" lon="5.01207">
        <ele>246.8</ele>
        <time>2024-10-14T09:53:44.950Z</time>
      </trkpt>
      <trkpt lat="47.31894" lon="5.01214">
        <ele>246.8</ele>
        <time>2024-10-14T09:53:49.582Z</time>
      </trkpt>
      <trkpt lat="47.31888" lon="5.01221">
        <ele>246.8</ele>
        <time>2024-10-14T09:53:54.216Z</time>
      </trkpt>
      <trkpt lat="47.31883" lon="5.01228">
        <ele>246.8</ele>
        <time>2024-10-14T09:53:58.851Z</time>
      </trkpt>
      <trkpt lat="47.31877" lon="5.01235">
        <ele>246.8</ele>
        <time>2024-10-14T09:54:03.487Z</time>
      </trkpt>
      <trkpt lat="47.31871" lon="5.01241">
        <ele>246.8</ele>
        <time>2024-10-14T09:54:08.125Z</time>
      </trkpt>
      <trkpt lat="47.31866" lon="5.01248">
        <ele>246.6</ele>
        <time>2024-10-14T09:54:12.764Z</time>
      </trkpt>
      <trkpt lat="47.3186" lon="5.01254">
        <ele>246.6</ele>
        <time>2024-10-14T09:54:17.404Z</time>
      </trkpt>
      <trkpt lat="47.31855" lon="5.01261">
        <ele>246.6</ele>
        <time>2024-10-14T09:54:22.046Z</time>
      </trkpt>
      <trkpt lat="47.31849" lon="5.01267">
        <ele>246.6</ele>
        <time>2024-10-14T09:54:26.689Z</time>
      </trkpt>
      <trkpt lat="47.31844" lon="5.01274">
        <ele>246.8</ele>
        <time>2024-10-14T09:54:31.333Z</time>
      </trkpt>
      <trkpt lat="47.31839" lon="5.01282">
        <ele>246.8</ele>
        <time>2024-10-14T09:54:35.979Z</time>
      </trkpt>
      <trkpt lat="47.31836" lon="5.0129">
        <ele>246.8</ele>
        <time>2024-10-14T09:54:40.626Z</time>
      </trkpt>
      <trkpt lat="47.31833" lon="5.013">
        <ele>247</ele>
        <time>2024-10-14T09:54:45.274Z</time>
      </trkpt>
      <trkpt lat="47.3183" lon="5.01309">
        <ele>247</ele>
        <time>2024-10-14T09:54:49.923Z</time>
      </trkpt>
      <trkpt lat="47.31828" lon="5.01319">
        <ele>246.8</ele>
        <time>2024-10-14T09:54:54.574Z</time>
      </trkpt>
      <trkpt lat="47.31828" lon="5.01329">
        <ele>246.6</ele>
        <time>2024-10-14T09:54:59.226Z</time>
      </trkpt>
      <trkpt lat="47.31827" lon="5.01339">
        <ele>246.4</ele>
        <time>2024-10-14T09:55:03.879Z</time>
      </trkpt>
      <trkpt lat="47.31827" lon="5.01349">
        <ele>246.4</ele>
        <time>2024-10-14T09:55:08.533Z</time>
      </trkpt>
      <trkpt lat="47.31827" lon="5.01359">
        <ele>246.4</ele>
        <time>2024-10-14T09:55:13.189Z</time>
      </trkpt>
      <trkpt lat="47.31827" lon="5.01369">
        <ele>246.4</ele>
        <time>2024-10-14T09:55:17.846Z</time>
      </trkpt>
      <trkpt lat="47.31827" lon="5.01379">
        <ele>246.2</ele>
        <time>2024-10-14T09:55:22.504Z</time>
      </trkpt>
      <trkpt lat="47.31828" lon="5.0139">
        <ele>246.2</ele>
        <time>2024-10-14T09:55:27.164Z</time>
      </trkpt>
      <trkpt lat="47.31828" lon="5.014">
        <ele>246.2</ele>
        <time>2024-10-14T09:55:31.825Z</time>
      </trkpt>
      <trkpt lat="47.31829" lon="5.0141">
        <ele>246.2</ele>
        <time>2024-10-14T09:55:36.487Z</time>
      </trkpt>
      <trkpt lat="47.31829" lon="5.0142">
        <ele>246</ele>
        <time>2024-10-14T09:55:41.150Z</time>
      </trkpt>
      <trkpt lat="47.31829" lon="5.0143">
        <ele>246</ele>
        <time>2024-10-14T09:55:45.815Z</time>
      </trkpt>
      <trkpt lat="47.31829" lon="5.01441">
        <ele>246</ele>
        <time>2024-10-14T09:55:50.481Z</time>
      </trkpt>
      <trkpt lat="47.31829" lon="5.01452">
        <ele>246</ele>
        <time>2024-10-14T09:55:55.148Z</time>
      </trkpt>
      <trkpt lat="47.31829" lon="5.01462">
        <ele>246</ele>
        <time>2024-10-14T09:55:59.817Z</time>
      </trkpt>
      <trkpt lat="47.31829" lon="5.01473">
        <ele>246</ele>
        <time>2024-10-14T09:56:04.487Z</time>
      </trkpt>
      <trkpt lat="47.3183" lon="5.01485">
        <ele>246</ele>
        <time>2024-10-14T09:56:09.159Z</time>
      </trkpt>
      <trkpt lat="47.3183" lon="5.01495">
        <ele>246</ele>
        <time>2024-10-14T09:56:13.832Z</time>
      </trkpt>
      <trkpt lat="47.3183" lon="5.01507">
        <ele>245.8</ele>
        <time>2024-10-14T09:56:18.506Z</time>
      </trkpt>
      <trkpt lat="47.3183" lon="5.01517">
        <ele>246</ele>
        <time>2024-10-14T09:56:23.182Z</time>
      </trkpt>
      <trkpt lat="47.31831" lon="5.01528">
        <ele>245.8</ele>
        <time>2024-10-14T09:56:27.859Z</time>
      </trkpt>
      <trkpt lat="47.31831" lon="5.01539">
        <ele>245.8</ele>
        <time>2024-10-14T09:56:32.537Z</time>
      </trkpt>
      <trkpt lat="47.31833" lon="5.01549">
        <ele>245.6</ele>
        <time>2024-10-14T09:56:37.217Z</time>
      </trkpt>
      <trkpt lat="47.31835" lon="5.01559">
        <ele>245.6</ele>
        <time>2024-10-14T09:56:41.898Z</time>
      </trkpt>
      <trkpt lat="47.31837" lon="5.0157">
        <ele>245.6</ele>
        <time>2024-10-14T09:56:46.580Z</time>
      </trkpt>
      <trkpt lat="47.31839" lon="5.0158">
        <ele>245.6</ele>
        <time>2024-10-14T09:56:51.264Z</time>
      </trkpt>
      <trkpt lat="47.31841" lon="5.01589">
        <ele>245.6</ele>
        <time>2024-10-14T09:56:55.949Z</time>
      </trkpt>
      <trkpt lat="47.31844" lon="5.01599">
        <ele>245.8</ele>
        <time>2024-10-14T09:57:00.635Z</time>
      </trkpt>
      <trkpt lat="47.31846" lon="5.01608">
        <ele>246</ele>
        <time>2024-10-14T09:57:05.322Z</time>
      </trkpt>
      <trkpt lat="47.31848" lon="5.01616">
        <ele>246.2</ele>
        <time>2024-10-14T09:57:10.011Z</time>
      </trkpt>
      <trkpt lat="47.3185" lon="5.01625">
        <ele>246.6</ele>
        <time>2024-10-14T09:57:14.701Z</time>
      </trkpt>
      <trkpt lat="47.31851" lon="5.01633">
        <ele>246.6</ele>
        <time>2024-10-14T09:57:19.392Z</time>
      </trkpt>
      <trkpt lat="47.31852" lon="5.01642">
        <ele>246.8</ele>
        <time>2024-10-14T09:57:24.084Z</time>
      </trkpt>
      <trkpt lat="47.31852" lon="5.01646">
        <ele>246.8</ele>
        <time>2024-10-14T09:57:28.776Z</time>
      </trkpt>
      <trkpt lat="47.31849" lon="5.01672">
        <ele>247.4</ele>
        <time>2024-10-14T09:57:33.472Z</time>
      </trkpt>
      <trkpt lat="47.31848" lon="5.01682">
        <ele>247.4</ele>
        <time>2024-10-14T09:57:38.169Z</time>
      </trkpt>
      <trkpt lat="47.31847" lon="5.01691">
        <ele>247.4</ele>
        <time>2024-10-14T09:57:42.867Z</time>
      </trkpt>
      <trkpt lat="47.31847" lon="5.01701">
        <ele>247.4</ele>
        <time>2024-10-14T09:57:47.566Z</time>
      </trkpt>
      <trkpt lat="47.31846" lon="5.01711">
        <ele>247.4</ele>
        <time>2024-10-14T09:57:52.267Z</time>
      </trkpt>
      <trkpt lat="47.31848" lon="5.01723">
        <ele>247.2</ele>
        <time>2024-10-14T09:57:56.969Z</time>
      </trkpt>
      <trkpt lat="47.3185" lon="5.01733">
        <ele>246.8</ele>
        <time>2024-10-14T09:58:01.673Z</time>
      </trkpt>
      <trkpt lat="47.31852" lon="5.01745">
        <ele>246.6</ele>
        <time>2024-10-14T09:58:06.378Z</time>
      </trkpt>
      <trkpt lat="47.31852" lon="5.01745">
        <ele>246</ele>
        <time>2024-10-14T09:58:11.083Z</time>
      </trkpt>
      <trkpt lat="47.31857" lon="5.01767">
        <ele>245.8</ele>
        <time>2024-10-14T09:58:15.791Z</time>
      </trkpt>
      <trkpt lat="47.31859" lon="5.01777">
        <ele>245.8</ele>
        <time>2024-10-14T09:58:20.500Z</time>
      </trkpt>
      <trkpt lat="47.31861" lon="5.01787">
        <ele>245.6</ele>
        <time>2024-10-14T09:58:25.211Z</time>
      </trkpt>
      <trkpt lat="47.31864" lon="5.01796">
        <ele>245.6</ele>
        <time>2024-10-14T09:58:29.923Z</time>
      </trkpt>
      <trkpt lat="47.31867" lon="5.01805">
        <ele>245.6</ele>
        <time>2024-10-14T09:58:34.636Z</time>
      </trkpt>
      <trkpt lat="47.3187" lon="5.01814">
        <ele>245.6</ele>
        <time>2024-10-14T09:58:39.350Z</time>
      </trkpt>
      <trkpt lat="47.31873" lon="5.01823">
        <ele>245.4</ele>
        <time>2024-10-14T09:58:44.066Z</time>
      </trkpt>
      <trkpt lat="47.31877" lon="5.01832">
        <ele>245.4</ele>
        <time>2024-10-14T09:58:48.783Z</time>
      </trkpt>
      <trkpt lat="47.3188" lon="5.0184">
        <ele>245.4</ele>
        <time>2024-10-14T09:58:53.501Z</time>
      </trkpt>
      <trkpt lat="47.31883" lon="5.01849">
        <ele>245.4</ele>
        <time>2024-10-14T09:58:58.220Z</time>
      </trkpt>
      <trkpt lat="47.31887" lon="5.01858">
        <ele>245.4</ele>
        <time>2024-10-14T09:59:02.941Z</time>
      </trkpt>
      <trkpt lat="47.3189" lon="5.01866">
        <ele>245.4</ele>
        <time>2024-10-14T09:59:07.663Z</time>
      </trkpt>
      <trkpt lat="47.31894" lon="5.01875">
        <ele>245.2</ele>
        <time>2024-10-14T09:59:12.386Z</time>
      </trkpt>
      <trkpt lat="47.31897" lon="5.01884">
        <ele>245.2</ele>
        <time>2024-10-14T09:59:17.110Z</time>
      </trkpt>
      <trkpt lat="47.319" lon="5.01892">
        <ele>245.4</ele>
        <time>2024-10-14T09:59:21.836Z</time>
      </trkpt>
      <trkpt lat="47.31904" lon="5.01901">
        <ele>245.4</ele>
        <time>2024-10-14T09:59:26.563Z</time>
      </trkpt>
      <trkpt lat="47.31907" lon="5.0191">
        <ele>245.4</ele>
        <time>2024-10-14T09:59:31.291Z</time>
      </trkpt>
      <trkpt lat="47.31911" lon="5.01918">
        <ele>245.4</ele>
        <time>2024-10-14T09:59:36.020Z</time>
      </trkpt>
      <trkpt lat="47.31914" lon="5.01926">
        <ele>245.4</ele>
        <time>2024-10-14T09:59:40.751Z</time>
      </trkpt>
      <trkpt lat="47.31916" lon="5.01934">
        <ele>245.6</ele>
        <time>2024-10-14T09:59:45.483Z</time>
      </trkpt>
      <trkpt lat="47.31919" lon="5.01943">
        <ele>245.6</ele>
        <time>2024-10-14T09:59:50.216Z</time>
      </trkpt>
      <trkpt lat="47.31922" lon="5.01951">
        <ele>245.6</ele>
        <time>2024-10-14T09:59:54.950Z</time>
      </trkpt>
      <trkpt lat="47.31924" lon="5.0196">
        <ele>245.4</ele>
        <time>2024-10-14T09:59:59.685Z</time>
      </trkpt>
      <trkpt lat="47.31925" lon="5.01972">
        <ele>245.4</ele>
        <time>2024-10-14T10:00:04.422Z</time>
      </trkpt>
      <trkpt lat="47.31924" lon="5.01981">
        <ele>245.2</ele>
        <time>2024-10-14T10:00:09.160Z</time>
      </trkpt>
      <trkpt lat="47.31923" lon="5.01989">
        <ele>245.2</ele>
        <time>2024-10-14T10:00:13.899Z</time>
      </trkpt>
      <trkpt lat="47.31922" lon="5.01999">
        <ele>245</ele>
        <time>2024-10-14T10:00:18.639Z</time>
      </trkpt>
      <trkpt lat="47.31922" lon="5.02009">
        <ele>245</ele>
        <time>2024-10-14T10:00:23.380Z</time>
      </trkpt>
      <trkpt lat="47.31921" lon="5.02019">
        <ele>244.8</ele>
        <time>2024-10-14T10:00:28.123Z</time>
      </trkpt>
      <trkpt lat="47.3192" lon="5.02029">
        <ele>244.6</ele>
        <time>2024-10-14T10:00:32.867Z</time>
      </trkpt>
      <trkpt lat="47.31919" lon="5.02038">
        <ele>244.6</ele>
        <time>2024-10-14T10:00:37.612Z</time>
      </trkpt>
      <trkpt lat="47.31918" lon="5.02048">
        <ele>244.4</ele>
        <time>2024-10-14T10:00:42.358Z</time>
      </trkpt>
      <trkpt lat="47.31918" lon="5.02058">
        <ele>244.4</ele>
        <time>2024-10-14T10:00:47.106Z</time>
      </trkpt>
      <trkpt lat="47.31917" lon="5.02069">
        <ele>244.2</ele>
        <time>2024-10-14T10:00:51.855Z</time>
      </trkpt>
      <trkpt lat="47.31916" lon="5.02078">
        <ele>244.2</ele>
        <time>2024-10-14T10:00:56.605Z</time>
      </trkpt>
      <trkpt lat="47.31915" lon="5.02088">
        <ele>244.2</ele>
        <time>2024-10-14T10:01:01.356Z</time>
      </trkpt>
      <trkpt lat="47.31914" lon="5.02098">
        <ele>244.2</ele>
        <time>2024-10-14T10:01:06.109Z</time>
      </trkpt>
      <trkpt lat="47.31913" lon="5.02107">
        <ele>244.2</ele>
        <time>2024-10-14T10:01:10.863Z</time>
      </trkpt>
      <trkpt lat="47.31912" lon="5.02116">
        <ele>244.2</ele>
        <time>2024-10-14T10:01:15.618Z</time>
      </trkpt>
      <trkpt lat="47.3191" lon="5.02125">
        <ele>244</ele>
        <time>2024-10-14T10:01:20.374Z</time>
      </trkpt>
      <trkpt lat="47.31909" lon="5.02134">
        <ele>244</ele>
        <time>2024-10-14T10:01:25.131Z</time>
      </trkpt>
      <trkpt lat="47.31907" lon="5.02143">
        <ele>243.8</ele>
        <time>2024-10-14T10:01:29.890Z</time>
      </trkpt>
      <trkpt lat="47.31906" lon="5.0215">
        <ele>243.8</ele>
        <time>2024-10-14T10:01:34.649Z</time>
      </trkpt>
      <trkpt lat="47.3191" lon="5.02178">
        <ele>243.8</ele>
        <time>2024-10-14T10:01:39.412Z</time>
      </trkpt>
      <trkpt lat="47.3191" lon="5.02188">
        <ele>243.8</ele>
        <time>2024-10-14T10:01:44.176Z</time>
      </trkpt>
      <trkpt lat="47.31909" lon="5.02195">
        <ele>243.8</ele>
        <time>2024-10-14T10:01:48.941Z</time>
      </trkpt>
      <trkpt lat="47.31909" lon="5.02203">
        <ele>244</ele>
        <time>2024-10-14T10:01:53.707Z</time>
      </trkpt>
      <trkpt lat="47.31908" lon="5.02211">
        <ele>244.2</ele>
        <time>2024-10-14T10:01:58.474Z</time>
      </trkpt>
      <trkpt lat="47.31907" lon="5.02216">
        <ele>244.4</ele>
        <time>2024-10-14T10:02:03.242Z</time>
      </trkpt>
      <trkpt lat="47.31906" lon="5.02221">
        <ele>244.2</ele>
        <time>2024-10-14T10:02:08.010Z</time>
      </trkpt>
      <trkpt lat="47.31906" lon="5.02225">
        <ele>244</ele>
        <time>2024-10-14T10:02:12.779Z</time>
      </trkpt>
      <trkpt lat="47.31914" lon="5.02227">
        <ele>244</ele>
        <time>2024-10-14T10:02:17.549Z</time>
      </trkpt>
      <trkpt lat="47.31918" lon="5.02228">
        <ele>244</ele>
        <time>2024-10-14T10:02:22.320Z</time>
      </trkpt>
      <trkpt lat="47.31923" lon="5.02229">
        <ele>242.2</ele>
        <time>2024-10-14T10:02:27.092Z</time>
      </trkpt>
      <trkpt lat="47.31929" lon="5.0223">
        <ele>241.2</ele>
        <time>2024-10-14T10:02:31.865Z</time>
      </trkpt>
      <trkpt lat="47.31936" lon="5.02232">
        <ele>241</ele>
        <time>2024-10-14T10:02:36.640Z</time>
      </trkpt>
      <trkpt lat="47.31943" lon="5.02233">
        <ele>241</ele>
        <time>2024-10-14T10:02:41.416Z</time>
      </trkpt>
      <trkpt lat="47.3195" lon="5.02235">
        <ele>240.8</ele>
        <time>2024-10-14T10:02:46.193Z</time>
      </trkpt>
      <trkpt lat="47.31957" lon="5.02236">
        <ele>240.8</ele>
        <time>2024-10-14T10:02:50.972Z</time>
      </trkpt>
      <trkpt lat="47.31965" lon="5.02238">
        <ele>241</ele>
        <time>2024-10-14T10:02:55.752Z</time>
      </trkpt>
      <trkpt lat="47.31973" lon="5.0224">
        <ele>240.8</ele>
        <time>2024-10-14T10:03:00.534Z</time>
      </trkpt>
      <trkpt lat="47.31981" lon="5.02241">
        <ele>240.8</ele>
        <time>2024-10-14T10:03:05.317Z</time>
      </trkpt>
      <trkpt lat="47.31989" lon="5.02243">
        <ele>240.6</ele>
        <time>2024-10-14T10:03:10.101Z</time>
      </trkpt>
      <trkpt lat="47.31997" lon="5.02245">
        <ele>240.4</ele>
        <time>2024-10-14T10:03:14.887Z</time>
      </trkpt>
      <trkpt lat="47.32004" lon="5.02246">
        <ele>240.2</ele>
        <time>2024-10-14T10:03:19.674Z</time>
      </trkpt>
      <trkpt lat="47.32012" lon="5.02248">
        <ele>240.2</ele>
        <time>2024-10-14T10:03:24.463Z</time>
      </trkpt>
      <trkpt lat="47.3202" lon="5.0225">
        <ele>240.2</ele>
        <time>2024-10-14T10:03:29.253Z</time>
      </trkpt>
      <trkpt lat="47.32026" lon="5.02251">
        <ele>240.2</ele>
        <time>2024-10-14T10:03:34.044Z</time>
      </trkpt>
      <trkpt lat="47.32033" lon="5.02252">
        <ele>240.2</ele>
        <time>2024-10-14T10:03:38.837Z</time>
      </trkpt>
      <trkpt lat="47.32039" lon="5.02254">
        <ele>240.4</ele>
        <time>2024-10-14T10:03:43.631Z</time>
      </trkpt>
      <trkpt lat="47.32045" lon="5.02255">
        <ele>240.8</ele>
        <time>2024-10-14T10:03:48.426Z</time>
      </trkpt>
      <trkpt lat="47.32051" lon="5.02243">
        <ele>241.2</ele>
        <time>2024-10-14T10:03:53.223Z</time>
      </trkpt>
      <trkpt lat="47.32054" lon="5.02235">
        <ele>242.2</ele>
        <time>2024-10-14T10:03:58.021Z</time>
      </trkpt>
      <trkpt lat="47.32056" lon="5.02227">
        <ele>242.2</ele>
        <time>2024-10-14T10:04:02.820Z</time>
      </trkpt>
      <trkpt lat="47.32059" lon="5.02218">
        <ele>242.4</ele>
        <time>2024-10-14T10:04:07.620Z</time>
      </trkpt>
      <trkpt lat="47.32061" lon="5.0221">
        <ele>242.4</ele>
        <time>2024-10-14T10:04:12.421Z</time>
      </trkpt>
      <trkpt lat="47.32064" lon="5.02202">
        <ele>242.2</ele>
        <time>2024-10-14T10:04:17.224Z</time>
      </trkpt>
      <trkpt lat="47.32066" lon="5.02193">
        <ele>242.2</ele>
        <time>2024-10-14T10:04:22.028Z</time>
      </trkpt>
      <trkpt lat="47.32069" lon="5.02184">
        <ele>242.2</ele>
        <time>2024-10-14T10:04:26.833Z</time>
      </trkpt>
      <trkpt lat="47.32071" lon="5.02175">
        <ele>242.2</ele>
        <time>2024-10-14T10:04:31.639Z</time>
      </trkpt>
      <trkpt lat="47.32074" lon="5.02167">
        <ele>242.4</ele>
        <time>2024-10-14T10:04:36.446Z</time>
      </trkpt>
      <trkpt lat="47.32076" lon="5.02158">
        <ele>242.8</ele>
        <time>2024-10-14T10:04:41.254Z</time>
      </trkpt>
      <trkpt lat="47.32078" lon="5.0215">
        <ele>242.8</ele>
        <time>2024-10-14T10:04:46.064Z</time>
      </trkpt>
      <trkpt lat="47.32081" lon="5.02141">
        <ele>242.8</ele>
        <time>2024-10-14T10:04:50.875Z</time>
      </trkpt>
      <trkpt lat="47.32083" lon="5.02132">
        <ele>242.6</ele>
        <time>2024-10-14T10:04:55.687Z</time>
      </trkpt>
      <trkpt lat="47.32086" lon="5.02123">
        <ele>242.6</ele>
        <time>2024-10-14T10:05:00.500Z</time>
      </trkpt>
      <trkpt lat="47.32088" lon="5.02115">
        <ele>242.4</ele>
        <time>2024-10-14T10:05:05.314Z</time>
      </trkpt>
      <trkpt lat="47.3209" lon="5.02106">
        <ele>242.4</ele>
        <time>2024-10-14T10:05:10.129Z</time>
      </trkpt>
      <trkpt lat="47.32092" lon="5.02099">
        <ele>242.2</ele>
        <time>2024-10-14T10:05:14.945Z</time>
      </trkpt>
      <trkpt lat="47.32094" lon="5.02091">
        <ele>242.2</ele>
        <time>2024-10-14T10:05:19.762Z</time>
      </trkpt>
      <trkpt lat="47.32096" lon="5.02084">
        <ele>242.2</ele>
        <time>2024-10-14T10:05:24.580Z</time>
      </trkpt>
      <trkpt lat="47.32103" lon="5.02082">
        <ele>242.2</ele>
        <time>2024-10-14T10:05:29.400Z</time>
      </trkpt>
      <trkpt lat="47.32108" lon="5.02082">
        <ele>242.4</ele>
        <time>2024-10-14T10:05:34.221Z</time>
      </trkpt>
      <trkpt lat="47.32113" lon="5.02083">
        <ele>242.4</ele>
        <time>2024-10-14T10:05:39.043Z</time>
      </trkpt>
      <trkpt lat="47.32119" lon="5.02083">
        <ele>242.4</ele>
        <time>2024-10-14T10:05:43.866Z</time>
      </trkpt>
      <trkpt lat="47.32125" lon="5.02084">
        <ele>242</ele>
        <time>2024-10-14T10:05:48.690Z</time>
      </trkpt>
      <trkpt lat="47.32131" lon="5.02084">
        <ele>241.8</ele>
        <time>2024-10-14T10:05:53.515Z</time>
      </trkpt>
      <trkpt lat="47.32137" lon="5.02085">
        <ele>241.4</ele>
        <time>2024-10-14T10:05:58.341Z</time>
      </trkpt>
      <trkpt lat="47.32143" lon="5.02085">
        <ele>241.2</ele>
        <time>2024-10-14T10:06:03.168Z</time>
      </trkpt>
      <trkpt lat="47.32148" lon="5.02085">
        <ele>241</ele>
        <time>2024-10-14T10:06:07.996Z</time>
      </trkpt>
      <trkpt lat="47.32154" lon="5.02086">
        <ele>241</ele>
        <time>2024-10-14T10:06:12.825Z</time>
      </trkpt>
      <trkpt lat="47.3216" lon="5.02086">
        <ele>241</ele>
        <time>2024-10-14T10:06:17.655Z</time>
      </trkpt>
      <trkpt lat="47.32166" lon="5.02087">
        <ele>241</ele>
        <time>2024-10-14T10:06:22.486Z</time>
      </trkpt>
      <trkpt lat="47.32172" lon="5.02087">
        <ele>241.4</ele>
        <time>2024-10-14T10:06:27.318Z</time>
      </trkpt>
      <trkpt lat="47.32178" lon="5.02087">
        <ele>241.8</ele>
        <time>2024-10-14T10:06:32.152Z</time>
      </trkpt>
      <trkpt lat="47.32183" lon="5.02088">
        <ele>242</ele>
        <time>2024-10-14T10:06:36.987Z</time>
      </trkpt>
      <trkpt lat="47.32189" lon="5.02088">
        <ele>242.4</ele>
        <time>2024-10-14T10:06:41.823Z</time>
      </trkpt>
      <trkpt lat="47.32195" lon="5.02089">
        <ele>242.6</ele>
        <time>2024-10-14T10:06:46.660Z</time>
      </trkpt>
      <trkpt lat="47.32199" lon="5.02089">
        <ele>242.6</ele>
        <time>2024-10-14T10:06:51.498Z</time>
      </trkpt>
      <trkpt lat="47.32205" lon="5.02089">
        <ele>242.8</ele>
        <time>2024-10-14T10:06:56.337Z</time>
      </trkpt>
      <trkpt lat="47.3221" lon="5.0209">
        <ele>242.8</ele>
        <time>2024-10-14T10:07:01.177Z</time>
      </trkpt>
      <trkpt lat="47.32215" lon="5.0209">
        <ele>243</ele>
        <time>2024-10-14T10:07:06.017Z</time>
      </trkpt>
      <trkpt lat="47.32221" lon="5.0209">
        <ele>243.2</ele>
        <time>2024-10-14T10:07:10.858Z</time>
      </trkpt>
      <trkpt lat="47.32225" lon="5.0209">
        <ele>243.4</ele>
        <time>2024-10-14T10:07:15.700Z</time>
      </trkpt>
      <trkpt lat="47.32229" lon="5.02098">
        <ele>244</ele>
        <time>2024-10-14T10:07:20.543Z</time>
      </trkpt>
      <trkpt lat="47.3223" lon="5.02104">
        <ele>244.2</ele>
        <time>2024-10-14T10:07:25.387Z</time>
      </trkpt>
      <trkpt lat="47.32231" lon="5.02111">
        <ele>244.4</ele>
        <time>2024-10-14T10:07:30.232Z</time>
      </trkpt>
      <trkpt lat="47.32232" lon="5.02117">
        <ele>244.6</ele>
        <time>2024-10-14T10:07:35.078Z</time>
      </trkpt>
      <trkpt lat="47.32233" lon="5.02124">
        <ele>244.6</ele>
        <time>2024-10-14T10:07:39.925Z</time>
      </trkpt>
      <trkpt lat="47.32234" lon="5.0213">
        <ele>244.6</ele>
        <time>2024-10-14T10:07:44.773Z</time>
      </trkpt>
    </trkseg>
  </trk>
</gpx>